<?xml version="1.0" encoding="UTF-8" standalone="no" ?>
<gpx xmlns="http://www.topografix.com/GPX/1/1" xmlns:xsi="http://www.w3.org/2001/XMLSchema-instance" xsi:schemaLocation="http://www.topografix.com/GPX/1/1 http://www.topografix.com/GPX/1/1/gpx.xsd" version="1.1" creator="VisuGPX - https://www.visugpx.com">
  <metadata>
    <name>Puy de Dômes Avril 2019</name>
  </metadata>
  <trk>
    <name><![CDATA[Puy de Domes 27 avr. 2019 ]]></name>
    <trkseg>
      <trkpt lat="45.76411" lon="2.95619">
        <ele>1075.9645448337</ele>
        <time>2019-04-27T07:08:56Z</time>
      </trkpt>
      <trkpt lat="45.76418" lon="2.9564">
        <ele>1071.4683512107</ele>
        <time>2019-04-27T07:09:05Z</time>
      </trkpt>
      <trkpt lat="45.76426" lon="2.95623">
        <ele>1071.2168302204</ele>
        <time>2019-04-27T07:09:15Z</time>
      </trkpt>
      <trkpt lat="45.76428" lon="2.95621">
        <ele>1070.9042704302</ele>
        <time>2019-04-27T07:09:24Z</time>
      </trkpt>
      <trkpt lat="45.7643" lon="2.95621">
        <ele>1070.6464762687</ele>
        <time>2019-04-27T07:09:33Z</time>
      </trkpt>
      <trkpt lat="45.7644" lon="2.95605">
        <ele>1070.6993878673</ele>
        <time>2019-04-27T07:09:42Z</time>
      </trkpt>
      <trkpt lat="45.76444" lon="2.95591">
        <ele>1071.1111710944</ele>
        <time>2019-04-27T07:09:51Z</time>
      </trkpt>
      <trkpt lat="45.76446" lon="2.95577">
        <ele>1071.6835040992</ele>
        <time>2019-04-27T07:10:00Z</time>
      </trkpt>
      <trkpt lat="45.7645" lon="2.95564">
        <ele>1072.2919440355</ele>
        <time>2019-04-27T07:10:09Z</time>
      </trkpt>
      <trkpt lat="45.76458" lon="2.95564">
        <ele>1072.8522950683</ele>
        <time>2019-04-27T07:10:18Z</time>
      </trkpt>
      <trkpt lat="45.76468" lon="2.95569">
        <ele>1073.6002429043</ele>
        <time>2019-04-27T07:10:27Z</time>
      </trkpt>
      <trkpt lat="45.76475" lon="2.95579">
        <ele>1074.3905392524</ele>
        <time>2019-04-27T07:10:37Z</time>
      </trkpt>
      <trkpt lat="45.76486" lon="2.95588">
        <ele>1075.1029815697</ele>
        <time>2019-04-27T07:10:46Z</time>
      </trkpt>
      <trkpt lat="45.76489" lon="2.95592">
        <ele>1075.7476535304</ele>
        <time>2019-04-27T07:10:55Z</time>
      </trkpt>
      <trkpt lat="45.7649" lon="2.95592">
        <ele>1076.1399475183</ele>
        <time>2019-04-27T07:11:22Z</time>
      </trkpt>
      <trkpt lat="45.76491" lon="2.956">
        <ele>1076.8954024425</ele>
        <time>2019-04-27T07:11:31Z</time>
      </trkpt>
      <trkpt lat="45.76492" lon="2.95614">
        <ele>1077.6354689811</ele>
        <time>2019-04-27T07:11:41Z</time>
      </trkpt>
      <trkpt lat="45.76492" lon="2.95622">
        <ele>1078.1286358424</ele>
        <time>2019-04-27T07:11:51Z</time>
      </trkpt>
      <trkpt lat="45.76497" lon="2.95632">
        <ele>1078.6731564265</ele>
        <time>2019-04-27T07:12:00Z</time>
      </trkpt>
      <trkpt lat="45.76502" lon="2.95641">
        <ele>1078.9986952221</ele>
        <time>2019-04-27T07:12:09Z</time>
      </trkpt>
      <trkpt lat="45.765" lon="2.95642">
        <ele>1079.1658011476</ele>
        <time>2019-04-27T07:12:17Z</time>
      </trkpt>
      <trkpt lat="45.76504" lon="2.95647">
        <ele>1079.557211899</ele>
        <time>2019-04-27T07:12:27Z</time>
      </trkpt>
      <trkpt lat="45.7651" lon="2.95658">
        <ele>1079.9093697551</ele>
        <time>2019-04-27T07:12:36Z</time>
      </trkpt>
      <trkpt lat="45.76514" lon="2.95671">
        <ele>1080.2145140609</ele>
        <time>2019-04-27T07:12:45Z</time>
      </trkpt>
      <trkpt lat="45.76515" lon="2.95682">
        <ele>1080.4957086859</ele>
        <time>2019-04-27T07:12:54Z</time>
      </trkpt>
      <trkpt lat="45.76516" lon="2.95695">
        <ele>1080.7769275732</ele>
        <time>2019-04-27T07:13:03Z</time>
      </trkpt>
      <trkpt lat="45.76511" lon="2.95706">
        <ele>1080.9697526346</ele>
        <time>2019-04-27T07:13:11Z</time>
      </trkpt>
      <trkpt lat="45.76507" lon="2.95722">
        <ele>1081.2842629936</ele>
        <time>2019-04-27T07:13:21Z</time>
      </trkpt>
      <trkpt lat="45.76505" lon="2.95729">
        <ele>1081.5172884897</ele>
        <time>2019-04-27T07:13:29Z</time>
      </trkpt>
      <trkpt lat="45.76505" lon="2.95743">
        <ele>1081.8051400744</ele>
        <time>2019-04-27T07:13:38Z</time>
      </trkpt>
      <trkpt lat="45.76509" lon="2.95757">
        <ele>1082.0987931404</ele>
        <time>2019-04-27T07:13:48Z</time>
      </trkpt>
      <trkpt lat="45.76512" lon="2.95763">
        <ele>1082.3666056537</ele>
        <time>2019-04-27T07:13:57Z</time>
      </trkpt>
      <trkpt lat="45.76515" lon="2.95768">
        <ele>1082.6026084369</ele>
        <time>2019-04-27T07:14:06Z</time>
      </trkpt>
      <trkpt lat="45.76521" lon="2.95779">
        <ele>1082.8565152431</ele>
        <time>2019-04-27T07:14:15Z</time>
      </trkpt>
      <trkpt lat="45.76522" lon="2.95782">
        <ele>1083.0935176141</ele>
        <time>2019-04-27T07:14:24Z</time>
      </trkpt>
      <trkpt lat="45.76528" lon="2.95787">
        <ele>1083.3000451641</ele>
        <time>2019-04-27T07:14:34Z</time>
      </trkpt>
      <trkpt lat="45.76536" lon="2.95789">
        <ele>1083.3158350925</ele>
        <time>2019-04-27T07:14:43Z</time>
      </trkpt>
      <trkpt lat="45.76544" lon="2.95791">
        <ele>1083.2587476321</ele>
        <time>2019-04-27T07:14:53Z</time>
      </trkpt>
      <trkpt lat="45.76555" lon="2.95789">
        <ele>1083.0997153727</ele>
        <time>2019-04-27T07:15:03Z</time>
      </trkpt>
      <trkpt lat="45.76564" lon="2.95795">
        <ele>1083.0305308184</ele>
        <time>2019-04-27T07:15:13Z</time>
      </trkpt>
      <trkpt lat="45.76567" lon="2.95799">
        <ele>1083.0507591102</ele>
        <time>2019-04-27T07:15:21Z</time>
      </trkpt>
      <trkpt lat="45.76571" lon="2.95805">
        <ele>1083.3339362252</ele>
        <time>2019-04-27T07:15:31Z</time>
      </trkpt>
      <trkpt lat="45.76573" lon="2.95815">
        <ele>1083.5860094159</ele>
        <time>2019-04-27T07:15:40Z</time>
      </trkpt>
      <trkpt lat="45.76577" lon="2.95823">
        <ele>1083.7835232578</ele>
        <time>2019-04-27T07:15:48Z</time>
      </trkpt>
      <trkpt lat="45.76592" lon="2.95825">
        <ele>1083.9296721196</ele>
        <time>2019-04-27T07:15:58Z</time>
      </trkpt>
      <trkpt lat="45.76615" lon="2.95827">
        <ele>1083.9449358135</ele>
        <time>2019-04-27T07:16:07Z</time>
      </trkpt>
      <trkpt lat="45.76619" lon="2.95836">
        <ele>1084.2977829362</ele>
        <time>2019-04-27T07:16:16Z</time>
      </trkpt>
      <trkpt lat="45.76621" lon="2.95848">
        <ele>1085.0937350096</ele>
        <time>2019-04-27T07:16:25Z</time>
      </trkpt>
      <trkpt lat="45.7662" lon="2.95856">
        <ele>1086.1623431788</ele>
        <time>2019-04-27T07:16:34Z</time>
      </trkpt>
      <trkpt lat="45.7662" lon="2.95858">
        <ele>1086.7559362152</ele>
        <time>2019-04-27T07:16:43Z</time>
      </trkpt>
      <trkpt lat="45.76625" lon="2.95856">
        <ele>1088.0926237619</ele>
        <time>2019-04-27T07:16:53Z</time>
      </trkpt>
      <trkpt lat="45.7663" lon="2.95854">
        <ele>1089.0550603269</ele>
        <time>2019-04-27T07:17:01Z</time>
      </trkpt>
      <trkpt lat="45.76634" lon="2.95851">
        <ele>1090.3910556921</ele>
        <time>2019-04-27T07:17:10Z</time>
      </trkpt>
      <trkpt lat="45.76639" lon="2.95847">
        <ele>1092.0713345257</ele>
        <time>2019-04-27T07:17:20Z</time>
      </trkpt>
      <trkpt lat="45.76646" lon="2.95835">
        <ele>1093.2836333668</ele>
        <time>2019-04-27T07:17:28Z</time>
      </trkpt>
      <trkpt lat="45.76649" lon="2.95816">
        <ele>1094.782221707</ele>
        <time>2019-04-27T07:17:38Z</time>
      </trkpt>
      <trkpt lat="45.76647" lon="2.958">
        <ele>1096.0137546779</ele>
        <time>2019-04-27T07:17:47Z</time>
      </trkpt>
      <trkpt lat="45.76641" lon="2.9578">
        <ele>1097.9511819289</ele>
        <time>2019-04-27T07:17:57Z</time>
      </trkpt>
      <trkpt lat="45.76638" lon="2.9576">
        <ele>1100.054507513</ele>
        <time>2019-04-27T07:18:05Z</time>
      </trkpt>
      <trkpt lat="45.76645" lon="2.95753">
        <ele>1102.5431781513</ele>
        <time>2019-04-27T07:18:15Z</time>
      </trkpt>
      <trkpt lat="45.76655" lon="2.95754">
        <ele>1104.6241418326</ele>
        <time>2019-04-27T07:18:24Z</time>
      </trkpt>
      <trkpt lat="45.76661" lon="2.95751">
        <ele>1107.0096315905</ele>
        <time>2019-04-27T07:18:34Z</time>
      </trkpt>
      <trkpt lat="45.76666" lon="2.95751">
        <ele>1108.8080004288</ele>
        <time>2019-04-27T07:18:44Z</time>
      </trkpt>
      <trkpt lat="45.76667" lon="2.95753">
        <ele>1110.0844505583</ele>
        <time>2019-04-27T07:18:52Z</time>
      </trkpt>
      <trkpt lat="45.76671" lon="2.95755">
        <ele>1111.6219455055</ele>
        <time>2019-04-27T07:19:01Z</time>
      </trkpt>
      <trkpt lat="45.7668" lon="2.95757">
        <ele>1113.0303080212</ele>
        <time>2019-04-27T07:19:10Z</time>
      </trkpt>
      <trkpt lat="45.7669" lon="2.95763">
        <ele>1114.5321516189</ele>
        <time>2019-04-27T07:19:19Z</time>
      </trkpt>
      <trkpt lat="45.76695" lon="2.95766">
        <ele>1115.9699347742</ele>
        <time>2019-04-27T07:19:29Z</time>
      </trkpt>
      <trkpt lat="45.76698" lon="2.95772">
        <ele>1117.2131886203</ele>
        <time>2019-04-27T07:19:38Z</time>
      </trkpt>
      <trkpt lat="45.76701" lon="2.95779">
        <ele>1118.3555505857</ele>
        <time>2019-04-27T07:19:46Z</time>
      </trkpt>
      <trkpt lat="45.76704" lon="2.9579">
        <ele>1119.5244345365</ele>
        <time>2019-04-27T07:19:55Z</time>
      </trkpt>
      <trkpt lat="45.76703" lon="2.95801">
        <ele>1120.5817361964</ele>
        <time>2019-04-27T07:20:03Z</time>
      </trkpt>
      <trkpt lat="45.76704" lon="2.95804">
        <ele>1120.9973202896</ele>
        <time>2019-04-27T07:20:12Z</time>
      </trkpt>
      <trkpt lat="45.76705" lon="2.95803">
        <ele>1121.6670152574</ele>
        <time>2019-04-27T07:20:21Z</time>
      </trkpt>
      <trkpt lat="45.76707" lon="2.958">
        <ele>1122.1773300675</ele>
        <time>2019-04-27T07:20:30Z</time>
      </trkpt>
      <trkpt lat="45.76707" lon="2.95801">
        <ele>1123.7757538549</ele>
        <time>2019-04-27T07:20:58Z</time>
      </trkpt>
      <trkpt lat="45.76707" lon="2.95802">
        <ele>1124.1963345886</ele>
        <time>2019-04-27T07:21:07Z</time>
      </trkpt>
      <trkpt lat="45.76708" lon="2.95803">
        <ele>1125.3009941051</ele>
        <time>2019-04-27T07:21:17Z</time>
      </trkpt>
      <trkpt lat="45.7671" lon="2.95809">
        <ele>1127.0769023685</ele>
        <time>2019-04-27T07:21:26Z</time>
      </trkpt>
      <trkpt lat="45.76714" lon="2.95815">
        <ele>1128.6741592002</ele>
        <time>2019-04-27T07:21:35Z</time>
      </trkpt>
      <trkpt lat="45.76723" lon="2.95822">
        <ele>1130.2350412292</ele>
        <time>2019-04-27T07:21:45Z</time>
      </trkpt>
      <trkpt lat="45.76734" lon="2.95828">
        <ele>1131.7104976673</ele>
        <time>2019-04-27T07:21:55Z</time>
      </trkpt>
      <trkpt lat="45.76744" lon="2.9583">
        <ele>1132.9659833682</ele>
        <time>2019-04-27T07:22:05Z</time>
      </trkpt>
      <trkpt lat="45.76751" lon="2.95823">
        <ele>1133.8553685044</ele>
        <time>2019-04-27T07:22:14Z</time>
      </trkpt>
      <trkpt lat="45.76758" lon="2.9582">
        <ele>1134.697496909</ele>
        <time>2019-04-27T07:22:24Z</time>
      </trkpt>
      <trkpt lat="45.76763" lon="2.95815">
        <ele>1135.3059072402</ele>
        <time>2019-04-27T07:22:32Z</time>
      </trkpt>
      <trkpt lat="45.76768" lon="2.95806">
        <ele>1136.0473522353</ele>
        <time>2019-04-27T07:22:41Z</time>
      </trkpt>
      <trkpt lat="45.76771" lon="2.9581">
        <ele>1136.9213512594</ele>
        <time>2019-04-27T07:22:51Z</time>
      </trkpt>
      <trkpt lat="45.76769" lon="2.95821">
        <ele>1137.8774861824</ele>
        <time>2019-04-27T07:23:00Z</time>
      </trkpt>
      <trkpt lat="45.76766" lon="2.95827">
        <ele>1138.6737595664</ele>
        <time>2019-04-27T07:23:09Z</time>
      </trkpt>
      <trkpt lat="45.76766" lon="2.95827">
        <ele>1138.8807404211</ele>
        <time>2019-04-27T07:23:18Z</time>
      </trkpt>
      <trkpt lat="45.76765" lon="2.95832">
        <ele>1139.8452387092</ele>
        <time>2019-04-27T07:23:27Z</time>
      </trkpt>
      <trkpt lat="45.76763" lon="2.95837">
        <ele>1140.5518548076</ele>
        <time>2019-04-27T07:23:36Z</time>
      </trkpt>
      <trkpt lat="45.76764" lon="2.95837">
        <ele>1141.0184918363</ele>
        <time>2019-04-27T07:23:50Z</time>
      </trkpt>
      <trkpt lat="45.76763" lon="2.95846">
        <ele>1141.8040155657</ele>
        <time>2019-04-27T07:23:59Z</time>
      </trkpt>
      <trkpt lat="45.76762" lon="2.95855">
        <ele>1142.7364036757</ele>
        <time>2019-04-27T07:24:08Z</time>
      </trkpt>
      <trkpt lat="45.76765" lon="2.95865">
        <ele>1143.8752170501</ele>
        <time>2019-04-27T07:24:17Z</time>
      </trkpt>
      <trkpt lat="45.76765" lon="2.9588">
        <ele>1145.0207813701</ele>
        <time>2019-04-27T07:24:25Z</time>
      </trkpt>
      <trkpt lat="45.76753" lon="2.95902">
        <ele>1146.4568865623</ele>
        <time>2019-04-27T07:24:35Z</time>
      </trkpt>
      <trkpt lat="45.76741" lon="2.95913">
        <ele>1147.928767706</ele>
        <time>2019-04-27T07:24:44Z</time>
      </trkpt>
      <trkpt lat="45.76734" lon="2.95926">
        <ele>1149.4721017227</ele>
        <time>2019-04-27T07:24:53Z</time>
      </trkpt>
      <trkpt lat="45.76732" lon="2.95935">
        <ele>1151.2880145619</ele>
        <time>2019-04-27T07:25:02Z</time>
      </trkpt>
      <trkpt lat="45.76728" lon="2.95954">
        <ele>1153.0595055789</ele>
        <time>2019-04-27T07:25:12Z</time>
      </trkpt>
      <trkpt lat="45.76729" lon="2.95953">
        <ele>1153.8318524677</ele>
        <time>2019-04-27T07:25:20Z</time>
      </trkpt>
      <trkpt lat="45.7673" lon="2.95953">
        <ele>1154.6706698463</ele>
        <time>2019-04-27T07:25:31Z</time>
      </trkpt>
      <trkpt lat="45.7673" lon="2.95964">
        <ele>1156.7187026956</ele>
        <time>2019-04-27T07:25:40Z</time>
      </trkpt>
      <trkpt lat="45.76731" lon="2.95972">
        <ele>1158.2401831428</ele>
        <time>2019-04-27T07:25:50Z</time>
      </trkpt>
      <trkpt lat="45.76731" lon="2.95977">
        <ele>1159.5614638304</ele>
        <time>2019-04-27T07:26:00Z</time>
      </trkpt>
      <trkpt lat="45.76731" lon="2.95978">
        <ele>1160.5136157376</ele>
        <time>2019-04-27T07:26:17Z</time>
      </trkpt>
      <trkpt lat="45.76734" lon="2.95986">
        <ele>1163.1716652943</ele>
        <time>2019-04-27T07:26:27Z</time>
      </trkpt>
      <trkpt lat="45.76735" lon="2.95991">
        <ele>1164.4801810835</ele>
        <time>2019-04-27T07:26:36Z</time>
      </trkpt>
      <trkpt lat="45.76735" lon="2.95992">
        <ele>1165.7052379151</ele>
        <time>2019-04-27T07:27:05Z</time>
      </trkpt>
      <trkpt lat="45.76734" lon="2.96002">
        <ele>1168.2032729092</ele>
        <time>2019-04-27T07:27:15Z</time>
      </trkpt>
      <trkpt lat="45.76732" lon="2.96005">
        <ele>1169.6351328499</ele>
        <time>2019-04-27T07:27:24Z</time>
      </trkpt>
      <trkpt lat="45.76731" lon="2.96007">
        <ele>1170.8926401851</ele>
        <time>2019-04-27T07:27:34Z</time>
      </trkpt>
      <trkpt lat="45.76731" lon="2.96017">
        <ele>1172.6820331167</ele>
        <time>2019-04-27T07:27:43Z</time>
      </trkpt>
      <trkpt lat="45.76728" lon="2.96026">
        <ele>1174.5508384643</ele>
        <time>2019-04-27T07:27:52Z</time>
      </trkpt>
      <trkpt lat="45.76724" lon="2.96035">
        <ele>1176.4106643401</ele>
        <time>2019-04-27T07:28:01Z</time>
      </trkpt>
      <trkpt lat="45.76724" lon="2.96038">
        <ele>1177.5288948216</ele>
        <time>2019-04-27T07:28:10Z</time>
      </trkpt>
      <trkpt lat="45.76724" lon="2.96039">
        <ele>1179.0916223858</ele>
        <time>2019-04-27T07:28:23Z</time>
      </trkpt>
      <trkpt lat="45.76724" lon="2.96046">
        <ele>1180.5551386148</ele>
        <time>2019-04-27T07:28:32Z</time>
      </trkpt>
      <trkpt lat="45.76724" lon="2.96047">
        <ele>1181.1155590171</ele>
        <time>2019-04-27T07:28:41Z</time>
      </trkpt>
      <trkpt lat="45.76725" lon="2.96046">
        <ele>1182.1151333732</ele>
        <time>2019-04-27T07:28:51Z</time>
      </trkpt>
      <trkpt lat="45.76728" lon="2.96046">
        <ele>1183.5639207023</ele>
        <time>2019-04-27T07:29:00Z</time>
      </trkpt>
      <trkpt lat="45.76731" lon="2.96046">
        <ele>1184.9479343133</ele>
        <time>2019-04-27T07:29:09Z</time>
      </trkpt>
      <trkpt lat="45.76733" lon="2.96044">
        <ele>1185.4181742895</ele>
        <time>2019-04-27T07:29:17Z</time>
      </trkpt>
      <trkpt lat="45.76734" lon="2.96044">
        <ele>1185.9538859424</ele>
        <time>2019-04-27T07:29:27Z</time>
      </trkpt>
      <trkpt lat="45.76736" lon="2.96041">
        <ele>1187.5502473333</ele>
        <time>2019-04-27T07:29:36Z</time>
      </trkpt>
      <trkpt lat="45.76741" lon="2.96036">
        <ele>1188.9701078634</ele>
        <time>2019-04-27T07:29:45Z</time>
      </trkpt>
      <trkpt lat="45.76746" lon="2.9603">
        <ele>1190.2268009694</ele>
        <time>2019-04-27T07:29:54Z</time>
      </trkpt>
      <trkpt lat="45.76753" lon="2.96022">
        <ele>1191.4619955329</ele>
        <time>2019-04-27T07:30:04Z</time>
      </trkpt>
      <trkpt lat="45.76759" lon="2.96014">
        <ele>1192.4874142674</ele>
        <time>2019-04-27T07:30:13Z</time>
      </trkpt>
      <trkpt lat="45.76763" lon="2.96002">
        <ele>1193.559172103</ele>
        <time>2019-04-27T07:30:23Z</time>
      </trkpt>
      <trkpt lat="45.76773" lon="2.95988">
        <ele>1194.4465400876</ele>
        <time>2019-04-27T07:30:33Z</time>
      </trkpt>
      <trkpt lat="45.76781" lon="2.95973">
        <ele>1194.9968580091</ele>
        <time>2019-04-27T07:30:42Z</time>
      </trkpt>
      <trkpt lat="45.7679" lon="2.95975">
        <ele>1195.0554830497</ele>
        <time>2019-04-27T07:30:51Z</time>
      </trkpt>
      <trkpt lat="45.76793" lon="2.95992">
        <ele>1194.9217867934</ele>
        <time>2019-04-27T07:31:00Z</time>
      </trkpt>
      <trkpt lat="45.76793" lon="2.96007">
        <ele>1194.5415487191</ele>
        <time>2019-04-27T07:31:08Z</time>
      </trkpt>
      <trkpt lat="45.76792" lon="2.96014">
        <ele>1194.3254222039</ele>
        <time>2019-04-27T07:31:18Z</time>
      </trkpt>
      <trkpt lat="45.76791" lon="2.96015">
        <ele>1194.3684954818</ele>
        <time>2019-04-27T07:31:27Z</time>
      </trkpt>
      <trkpt lat="45.76789" lon="2.96014">
        <ele>1194.7363621981</ele>
        <time>2019-04-27T07:31:36Z</time>
      </trkpt>
      <trkpt lat="45.76784" lon="2.96012">
        <ele>1195.5658244589</ele>
        <time>2019-04-27T07:31:45Z</time>
      </trkpt>
      <trkpt lat="45.76783" lon="2.96012">
        <ele>1196.4084128808</ele>
        <time>2019-04-27T07:31:54Z</time>
      </trkpt>
      <trkpt lat="45.76786" lon="2.96018">
        <ele>1198.3697606226</ele>
        <time>2019-04-27T07:32:02Z</time>
      </trkpt>
      <trkpt lat="45.76789" lon="2.96026">
        <ele>1200.4265209309</ele>
        <time>2019-04-27T07:32:10Z</time>
      </trkpt>
      <trkpt lat="45.76787" lon="2.96036">
        <ele>1202.8094189045</ele>
        <time>2019-04-27T07:32:19Z</time>
      </trkpt>
      <trkpt lat="45.7678" lon="2.96055">
        <ele>1205.3222752052</ele>
        <time>2019-04-27T07:32:28Z</time>
      </trkpt>
      <trkpt lat="45.76775" lon="2.96062">
        <ele>1207.055310064</ele>
        <time>2019-04-27T07:32:37Z</time>
      </trkpt>
      <trkpt lat="45.76774" lon="2.96062">
        <ele>1208.3726100783</ele>
        <time>2019-04-27T07:32:46Z</time>
      </trkpt>
      <trkpt lat="45.76771" lon="2.96062">
        <ele>1209.7716440843</ele>
        <time>2019-04-27T07:32:55Z</time>
      </trkpt>
      <trkpt lat="45.76772" lon="2.96064">
        <ele>1212.1727980465</ele>
        <time>2019-04-27T07:33:03Z</time>
      </trkpt>
      <trkpt lat="45.76775" lon="2.96064">
        <ele>1213.5093499972</ele>
        <time>2019-04-27T07:33:13Z</time>
      </trkpt>
      <trkpt lat="45.76775" lon="2.96064">
        <ele>1215.3230394695</ele>
        <time>2019-04-27T07:33:51Z</time>
      </trkpt>
      <trkpt lat="45.76776" lon="2.96063">
        <ele>1216.011803342</ele>
        <time>2019-04-27T07:34:00Z</time>
      </trkpt>
      <trkpt lat="45.76776" lon="2.96064">
        <ele>1219.1782303024</ele>
        <time>2019-04-27T07:34:32Z</time>
      </trkpt>
      <trkpt lat="45.76772" lon="2.96063">
        <ele>1222.1360629255</ele>
        <time>2019-04-27T07:34:41Z</time>
      </trkpt>
      <trkpt lat="45.76769" lon="2.96064">
        <ele>1222.9732756771</ele>
        <time>2019-04-27T07:34:50Z</time>
      </trkpt>
      <trkpt lat="45.76768" lon="2.96064">
        <ele>1223.282081126</ele>
        <time>2019-04-27T07:35:00Z</time>
      </trkpt>
      <trkpt lat="45.76768" lon="2.96063">
        <ele>1223.677810882</ele>
        <time>2019-04-27T07:35:13Z</time>
      </trkpt>
      <trkpt lat="45.76767" lon="2.96063">
        <ele>1225.7055007874</ele>
        <time>2019-04-27T07:35:43Z</time>
      </trkpt>
      <trkpt lat="45.76767" lon="2.96061">
        <ele>1227.9970800181</ele>
        <time>2019-04-27T07:35:53Z</time>
      </trkpt>
      <trkpt lat="45.76767" lon="2.96063">
        <ele>1229.7740404009</ele>
        <time>2019-04-27T07:36:02Z</time>
      </trkpt>
      <trkpt lat="45.76769" lon="2.96062">
        <ele>1231.4993858127</ele>
        <time>2019-04-27T07:36:11Z</time>
      </trkpt>
      <trkpt lat="45.76779" lon="2.96058">
        <ele>1233.2491397038</ele>
        <time>2019-04-27T07:36:20Z</time>
      </trkpt>
      <trkpt lat="45.76784" lon="2.96046">
        <ele>1234.6870751691</ele>
        <time>2019-04-27T07:36:29Z</time>
      </trkpt>
      <trkpt lat="45.76789" lon="2.96031">
        <ele>1236.0215021843</ele>
        <time>2019-04-27T07:36:39Z</time>
      </trkpt>
      <trkpt lat="45.76797" lon="2.96022">
        <ele>1237.14737685</ele>
        <time>2019-04-27T07:36:49Z</time>
      </trkpt>
      <trkpt lat="45.76806" lon="2.96013">
        <ele>1238.009506015</ele>
        <time>2019-04-27T07:36:58Z</time>
      </trkpt>
      <trkpt lat="45.76813" lon="2.96002">
        <ele>1238.6708825614</ele>
        <time>2019-04-27T07:37:06Z</time>
      </trkpt>
      <trkpt lat="45.76823" lon="2.95988">
        <ele>1239.3905704988</ele>
        <time>2019-04-27T07:37:16Z</time>
      </trkpt>
      <trkpt lat="45.76833" lon="2.95981">
        <ele>1239.9114998867</ele>
        <time>2019-04-27T07:37:25Z</time>
      </trkpt>
      <trkpt lat="45.76841" lon="2.95979">
        <ele>1240.3983361516</ele>
        <time>2019-04-27T07:37:34Z</time>
      </trkpt>
      <trkpt lat="45.76848" lon="2.95974">
        <ele>1240.8115501928</ele>
        <time>2019-04-27T07:37:44Z</time>
      </trkpt>
      <trkpt lat="45.76852" lon="2.95968">
        <ele>1241.1158384506</ele>
        <time>2019-04-27T07:37:53Z</time>
      </trkpt>
      <trkpt lat="45.76859" lon="2.95962">
        <ele>1241.4806141229</ele>
        <time>2019-04-27T07:38:02Z</time>
      </trkpt>
      <trkpt lat="45.76866" lon="2.95955">
        <ele>1242.0237690884</ele>
        <time>2019-04-27T07:38:12Z</time>
      </trkpt>
      <trkpt lat="45.76874" lon="2.95954">
        <ele>1242.7228176735</ele>
        <time>2019-04-27T07:38:22Z</time>
      </trkpt>
      <trkpt lat="45.76879" lon="2.95951">
        <ele>1243.467053324</ele>
        <time>2019-04-27T07:38:32Z</time>
      </trkpt>
      <trkpt lat="45.76884" lon="2.95949">
        <ele>1244.435196647</ele>
        <time>2019-04-27T07:38:41Z</time>
      </trkpt>
      <trkpt lat="45.76891" lon="2.95954">
        <ele>1245.3203202379</ele>
        <time>2019-04-27T07:38:49Z</time>
      </trkpt>
      <trkpt lat="45.76889" lon="2.95961">
        <ele>1246.3573429596</ele>
        <time>2019-04-27T07:38:58Z</time>
      </trkpt>
      <trkpt lat="45.76886" lon="2.95966">
        <ele>1247.2887811788</ele>
        <time>2019-04-27T07:39:07Z</time>
      </trkpt>
      <trkpt lat="45.76882" lon="2.9597">
        <ele>1248.3268240447</ele>
        <time>2019-04-27T07:39:16Z</time>
      </trkpt>
      <trkpt lat="45.76877" lon="2.95974">
        <ele>1249.3511061275</ele>
        <time>2019-04-27T07:39:25Z</time>
      </trkpt>
      <trkpt lat="45.76872" lon="2.95975">
        <ele>1250.373456555</ele>
        <time>2019-04-27T07:39:34Z</time>
      </trkpt>
      <trkpt lat="45.76867" lon="2.95978">
        <ele>1251.5542968421</ele>
        <time>2019-04-27T07:39:43Z</time>
      </trkpt>
      <trkpt lat="45.76863" lon="2.95987">
        <ele>1252.6675383953</ele>
        <time>2019-04-27T07:39:53Z</time>
      </trkpt>
      <trkpt lat="45.7687" lon="2.95991">
        <ele>1253.4156122718</ele>
        <time>2019-04-27T07:40:01Z</time>
      </trkpt>
      <trkpt lat="45.76878" lon="2.9599">
        <ele>1254.2914952305</ele>
        <time>2019-04-27T07:40:11Z</time>
      </trkpt>
      <trkpt lat="45.76886" lon="2.95992">
        <ele>1255.2232252703</ele>
        <time>2019-04-27T07:40:20Z</time>
      </trkpt>
      <trkpt lat="45.76897" lon="2.95993">
        <ele>1256.2653425185</ele>
        <time>2019-04-27T07:40:29Z</time>
      </trkpt>
      <trkpt lat="45.76901" lon="2.95992">
        <ele>1257.5042873701</ele>
        <time>2019-04-27T07:40:38Z</time>
      </trkpt>
      <trkpt lat="45.76904" lon="2.95987">
        <ele>1259.0968922006</ele>
        <time>2019-04-27T07:40:47Z</time>
      </trkpt>
      <trkpt lat="45.76909" lon="2.95982">
        <ele>1260.9176713379</ele>
        <time>2019-04-27T07:40:56Z</time>
      </trkpt>
      <trkpt lat="45.76916" lon="2.95978">
        <ele>1262.9085828505</ele>
        <time>2019-04-27T07:41:05Z</time>
      </trkpt>
      <trkpt lat="45.76922" lon="2.95974">
        <ele>1265.064468553</ele>
        <time>2019-04-27T07:41:14Z</time>
      </trkpt>
      <trkpt lat="45.76926" lon="2.95968">
        <ele>1267.292170466</ele>
        <time>2019-04-27T07:41:23Z</time>
      </trkpt>
      <trkpt lat="45.76931" lon="2.95965">
        <ele>1269.698158643</ele>
        <time>2019-04-27T07:41:33Z</time>
      </trkpt>
      <trkpt lat="45.76936" lon="2.9596">
        <ele>1271.8071643595</ele>
        <time>2019-04-27T07:41:42Z</time>
      </trkpt>
      <trkpt lat="45.7694" lon="2.95954">
        <ele>1273.8881929368</ele>
        <time>2019-04-27T07:41:51Z</time>
      </trkpt>
      <trkpt lat="45.76945" lon="2.95948">
        <ele>1275.6940876605</ele>
        <time>2019-04-27T07:42:00Z</time>
      </trkpt>
      <trkpt lat="45.7695" lon="2.95946">
        <ele>1277.2446946511</ele>
        <time>2019-04-27T07:42:08Z</time>
      </trkpt>
      <trkpt lat="45.76955" lon="2.95949">
        <ele>1279.1613348885</ele>
        <time>2019-04-27T07:42:17Z</time>
      </trkpt>
      <trkpt lat="45.76954" lon="2.95957">
        <ele>1280.9562847414</ele>
        <time>2019-04-27T07:42:26Z</time>
      </trkpt>
      <trkpt lat="45.76952" lon="2.95965">
        <ele>1282.7174361176</ele>
        <time>2019-04-27T07:42:36Z</time>
      </trkpt>
      <trkpt lat="45.7695" lon="2.95975">
        <ele>1284.0846449033</ele>
        <time>2019-04-27T07:42:45Z</time>
      </trkpt>
      <trkpt lat="45.76946" lon="2.95982">
        <ele>1285.1152296334</ele>
        <time>2019-04-27T07:42:55Z</time>
      </trkpt>
      <trkpt lat="45.76943" lon="2.95992">
        <ele>1286.1043237724</ele>
        <time>2019-04-27T07:43:04Z</time>
      </trkpt>
      <trkpt lat="45.76941" lon="2.96">
        <ele>1287.2997116662</ele>
        <time>2019-04-27T07:43:14Z</time>
      </trkpt>
      <trkpt lat="45.76936" lon="2.96004">
        <ele>1288.4344229106</ele>
        <time>2019-04-27T07:43:23Z</time>
      </trkpt>
      <trkpt lat="45.76933" lon="2.96011">
        <ele>1289.3790987064</ele>
        <time>2019-04-27T07:43:32Z</time>
      </trkpt>
      <trkpt lat="45.76929" lon="2.96018">
        <ele>1290.1822826143</ele>
        <time>2019-04-27T07:43:41Z</time>
      </trkpt>
      <trkpt lat="45.76927" lon="2.96019">
        <ele>1290.7535162183</ele>
        <time>2019-04-27T07:43:49Z</time>
      </trkpt>
      <trkpt lat="45.76926" lon="2.9602">
        <ele>1291.2263243715</ele>
        <time>2019-04-27T07:43:59Z</time>
      </trkpt>
      <trkpt lat="45.76926" lon="2.96019">
        <ele>1291.8658837291</ele>
        <time>2019-04-27T07:44:23Z</time>
      </trkpt>
      <trkpt lat="45.76926" lon="2.96016">
        <ele>1292.2702961519</ele>
        <time>2019-04-27T07:44:31Z</time>
      </trkpt>
      <trkpt lat="45.76925" lon="2.96016">
        <ele>1292.4943400821</ele>
        <time>2019-04-27T07:44:45Z</time>
      </trkpt>
      <trkpt lat="45.76925" lon="2.96015">
        <ele>1293.437689993</ele>
        <time>2019-04-27T07:45:03Z</time>
      </trkpt>
      <trkpt lat="45.76925" lon="2.96014">
        <ele>1293.9714303465</ele>
        <time>2019-04-27T07:45:17Z</time>
      </trkpt>
      <trkpt lat="45.76924" lon="2.96013">
        <ele>1294.516122192</ele>
        <time>2019-04-27T07:45:38Z</time>
      </trkpt>
      <trkpt lat="45.76927" lon="2.96011">
        <ele>1295.7878983863</ele>
        <time>2019-04-27T07:45:46Z</time>
      </trkpt>
      <trkpt lat="45.76929" lon="2.9601">
        <ele>1296.8389749682</ele>
        <time>2019-04-27T07:45:56Z</time>
      </trkpt>
      <trkpt lat="45.76932" lon="2.9601">
        <ele>1298.1576108858</ele>
        <time>2019-04-27T07:46:05Z</time>
      </trkpt>
      <trkpt lat="45.76936" lon="2.9601">
        <ele>1299.4292780288</ele>
        <time>2019-04-27T07:46:15Z</time>
      </trkpt>
      <trkpt lat="45.76938" lon="2.96008">
        <ele>1300.1719223165</ele>
        <time>2019-04-27T07:46:23Z</time>
      </trkpt>
      <trkpt lat="45.76943" lon="2.96001">
        <ele>1301.3271193057</ele>
        <time>2019-04-27T07:46:33Z</time>
      </trkpt>
      <trkpt lat="45.76949" lon="2.95998">
        <ele>1302.1827865134</ele>
        <time>2019-04-27T07:46:41Z</time>
      </trkpt>
      <trkpt lat="45.76951" lon="2.96003">
        <ele>1302.9401713155</ele>
        <time>2019-04-27T07:46:50Z</time>
      </trkpt>
      <trkpt lat="45.76952" lon="2.96007">
        <ele>1303.6848651028</ele>
        <time>2019-04-27T07:46:59Z</time>
      </trkpt>
      <trkpt lat="45.7695" lon="2.96012">
        <ele>1304.3731101805</ele>
        <time>2019-04-27T07:47:09Z</time>
      </trkpt>
      <trkpt lat="45.76948" lon="2.96018">
        <ele>1305.006262691</ele>
        <time>2019-04-27T07:47:18Z</time>
      </trkpt>
      <trkpt lat="45.76949" lon="2.96027">
        <ele>1305.503638848</ele>
        <time>2019-04-27T07:47:27Z</time>
      </trkpt>
      <trkpt lat="45.7695" lon="2.96032">
        <ele>1305.9865930528</ele>
        <time>2019-04-27T07:47:35Z</time>
      </trkpt>
      <trkpt lat="45.76951" lon="2.96035">
        <ele>1306.4563157702</ele>
        <time>2019-04-27T07:47:43Z</time>
      </trkpt>
      <trkpt lat="45.76953" lon="2.96036">
        <ele>1306.9715001657</ele>
        <time>2019-04-27T07:47:51Z</time>
      </trkpt>
      <trkpt lat="45.76956" lon="2.96037">
        <ele>1307.6922363415</ele>
        <time>2019-04-27T07:48:01Z</time>
      </trkpt>
      <trkpt lat="45.76959" lon="2.96033">
        <ele>1308.3625373791</ele>
        <time>2019-04-27T07:48:10Z</time>
      </trkpt>
      <trkpt lat="45.76964" lon="2.96031">
        <ele>1309.1443098736</ele>
        <time>2019-04-27T07:48:19Z</time>
      </trkpt>
      <trkpt lat="45.76971" lon="2.96028">
        <ele>1310.1587507618</ele>
        <time>2019-04-27T07:48:29Z</time>
      </trkpt>
      <trkpt lat="45.76975" lon="2.96021">
        <ele>1311.2089044375</ele>
        <time>2019-04-27T07:48:37Z</time>
      </trkpt>
      <trkpt lat="45.76983" lon="2.96013">
        <ele>1312.876881721</ele>
        <time>2019-04-27T07:48:47Z</time>
      </trkpt>
      <trkpt lat="45.76983" lon="2.96012">
        <ele>1315.034915721</ele>
        <time>2019-04-27T07:49:06Z</time>
      </trkpt>
      <trkpt lat="45.76985" lon="2.96011">
        <ele>1315.8717342558</ele>
        <time>2019-04-27T07:49:14Z</time>
      </trkpt>
      <trkpt lat="45.76991" lon="2.96011">
        <ele>1316.720405984</ele>
        <time>2019-04-27T07:49:23Z</time>
      </trkpt>
      <trkpt lat="45.76993" lon="2.96012">
        <ele>1317.5107241283</ele>
        <time>2019-04-27T07:49:31Z</time>
      </trkpt>
      <trkpt lat="45.76993" lon="2.96015">
        <ele>1318.9841353143</ele>
        <time>2019-04-27T07:49:40Z</time>
      </trkpt>
      <trkpt lat="45.76994" lon="2.96014">
        <ele>1319.8854446312</ele>
        <time>2019-04-27T07:49:55Z</time>
      </trkpt>
      <trkpt lat="45.76996" lon="2.96017">
        <ele>1321.2529204467</ele>
        <time>2019-04-27T07:50:03Z</time>
      </trkpt>
      <trkpt lat="45.76998" lon="2.9602">
        <ele>1322.6153425065</ele>
        <time>2019-04-27T07:50:12Z</time>
      </trkpt>
      <trkpt lat="45.76998" lon="2.96024">
        <ele>1323.981959766</ele>
        <time>2019-04-27T07:50:22Z</time>
      </trkpt>
      <trkpt lat="45.76997" lon="2.96029">
        <ele>1325.1230608337</ele>
        <time>2019-04-27T07:50:31Z</time>
      </trkpt>
      <trkpt lat="45.76994" lon="2.96035">
        <ele>1326.2527694646</ele>
        <time>2019-04-27T07:50:41Z</time>
      </trkpt>
      <trkpt lat="45.76986" lon="2.96045">
        <ele>1327.2314623211</ele>
        <time>2019-04-27T07:50:50Z</time>
      </trkpt>
      <trkpt lat="45.76976" lon="2.96052">
        <ele>1327.9948555799</ele>
        <time>2019-04-27T07:51:00Z</time>
      </trkpt>
      <trkpt lat="45.76975" lon="2.96056">
        <ele>1329.0534304553</ele>
        <time>2019-04-27T07:51:09Z</time>
      </trkpt>
      <trkpt lat="45.76974" lon="2.96064">
        <ele>1330.0892826269</ele>
        <time>2019-04-27T07:51:18Z</time>
      </trkpt>
      <trkpt lat="45.76968" lon="2.96063">
        <ele>1331.5640191842</ele>
        <time>2019-04-27T07:51:28Z</time>
      </trkpt>
      <trkpt lat="45.76949" lon="2.96066">
        <ele>1333.292865587</ele>
        <time>2019-04-27T07:51:37Z</time>
      </trkpt>
      <trkpt lat="45.7694" lon="2.96069">
        <ele>1334.8867945116</ele>
        <time>2019-04-27T07:51:45Z</time>
      </trkpt>
      <trkpt lat="45.76934" lon="2.9608">
        <ele>1336.6971721111</ele>
        <time>2019-04-27T07:51:54Z</time>
      </trkpt>
      <trkpt lat="45.76928" lon="2.96093">
        <ele>1337.6549877189</ele>
        <time>2019-04-27T07:52:04Z</time>
      </trkpt>
      <trkpt lat="45.76928" lon="2.96093">
        <ele>1337.8655802351</ele>
        <time>2019-04-27T07:52:12Z</time>
      </trkpt>
      <trkpt lat="45.76926" lon="2.96101">
        <ele>1340.1582061674</ele>
        <time>2019-04-27T07:52:21Z</time>
      </trkpt>
      <trkpt lat="45.76922" lon="2.96102">
        <ele>1341.2809542372</ele>
        <time>2019-04-27T07:52:31Z</time>
      </trkpt>
      <trkpt lat="45.76921" lon="2.96103">
        <ele>1342.0786279712</ele>
        <time>2019-04-27T07:52:43Z</time>
      </trkpt>
      <trkpt lat="45.76921" lon="2.96103">
        <ele>1342.6863584649</ele>
        <time>2019-04-27T07:52:53Z</time>
      </trkpt>
      <trkpt lat="45.7692" lon="2.96105">
        <ele>1346.0977250639</ele>
        <time>2019-04-27T07:53:11Z</time>
      </trkpt>
      <trkpt lat="45.76921" lon="2.96104">
        <ele>1348.0405717392</ele>
        <time>2019-04-27T07:53:37Z</time>
      </trkpt>
      <trkpt lat="45.76921" lon="2.96105">
        <ele>1352.2988764443</ele>
        <time>2019-04-27T07:54:27Z</time>
      </trkpt>
      <trkpt lat="45.7692" lon="2.96105">
        <ele>1353.8345634516</ele>
        <time>2019-04-27T07:54:37Z</time>
      </trkpt>
      <trkpt lat="45.7692" lon="2.96107">
        <ele>1355.4461618197</ele>
        <time>2019-04-27T07:54:47Z</time>
      </trkpt>
      <trkpt lat="45.76922" lon="2.96107">
        <ele>1357.2375214207</ele>
        <time>2019-04-27T07:54:56Z</time>
      </trkpt>
      <trkpt lat="45.76922" lon="2.96108">
        <ele>1357.9751087468</ele>
        <time>2019-04-27T07:55:14Z</time>
      </trkpt>
      <trkpt lat="45.76924" lon="2.96109">
        <ele>1358.6903198585</ele>
        <time>2019-04-27T07:55:23Z</time>
      </trkpt>
      <trkpt lat="45.76928" lon="2.96111">
        <ele>1360.3100475541</ele>
        <time>2019-04-27T07:55:32Z</time>
      </trkpt>
      <trkpt lat="45.76933" lon="2.96118">
        <ele>1361.672239183</ele>
        <time>2019-04-27T07:55:41Z</time>
      </trkpt>
      <trkpt lat="45.76939" lon="2.96125">
        <ele>1362.7232944754</ele>
        <time>2019-04-27T07:55:51Z</time>
      </trkpt>
      <trkpt lat="45.76946" lon="2.96123">
        <ele>1363.6136944116</ele>
        <time>2019-04-27T07:55:59Z</time>
      </trkpt>
      <trkpt lat="45.76951" lon="2.9612">
        <ele>1364.4907931794</ele>
        <time>2019-04-27T07:56:08Z</time>
      </trkpt>
      <trkpt lat="45.76959" lon="2.96118">
        <ele>1365.3175045644</ele>
        <time>2019-04-27T07:56:18Z</time>
      </trkpt>
      <trkpt lat="45.76967" lon="2.96111">
        <ele>1366.0161061072</ele>
        <time>2019-04-27T07:56:28Z</time>
      </trkpt>
      <trkpt lat="45.76974" lon="2.96108">
        <ele>1366.4974028559</ele>
        <time>2019-04-27T07:56:36Z</time>
      </trkpt>
      <trkpt lat="45.7698" lon="2.96103">
        <ele>1366.9200683971</ele>
        <time>2019-04-27T07:56:44Z</time>
      </trkpt>
      <trkpt lat="45.76984" lon="2.96095">
        <ele>1367.3135775972</ele>
        <time>2019-04-27T07:56:52Z</time>
      </trkpt>
      <trkpt lat="45.76989" lon="2.96086">
        <ele>1367.7279364792</ele>
        <time>2019-04-27T07:57:01Z</time>
      </trkpt>
      <trkpt lat="45.76996" lon="2.96083">
        <ele>1368.1200891106</ele>
        <time>2019-04-27T07:57:10Z</time>
      </trkpt>
      <trkpt lat="45.76998" lon="2.96083">
        <ele>1368.4238114658</ele>
        <time>2019-04-27T07:57:19Z</time>
      </trkpt>
      <trkpt lat="45.77001" lon="2.96083">
        <ele>1368.7734990081</ele>
        <time>2019-04-27T07:57:28Z</time>
      </trkpt>
      <trkpt lat="45.77003" lon="2.96079">
        <ele>1369.0944600915</ele>
        <time>2019-04-27T07:57:37Z</time>
      </trkpt>
      <trkpt lat="45.77005" lon="2.96083">
        <ele>1369.3704408346</ele>
        <time>2019-04-27T07:57:47Z</time>
      </trkpt>
      <trkpt lat="45.77006" lon="2.96086">
        <ele>1369.5402640688</ele>
        <time>2019-04-27T07:57:57Z</time>
      </trkpt>
      <trkpt lat="45.77011" lon="2.96096">
        <ele>1369.8029723763</ele>
        <time>2019-04-27T07:58:06Z</time>
      </trkpt>
      <trkpt lat="45.77013" lon="2.96104">
        <ele>1370.0188200176</ele>
        <time>2019-04-27T07:58:14Z</time>
      </trkpt>
      <trkpt lat="45.77015" lon="2.96115">
        <ele>1370.2413152142</ele>
        <time>2019-04-27T07:58:23Z</time>
      </trkpt>
      <trkpt lat="45.77017" lon="2.96127">
        <ele>1370.4418307041</ele>
        <time>2019-04-27T07:58:32Z</time>
      </trkpt>
      <trkpt lat="45.7702" lon="2.96136">
        <ele>1370.6131761506</ele>
        <time>2019-04-27T07:58:40Z</time>
      </trkpt>
      <trkpt lat="45.77024" lon="2.96142">
        <ele>1370.8078831921</ele>
        <time>2019-04-27T07:58:49Z</time>
      </trkpt>
      <trkpt lat="45.77029" lon="2.96148">
        <ele>1370.9918350651</ele>
        <time>2019-04-27T07:58:58Z</time>
      </trkpt>
      <trkpt lat="45.77035" lon="2.96157">
        <ele>1371.1933978341</ele>
        <time>2019-04-27T07:59:08Z</time>
      </trkpt>
      <trkpt lat="45.77041" lon="2.96165">
        <ele>1371.3780077413</ele>
        <time>2019-04-27T07:59:17Z</time>
      </trkpt>
      <trkpt lat="45.77049" lon="2.96175">
        <ele>1371.5950307906</ele>
        <time>2019-04-27T07:59:27Z</time>
      </trkpt>
      <trkpt lat="45.77053" lon="2.96179">
        <ele>1371.804125006</ele>
        <time>2019-04-27T07:59:36Z</time>
      </trkpt>
      <trkpt lat="45.77058" lon="2.96184">
        <ele>1372.0157892472</ele>
        <time>2019-04-27T07:59:45Z</time>
      </trkpt>
      <trkpt lat="45.77062" lon="2.96191">
        <ele>1372.2587830152</ele>
        <time>2019-04-27T07:59:54Z</time>
      </trkpt>
      <trkpt lat="45.77064" lon="2.96198">
        <ele>1372.506002725</ele>
        <time>2019-04-27T08:00:03Z</time>
      </trkpt>
      <trkpt lat="45.77065" lon="2.96202">
        <ele>1372.7289049707</ele>
        <time>2019-04-27T08:00:11Z</time>
      </trkpt>
      <trkpt lat="45.77071" lon="2.96208">
        <ele>1373.0378458073</ele>
        <time>2019-04-27T08:00:21Z</time>
      </trkpt>
      <trkpt lat="45.77078" lon="2.96223">
        <ele>1373.331235831</ele>
        <time>2019-04-27T08:00:31Z</time>
      </trkpt>
      <trkpt lat="45.7708" lon="2.96234">
        <ele>1373.6081902301</ele>
        <time>2019-04-27T08:00:40Z</time>
      </trkpt>
      <trkpt lat="45.77074" lon="2.96239">
        <ele>1374.0919948792</ele>
        <time>2019-04-27T08:00:49Z</time>
      </trkpt>
      <trkpt lat="45.7707" lon="2.96248">
        <ele>1374.7620456019</ele>
        <time>2019-04-27T08:00:58Z</time>
      </trkpt>
      <trkpt lat="45.77065" lon="2.96255">
        <ele>1375.4251820033</ele>
        <time>2019-04-27T08:01:06Z</time>
      </trkpt>
      <trkpt lat="45.77063" lon="2.96258">
        <ele>1377.0618675044</ele>
        <time>2019-04-27T08:01:16Z</time>
      </trkpt>
      <trkpt lat="45.77055" lon="2.96258">
        <ele>1377.6439222324</ele>
        <time>2019-04-27T08:01:25Z</time>
      </trkpt>
      <trkpt lat="45.77056" lon="2.96262">
        <ele>1377.9525660875</ele>
        <time>2019-04-27T08:01:33Z</time>
      </trkpt>
      <trkpt lat="45.77055" lon="2.96262">
        <ele>1416.5</ele>
        <time>2019-04-27T08:01:53Z</time>
      </trkpt>
      <trkpt lat="45.77055" lon="2.96264">
        <ele>1416.5</ele>
        <time>2019-04-27T08:02:03Z</time>
      </trkpt>
      <trkpt lat="45.77042" lon="2.96257">
        <ele>1382.269419966</ele>
        <time>2019-04-27T08:02:12Z</time>
      </trkpt>
      <trkpt lat="45.7704" lon="2.96244">
        <ele>1382.9057794323</ele>
        <time>2019-04-27T08:02:21Z</time>
      </trkpt>
      <trkpt lat="45.77045" lon="2.96235">
        <ele>1384.1598482306</ele>
        <time>2019-04-27T08:02:30Z</time>
      </trkpt>
      <trkpt lat="45.77074" lon="2.96238">
        <ele>1385.9987697388</ele>
        <time>2019-04-27T08:02:38Z</time>
      </trkpt>
      <trkpt lat="45.77087" lon="2.96229">
        <ele>1388.8888292922</ele>
        <time>2019-04-27T08:02:48Z</time>
      </trkpt>
      <trkpt lat="45.77088" lon="2.96224">
        <ele>1390.4057727774</ele>
        <time>2019-04-27T08:02:57Z</time>
      </trkpt>
      <trkpt lat="45.77087" lon="2.9622">
        <ele>1392.7970946241</ele>
        <time>2019-04-27T08:03:07Z</time>
      </trkpt>
      <trkpt lat="45.77087" lon="2.96231">
        <ele>1395.1638014358</ele>
        <time>2019-04-27T08:03:16Z</time>
      </trkpt>
      <trkpt lat="45.77086" lon="2.96248">
        <ele>1397.5182597201</ele>
        <time>2019-04-27T08:03:25Z</time>
      </trkpt>
      <trkpt lat="45.77083" lon="2.96259">
        <ele>1399.7206877208</ele>
        <time>2019-04-27T08:03:34Z</time>
      </trkpt>
      <trkpt lat="45.77079" lon="2.96271">
        <ele>1401.8655455419</ele>
        <time>2019-04-27T08:03:44Z</time>
      </trkpt>
      <trkpt lat="45.77075" lon="2.96276">
        <ele>1403.3459551915</ele>
        <time>2019-04-27T08:03:53Z</time>
      </trkpt>
      <trkpt lat="45.77073" lon="2.96277">
        <ele>1405.102318642</ele>
        <time>2019-04-27T08:04:03Z</time>
      </trkpt>
      <trkpt lat="45.77071" lon="2.96278">
        <ele>1406.1695068161</ele>
        <time>2019-04-27T08:04:11Z</time>
      </trkpt>
      <trkpt lat="45.7707" lon="2.96279">
        <ele>1407.1557691079</ele>
        <time>2019-04-27T08:04:21Z</time>
      </trkpt>
      <trkpt lat="45.77069" lon="2.96279">
        <ele>1408.6235817777</ele>
        <time>2019-04-27T08:04:34Z</time>
      </trkpt>
      <trkpt lat="45.77067" lon="2.96279">
        <ele>1409.3801549613</ele>
        <time>2019-04-27T08:04:41Z</time>
      </trkpt>
      <trkpt lat="45.7706" lon="2.9629">
        <ele>1416.3</ele>
        <time>2019-04-27T08:04:57Z</time>
      </trkpt>
      <trkpt lat="45.77071" lon="2.96282">
        <ele>1414.3263320578</ele>
        <time>2019-04-27T08:05:07Z</time>
      </trkpt>
      <trkpt lat="45.77074" lon="2.96272">
        <ele>1414.3372595524</ele>
        <time>2019-04-27T08:05:17Z</time>
      </trkpt>
      <trkpt lat="45.77074" lon="2.96271">
        <ele>1414.3498262836</ele>
        <time>2019-04-27T08:05:27Z</time>
      </trkpt>
      <trkpt lat="45.77072" lon="2.96269">
        <ele>1414.4654152916</ele>
        <time>2019-04-27T08:05:37Z</time>
      </trkpt>
      <trkpt lat="45.77071" lon="2.96268">
        <ele>1414.4692169023</ele>
        <time>2019-04-27T08:05:38Z</time>
      </trkpt>
      <trkpt lat="45.77072" lon="2.96267">
        <ele>1414.6326507318</ele>
        <time>2019-04-27T08:05:50Z</time>
      </trkpt>
      <trkpt lat="45.77079" lon="2.96272">
        <ele>1414.6853001556</ele>
        <time>2019-04-27T08:06:00Z</time>
      </trkpt>
      <trkpt lat="45.77081" lon="2.96274">
        <ele>1414.7052661761</ele>
        <time>2019-04-27T08:06:10Z</time>
      </trkpt>
      <trkpt lat="45.7708" lon="2.96274">
        <ele>1414.7598634127</ele>
        <time>2019-04-27T08:06:18Z</time>
      </trkpt>
      <trkpt lat="45.77081" lon="2.96272">
        <ele>1415.0688011855</ele>
        <time>2019-04-27T08:06:28Z</time>
      </trkpt>
      <trkpt lat="45.77083" lon="2.96271">
        <ele>1415.2748887947</ele>
        <time>2019-04-27T08:06:37Z</time>
      </trkpt>
      <trkpt lat="45.77082" lon="2.96273">
        <ele>1415.3578780663</ele>
        <time>2019-04-27T08:06:46Z</time>
      </trkpt>
      <trkpt lat="45.77082" lon="2.96274">
        <ele>1415.7040727914</ele>
        <time>2019-04-27T08:06:57Z</time>
      </trkpt>
      <trkpt lat="45.7708" lon="2.96278">
        <ele>1416.0594150662</ele>
        <time>2019-04-27T08:07:07Z</time>
      </trkpt>
      <trkpt lat="45.77072" lon="2.96278">
        <ele>1416.4642119894</ele>
        <time>2019-04-27T08:07:16Z</time>
      </trkpt>
      <trkpt lat="45.77068" lon="2.9627">
        <ele>1416.8281875226</ele>
        <time>2019-04-27T08:07:26Z</time>
      </trkpt>
      <trkpt lat="45.77068" lon="2.96268">
        <ele>1417.0234973295</ele>
        <time>2019-04-27T08:07:34Z</time>
      </trkpt>
      <trkpt lat="45.77068" lon="2.96267">
        <ele>1417.1742857746</ele>
        <time>2019-04-27T08:08:00Z</time>
      </trkpt>
      <trkpt lat="45.77069" lon="2.96266">
        <ele>1417.3704557308</ele>
        <time>2019-04-27T08:08:12Z</time>
      </trkpt>
      <trkpt lat="45.77069" lon="2.96266">
        <ele>1417.5025548299</ele>
        <time>2019-04-27T08:08:20Z</time>
      </trkpt>
      <trkpt lat="45.77071" lon="2.96266">
        <ele>1417.884388132</ele>
        <time>2019-04-27T08:08:29Z</time>
      </trkpt>
      <trkpt lat="45.77072" lon="2.96266">
        <ele>1415.7</ele>
        <time>2019-04-27T08:08:41Z</time>
      </trkpt>
      <trkpt lat="45.7707" lon="2.96267">
        <ele>1415.8</ele>
        <time>2019-04-27T08:08:51Z</time>
      </trkpt>
      <trkpt lat="45.77068" lon="2.96269">
        <ele>1415.9</ele>
        <time>2019-04-27T08:09:01Z</time>
      </trkpt>
      <trkpt lat="45.7706" lon="2.9628">
        <ele>1416.6</ele>
        <time>2019-04-27T08:09:11Z</time>
      </trkpt>
      <trkpt lat="45.77058" lon="2.96282">
        <ele>1416.7</ele>
        <time>2019-04-27T08:09:21Z</time>
      </trkpt>
      <trkpt lat="45.77056" lon="2.96282">
        <ele>1416.8</ele>
        <time>2019-04-27T08:09:31Z</time>
      </trkpt>
      <trkpt lat="45.77057" lon="2.96289">
        <ele>1416.5</ele>
        <time>2019-04-27T08:09:42Z</time>
      </trkpt>
      <trkpt lat="45.77056" lon="2.9629">
        <ele>1416.5</ele>
        <time>2019-04-27T08:09:52Z</time>
      </trkpt>
      <trkpt lat="45.77059" lon="2.96289">
        <ele>1416.4</ele>
        <time>2019-04-27T08:10:02Z</time>
      </trkpt>
      <trkpt lat="45.77061" lon="2.96287">
        <ele>1416.4</ele>
        <time>2019-04-27T08:10:12Z</time>
      </trkpt>
      <trkpt lat="45.7708" lon="2.96258">
        <ele>1418.1461650086</ele>
        <time>2019-04-27T08:10:22Z</time>
      </trkpt>
      <trkpt lat="45.77075" lon="2.96256">
        <ele>1418.1466038432</ele>
        <time>2019-04-27T08:10:27Z</time>
      </trkpt>
      <trkpt lat="45.77077" lon="2.96259">
        <ele>1418.1519483169</ele>
        <time>2019-04-27T08:10:37Z</time>
      </trkpt>
      <trkpt lat="45.7707" lon="2.9627">
        <ele>1418.1930446876</ele>
        <time>2019-04-27T08:10:46Z</time>
      </trkpt>
      <trkpt lat="45.7707" lon="2.9627">
        <ele>1418.3870319347</ele>
        <time>2019-04-27T08:11:02Z</time>
      </trkpt>
      <trkpt lat="45.77071" lon="2.96265">
        <ele>1418.5363426005</ele>
        <time>2019-04-27T08:11:12Z</time>
      </trkpt>
      <trkpt lat="45.77069" lon="2.96267">
        <ele>1418.6273490702</ele>
        <time>2019-04-27T08:11:22Z</time>
      </trkpt>
      <trkpt lat="45.77069" lon="2.96266">
        <ele>1418.6569206813</ele>
        <time>2019-04-27T08:11:31Z</time>
      </trkpt>
      <trkpt lat="45.77071" lon="2.96269">
        <ele>1418.827914072</ele>
        <time>2019-04-27T08:11:40Z</time>
      </trkpt>
      <trkpt lat="45.77072" lon="2.9627">
        <ele>1419.0712410353</ele>
        <time>2019-04-27T08:11:49Z</time>
      </trkpt>
      <trkpt lat="45.77071" lon="2.96271">
        <ele>1419.3325489897</ele>
        <time>2019-04-27T08:12:16Z</time>
      </trkpt>
      <trkpt lat="45.77071" lon="2.96272">
        <ele>1419.8028097621</ele>
        <time>2019-04-27T08:12:43Z</time>
      </trkpt>
      <trkpt lat="45.77071" lon="2.96273">
        <ele>1420.5209998418</ele>
        <time>2019-04-27T08:13:22Z</time>
      </trkpt>
      <trkpt lat="45.77072" lon="2.96273">
        <ele>1420.9723573132</ele>
        <time>2019-04-27T08:13:44Z</time>
      </trkpt>
      <trkpt lat="45.77074" lon="2.96274">
        <ele>1421.6226399438</ele>
        <time>2019-04-27T08:13:53Z</time>
      </trkpt>
      <trkpt lat="45.77074" lon="2.96275">
        <ele>1422.4024489846</ele>
        <time>2019-04-27T08:14:06Z</time>
      </trkpt>
      <trkpt lat="45.77075" lon="2.96282">
        <ele>1423.2496947735</ele>
        <time>2019-04-27T08:14:15Z</time>
      </trkpt>
      <trkpt lat="45.77074" lon="2.96281">
        <ele>1423.5424784675</ele>
        <time>2019-04-27T08:14:24Z</time>
      </trkpt>
      <trkpt lat="45.77074" lon="2.96281">
        <ele>1423.9480814404</ele>
        <time>2019-04-27T08:14:34Z</time>
      </trkpt>
      <trkpt lat="45.77076" lon="2.96289">
        <ele>1424.7148859149</ele>
        <time>2019-04-27T08:14:42Z</time>
      </trkpt>
      <trkpt lat="45.77078" lon="2.96301">
        <ele>1425.4182922969</ele>
        <time>2019-04-27T08:14:51Z</time>
      </trkpt>
      <trkpt lat="45.77082" lon="2.96311">
        <ele>1425.9403763693</ele>
        <time>2019-04-27T08:14:59Z</time>
      </trkpt>
      <trkpt lat="45.77086" lon="2.9632">
        <ele>1426.3950071751</ele>
        <time>2019-04-27T08:15:07Z</time>
      </trkpt>
      <trkpt lat="45.77089" lon="2.96329">
        <ele>1426.8483615563</ele>
        <time>2019-04-27T08:15:17Z</time>
      </trkpt>
      <trkpt lat="45.77087" lon="2.96337">
        <ele>1427.1739205529</ele>
        <time>2019-04-27T08:15:26Z</time>
      </trkpt>
      <trkpt lat="45.77085" lon="2.96349">
        <ele>1427.4355154399</ele>
        <time>2019-04-27T08:15:36Z</time>
      </trkpt>
      <trkpt lat="45.77083" lon="2.96358">
        <ele>1427.5538091106</ele>
        <time>2019-04-27T08:15:44Z</time>
      </trkpt>
      <trkpt lat="45.77082" lon="2.96369">
        <ele>1427.6275099997</ele>
        <time>2019-04-27T08:15:54Z</time>
      </trkpt>
      <trkpt lat="45.77079" lon="2.9638">
        <ele>1427.6063507469</ele>
        <time>2019-04-27T08:16:02Z</time>
      </trkpt>
      <trkpt lat="45.77078" lon="2.96392">
        <ele>1427.5410778776</ele>
        <time>2019-04-27T08:16:12Z</time>
      </trkpt>
      <trkpt lat="45.77077" lon="2.96404">
        <ele>1427.4145560242</ele>
        <time>2019-04-27T08:16:20Z</time>
      </trkpt>
      <trkpt lat="45.77075" lon="2.96418">
        <ele>1427.196869212</ele>
        <time>2019-04-27T08:16:29Z</time>
      </trkpt>
      <trkpt lat="45.77076" lon="2.96432">
        <ele>1426.899298011</ele>
        <time>2019-04-27T08:16:38Z</time>
      </trkpt>
      <trkpt lat="45.77074" lon="2.96447">
        <ele>1426.5188025888</ele>
        <time>2019-04-27T08:16:48Z</time>
      </trkpt>
      <trkpt lat="45.7707" lon="2.96464">
        <ele>1426.1481773245</ele>
        <time>2019-04-27T08:16:57Z</time>
      </trkpt>
      <trkpt lat="45.77069" lon="2.9648">
        <ele>1425.7364594085</ele>
        <time>2019-04-27T08:17:07Z</time>
      </trkpt>
      <trkpt lat="45.77069" lon="2.96499">
        <ele>1425.3017936113</ele>
        <time>2019-04-27T08:17:17Z</time>
      </trkpt>
      <trkpt lat="45.77071" lon="2.96512">
        <ele>1424.8947074461</ele>
        <time>2019-04-27T08:17:26Z</time>
      </trkpt>
      <trkpt lat="45.77073" lon="2.96524">
        <ele>1424.5377297765</ele>
        <time>2019-04-27T08:17:34Z</time>
      </trkpt>
      <trkpt lat="45.77073" lon="2.96535">
        <ele>1424.1678804438</ele>
        <time>2019-04-27T08:17:42Z</time>
      </trkpt>
      <trkpt lat="45.77076" lon="2.96551">
        <ele>1423.7030324188</ele>
        <time>2019-04-27T08:17:52Z</time>
      </trkpt>
      <trkpt lat="45.77081" lon="2.96565">
        <ele>1423.2746337758</ele>
        <time>2019-04-27T08:18:01Z</time>
      </trkpt>
      <trkpt lat="45.77084" lon="2.96575">
        <ele>1422.8611799943</ele>
        <time>2019-04-27T08:18:10Z</time>
      </trkpt>
      <trkpt lat="45.77089" lon="2.96588">
        <ele>1422.5082124405</ele>
        <time>2019-04-27T08:18:18Z</time>
      </trkpt>
      <trkpt lat="45.77096" lon="2.966">
        <ele>1422.1326014192</ele>
        <time>2019-04-27T08:18:27Z</time>
      </trkpt>
      <trkpt lat="45.77102" lon="2.96612">
        <ele>1421.7853097354</ele>
        <time>2019-04-27T08:18:36Z</time>
      </trkpt>
      <trkpt lat="45.7711" lon="2.96626">
        <ele>1421.4140903563</ele>
        <time>2019-04-27T08:18:46Z</time>
      </trkpt>
      <trkpt lat="45.77117" lon="2.96637">
        <ele>1421.095214246</ele>
        <time>2019-04-27T08:18:55Z</time>
      </trkpt>
      <trkpt lat="45.77125" lon="2.96647">
        <ele>1420.79555327</ele>
        <time>2019-04-27T08:19:04Z</time>
      </trkpt>
      <trkpt lat="45.77132" lon="2.96653">
        <ele>1420.4815614709</ele>
        <time>2019-04-27T08:19:14Z</time>
      </trkpt>
      <trkpt lat="45.7714" lon="2.96659">
        <ele>1420.2356907359</ele>
        <time>2019-04-27T08:19:22Z</time>
      </trkpt>
      <trkpt lat="45.77153" lon="2.9667">
        <ele>1419.9285596938</ele>
        <time>2019-04-27T08:19:32Z</time>
      </trkpt>
      <trkpt lat="45.77155" lon="2.96672">
        <ele>1419.5951553296</ele>
        <time>2019-04-27T08:19:41Z</time>
      </trkpt>
      <trkpt lat="45.77161" lon="2.96677">
        <ele>1419.3128821536</ele>
        <time>2019-04-27T08:19:49Z</time>
      </trkpt>
      <trkpt lat="45.7717" lon="2.96682">
        <ele>1419.0460115178</ele>
        <time>2019-04-27T08:19:57Z</time>
      </trkpt>
      <trkpt lat="45.77178" lon="2.96685">
        <ele>1418.78749524</ele>
        <time>2019-04-27T08:20:05Z</time>
      </trkpt>
      <trkpt lat="45.77193" lon="2.96691">
        <ele>1418.4803428813</ele>
        <time>2019-04-27T08:20:14Z</time>
      </trkpt>
      <trkpt lat="45.77204" lon="2.96694">
        <ele>1418.1165638802</ele>
        <time>2019-04-27T08:20:23Z</time>
      </trkpt>
      <trkpt lat="45.77216" lon="2.96695">
        <ele>1417.7018814735</ele>
        <time>2019-04-27T08:20:32Z</time>
      </trkpt>
      <trkpt lat="45.7723" lon="2.96698">
        <ele>1417.2328280523</ele>
        <time>2019-04-27T08:20:42Z</time>
      </trkpt>
      <trkpt lat="45.77239" lon="2.96699">
        <ele>1416.8059141835</ele>
        <time>2019-04-27T08:20:51Z</time>
      </trkpt>
      <trkpt lat="45.77252" lon="2.96698">
        <ele>1416.2796549568</ele>
        <time>2019-04-27T08:21:01Z</time>
      </trkpt>
      <trkpt lat="45.77266" lon="2.96692">
        <ele>1415.6990009871</ele>
        <time>2019-04-27T08:21:11Z</time>
      </trkpt>
      <trkpt lat="45.7728" lon="2.96685">
        <ele>1414.9083163676</ele>
        <time>2019-04-27T08:21:20Z</time>
      </trkpt>
      <trkpt lat="45.77289" lon="2.96677">
        <ele>1413.8256911891</ele>
        <time>2019-04-27T08:21:30Z</time>
      </trkpt>
      <trkpt lat="45.773" lon="2.96668">
        <ele>1412.8580053565</ele>
        <time>2019-04-27T08:21:39Z</time>
      </trkpt>
      <trkpt lat="45.7731" lon="2.96659">
        <ele>1411.7277373586</ele>
        <time>2019-04-27T08:21:49Z</time>
      </trkpt>
      <trkpt lat="45.77319" lon="2.96651">
        <ele>1410.5509481206</ele>
        <time>2019-04-27T08:21:59Z</time>
      </trkpt>
      <trkpt lat="45.77328" lon="2.96645">
        <ele>1409.5350607084</ele>
        <time>2019-04-27T08:22:07Z</time>
      </trkpt>
      <trkpt lat="45.77337" lon="2.96641">
        <ele>1408.0694648013</ele>
        <time>2019-04-27T08:22:17Z</time>
      </trkpt>
      <trkpt lat="45.77342" lon="2.96641">
        <ele>1406.7351355143</ele>
        <time>2019-04-27T08:22:26Z</time>
      </trkpt>
      <trkpt lat="45.77354" lon="2.9664">
        <ele>1405.3347350624</ele>
        <time>2019-04-27T08:22:35Z</time>
      </trkpt>
      <trkpt lat="45.77363" lon="2.96636">
        <ele>1404.0105746184</ele>
        <time>2019-04-27T08:22:43Z</time>
      </trkpt>
      <trkpt lat="45.77372" lon="2.96633">
        <ele>1402.4211415446</ele>
        <time>2019-04-27T08:22:52Z</time>
      </trkpt>
      <trkpt lat="45.77373" lon="2.96633">
        <ele>1401.888147163</ele>
        <time>2019-04-27T08:23:01Z</time>
      </trkpt>
      <trkpt lat="45.77373" lon="2.96635">
        <ele>1401.4795044975</ele>
        <time>2019-04-27T08:23:10Z</time>
      </trkpt>
      <trkpt lat="45.77373" lon="2.96636">
        <ele>1400.3737109241</ele>
        <time>2019-04-27T08:23:43Z</time>
      </trkpt>
      <trkpt lat="45.77373" lon="2.96637">
        <ele>1398.615111322</ele>
        <time>2019-04-27T08:24:12Z</time>
      </trkpt>
      <trkpt lat="45.77372" lon="2.96638">
        <ele>1395.6310505823</ele>
        <time>2019-04-27T08:24:48Z</time>
      </trkpt>
      <trkpt lat="45.77372" lon="2.96639">
        <ele>1394.8449101111</ele>
        <time>2019-04-27T08:24:56Z</time>
      </trkpt>
      <trkpt lat="45.77371" lon="2.9664">
        <ele>1393.2894956575</ele>
        <time>2019-04-27T08:25:11Z</time>
      </trkpt>
      <trkpt lat="45.77371" lon="2.96642">
        <ele>1389.3270623766</ele>
        <time>2019-04-27T08:25:21Z</time>
      </trkpt>
      <trkpt lat="45.77371" lon="2.96643">
        <ele>1387.8930349508</ele>
        <time>2019-04-27T08:25:31Z</time>
      </trkpt>
      <trkpt lat="45.77371" lon="2.96642">
        <ele>1384.1003812764</ele>
        <time>2019-04-27T08:25:45Z</time>
      </trkpt>
      <trkpt lat="45.7737" lon="2.96642">
        <ele>1382.2816348602</ele>
        <time>2019-04-27T08:25:55Z</time>
      </trkpt>
      <trkpt lat="45.77369" lon="2.96644">
        <ele>1380.8947961958</ele>
        <time>2019-04-27T08:26:04Z</time>
      </trkpt>
      <trkpt lat="45.77367" lon="2.96643">
        <ele>1380.4551865076</ele>
        <time>2019-04-27T08:26:13Z</time>
      </trkpt>
      <trkpt lat="45.77367" lon="2.96644">
        <ele>1380.180618273</ele>
        <time>2019-04-27T08:26:24Z</time>
      </trkpt>
      <trkpt lat="45.77367" lon="2.96644">
        <ele>1378.6586977437</ele>
        <time>2019-04-27T08:26:41Z</time>
      </trkpt>
      <trkpt lat="45.77367" lon="2.96646">
        <ele>1378.243401276</ele>
        <time>2019-04-27T08:26:50Z</time>
      </trkpt>
      <trkpt lat="45.77367" lon="2.96651">
        <ele>1376.152682517</ele>
        <time>2019-04-27T08:27:00Z</time>
      </trkpt>
      <trkpt lat="45.77366" lon="2.9665">
        <ele>1374.6051456358</ele>
        <time>2019-04-27T08:27:13Z</time>
      </trkpt>
      <trkpt lat="45.77367" lon="2.96649">
        <ele>1373.9891305846</ele>
        <time>2019-04-27T08:27:22Z</time>
      </trkpt>
      <trkpt lat="45.77372" lon="2.96645">
        <ele>1372.8447377962</ele>
        <time>2019-04-27T08:27:31Z</time>
      </trkpt>
      <trkpt lat="45.77374" lon="2.96641">
        <ele>1371.420280151</ele>
        <time>2019-04-27T08:27:41Z</time>
      </trkpt>
      <trkpt lat="45.77374" lon="2.96639">
        <ele>1370.4090413559</ele>
        <time>2019-04-27T08:27:49Z</time>
      </trkpt>
      <trkpt lat="45.77376" lon="2.96636">
        <ele>1369.3701909895</ele>
        <time>2019-04-27T08:27:58Z</time>
      </trkpt>
      <trkpt lat="45.7738" lon="2.96631">
        <ele>1368.3794612915</ele>
        <time>2019-04-27T08:28:08Z</time>
      </trkpt>
      <trkpt lat="45.77385" lon="2.96628">
        <ele>1367.4700463636</ele>
        <time>2019-04-27T08:28:17Z</time>
      </trkpt>
      <trkpt lat="45.77393" lon="2.96623">
        <ele>1366.5690697033</ele>
        <time>2019-04-27T08:28:26Z</time>
      </trkpt>
      <trkpt lat="45.774" lon="2.96619">
        <ele>1365.6437318303</ele>
        <time>2019-04-27T08:28:35Z</time>
      </trkpt>
      <trkpt lat="45.77408" lon="2.96616">
        <ele>1364.7166686046</ele>
        <time>2019-04-27T08:28:44Z</time>
      </trkpt>
      <trkpt lat="45.77411" lon="2.96614">
        <ele>1363.9235239481</ele>
        <time>2019-04-27T08:28:53Z</time>
      </trkpt>
      <trkpt lat="45.77415" lon="2.96613">
        <ele>1363.1203228841</ele>
        <time>2019-04-27T08:29:02Z</time>
      </trkpt>
      <trkpt lat="45.77419" lon="2.96609">
        <ele>1362.3897493838</ele>
        <time>2019-04-27T08:29:11Z</time>
      </trkpt>
      <trkpt lat="45.77425" lon="2.96609">
        <ele>1361.7169739701</ele>
        <time>2019-04-27T08:29:20Z</time>
      </trkpt>
      <trkpt lat="45.77431" lon="2.96607">
        <ele>1361.1059884379</ele>
        <time>2019-04-27T08:29:29Z</time>
      </trkpt>
      <trkpt lat="45.77435" lon="2.96605">
        <ele>1360.4871932728</ele>
        <time>2019-04-27T08:29:39Z</time>
      </trkpt>
      <trkpt lat="45.7744" lon="2.96603">
        <ele>1359.9764973386</ele>
        <time>2019-04-27T08:29:48Z</time>
      </trkpt>
      <trkpt lat="45.77444" lon="2.96602">
        <ele>1359.4947874968</ele>
        <time>2019-04-27T08:29:57Z</time>
      </trkpt>
      <trkpt lat="45.77446" lon="2.96601">
        <ele>1359.144279704</ele>
        <time>2019-04-27T08:30:06Z</time>
      </trkpt>
      <trkpt lat="45.77451" lon="2.96599">
        <ele>1358.664426615</ele>
        <time>2019-04-27T08:30:15Z</time>
      </trkpt>
      <trkpt lat="45.77456" lon="2.96597">
        <ele>1358.2595053636</ele>
        <time>2019-04-27T08:30:24Z</time>
      </trkpt>
      <trkpt lat="45.7746" lon="2.96594">
        <ele>1357.8474727596</ele>
        <time>2019-04-27T08:30:32Z</time>
      </trkpt>
      <trkpt lat="45.77465" lon="2.96588">
        <ele>1357.3607282508</ele>
        <time>2019-04-27T08:30:41Z</time>
      </trkpt>
      <trkpt lat="45.77473" lon="2.96572">
        <ele>1356.3420696331</ele>
        <time>2019-04-27T08:30:51Z</time>
      </trkpt>
      <trkpt lat="45.77477" lon="2.96564">
        <ele>1355.1501905164</ele>
        <time>2019-04-27T08:31:00Z</time>
      </trkpt>
      <trkpt lat="45.77482" lon="2.9656">
        <ele>1354.0434160452</ele>
        <time>2019-04-27T08:31:08Z</time>
      </trkpt>
      <trkpt lat="45.77487" lon="2.96553">
        <ele>1352.7992453443</ele>
        <time>2019-04-27T08:31:17Z</time>
      </trkpt>
      <trkpt lat="45.77492" lon="2.96547">
        <ele>1351.3941667694</ele>
        <time>2019-04-27T08:31:27Z</time>
      </trkpt>
      <trkpt lat="45.77495" lon="2.96542">
        <ele>1350.1099168035</ele>
        <time>2019-04-27T08:31:36Z</time>
      </trkpt>
      <trkpt lat="45.77498" lon="2.9654">
        <ele>1348.7222334346</ele>
        <time>2019-04-27T08:31:46Z</time>
      </trkpt>
      <trkpt lat="45.77501" lon="2.96538">
        <ele>1347.9515482733</ele>
        <time>2019-04-27T08:31:54Z</time>
      </trkpt>
      <trkpt lat="45.77504" lon="2.96532">
        <ele>1347.1272606384</ele>
        <time>2019-04-27T08:32:03Z</time>
      </trkpt>
      <trkpt lat="45.77507" lon="2.96523">
        <ele>1345.998530348</ele>
        <time>2019-04-27T08:32:13Z</time>
      </trkpt>
      <trkpt lat="45.77511" lon="2.96513">
        <ele>1345.0332492319</ele>
        <time>2019-04-27T08:32:22Z</time>
      </trkpt>
      <trkpt lat="45.77517" lon="2.96503">
        <ele>1344.0455481865</ele>
        <time>2019-04-27T08:32:31Z</time>
      </trkpt>
      <trkpt lat="45.77523" lon="2.96493">
        <ele>1342.8293389281</ele>
        <time>2019-04-27T08:32:41Z</time>
      </trkpt>
      <trkpt lat="45.77527" lon="2.96488">
        <ele>1341.7318929423</ele>
        <time>2019-04-27T08:32:50Z</time>
      </trkpt>
      <trkpt lat="45.7753" lon="2.96486">
        <ele>1340.8213506702</ele>
        <time>2019-04-27T08:32:59Z</time>
      </trkpt>
      <trkpt lat="45.77533" lon="2.96482">
        <ele>1339.7385646573</ele>
        <time>2019-04-27T08:33:09Z</time>
      </trkpt>
      <trkpt lat="45.77539" lon="2.96476">
        <ele>1338.4247460257</ele>
        <time>2019-04-27T08:33:19Z</time>
      </trkpt>
      <trkpt lat="45.77543" lon="2.9647">
        <ele>1337.0611983813</ele>
        <time>2019-04-27T08:33:29Z</time>
      </trkpt>
      <trkpt lat="45.77545" lon="2.96465">
        <ele>1335.9509886751</ele>
        <time>2019-04-27T08:33:37Z</time>
      </trkpt>
      <trkpt lat="45.77549" lon="2.96458">
        <ele>1334.7455760907</ele>
        <time>2019-04-27T08:33:46Z</time>
      </trkpt>
      <trkpt lat="45.77553" lon="2.96448">
        <ele>1333.2838610918</ele>
        <time>2019-04-27T08:33:56Z</time>
      </trkpt>
      <trkpt lat="45.77556" lon="2.96445">
        <ele>1332.1756264497</ele>
        <time>2019-04-27T08:34:04Z</time>
      </trkpt>
      <trkpt lat="45.77561" lon="2.96448">
        <ele>1330.9670282758</ele>
        <time>2019-04-27T08:34:14Z</time>
      </trkpt>
      <trkpt lat="45.77564" lon="2.96457">
        <ele>1330.0501588808</ele>
        <time>2019-04-27T08:34:23Z</time>
      </trkpt>
      <trkpt lat="45.77567" lon="2.96467">
        <ele>1329.2710142661</ele>
        <time>2019-04-27T08:34:32Z</time>
      </trkpt>
      <trkpt lat="45.7757" lon="2.9648">
        <ele>1328.7253138284</ele>
        <time>2019-04-27T08:34:40Z</time>
      </trkpt>
      <trkpt lat="45.7757" lon="2.96488">
        <ele>1328.2577849474</ele>
        <time>2019-04-27T08:34:48Z</time>
      </trkpt>
      <trkpt lat="45.77572" lon="2.96495">
        <ele>1327.7260096827</ele>
        <time>2019-04-27T08:34:57Z</time>
      </trkpt>
      <trkpt lat="45.77575" lon="2.96507">
        <ele>1326.8588160367</ele>
        <time>2019-04-27T08:35:07Z</time>
      </trkpt>
      <trkpt lat="45.77578" lon="2.96515">
        <ele>1325.7069451653</ele>
        <time>2019-04-27T08:35:17Z</time>
      </trkpt>
      <trkpt lat="45.77579" lon="2.96519">
        <ele>1324.2125431829</ele>
        <time>2019-04-27T08:35:26Z</time>
      </trkpt>
      <trkpt lat="45.77582" lon="2.96517">
        <ele>1322.6355496423</ele>
        <time>2019-04-27T08:35:36Z</time>
      </trkpt>
      <trkpt lat="45.77588" lon="2.96509">
        <ele>1321.4742447156</ele>
        <time>2019-04-27T08:35:44Z</time>
      </trkpt>
      <trkpt lat="45.77591" lon="2.96504">
        <ele>1320.0682248635</ele>
        <time>2019-04-27T08:35:52Z</time>
      </trkpt>
      <trkpt lat="45.77596" lon="2.965">
        <ele>1318.5989117096</ele>
        <time>2019-04-27T08:36:01Z</time>
      </trkpt>
      <trkpt lat="45.77607" lon="2.96481">
        <ele>1316.2794787843</ele>
        <time>2019-04-27T08:36:11Z</time>
      </trkpt>
      <trkpt lat="45.77608" lon="2.96478">
        <ele>1314.3570019612</ele>
        <time>2019-04-27T08:36:20Z</time>
      </trkpt>
      <trkpt lat="45.7761" lon="2.96471">
        <ele>1311.7457660936</ele>
        <time>2019-04-27T08:36:29Z</time>
      </trkpt>
      <trkpt lat="45.77609" lon="2.96463">
        <ele>1308.9126709806</ele>
        <time>2019-04-27T08:36:39Z</time>
      </trkpt>
      <trkpt lat="45.77611" lon="2.96457">
        <ele>1306.2853476466</ele>
        <time>2019-04-27T08:36:49Z</time>
      </trkpt>
      <trkpt lat="45.77616" lon="2.96449">
        <ele>1304.1252274541</ele>
        <time>2019-04-27T08:36:58Z</time>
      </trkpt>
      <trkpt lat="45.7762" lon="2.96442">
        <ele>1302.1877549018</ele>
        <time>2019-04-27T08:37:07Z</time>
      </trkpt>
      <trkpt lat="45.77623" lon="2.96438">
        <ele>1300.2995727034</ele>
        <time>2019-04-27T08:37:17Z</time>
      </trkpt>
      <trkpt lat="45.77626" lon="2.96442">
        <ele>1298.9268472838</ele>
        <time>2019-04-27T08:37:26Z</time>
      </trkpt>
      <trkpt lat="45.7763" lon="2.96451">
        <ele>1297.5768192915</ele>
        <time>2019-04-27T08:37:34Z</time>
      </trkpt>
      <trkpt lat="45.77636" lon="2.96463">
        <ele>1296.1734567387</ele>
        <time>2019-04-27T08:37:42Z</time>
      </trkpt>
      <trkpt lat="45.77641" lon="2.96477">
        <ele>1294.6642802497</ele>
        <time>2019-04-27T08:37:51Z</time>
      </trkpt>
      <trkpt lat="45.77646" lon="2.96486">
        <ele>1293.0993927762</ele>
        <time>2019-04-27T08:38:01Z</time>
      </trkpt>
      <trkpt lat="45.77645" lon="2.96488">
        <ele>1292.1822707119</ele>
        <time>2019-04-27T08:38:10Z</time>
      </trkpt>
      <trkpt lat="45.77647" lon="2.96486">
        <ele>1290.7003373315</ele>
        <time>2019-04-27T08:38:20Z</time>
      </trkpt>
      <trkpt lat="45.77654" lon="2.96482">
        <ele>1288.999192358</ele>
        <time>2019-04-27T08:38:28Z</time>
      </trkpt>
      <trkpt lat="45.7766" lon="2.9648">
        <ele>1287.1214320988</ele>
        <time>2019-04-27T08:38:38Z</time>
      </trkpt>
      <trkpt lat="45.77667" lon="2.96481">
        <ele>1285.5822930154</ele>
        <time>2019-04-27T08:38:47Z</time>
      </trkpt>
      <trkpt lat="45.77677" lon="2.96475">
        <ele>1284.1979380789</ele>
        <time>2019-04-27T08:38:56Z</time>
      </trkpt>
      <trkpt lat="45.77688" lon="2.96471">
        <ele>1282.8074752014</ele>
        <time>2019-04-27T08:39:06Z</time>
      </trkpt>
      <trkpt lat="45.77695" lon="2.96469">
        <ele>1281.6240064603</ele>
        <time>2019-04-27T08:39:15Z</time>
      </trkpt>
      <trkpt lat="45.77697" lon="2.96466">
        <ele>1280.3180154497</ele>
        <time>2019-04-27T08:39:25Z</time>
      </trkpt>
      <trkpt lat="45.77696" lon="2.96464">
        <ele>1280.1572452163</ele>
        <time>2019-04-27T08:39:33Z</time>
      </trkpt>
      <trkpt lat="45.77696" lon="2.96463">
        <ele>1279.8777529574</ele>
        <time>2019-04-27T08:39:45Z</time>
      </trkpt>
      <trkpt lat="45.77696" lon="2.96462">
        <ele>1278.8143873646</ele>
        <time>2019-04-27T08:40:23Z</time>
      </trkpt>
      <trkpt lat="45.77697" lon="2.96462">
        <ele>1278.1648055967</ele>
        <time>2019-04-27T08:40:35Z</time>
      </trkpt>
      <trkpt lat="45.77698" lon="2.96462">
        <ele>1277.2322252349</ele>
        <time>2019-04-27T08:41:04Z</time>
      </trkpt>
      <trkpt lat="45.77698" lon="2.9646">
        <ele>1276.5146662194</ele>
        <time>2019-04-27T08:41:25Z</time>
      </trkpt>
      <trkpt lat="45.77699" lon="2.9646">
        <ele>1275.2342772754</ele>
        <time>2019-04-27T08:41:36Z</time>
      </trkpt>
      <trkpt lat="45.77709" lon="2.96458">
        <ele>1272.2356676316</ele>
        <time>2019-04-27T08:41:46Z</time>
      </trkpt>
      <trkpt lat="45.77717" lon="2.96455">
        <ele>1269.9198008176</ele>
        <time>2019-04-27T08:41:55Z</time>
      </trkpt>
      <trkpt lat="45.77728" lon="2.96452">
        <ele>1267.6080001025</ele>
        <time>2019-04-27T08:42:05Z</time>
      </trkpt>
      <trkpt lat="45.77739" lon="2.96452">
        <ele>1265.5883184001</ele>
        <time>2019-04-27T08:42:15Z</time>
      </trkpt>
      <trkpt lat="45.77752" lon="2.96447">
        <ele>1263.9705978252</ele>
        <time>2019-04-27T08:42:24Z</time>
      </trkpt>
      <trkpt lat="45.77762" lon="2.96446">
        <ele>1262.6402416124</ele>
        <time>2019-04-27T08:42:32Z</time>
      </trkpt>
      <trkpt lat="45.77767" lon="2.96444">
        <ele>1261.1340205661</ele>
        <time>2019-04-27T08:42:41Z</time>
      </trkpt>
      <trkpt lat="45.7778" lon="2.96441">
        <ele>1259.5057066415</ele>
        <time>2019-04-27T08:42:51Z</time>
      </trkpt>
      <trkpt lat="45.77789" lon="2.9644">
        <ele>1258.1955328378</ele>
        <time>2019-04-27T08:43:00Z</time>
      </trkpt>
      <trkpt lat="45.778" lon="2.9644">
        <ele>1256.9377642623</ele>
        <time>2019-04-27T08:43:09Z</time>
      </trkpt>
      <trkpt lat="45.7781" lon="2.96441">
        <ele>1255.8474560317</ele>
        <time>2019-04-27T08:43:17Z</time>
      </trkpt>
      <trkpt lat="45.7782" lon="2.96435">
        <ele>1254.6795914184</ele>
        <time>2019-04-27T08:43:26Z</time>
      </trkpt>
      <trkpt lat="45.77821" lon="2.96413">
        <ele>1253.4480855966</ele>
        <time>2019-04-27T08:43:36Z</time>
      </trkpt>
      <trkpt lat="45.77825" lon="2.96401">
        <ele>1252.2566922381</ele>
        <time>2019-04-27T08:43:45Z</time>
      </trkpt>
      <trkpt lat="45.7783" lon="2.96396">
        <ele>1251.1413407269</ele>
        <time>2019-04-27T08:43:54Z</time>
      </trkpt>
      <trkpt lat="45.77839" lon="2.96386">
        <ele>1250.0052501921</ele>
        <time>2019-04-27T08:44:04Z</time>
      </trkpt>
      <trkpt lat="45.77846" lon="2.9638">
        <ele>1249.1774899257</ele>
        <time>2019-04-27T08:44:12Z</time>
      </trkpt>
      <trkpt lat="45.77856" lon="2.96378">
        <ele>1248.2823797553</ele>
        <time>2019-04-27T08:44:22Z</time>
      </trkpt>
      <trkpt lat="45.77866" lon="2.96377">
        <ele>1247.5902097329</ele>
        <time>2019-04-27T08:44:31Z</time>
      </trkpt>
      <trkpt lat="45.77875" lon="2.96381">
        <ele>1246.8463953843</ele>
        <time>2019-04-27T08:44:41Z</time>
      </trkpt>
      <trkpt lat="45.7788" lon="2.96382">
        <ele>1246.206932701</ele>
        <time>2019-04-27T08:44:50Z</time>
      </trkpt>
      <trkpt lat="45.77888" lon="2.96383">
        <ele>1245.3454450053</ele>
        <time>2019-04-27T08:45:00Z</time>
      </trkpt>
      <trkpt lat="45.77896" lon="2.96384">
        <ele>1244.5791057699</ele>
        <time>2019-04-27T08:45:09Z</time>
      </trkpt>
      <trkpt lat="45.77907" lon="2.96388">
        <ele>1243.8224340403</ele>
        <time>2019-04-27T08:45:18Z</time>
      </trkpt>
      <trkpt lat="45.77913" lon="2.96387">
        <ele>1243.1212564299</ele>
        <time>2019-04-27T08:45:28Z</time>
      </trkpt>
      <trkpt lat="45.77927" lon="2.96389">
        <ele>1242.7159784421</ele>
        <time>2019-04-27T08:45:37Z</time>
      </trkpt>
      <trkpt lat="45.77928" lon="2.96389">
        <ele>1242.5810958077</ele>
        <time>2019-04-27T08:45:46Z</time>
      </trkpt>
      <trkpt lat="45.7793" lon="2.96391">
        <ele>1242.194050488</ele>
        <time>2019-04-27T08:45:55Z</time>
      </trkpt>
      <trkpt lat="45.77932" lon="2.96392">
        <ele>1241.83569791</ele>
        <time>2019-04-27T08:46:03Z</time>
      </trkpt>
      <trkpt lat="45.77934" lon="2.96397">
        <ele>1241.3614896056</ele>
        <time>2019-04-27T08:46:12Z</time>
      </trkpt>
      <trkpt lat="45.77932" lon="2.96405">
        <ele>1240.9214876222</ele>
        <time>2019-04-27T08:46:22Z</time>
      </trkpt>
      <trkpt lat="45.77929" lon="2.96413">
        <ele>1240.5314745236</ele>
        <time>2019-04-27T08:46:31Z</time>
      </trkpt>
      <trkpt lat="45.77938" lon="2.96426">
        <ele>1240.1630967993</ele>
        <time>2019-04-27T08:46:41Z</time>
      </trkpt>
      <trkpt lat="45.77947" lon="2.96433">
        <ele>1239.8351152587</ele>
        <time>2019-04-27T08:46:49Z</time>
      </trkpt>
      <trkpt lat="45.77961" lon="2.96441">
        <ele>1239.5201552794</ele>
        <time>2019-04-27T08:46:58Z</time>
      </trkpt>
      <trkpt lat="45.77982" lon="2.96445">
        <ele>1239.1812959947</ele>
        <time>2019-04-27T08:47:07Z</time>
      </trkpt>
      <trkpt lat="45.77988" lon="2.96447">
        <ele>1239.0582467514</ele>
        <time>2019-04-27T08:47:16Z</time>
      </trkpt>
      <trkpt lat="45.77989" lon="2.96449">
        <ele>1238.9113714071</ele>
        <time>2019-04-27T08:47:26Z</time>
      </trkpt>
      <trkpt lat="45.77988" lon="2.96454">
        <ele>1238.5294183614</ele>
        <time>2019-04-27T08:47:35Z</time>
      </trkpt>
      <trkpt lat="45.7799" lon="2.96457">
        <ele>1238.3787107731</ele>
        <time>2019-04-27T08:47:44Z</time>
      </trkpt>
      <trkpt lat="45.78003" lon="2.96466">
        <ele>1238.0594973693</ele>
        <time>2019-04-27T08:47:54Z</time>
      </trkpt>
      <trkpt lat="45.78021" lon="2.96483">
        <ele>1237.546532143</ele>
        <time>2019-04-27T08:48:03Z</time>
      </trkpt>
      <trkpt lat="45.78031" lon="2.96496">
        <ele>1237.0698912853</ele>
        <time>2019-04-27T08:48:12Z</time>
      </trkpt>
      <trkpt lat="45.78031" lon="2.96508">
        <ele>1236.6237411657</ele>
        <time>2019-04-27T08:48:21Z</time>
      </trkpt>
      <trkpt lat="45.78031" lon="2.9651">
        <ele>1236.4214471257</ele>
        <time>2019-04-27T08:48:31Z</time>
      </trkpt>
      <trkpt lat="45.78035" lon="2.96511">
        <ele>1235.9915989615</ele>
        <time>2019-04-27T08:48:39Z</time>
      </trkpt>
      <trkpt lat="45.78036" lon="2.96512">
        <ele>1235.6304463152</ele>
        <time>2019-04-27T08:48:47Z</time>
      </trkpt>
      <trkpt lat="45.78043" lon="2.9651">
        <ele>1235.0322300325</ele>
        <time>2019-04-27T08:48:56Z</time>
      </trkpt>
      <trkpt lat="45.78046" lon="2.96509">
        <ele>1234.4502629757</ele>
        <time>2019-04-27T08:49:06Z</time>
      </trkpt>
      <trkpt lat="45.7805" lon="2.96513">
        <ele>1233.8933348832</ele>
        <time>2019-04-27T08:49:15Z</time>
      </trkpt>
      <trkpt lat="45.78053" lon="2.96513">
        <ele>1233.8098547615</ele>
        <time>2019-04-27T08:49:25Z</time>
      </trkpt>
      <trkpt lat="45.78053" lon="2.96512">
        <ele>1233.6159321867</ele>
        <time>2019-04-27T08:49:36Z</time>
      </trkpt>
      <trkpt lat="45.78054" lon="2.96513">
        <ele>1233.4767960104</ele>
        <time>2019-04-27T08:49:49Z</time>
      </trkpt>
      <trkpt lat="45.78057" lon="2.96514">
        <ele>1233.0546554377</ele>
        <time>2019-04-27T08:49:59Z</time>
      </trkpt>
      <trkpt lat="45.78058" lon="2.96514">
        <ele>1232.4178214588</ele>
        <time>2019-04-27T08:50:09Z</time>
      </trkpt>
      <trkpt lat="45.7806" lon="2.96514">
        <ele>1232.0124206152</ele>
        <time>2019-04-27T08:50:18Z</time>
      </trkpt>
      <trkpt lat="45.78061" lon="2.96514">
        <ele>1231.6483291602</ele>
        <time>2019-04-27T08:50:30Z</time>
      </trkpt>
      <trkpt lat="45.78068" lon="2.96514">
        <ele>1231.0966979378</ele>
        <time>2019-04-27T08:50:39Z</time>
      </trkpt>
      <trkpt lat="45.78071" lon="2.96513">
        <ele>1230.2429380074</ele>
        <time>2019-04-27T08:50:49Z</time>
      </trkpt>
      <trkpt lat="45.78072" lon="2.96514">
        <ele>1229.8014392532</ele>
        <time>2019-04-27T08:50:59Z</time>
      </trkpt>
      <trkpt lat="45.78079" lon="2.96517">
        <ele>1228.8769418833</ele>
        <time>2019-04-27T08:51:07Z</time>
      </trkpt>
      <trkpt lat="45.78093" lon="2.96517">
        <ele>1227.9136875587</ele>
        <time>2019-04-27T08:51:16Z</time>
      </trkpt>
      <trkpt lat="45.78103" lon="2.96519">
        <ele>1227.0471032796</ele>
        <time>2019-04-27T08:51:26Z</time>
      </trkpt>
      <trkpt lat="45.78111" lon="2.96524">
        <ele>1226.4409360057</ele>
        <time>2019-04-27T08:51:34Z</time>
      </trkpt>
      <trkpt lat="45.78116" lon="2.96526">
        <ele>1225.8766321204</ele>
        <time>2019-04-27T08:51:44Z</time>
      </trkpt>
      <trkpt lat="45.78118" lon="2.96527">
        <ele>1225.714414611</ele>
        <time>2019-04-27T08:51:53Z</time>
      </trkpt>
      <trkpt lat="45.78119" lon="2.96527">
        <ele>1225.320439375</ele>
        <time>2019-04-27T08:52:02Z</time>
      </trkpt>
      <trkpt lat="45.78121" lon="2.96527">
        <ele>1224.8167104314</ele>
        <time>2019-04-27T08:52:11Z</time>
      </trkpt>
      <trkpt lat="45.78122" lon="2.96527">
        <ele>1224.1489830922</ele>
        <time>2019-04-27T08:52:21Z</time>
      </trkpt>
      <trkpt lat="45.78121" lon="2.96531">
        <ele>1223.591920142</ele>
        <time>2019-04-27T08:52:31Z</time>
      </trkpt>
      <trkpt lat="45.78125" lon="2.9653">
        <ele>1222.8269367834</ele>
        <time>2019-04-27T08:52:40Z</time>
      </trkpt>
      <trkpt lat="45.78139" lon="2.96537">
        <ele>1222.2455618495</ele>
        <time>2019-04-27T08:52:48Z</time>
      </trkpt>
      <trkpt lat="45.78145" lon="2.96548">
        <ele>1221.3569228403</ele>
        <time>2019-04-27T08:52:58Z</time>
      </trkpt>
      <trkpt lat="45.78147" lon="2.96558">
        <ele>1220.3254282698</ele>
        <time>2019-04-27T08:53:07Z</time>
      </trkpt>
      <trkpt lat="45.7815" lon="2.96559">
        <ele>1219.5144853328</ele>
        <time>2019-04-27T08:53:16Z</time>
      </trkpt>
      <trkpt lat="45.78156" lon="2.96564">
        <ele>1218.8933866158</ele>
        <time>2019-04-27T08:53:25Z</time>
      </trkpt>
      <trkpt lat="45.78169" lon="2.96568">
        <ele>1217.9091471348</ele>
        <time>2019-04-27T08:53:34Z</time>
      </trkpt>
      <trkpt lat="45.78178" lon="2.96573">
        <ele>1217.0969533402</ele>
        <time>2019-04-27T08:53:43Z</time>
      </trkpt>
      <trkpt lat="45.78179" lon="2.96579">
        <ele>1216.2332972592</ele>
        <time>2019-04-27T08:53:52Z</time>
      </trkpt>
      <trkpt lat="45.78185" lon="2.96578">
        <ele>1215.2653989506</ele>
        <time>2019-04-27T08:54:02Z</time>
      </trkpt>
      <trkpt lat="45.78186" lon="2.96579">
        <ele>1214.6591523007</ele>
        <time>2019-04-27T08:54:11Z</time>
      </trkpt>
      <trkpt lat="45.78187" lon="2.96578">
        <ele>1213.4257812293</ele>
        <time>2019-04-27T08:54:19Z</time>
      </trkpt>
      <trkpt lat="45.78196" lon="2.96576">
        <ele>1211.7710602286</ele>
        <time>2019-04-27T08:54:27Z</time>
      </trkpt>
      <trkpt lat="45.78204" lon="2.96571">
        <ele>1209.6929189834</ele>
        <time>2019-04-27T08:54:36Z</time>
      </trkpt>
      <trkpt lat="45.78205" lon="2.96571">
        <ele>1207.2590031223</ele>
        <time>2019-04-27T08:54:47Z</time>
      </trkpt>
      <trkpt lat="45.78207" lon="2.96569">
        <ele>1205.629325981</ele>
        <time>2019-04-27T08:54:56Z</time>
      </trkpt>
      <trkpt lat="45.78218" lon="2.96569">
        <ele>1204.0897353394</ele>
        <time>2019-04-27T08:55:05Z</time>
      </trkpt>
      <trkpt lat="45.7822" lon="2.96568">
        <ele>1202.6260043622</ele>
        <time>2019-04-27T08:55:14Z</time>
      </trkpt>
      <trkpt lat="45.78223" lon="2.9657">
        <ele>1200.6052628534</ele>
        <time>2019-04-27T08:55:23Z</time>
      </trkpt>
      <trkpt lat="45.78226" lon="2.96571">
        <ele>1199.0940770222</ele>
        <time>2019-04-27T08:55:33Z</time>
      </trkpt>
      <trkpt lat="45.78236" lon="2.96569">
        <ele>1198.5330153228</ele>
        <time>2019-04-27T08:55:41Z</time>
      </trkpt>
      <trkpt lat="45.78239" lon="2.96571">
        <ele>1197.233985033</ele>
        <time>2019-04-27T08:55:51Z</time>
      </trkpt>
      <trkpt lat="45.78241" lon="2.96571">
        <ele>1196.3011558182</ele>
        <time>2019-04-27T08:56:00Z</time>
      </trkpt>
      <trkpt lat="45.78245" lon="2.9657">
        <ele>1194.489978661</ele>
        <time>2019-04-27T08:56:09Z</time>
      </trkpt>
      <trkpt lat="45.78257" lon="2.96565">
        <ele>1192.4919230447</ele>
        <time>2019-04-27T08:56:18Z</time>
      </trkpt>
      <trkpt lat="45.78268" lon="2.96565">
        <ele>1190.085458726</ele>
        <time>2019-04-27T08:56:27Z</time>
      </trkpt>
      <trkpt lat="45.78274" lon="2.96566">
        <ele>1188.7667929575</ele>
        <time>2019-04-27T08:56:36Z</time>
      </trkpt>
      <trkpt lat="45.78275" lon="2.96567">
        <ele>1188.2250255721</ele>
        <time>2019-04-27T08:56:44Z</time>
      </trkpt>
      <trkpt lat="45.78281" lon="2.96568">
        <ele>1185.8481572679</ele>
        <time>2019-04-27T08:56:54Z</time>
      </trkpt>
      <trkpt lat="45.7829" lon="2.96574">
        <ele>1184.1972802232</ele>
        <time>2019-04-27T08:57:03Z</time>
      </trkpt>
      <trkpt lat="45.7831" lon="2.96572">
        <ele>1181.7746748009</ele>
        <time>2019-04-27T08:57:11Z</time>
      </trkpt>
      <trkpt lat="45.78324" lon="2.96572">
        <ele>1180.3511009556</ele>
        <time>2019-04-27T08:57:21Z</time>
      </trkpt>
      <trkpt lat="45.78325" lon="2.96572">
        <ele>1180.0366908031</ele>
        <time>2019-04-27T08:57:29Z</time>
      </trkpt>
      <trkpt lat="45.78327" lon="2.96572">
        <ele>1179.5892701857</ele>
        <time>2019-04-27T08:57:39Z</time>
      </trkpt>
      <trkpt lat="45.78327" lon="2.96572">
        <ele>1178.6665310514</ele>
        <time>2019-04-27T08:57:49Z</time>
      </trkpt>
      <trkpt lat="45.78331" lon="2.96569">
        <ele>1176.8939163646</ele>
        <time>2019-04-27T08:57:59Z</time>
      </trkpt>
      <trkpt lat="45.78334" lon="2.96568">
        <ele>1175.1496209526</ele>
        <time>2019-04-27T08:58:08Z</time>
      </trkpt>
      <trkpt lat="45.78337" lon="2.96568">
        <ele>1172.9093229639</ele>
        <time>2019-04-27T08:58:17Z</time>
      </trkpt>
      <trkpt lat="45.78341" lon="2.96566">
        <ele>1170.7277240694</ele>
        <time>2019-04-27T08:58:27Z</time>
      </trkpt>
      <trkpt lat="45.78341" lon="2.96567">
        <ele>1169.9169784633</ele>
        <time>2019-04-27T08:58:35Z</time>
      </trkpt>
      <trkpt lat="45.78345" lon="2.96567">
        <ele>1167.4346000022</ele>
        <time>2019-04-27T08:58:44Z</time>
      </trkpt>
      <trkpt lat="45.78345" lon="2.96569">
        <ele>1165.8834462972</ele>
        <time>2019-04-27T08:58:53Z</time>
      </trkpt>
      <trkpt lat="45.78345" lon="2.9657">
        <ele>1165.0684506431</ele>
        <time>2019-04-27T08:59:03Z</time>
      </trkpt>
      <trkpt lat="45.78345" lon="2.9657">
        <ele>1164.6786010286</ele>
        <time>2019-04-27T08:59:12Z</time>
      </trkpt>
      <trkpt lat="45.78345" lon="2.96566">
        <ele>1163.4822275337</ele>
        <time>2019-04-27T08:59:22Z</time>
      </trkpt>
      <trkpt lat="45.78345" lon="2.96567">
        <ele>1159.3230183947</ele>
        <time>2019-04-27T09:00:13Z</time>
      </trkpt>
      <trkpt lat="45.78346" lon="2.96569">
        <ele>1157.7379854534</ele>
        <time>2019-04-27T09:00:22Z</time>
      </trkpt>
      <trkpt lat="45.78347" lon="2.9657">
        <ele>1157.4672667881</ele>
        <time>2019-04-27T09:00:30Z</time>
      </trkpt>
      <trkpt lat="45.78348" lon="2.9657">
        <ele>1155.987471821</ele>
        <time>2019-04-27T09:00:39Z</time>
      </trkpt>
      <trkpt lat="45.78351" lon="2.96572">
        <ele>1154.8742230219</ele>
        <time>2019-04-27T09:00:48Z</time>
      </trkpt>
      <trkpt lat="45.78351" lon="2.96573">
        <ele>1154.4134661186</ele>
        <time>2019-04-27T09:01:03Z</time>
      </trkpt>
      <trkpt lat="45.78352" lon="2.96574">
        <ele>1153.793788541</ele>
        <time>2019-04-27T09:01:13Z</time>
      </trkpt>
      <trkpt lat="45.78353" lon="2.96576">
        <ele>1152.9512537106</ele>
        <time>2019-04-27T09:01:21Z</time>
      </trkpt>
      <trkpt lat="45.78354" lon="2.96577">
        <ele>1152.4490580536</ele>
        <time>2019-04-27T09:01:36Z</time>
      </trkpt>
      <trkpt lat="45.78357" lon="2.96578">
        <ele>1149.5700765711</ele>
        <time>2019-04-27T09:01:45Z</time>
      </trkpt>
      <trkpt lat="45.78366" lon="2.96586">
        <ele>1147.0340026434</ele>
        <time>2019-04-27T09:01:54Z</time>
      </trkpt>
      <trkpt lat="45.78374" lon="2.96592">
        <ele>1144.7491475089</ele>
        <time>2019-04-27T09:02:03Z</time>
      </trkpt>
      <trkpt lat="45.78383" lon="2.96599">
        <ele>1142.6802583988</ele>
        <time>2019-04-27T09:02:12Z</time>
      </trkpt>
      <trkpt lat="45.78394" lon="2.96606">
        <ele>1140.8163886006</ele>
        <time>2019-04-27T09:02:21Z</time>
      </trkpt>
      <trkpt lat="45.78403" lon="2.96612">
        <ele>1139.1575044572</ele>
        <time>2019-04-27T09:02:30Z</time>
      </trkpt>
      <trkpt lat="45.78411" lon="2.96615">
        <ele>1137.8346620948</ele>
        <time>2019-04-27T09:02:38Z</time>
      </trkpt>
      <trkpt lat="45.78421" lon="2.96621">
        <ele>1136.368023062</ele>
        <time>2019-04-27T09:02:48Z</time>
      </trkpt>
      <trkpt lat="45.78429" lon="2.96627">
        <ele>1135.0776205347</ele>
        <time>2019-04-27T09:02:58Z</time>
      </trkpt>
      <trkpt lat="45.78438" lon="2.96634">
        <ele>1134.0637384928</ele>
        <time>2019-04-27T09:03:07Z</time>
      </trkpt>
      <trkpt lat="45.78444" lon="2.96637">
        <ele>1133.2739297159</ele>
        <time>2019-04-27T09:03:15Z</time>
      </trkpt>
      <trkpt lat="45.78449" lon="2.96641">
        <ele>1132.5672663454</ele>
        <time>2019-04-27T09:03:23Z</time>
      </trkpt>
      <trkpt lat="45.78455" lon="2.96645">
        <ele>1131.9494622146</ele>
        <time>2019-04-27T09:03:31Z</time>
      </trkpt>
      <trkpt lat="45.78466" lon="2.96654">
        <ele>1131.2821853453</ele>
        <time>2019-04-27T09:03:41Z</time>
      </trkpt>
      <trkpt lat="45.78476" lon="2.9666">
        <ele>1130.7501823511</ele>
        <time>2019-04-27T09:03:50Z</time>
      </trkpt>
      <trkpt lat="45.78486" lon="2.96666">
        <ele>1130.2396992551</ele>
        <time>2019-04-27T09:04:00Z</time>
      </trkpt>
      <trkpt lat="45.78493" lon="2.96667">
        <ele>1129.8389487119</ele>
        <time>2019-04-27T09:04:09Z</time>
      </trkpt>
      <trkpt lat="45.78503" lon="2.96669">
        <ele>1129.4704017942</ele>
        <time>2019-04-27T09:04:19Z</time>
      </trkpt>
      <trkpt lat="45.78512" lon="2.96668">
        <ele>1129.230772496</ele>
        <time>2019-04-27T09:04:27Z</time>
      </trkpt>
      <trkpt lat="45.78521" lon="2.96667">
        <ele>1128.9951289719</ele>
        <time>2019-04-27T09:04:37Z</time>
      </trkpt>
      <trkpt lat="45.78531" lon="2.96667">
        <ele>1128.8615296216</ele>
        <time>2019-04-27T09:04:45Z</time>
      </trkpt>
      <trkpt lat="45.7854" lon="2.96668">
        <ele>1128.7582218128</ele>
        <time>2019-04-27T09:04:54Z</time>
      </trkpt>
      <trkpt lat="45.7855" lon="2.96665">
        <ele>1128.7150896451</ele>
        <time>2019-04-27T09:05:03Z</time>
      </trkpt>
      <trkpt lat="45.78557" lon="2.9667">
        <ele>1128.7102060908</ele>
        <time>2019-04-27T09:05:12Z</time>
      </trkpt>
      <trkpt lat="45.78566" lon="2.96672">
        <ele>1128.7330704221</ele>
        <time>2019-04-27T09:05:22Z</time>
      </trkpt>
      <trkpt lat="45.78573" lon="2.96676">
        <ele>1128.7718034652</ele>
        <time>2019-04-27T09:05:31Z</time>
      </trkpt>
      <trkpt lat="45.78584" lon="2.96677">
        <ele>1128.8227101818</ele>
        <time>2019-04-27T09:05:41Z</time>
      </trkpt>
      <trkpt lat="45.78593" lon="2.96679">
        <ele>1128.8840097725</ele>
        <time>2019-04-27T09:05:51Z</time>
      </trkpt>
      <trkpt lat="45.78603" lon="2.96678">
        <ele>1128.9511724885</ele>
        <time>2019-04-27T09:06:00Z</time>
      </trkpt>
      <trkpt lat="45.78612" lon="2.96678">
        <ele>1129.0091643623</ele>
        <time>2019-04-27T09:06:08Z</time>
      </trkpt>
      <trkpt lat="45.78624" lon="2.96679">
        <ele>1129.0478307733</ele>
        <time>2019-04-27T09:06:17Z</time>
      </trkpt>
      <trkpt lat="45.78635" lon="2.96677">
        <ele>1129.0750148969</ele>
        <time>2019-04-27T09:06:26Z</time>
      </trkpt>
      <trkpt lat="45.78643" lon="2.96677">
        <ele>1129.0809350327</ele>
        <time>2019-04-27T09:06:35Z</time>
      </trkpt>
      <trkpt lat="45.78648" lon="2.96674">
        <ele>1129.052109066</ele>
        <time>2019-04-27T09:06:44Z</time>
      </trkpt>
      <trkpt lat="45.78654" lon="2.96665">
        <ele>1129.013272346</ele>
        <time>2019-04-27T09:06:54Z</time>
      </trkpt>
      <trkpt lat="45.78661" lon="2.96654">
        <ele>1128.9912944512</ele>
        <time>2019-04-27T09:07:03Z</time>
      </trkpt>
      <trkpt lat="45.78671" lon="2.96639">
        <ele>1128.9861706747</ele>
        <time>2019-04-27T09:07:12Z</time>
      </trkpt>
      <trkpt lat="45.78677" lon="2.96628">
        <ele>1128.9882473076</ele>
        <time>2019-04-27T09:07:21Z</time>
      </trkpt>
      <trkpt lat="45.78684" lon="2.96619">
        <ele>1129.0016766769</ele>
        <time>2019-04-27T09:07:29Z</time>
      </trkpt>
      <trkpt lat="45.78695" lon="2.9661">
        <ele>1129.0137406643</ele>
        <time>2019-04-27T09:07:39Z</time>
      </trkpt>
      <trkpt lat="45.78702" lon="2.96603">
        <ele>1128.9970287912</ele>
        <time>2019-04-27T09:07:49Z</time>
      </trkpt>
      <trkpt lat="45.7871" lon="2.96588">
        <ele>1129.0089310394</ele>
        <time>2019-04-27T09:07:58Z</time>
      </trkpt>
      <trkpt lat="45.78722" lon="2.96576">
        <ele>1129.0758882982</ele>
        <time>2019-04-27T09:08:08Z</time>
      </trkpt>
      <trkpt lat="45.78729" lon="2.96567">
        <ele>1129.1699966542</ele>
        <time>2019-04-27T09:08:17Z</time>
      </trkpt>
      <trkpt lat="45.78735" lon="2.96561">
        <ele>1129.2910820746</ele>
        <time>2019-04-27T09:08:26Z</time>
      </trkpt>
      <trkpt lat="45.78743" lon="2.96553">
        <ele>1129.4183362326</ele>
        <time>2019-04-27T09:08:35Z</time>
      </trkpt>
      <trkpt lat="45.78752" lon="2.96542">
        <ele>1129.5478662133</ele>
        <time>2019-04-27T09:08:44Z</time>
      </trkpt>
      <trkpt lat="45.78761" lon="2.96532">
        <ele>1129.6841378047</ele>
        <time>2019-04-27T09:08:53Z</time>
      </trkpt>
      <trkpt lat="45.7877" lon="2.96522">
        <ele>1129.8163721228</ele>
        <time>2019-04-27T09:09:02Z</time>
      </trkpt>
      <trkpt lat="45.78779" lon="2.96512">
        <ele>1129.935575401</ele>
        <time>2019-04-27T09:09:11Z</time>
      </trkpt>
      <trkpt lat="45.78787" lon="2.96504">
        <ele>1130.0812041793</ele>
        <time>2019-04-27T09:09:21Z</time>
      </trkpt>
      <trkpt lat="45.78796" lon="2.96499">
        <ele>1130.1822452644</ele>
        <time>2019-04-27T09:09:29Z</time>
      </trkpt>
      <trkpt lat="45.78805" lon="2.96493">
        <ele>1130.2612933814</ele>
        <time>2019-04-27T09:09:37Z</time>
      </trkpt>
      <trkpt lat="45.78815" lon="2.96486">
        <ele>1130.3435344405</ele>
        <time>2019-04-27T09:09:47Z</time>
      </trkpt>
      <trkpt lat="45.78822" lon="2.96481">
        <ele>1130.3662598401</ele>
        <time>2019-04-27T09:09:56Z</time>
      </trkpt>
      <trkpt lat="45.78822" lon="2.96466">
        <ele>1130.361534666</ele>
        <time>2019-04-27T09:10:05Z</time>
      </trkpt>
      <trkpt lat="45.78823" lon="2.96457">
        <ele>1130.3603401368</ele>
        <time>2019-04-27T09:10:15Z</time>
      </trkpt>
      <trkpt lat="45.78822" lon="2.96457">
        <ele>1130.3658180326</ele>
        <time>2019-04-27T09:10:46Z</time>
      </trkpt>
      <trkpt lat="45.78822" lon="2.96455">
        <ele>1130.3538467448</ele>
        <time>2019-04-27T09:10:56Z</time>
      </trkpt>
      <trkpt lat="45.78821" lon="2.96456">
        <ele>1130.3464147324</ele>
        <time>2019-04-27T09:11:06Z</time>
      </trkpt>
      <trkpt lat="45.78821" lon="2.96457">
        <ele>1130.3369520672</ele>
        <time>2019-04-27T09:11:15Z</time>
      </trkpt>
      <trkpt lat="45.7882" lon="2.96458">
        <ele>1130.3107341425</ele>
        <time>2019-04-27T09:11:32Z</time>
      </trkpt>
      <trkpt lat="45.78821" lon="2.96458">
        <ele>1130.2630720793</ele>
        <time>2019-04-27T09:11:45Z</time>
      </trkpt>
      <trkpt lat="45.78818" lon="2.96452">
        <ele>1130.0842308039</ele>
        <time>2019-04-27T09:11:54Z</time>
      </trkpt>
      <trkpt lat="45.78813" lon="2.96437">
        <ele>1129.9413780214</ele>
        <time>2019-04-27T09:12:03Z</time>
      </trkpt>
      <trkpt lat="45.78809" lon="2.96423">
        <ele>1129.8271786761</ele>
        <time>2019-04-27T09:12:12Z</time>
      </trkpt>
      <trkpt lat="45.78802" lon="2.96409">
        <ele>1129.7343881727</ele>
        <time>2019-04-27T09:12:21Z</time>
      </trkpt>
      <trkpt lat="45.78798" lon="2.96395">
        <ele>1129.6702229559</ele>
        <time>2019-04-27T09:12:29Z</time>
      </trkpt>
      <trkpt lat="45.7879" lon="2.96383">
        <ele>1129.6088196566</ele>
        <time>2019-04-27T09:12:39Z</time>
      </trkpt>
      <trkpt lat="45.78783" lon="2.96371">
        <ele>1129.542359836</ele>
        <time>2019-04-27T09:12:48Z</time>
      </trkpt>
      <trkpt lat="45.78777" lon="2.96363">
        <ele>1129.4861683571</ele>
        <time>2019-04-27T09:12:56Z</time>
      </trkpt>
      <trkpt lat="45.78771" lon="2.96349">
        <ele>1129.423477907</ele>
        <time>2019-04-27T09:13:05Z</time>
      </trkpt>
      <trkpt lat="45.7877" lon="2.96347">
        <ele>1129.397700069</ele>
        <time>2019-04-27T09:13:13Z</time>
      </trkpt>
      <trkpt lat="45.78771" lon="2.96343">
        <ele>1129.3505803381</ele>
        <time>2019-04-27T09:13:22Z</time>
      </trkpt>
      <trkpt lat="45.78781" lon="2.96337">
        <ele>1129.2835332797</ele>
        <time>2019-04-27T09:13:31Z</time>
      </trkpt>
      <trkpt lat="45.78788" lon="2.96326">
        <ele>1129.1923786049</ele>
        <time>2019-04-27T09:13:41Z</time>
      </trkpt>
      <trkpt lat="45.78793" lon="2.96315">
        <ele>1129.0892362488</ele>
        <time>2019-04-27T09:13:51Z</time>
      </trkpt>
      <trkpt lat="45.78796" lon="2.96301">
        <ele>1128.9830515836</ele>
        <time>2019-04-27T09:14:00Z</time>
      </trkpt>
      <trkpt lat="45.78803" lon="2.96284">
        <ele>1128.8596639688</ele>
        <time>2019-04-27T09:14:10Z</time>
      </trkpt>
      <trkpt lat="45.78808" lon="2.96268">
        <ele>1128.7754700865</ele>
        <time>2019-04-27T09:14:19Z</time>
      </trkpt>
      <trkpt lat="45.78811" lon="2.96257">
        <ele>1128.7302768508</ele>
        <time>2019-04-27T09:14:28Z</time>
      </trkpt>
      <trkpt lat="45.7881" lon="2.96238">
        <ele>1128.716619042</ele>
        <time>2019-04-27T09:14:37Z</time>
      </trkpt>
      <trkpt lat="45.7881" lon="2.96218">
        <ele>1128.7304891313</ele>
        <time>2019-04-27T09:14:47Z</time>
      </trkpt>
      <trkpt lat="45.78811" lon="2.96203">
        <ele>1128.7727177621</ele>
        <time>2019-04-27T09:14:57Z</time>
      </trkpt>
      <trkpt lat="45.78811" lon="2.96195">
        <ele>1128.8256992368</ele>
        <time>2019-04-27T09:15:06Z</time>
      </trkpt>
      <trkpt lat="45.78813" lon="2.96186">
        <ele>1128.8883695973</ele>
        <time>2019-04-27T09:15:14Z</time>
      </trkpt>
      <trkpt lat="45.78813" lon="2.96176">
        <ele>1128.9585381586</ele>
        <time>2019-04-27T09:15:24Z</time>
      </trkpt>
      <trkpt lat="45.78816" lon="2.96165">
        <ele>1129.0084143108</ele>
        <time>2019-04-27T09:15:32Z</time>
      </trkpt>
      <trkpt lat="45.78819" lon="2.96148">
        <ele>1129.0961998753</ele>
        <time>2019-04-27T09:15:42Z</time>
      </trkpt>
      <trkpt lat="45.78819" lon="2.96127">
        <ele>1129.2074238248</ele>
        <time>2019-04-27T09:15:51Z</time>
      </trkpt>
      <trkpt lat="45.78818" lon="2.96112">
        <ele>1129.3226382613</ele>
        <time>2019-04-27T09:16:00Z</time>
      </trkpt>
      <trkpt lat="45.78817" lon="2.96105">
        <ele>1129.4025186577</ele>
        <time>2019-04-27T09:16:08Z</time>
      </trkpt>
      <trkpt lat="45.78816" lon="2.96086">
        <ele>1129.471695705</ele>
        <time>2019-04-27T09:16:18Z</time>
      </trkpt>
      <trkpt lat="45.78817" lon="2.96072">
        <ele>1129.5116813327</ele>
        <time>2019-04-27T09:16:27Z</time>
      </trkpt>
      <trkpt lat="45.78816" lon="2.96054">
        <ele>1129.5546610859</ele>
        <time>2019-04-27T09:16:37Z</time>
      </trkpt>
      <trkpt lat="45.78815" lon="2.96046">
        <ele>1129.6083962285</ele>
        <time>2019-04-27T09:16:46Z</time>
      </trkpt>
      <trkpt lat="45.78814" lon="2.96033">
        <ele>1129.6769904885</ele>
        <time>2019-04-27T09:16:54Z</time>
      </trkpt>
      <trkpt lat="45.78813" lon="2.96015">
        <ele>1129.8002741508</ele>
        <time>2019-04-27T09:17:04Z</time>
      </trkpt>
      <trkpt lat="45.78813" lon="2.96">
        <ele>1129.9625223152</ele>
        <time>2019-04-27T09:17:14Z</time>
      </trkpt>
      <trkpt lat="45.78814" lon="2.95986">
        <ele>1130.1316296993</ele>
        <time>2019-04-27T09:17:23Z</time>
      </trkpt>
      <trkpt lat="45.78819" lon="2.95976">
        <ele>1130.3153453217</ele>
        <time>2019-04-27T09:17:32Z</time>
      </trkpt>
      <trkpt lat="45.78821" lon="2.95963">
        <ele>1130.5133566608</ele>
        <time>2019-04-27T09:17:41Z</time>
      </trkpt>
      <trkpt lat="45.78823" lon="2.9595">
        <ele>1130.7350112939</ele>
        <time>2019-04-27T09:17:50Z</time>
      </trkpt>
      <trkpt lat="45.78831" lon="2.95938">
        <ele>1130.9899296679</ele>
        <time>2019-04-27T09:17:59Z</time>
      </trkpt>
      <trkpt lat="45.78837" lon="2.95924">
        <ele>1131.3271403005</ele>
        <time>2019-04-27T09:18:09Z</time>
      </trkpt>
      <trkpt lat="45.78841" lon="2.95915">
        <ele>1131.6817395469</ele>
        <time>2019-04-27T09:18:18Z</time>
      </trkpt>
      <trkpt lat="45.78846" lon="2.95904">
        <ele>1132.0314050145</ele>
        <time>2019-04-27T09:18:26Z</time>
      </trkpt>
      <trkpt lat="45.78851" lon="2.95895">
        <ele>1132.4632372933</ele>
        <time>2019-04-27T09:18:35Z</time>
      </trkpt>
      <trkpt lat="45.7886" lon="2.95886">
        <ele>1132.9840267837</ele>
        <time>2019-04-27T09:18:45Z</time>
      </trkpt>
      <trkpt lat="45.78869" lon="2.95876">
        <ele>1133.5320912175</ele>
        <time>2019-04-27T09:18:55Z</time>
      </trkpt>
      <trkpt lat="45.78877" lon="2.95869">
        <ele>1133.9760104176</ele>
        <time>2019-04-27T09:19:03Z</time>
      </trkpt>
      <trkpt lat="45.78886" lon="2.9586">
        <ele>1134.532598268</ele>
        <time>2019-04-27T09:19:13Z</time>
      </trkpt>
      <trkpt lat="45.78894" lon="2.95856">
        <ele>1134.9735765069</ele>
        <time>2019-04-27T09:19:21Z</time>
      </trkpt>
      <trkpt lat="45.78898" lon="2.95851">
        <ele>1135.4198226658</ele>
        <time>2019-04-27T09:19:29Z</time>
      </trkpt>
      <trkpt lat="45.78906" lon="2.9585">
        <ele>1135.9343007371</ele>
        <time>2019-04-27T09:19:38Z</time>
      </trkpt>
      <trkpt lat="45.78918" lon="2.95852">
        <ele>1136.4382978603</ele>
        <time>2019-04-27T09:19:47Z</time>
      </trkpt>
      <trkpt lat="45.78927" lon="2.95856">
        <ele>1136.9315418014</ele>
        <time>2019-04-27T09:19:56Z</time>
      </trkpt>
      <trkpt lat="45.78937" lon="2.9586">
        <ele>1137.4230109123</ele>
        <time>2019-04-27T09:20:05Z</time>
      </trkpt>
      <trkpt lat="45.78947" lon="2.95864">
        <ele>1137.9123684504</ele>
        <time>2019-04-27T09:20:14Z</time>
      </trkpt>
      <trkpt lat="45.78957" lon="2.95868">
        <ele>1138.3383052275</ele>
        <time>2019-04-27T09:20:22Z</time>
      </trkpt>
      <trkpt lat="45.78969" lon="2.95872">
        <ele>1138.8698386263</ele>
        <time>2019-04-27T09:20:32Z</time>
      </trkpt>
      <trkpt lat="45.78984" lon="2.95879">
        <ele>1139.3435157456</ele>
        <time>2019-04-27T09:20:41Z</time>
      </trkpt>
      <trkpt lat="45.78995" lon="2.9588">
        <ele>1139.8542249956</ele>
        <time>2019-04-27T09:20:51Z</time>
      </trkpt>
      <trkpt lat="45.79002" lon="2.95876">
        <ele>1140.3113851441</ele>
        <time>2019-04-27T09:21:00Z</time>
      </trkpt>
      <trkpt lat="45.79006" lon="2.95872">
        <ele>1140.3959858117</ele>
        <time>2019-04-27T09:21:08Z</time>
      </trkpt>
      <trkpt lat="45.79006" lon="2.95871">
        <ele>1140.4418832745</ele>
        <time>2019-04-27T09:21:17Z</time>
      </trkpt>
      <trkpt lat="45.79006" lon="2.95871">
        <ele>1140.8215720647</ele>
        <time>2019-04-27T09:21:38Z</time>
      </trkpt>
      <trkpt lat="45.79009" lon="2.95873">
        <ele>1141.0778340693</ele>
        <time>2019-04-27T09:21:47Z</time>
      </trkpt>
      <trkpt lat="45.79009" lon="2.95873">
        <ele>1141.1825631913</ele>
        <time>2019-04-27T09:21:59Z</time>
      </trkpt>
      <trkpt lat="45.7901" lon="2.95872">
        <ele>1141.3323568368</ele>
        <time>2019-04-27T09:22:11Z</time>
      </trkpt>
      <trkpt lat="45.7901" lon="2.95871">
        <ele>1141.4147991154</ele>
        <time>2019-04-27T09:22:27Z</time>
      </trkpt>
      <trkpt lat="45.79011" lon="2.95871">
        <ele>1141.6678493388</ele>
        <time>2019-04-27T09:23:17Z</time>
      </trkpt>
      <trkpt lat="45.79011" lon="2.95871">
        <ele>1141.8633883782</ele>
        <time>2019-04-27T09:23:30Z</time>
      </trkpt>
      <trkpt lat="45.79012" lon="2.95871">
        <ele>1142.0806731823</ele>
        <time>2019-04-27T09:23:42Z</time>
      </trkpt>
      <trkpt lat="45.79012" lon="2.95869">
        <ele>1142.1973076493</ele>
        <time>2019-04-27T09:23:51Z</time>
      </trkpt>
      <trkpt lat="45.79011" lon="2.95869">
        <ele>1142.4123829998</ele>
        <time>2019-04-27T09:24:15Z</time>
      </trkpt>
      <trkpt lat="45.79011" lon="2.9587">
        <ele>1142.5309773729</ele>
        <time>2019-04-27T09:24:36Z</time>
      </trkpt>
      <trkpt lat="45.79008" lon="2.95869">
        <ele>1142.8008853067</ele>
        <time>2019-04-27T09:24:45Z</time>
      </trkpt>
      <trkpt lat="45.79007" lon="2.95872">
        <ele>1143.0669450049</ele>
        <time>2019-04-27T09:24:55Z</time>
      </trkpt>
      <trkpt lat="45.79007" lon="2.95873">
        <ele>1143.0923445576</ele>
        <time>2019-04-27T09:25:03Z</time>
      </trkpt>
      <trkpt lat="45.79007" lon="2.95875">
        <ele>1143.2198698446</ele>
        <time>2019-04-27T09:25:13Z</time>
      </trkpt>
      <trkpt lat="45.79008" lon="2.95876">
        <ele>1143.2513252729</ele>
        <time>2019-04-27T09:25:22Z</time>
      </trkpt>
      <trkpt lat="45.79008" lon="2.95877">
        <ele>1143.318123441</ele>
        <time>2019-04-27T09:25:31Z</time>
      </trkpt>
      <trkpt lat="45.79009" lon="2.95877">
        <ele>1143.3943724884</ele>
        <time>2019-04-27T09:25:40Z</time>
      </trkpt>
      <trkpt lat="45.7901" lon="2.9588">
        <ele>1143.4797782085</ele>
        <time>2019-04-27T09:25:50Z</time>
      </trkpt>
      <trkpt lat="45.7901" lon="2.95881">
        <ele>1143.6608561606</ele>
        <time>2019-04-27T09:26:00Z</time>
      </trkpt>
      <trkpt lat="45.79011" lon="2.95883">
        <ele>1143.7975724478</ele>
        <time>2019-04-27T09:26:09Z</time>
      </trkpt>
      <trkpt lat="45.7901" lon="2.95884">
        <ele>1143.8963405492</ele>
        <time>2019-04-27T09:26:19Z</time>
      </trkpt>
      <trkpt lat="45.79011" lon="2.95884">
        <ele>1144.1338177971</ele>
        <time>2019-04-27T09:26:50Z</time>
      </trkpt>
      <trkpt lat="45.79014" lon="2.95881">
        <ele>1144.6896202041</ele>
        <time>2019-04-27T09:26:59Z</time>
      </trkpt>
      <trkpt lat="45.79017" lon="2.95872">
        <ele>1145.2386343112</ele>
        <time>2019-04-27T09:27:09Z</time>
      </trkpt>
      <trkpt lat="45.79018" lon="2.95863">
        <ele>1145.6368657677</ele>
        <time>2019-04-27T09:27:17Z</time>
      </trkpt>
      <trkpt lat="45.7902" lon="2.95848">
        <ele>1146.0673883091</ele>
        <time>2019-04-27T09:27:26Z</time>
      </trkpt>
      <trkpt lat="45.79023" lon="2.95837">
        <ele>1146.5307703375</ele>
        <time>2019-04-27T09:27:35Z</time>
      </trkpt>
      <trkpt lat="45.79025" lon="2.95824">
        <ele>1147.05978846</ele>
        <time>2019-04-27T09:27:45Z</time>
      </trkpt>
      <trkpt lat="45.79027" lon="2.95813">
        <ele>1147.5381315912</ele>
        <time>2019-04-27T09:27:54Z</time>
      </trkpt>
      <trkpt lat="45.7903" lon="2.95805">
        <ele>1148.0496570649</ele>
        <time>2019-04-27T09:28:04Z</time>
      </trkpt>
      <trkpt lat="45.79032" lon="2.95794">
        <ele>1148.551959242</ele>
        <time>2019-04-27T09:28:14Z</time>
      </trkpt>
      <trkpt lat="45.79031" lon="2.95789">
        <ele>1149.0637048419</ele>
        <time>2019-04-27T09:28:24Z</time>
      </trkpt>
      <trkpt lat="45.79031" lon="2.95781">
        <ele>1149.5502273697</ele>
        <time>2019-04-27T09:28:34Z</time>
      </trkpt>
      <trkpt lat="45.79033" lon="2.95773">
        <ele>1149.9696614815</ele>
        <time>2019-04-27T09:28:43Z</time>
      </trkpt>
      <trkpt lat="45.79035" lon="2.95762">
        <ele>1150.5509781819</ele>
        <time>2019-04-27T09:28:53Z</time>
      </trkpt>
      <trkpt lat="45.79036" lon="2.95753">
        <ele>1151.1751726921</ele>
        <time>2019-04-27T09:29:02Z</time>
      </trkpt>
      <trkpt lat="45.79035" lon="2.95746">
        <ele>1151.8167552175</ele>
        <time>2019-04-27T09:29:11Z</time>
      </trkpt>
      <trkpt lat="45.79035" lon="2.95739">
        <ele>1152.4256538945</ele>
        <time>2019-04-27T09:29:19Z</time>
      </trkpt>
      <trkpt lat="45.79033" lon="2.95731">
        <ele>1153.132723845</ele>
        <time>2019-04-27T09:29:28Z</time>
      </trkpt>
      <trkpt lat="45.79034" lon="2.95723">
        <ele>1153.8696119571</ele>
        <time>2019-04-27T09:29:37Z</time>
      </trkpt>
      <trkpt lat="45.79038" lon="2.95713">
        <ele>1154.5433813218</ele>
        <time>2019-04-27T09:29:45Z</time>
      </trkpt>
      <trkpt lat="45.79037" lon="2.95711">
        <ele>1155.0566993802</ele>
        <time>2019-04-27T09:29:54Z</time>
      </trkpt>
      <trkpt lat="45.79038" lon="2.95704">
        <ele>1156.1100740046</ele>
        <time>2019-04-27T09:30:04Z</time>
      </trkpt>
      <trkpt lat="45.79039" lon="2.95696">
        <ele>1157.1455191705</ele>
        <time>2019-04-27T09:30:13Z</time>
      </trkpt>
      <trkpt lat="45.79039" lon="2.95685">
        <ele>1158.2676450089</ele>
        <time>2019-04-27T09:30:22Z</time>
      </trkpt>
      <trkpt lat="45.7904" lon="2.95677">
        <ele>1159.3315600223</ele>
        <time>2019-04-27T09:30:30Z</time>
      </trkpt>
      <trkpt lat="45.79041" lon="2.95667">
        <ele>1160.7631199559</ele>
        <time>2019-04-27T09:30:40Z</time>
      </trkpt>
      <trkpt lat="45.79041" lon="2.95658">
        <ele>1162.2690858845</ele>
        <time>2019-04-27T09:30:50Z</time>
      </trkpt>
      <trkpt lat="45.79042" lon="2.95647">
        <ele>1163.6754185633</ele>
        <time>2019-04-27T09:30:59Z</time>
      </trkpt>
      <trkpt lat="45.79044" lon="2.95636">
        <ele>1165.1227092802</ele>
        <time>2019-04-27T09:31:08Z</time>
      </trkpt>
      <trkpt lat="45.79048" lon="2.95623">
        <ele>1167.0384903118</ele>
        <time>2019-04-27T09:31:18Z</time>
      </trkpt>
      <trkpt lat="45.79051" lon="2.95612">
        <ele>1168.9188973188</ele>
        <time>2019-04-27T09:31:27Z</time>
      </trkpt>
      <trkpt lat="45.79049" lon="2.95603">
        <ele>1170.1077243387</ele>
        <time>2019-04-27T09:31:36Z</time>
      </trkpt>
      <trkpt lat="45.79046" lon="2.95601">
        <ele>1172.1617158051</ele>
        <time>2019-04-27T09:31:45Z</time>
      </trkpt>
      <trkpt lat="45.79047" lon="2.95594">
        <ele>1174.2542513405</ele>
        <time>2019-04-27T09:31:54Z</time>
      </trkpt>
      <trkpt lat="45.79049" lon="2.95586">
        <ele>1176.2826169414</ele>
        <time>2019-04-27T09:32:03Z</time>
      </trkpt>
      <trkpt lat="45.79052" lon="2.95578">
        <ele>1178.2061970841</ele>
        <time>2019-04-27T09:32:12Z</time>
      </trkpt>
      <trkpt lat="45.79054" lon="2.9557">
        <ele>1180.0502723491</ele>
        <time>2019-04-27T09:32:21Z</time>
      </trkpt>
      <trkpt lat="45.79056" lon="2.95562">
        <ele>1181.9636970219</ele>
        <time>2019-04-27T09:32:31Z</time>
      </trkpt>
      <trkpt lat="45.79059" lon="2.95554">
        <ele>1183.4330561755</ele>
        <time>2019-04-27T09:32:39Z</time>
      </trkpt>
      <trkpt lat="45.79061" lon="2.95546">
        <ele>1184.9866823511</ele>
        <time>2019-04-27T09:32:48Z</time>
      </trkpt>
      <trkpt lat="45.79064" lon="2.95538">
        <ele>1186.6004887906</ele>
        <time>2019-04-27T09:32:58Z</time>
      </trkpt>
      <trkpt lat="45.79067" lon="2.95531">
        <ele>1187.9425372725</ele>
        <time>2019-04-27T09:33:07Z</time>
      </trkpt>
      <trkpt lat="45.79069" lon="2.95519">
        <ele>1189.1896673192</ele>
        <time>2019-04-27T09:33:16Z</time>
      </trkpt>
      <trkpt lat="45.79066" lon="2.95508">
        <ele>1189.8968422813</ele>
        <time>2019-04-27T09:33:25Z</time>
      </trkpt>
      <trkpt lat="45.79053" lon="2.955">
        <ele>1190.3831471612</ele>
        <time>2019-04-27T09:33:34Z</time>
      </trkpt>
      <trkpt lat="45.7905" lon="2.95498">
        <ele>1190.6454716724</ele>
        <time>2019-04-27T09:33:44Z</time>
      </trkpt>
      <trkpt lat="45.7905" lon="2.95497">
        <ele>1191.2203409761</ele>
        <time>2019-04-27T09:34:11Z</time>
      </trkpt>
      <trkpt lat="45.7905" lon="2.95497">
        <ele>1193.1458719972</ele>
        <time>2019-04-27T09:35:25Z</time>
      </trkpt>
      <trkpt lat="45.7905" lon="2.95511">
        <ele>1194.6693551458</ele>
        <time>2019-04-27T09:35:34Z</time>
      </trkpt>
      <trkpt lat="45.79049" lon="2.95515">
        <ele>1195.0924732665</ele>
        <time>2019-04-27T09:35:43Z</time>
      </trkpt>
      <trkpt lat="45.79048" lon="2.95517">
        <ele>1195.382794973</ele>
        <time>2019-04-27T09:35:53Z</time>
      </trkpt>
      <trkpt lat="45.79048" lon="2.95518">
        <ele>1195.6716420733</ele>
        <time>2019-04-27T09:36:03Z</time>
      </trkpt>
      <trkpt lat="45.79049" lon="2.9552">
        <ele>1196.3176750505</ele>
        <time>2019-04-27T09:36:11Z</time>
      </trkpt>
      <trkpt lat="45.79052" lon="2.95518">
        <ele>1196.8283624185</ele>
        <time>2019-04-27T09:36:20Z</time>
      </trkpt>
      <trkpt lat="45.79048" lon="2.95516">
        <ele>1197.5079448157</ele>
        <time>2019-04-27T09:36:30Z</time>
      </trkpt>
      <trkpt lat="45.7905" lon="2.95516">
        <ele>1198.1625827034</ele>
        <time>2019-04-27T09:36:39Z</time>
      </trkpt>
      <trkpt lat="45.7905" lon="2.95516">
        <ele>1198.768987135</ele>
        <time>2019-04-27T09:36:47Z</time>
      </trkpt>
      <trkpt lat="45.79049" lon="2.95516">
        <ele>1199.9257431255</ele>
        <time>2019-04-27T09:36:56Z</time>
      </trkpt>
      <trkpt lat="45.79046" lon="2.95523">
        <ele>1200.9534431159</ele>
        <time>2019-04-27T09:37:05Z</time>
      </trkpt>
      <trkpt lat="45.79042" lon="2.95534">
        <ele>1201.9508379011</ele>
        <time>2019-04-27T09:37:15Z</time>
      </trkpt>
      <trkpt lat="45.79041" lon="2.95542">
        <ele>1202.7287901353</ele>
        <time>2019-04-27T09:37:24Z</time>
      </trkpt>
      <trkpt lat="45.79038" lon="2.95555">
        <ele>1203.3960761564</ele>
        <time>2019-04-27T09:37:33Z</time>
      </trkpt>
      <trkpt lat="45.79035" lon="2.9557">
        <ele>1204.02026135</ele>
        <time>2019-04-27T09:37:43Z</time>
      </trkpt>
      <trkpt lat="45.79032" lon="2.95583">
        <ele>1204.4877478462</ele>
        <time>2019-04-27T09:37:52Z</time>
      </trkpt>
      <trkpt lat="45.79031" lon="2.95594">
        <ele>1204.8728258886</ele>
        <time>2019-04-27T09:38:01Z</time>
      </trkpt>
      <trkpt lat="45.79034" lon="2.95605">
        <ele>1205.2318267302</ele>
        <time>2019-04-27T09:38:11Z</time>
      </trkpt>
      <trkpt lat="45.79035" lon="2.95617">
        <ele>1205.5068788653</ele>
        <time>2019-04-27T09:38:20Z</time>
      </trkpt>
      <trkpt lat="45.79035" lon="2.95635">
        <ele>1205.7215902844</ele>
        <time>2019-04-27T09:38:29Z</time>
      </trkpt>
      <trkpt lat="45.79035" lon="2.95641">
        <ele>1205.9309921465</ele>
        <time>2019-04-27T09:38:38Z</time>
      </trkpt>
      <trkpt lat="45.79034" lon="2.95655">
        <ele>1206.1049238994</ele>
        <time>2019-04-27T09:38:47Z</time>
      </trkpt>
      <trkpt lat="45.79033" lon="2.95677">
        <ele>1206.2456785261</ele>
        <time>2019-04-27T09:38:56Z</time>
      </trkpt>
      <trkpt lat="45.79032" lon="2.95693">
        <ele>1206.3964086137</ele>
        <time>2019-04-27T09:39:06Z</time>
      </trkpt>
      <trkpt lat="45.79029" lon="2.95701">
        <ele>1206.5258054662</ele>
        <time>2019-04-27T09:39:15Z</time>
      </trkpt>
      <trkpt lat="45.79031" lon="2.95718">
        <ele>1206.6308576891</ele>
        <time>2019-04-27T09:39:23Z</time>
      </trkpt>
      <trkpt lat="45.79031" lon="2.95735">
        <ele>1206.7567927065</ele>
        <time>2019-04-27T09:39:32Z</time>
      </trkpt>
      <trkpt lat="45.79029" lon="2.95752">
        <ele>1206.8995293943</ele>
        <time>2019-04-27T09:39:42Z</time>
      </trkpt>
      <trkpt lat="45.79027" lon="2.95764">
        <ele>1207.0083662257</ele>
        <time>2019-04-27T09:39:50Z</time>
      </trkpt>
      <trkpt lat="45.79026" lon="2.95776">
        <ele>1207.1167077596</ele>
        <time>2019-04-27T09:40:00Z</time>
      </trkpt>
      <trkpt lat="45.79023" lon="2.95785">
        <ele>1207.181963666</ele>
        <time>2019-04-27T09:40:09Z</time>
      </trkpt>
      <trkpt lat="45.79024" lon="2.9579">
        <ele>1207.2006352556</ele>
        <time>2019-04-27T09:40:19Z</time>
      </trkpt>
      <trkpt lat="45.7902" lon="2.95794">
        <ele>1207.1623906859</ele>
        <time>2019-04-27T09:40:29Z</time>
      </trkpt>
      <trkpt lat="45.7902" lon="2.95797">
        <ele>1207.114852887</ele>
        <time>2019-04-27T09:40:38Z</time>
      </trkpt>
      <trkpt lat="45.79017" lon="2.95804">
        <ele>1207.0541805525</ele>
        <time>2019-04-27T09:40:46Z</time>
      </trkpt>
      <trkpt lat="45.79016" lon="2.95821">
        <ele>1206.9667845581</ele>
        <time>2019-04-27T09:40:56Z</time>
      </trkpt>
      <trkpt lat="45.79013" lon="2.95843">
        <ele>1206.8191281621</ele>
        <time>2019-04-27T09:41:06Z</time>
      </trkpt>
      <trkpt lat="45.79011" lon="2.9586">
        <ele>1206.6306907669</ele>
        <time>2019-04-27T09:41:14Z</time>
      </trkpt>
      <trkpt lat="45.7901" lon="2.95876">
        <ele>1206.3790320607</ele>
        <time>2019-04-27T09:41:24Z</time>
      </trkpt>
      <trkpt lat="45.7901" lon="2.95889">
        <ele>1206.0622493439</ele>
        <time>2019-04-27T09:41:33Z</time>
      </trkpt>
      <trkpt lat="45.79007" lon="2.95898">
        <ele>1205.689306673</ele>
        <time>2019-04-27T09:41:43Z</time>
      </trkpt>
      <trkpt lat="45.79009" lon="2.95893">
        <ele>1205.5334846053</ele>
        <time>2019-04-27T09:41:51Z</time>
      </trkpt>
      <trkpt lat="45.79009" lon="2.95892">
        <ele>1205.4952312111</ele>
        <time>2019-04-27T09:42:01Z</time>
      </trkpt>
      <trkpt lat="45.79008" lon="2.9589">
        <ele>1205.4191030084</ele>
        <time>2019-04-27T09:42:19Z</time>
      </trkpt>
      <trkpt lat="45.79009" lon="2.95889">
        <ele>1205.1568819394</ele>
        <time>2019-04-27T09:43:07Z</time>
      </trkpt>
      <trkpt lat="45.7901" lon="2.95889">
        <ele>1204.9968231857</ele>
        <time>2019-04-27T09:43:21Z</time>
      </trkpt>
      <trkpt lat="45.79012" lon="2.95891">
        <ele>1204.7403231916</ele>
        <time>2019-04-27T09:43:30Z</time>
      </trkpt>
      <trkpt lat="45.79012" lon="2.95893">
        <ele>1204.6702462214</ele>
        <time>2019-04-27T09:43:39Z</time>
      </trkpt>
      <trkpt lat="45.79011" lon="2.95892">
        <ele>1204.5848459387</ele>
        <time>2019-04-27T09:43:48Z</time>
      </trkpt>
      <trkpt lat="45.7901" lon="2.9589">
        <ele>1204.3912118511</ele>
        <time>2019-04-27T09:43:58Z</time>
      </trkpt>
      <trkpt lat="45.79011" lon="2.95889">
        <ele>1204.0969035333</ele>
        <time>2019-04-27T09:44:18Z</time>
      </trkpt>
      <trkpt lat="45.79012" lon="2.95891">
        <ele>1203.9149647959</ele>
        <time>2019-04-27T09:44:26Z</time>
      </trkpt>
      <trkpt lat="45.7901" lon="2.95893">
        <ele>1203.4509400648</ele>
        <time>2019-04-27T09:44:35Z</time>
      </trkpt>
      <trkpt lat="45.79011" lon="2.95893">
        <ele>1203.3641490532</ele>
        <time>2019-04-27T09:44:44Z</time>
      </trkpt>
      <trkpt lat="45.7901" lon="2.95893">
        <ele>1203.025882324</ele>
        <time>2019-04-27T09:44:53Z</time>
      </trkpt>
      <trkpt lat="45.79001" lon="2.95904">
        <ele>1202.3069446751</ele>
        <time>2019-04-27T09:45:01Z</time>
      </trkpt>
      <trkpt lat="45.78996" lon="2.95924">
        <ele>1201.5031268012</ele>
        <time>2019-04-27T09:45:10Z</time>
      </trkpt>
      <trkpt lat="45.78994" lon="2.95937">
        <ele>1200.703181224</ele>
        <time>2019-04-27T09:45:20Z</time>
      </trkpt>
      <trkpt lat="45.78994" lon="2.95946">
        <ele>1200.0842828003</ele>
        <time>2019-04-27T09:45:29Z</time>
      </trkpt>
      <trkpt lat="45.78992" lon="2.95954">
        <ele>1199.564582051</ele>
        <time>2019-04-27T09:45:38Z</time>
      </trkpt>
      <trkpt lat="45.78989" lon="2.95966">
        <ele>1199.0269834318</ele>
        <time>2019-04-27T09:45:48Z</time>
      </trkpt>
      <trkpt lat="45.78988" lon="2.95978">
        <ele>1198.5789904281</ele>
        <time>2019-04-27T09:45:57Z</time>
      </trkpt>
      <trkpt lat="45.78987" lon="2.95992">
        <ele>1198.1515290456</ele>
        <time>2019-04-27T09:46:07Z</time>
      </trkpt>
      <trkpt lat="45.78986" lon="2.96001">
        <ele>1197.8288526763</ele>
        <time>2019-04-27T09:46:16Z</time>
      </trkpt>
      <trkpt lat="45.78984" lon="2.96012">
        <ele>1197.5521836775</ele>
        <time>2019-04-27T09:46:25Z</time>
      </trkpt>
      <trkpt lat="45.78981" lon="2.96023">
        <ele>1197.2848924896</ele>
        <time>2019-04-27T09:46:34Z</time>
      </trkpt>
      <trkpt lat="45.78981" lon="2.96024">
        <ele>1197.1672125734</ele>
        <time>2019-04-27T09:46:43Z</time>
      </trkpt>
      <trkpt lat="45.78978" lon="2.96029">
        <ele>1196.8320181841</ele>
        <time>2019-04-27T09:46:53Z</time>
      </trkpt>
      <trkpt lat="45.78976" lon="2.9604">
        <ele>1196.5943123703</ele>
        <time>2019-04-27T09:47:01Z</time>
      </trkpt>
      <trkpt lat="45.78974" lon="2.9605">
        <ele>1196.3527687298</ele>
        <time>2019-04-27T09:47:10Z</time>
      </trkpt>
      <trkpt lat="45.78969" lon="2.96061">
        <ele>1196.0768609295</ele>
        <time>2019-04-27T09:47:20Z</time>
      </trkpt>
      <trkpt lat="45.78968" lon="2.96066">
        <ele>1195.8034969529</ele>
        <time>2019-04-27T09:47:29Z</time>
      </trkpt>
      <trkpt lat="45.78965" lon="2.96079">
        <ele>1195.4901852457</ele>
        <time>2019-04-27T09:47:39Z</time>
      </trkpt>
      <trkpt lat="45.78965" lon="2.96087">
        <ele>1195.2690246263</ele>
        <time>2019-04-27T09:47:47Z</time>
      </trkpt>
      <trkpt lat="45.78963" lon="2.961">
        <ele>1195.0288374666</ele>
        <time>2019-04-27T09:47:56Z</time>
      </trkpt>
      <trkpt lat="45.78963" lon="2.96111">
        <ele>1194.8173675431</ele>
        <time>2019-04-27T09:48:05Z</time>
      </trkpt>
      <trkpt lat="45.78963" lon="2.96124">
        <ele>1194.6512441616</ele>
        <time>2019-04-27T09:48:13Z</time>
      </trkpt>
      <trkpt lat="45.78963" lon="2.96139">
        <ele>1194.4926263988</ele>
        <time>2019-04-27T09:48:22Z</time>
      </trkpt>
      <trkpt lat="45.78963" lon="2.96154">
        <ele>1194.3653724718</ele>
        <time>2019-04-27T09:48:31Z</time>
      </trkpt>
      <trkpt lat="45.78966" lon="2.96161">
        <ele>1194.3075781559</ele>
        <time>2019-04-27T09:48:39Z</time>
      </trkpt>
      <trkpt lat="45.78969" lon="2.9617">
        <ele>1194.2069589115</ele>
        <time>2019-04-27T09:48:48Z</time>
      </trkpt>
      <trkpt lat="45.78971" lon="2.96182">
        <ele>1194.0931818088</ele>
        <time>2019-04-27T09:48:58Z</time>
      </trkpt>
      <trkpt lat="45.78972" lon="2.96187">
        <ele>1194.0019278949</ele>
        <time>2019-04-27T09:49:06Z</time>
      </trkpt>
      <trkpt lat="45.78978" lon="2.96189">
        <ele>1193.8615001064</ele>
        <time>2019-04-27T09:49:16Z</time>
      </trkpt>
      <trkpt lat="45.78983" lon="2.96189">
        <ele>1193.6966478425</ele>
        <time>2019-04-27T09:49:26Z</time>
      </trkpt>
      <trkpt lat="45.78991" lon="2.96191">
        <ele>1193.5504763227</ele>
        <time>2019-04-27T09:49:34Z</time>
      </trkpt>
      <trkpt lat="45.78999" lon="2.96188">
        <ele>1193.3876302391</ele>
        <time>2019-04-27T09:49:43Z</time>
      </trkpt>
      <trkpt lat="45.79003" lon="2.96188">
        <ele>1193.2884038374</ele>
        <time>2019-04-27T09:49:52Z</time>
      </trkpt>
      <trkpt lat="45.79001" lon="2.96187">
        <ele>1193.1797512872</ele>
        <time>2019-04-27T09:50:00Z</time>
      </trkpt>
      <trkpt lat="45.79" lon="2.96187">
        <ele>1193.1548814806</ele>
        <time>2019-04-27T09:50:19Z</time>
      </trkpt>
      <trkpt lat="45.79001" lon="2.96188">
        <ele>1193.0989786434</ele>
        <time>2019-04-27T09:50:32Z</time>
      </trkpt>
      <trkpt lat="45.79001" lon="2.96188">
        <ele>1193.0725667613</ele>
        <time>2019-04-27T09:50:41Z</time>
      </trkpt>
      <trkpt lat="45.79003" lon="2.96188">
        <ele>1193.0658975414</ele>
        <time>2019-04-27T09:50:51Z</time>
      </trkpt>
      <trkpt lat="45.79004" lon="2.96189">
        <ele>1193.0556403534</ele>
        <time>2019-04-27T09:51:00Z</time>
      </trkpt>
      <trkpt lat="45.79005" lon="2.96189">
        <ele>1193.0377462929</ele>
        <time>2019-04-27T09:51:10Z</time>
      </trkpt>
      <trkpt lat="45.79006" lon="2.96192">
        <ele>1193.0234246966</ele>
        <time>2019-04-27T09:51:20Z</time>
      </trkpt>
      <trkpt lat="45.79008" lon="2.96194">
        <ele>1193.0230406046</ele>
        <time>2019-04-27T09:51:28Z</time>
      </trkpt>
      <trkpt lat="45.7901" lon="2.96195">
        <ele>1193.0248810093</ele>
        <time>2019-04-27T09:51:36Z</time>
      </trkpt>
      <trkpt lat="45.79011" lon="2.96196">
        <ele>1193.0281564439</ele>
        <time>2019-04-27T09:51:45Z</time>
      </trkpt>
      <trkpt lat="45.79012" lon="2.96197">
        <ele>1193.0385646616</ele>
        <time>2019-04-27T09:51:56Z</time>
      </trkpt>
      <trkpt lat="45.79012" lon="2.96198">
        <ele>1193.0451650349</ele>
        <time>2019-04-27T09:52:06Z</time>
      </trkpt>
      <trkpt lat="45.79013" lon="2.96199">
        <ele>1193.0507772869</ele>
        <time>2019-04-27T09:52:15Z</time>
      </trkpt>
      <trkpt lat="45.79013" lon="2.96201">
        <ele>1193.0566848344</ele>
        <time>2019-04-27T09:52:24Z</time>
      </trkpt>
      <trkpt lat="45.79013" lon="2.962">
        <ele>1193.0705406215</ele>
        <time>2019-04-27T09:52:44Z</time>
      </trkpt>
      <trkpt lat="45.79013" lon="2.96199">
        <ele>1193.0708880574</ele>
        <time>2019-04-27T09:52:54Z</time>
      </trkpt>
      <trkpt lat="45.79013" lon="2.96198">
        <ele>1193.0698576777</ele>
        <time>2019-04-27T09:53:03Z</time>
      </trkpt>
      <trkpt lat="45.79012" lon="2.96197">
        <ele>1193.0678512713</ele>
        <time>2019-04-27T09:53:13Z</time>
      </trkpt>
      <trkpt lat="45.79012" lon="2.96196">
        <ele>1193.0673869533</ele>
        <time>2019-04-27T09:53:29Z</time>
      </trkpt>
      <trkpt lat="45.79009" lon="2.96195">
        <ele>1193.0697253389</ele>
        <time>2019-04-27T09:53:37Z</time>
      </trkpt>
      <trkpt lat="45.79007" lon="2.96197">
        <ele>1193.085763955</ele>
        <time>2019-04-27T09:53:45Z</time>
      </trkpt>
      <trkpt lat="45.79006" lon="2.9621">
        <ele>1193.1056243022</ele>
        <time>2019-04-27T09:53:55Z</time>
      </trkpt>
      <trkpt lat="45.79007" lon="2.96224">
        <ele>1193.1176556662</ele>
        <time>2019-04-27T09:54:04Z</time>
      </trkpt>
      <trkpt lat="45.79008" lon="2.96234">
        <ele>1193.1244305627</ele>
        <time>2019-04-27T09:54:13Z</time>
      </trkpt>
      <trkpt lat="45.79011" lon="2.96242">
        <ele>1193.1259832479</ele>
        <time>2019-04-27T09:54:21Z</time>
      </trkpt>
      <trkpt lat="45.79013" lon="2.96262">
        <ele>1193.0934850518</ele>
        <time>2019-04-27T09:54:31Z</time>
      </trkpt>
      <trkpt lat="45.79021" lon="2.96274">
        <ele>1193.018791892</ele>
        <time>2019-04-27T09:54:39Z</time>
      </trkpt>
      <trkpt lat="45.79027" lon="2.96281">
        <ele>1192.8792287866</ele>
        <time>2019-04-27T09:54:48Z</time>
      </trkpt>
      <trkpt lat="45.79027" lon="2.96286">
        <ele>1192.7220352929</ele>
        <time>2019-04-27T09:54:56Z</time>
      </trkpt>
      <trkpt lat="45.79028" lon="2.963">
        <ele>1192.5208488568</ele>
        <time>2019-04-27T09:55:05Z</time>
      </trkpt>
      <trkpt lat="45.79034" lon="2.96315">
        <ele>1192.3281463273</ele>
        <time>2019-04-27T09:55:13Z</time>
      </trkpt>
      <trkpt lat="45.79036" lon="2.96329">
        <ele>1192.0718946724</ele>
        <time>2019-04-27T09:55:23Z</time>
      </trkpt>
      <trkpt lat="45.79037" lon="2.96341">
        <ele>1191.8220457057</ele>
        <time>2019-04-27T09:55:32Z</time>
      </trkpt>
      <trkpt lat="45.79039" lon="2.96351">
        <ele>1191.5439021168</ele>
        <time>2019-04-27T09:55:42Z</time>
      </trkpt>
      <trkpt lat="45.7904" lon="2.96361">
        <ele>1191.2740884027</ele>
        <time>2019-04-27T09:55:51Z</time>
      </trkpt>
      <trkpt lat="45.79043" lon="2.9637">
        <ele>1191.0087838615</ele>
        <time>2019-04-27T09:55:59Z</time>
      </trkpt>
      <trkpt lat="45.79046" lon="2.96382">
        <ele>1190.7176151531</ele>
        <time>2019-04-27T09:56:07Z</time>
      </trkpt>
      <trkpt lat="45.79052" lon="2.96397">
        <ele>1190.3588125602</ele>
        <time>2019-04-27T09:56:17Z</time>
      </trkpt>
      <trkpt lat="45.79057" lon="2.96406">
        <ele>1190.0766401156</ele>
        <time>2019-04-27T09:56:26Z</time>
      </trkpt>
      <trkpt lat="45.7906" lon="2.96414">
        <ele>1189.784649995</ele>
        <time>2019-04-27T09:56:35Z</time>
      </trkpt>
      <trkpt lat="45.79061" lon="2.96421">
        <ele>1189.4726539876</ele>
        <time>2019-04-27T09:56:44Z</time>
      </trkpt>
      <trkpt lat="45.79065" lon="2.96429">
        <ele>1189.1598135293</ele>
        <time>2019-04-27T09:56:54Z</time>
      </trkpt>
      <trkpt lat="45.79069" lon="2.96442">
        <ele>1188.9364498545</ele>
        <time>2019-04-27T09:57:02Z</time>
      </trkpt>
      <trkpt lat="45.79076" lon="2.96449">
        <ele>1188.7114362412</ele>
        <time>2019-04-27T09:57:12Z</time>
      </trkpt>
      <trkpt lat="45.79081" lon="2.96452">
        <ele>1188.5546441071</ele>
        <time>2019-04-27T09:57:21Z</time>
      </trkpt>
      <trkpt lat="45.79084" lon="2.96459">
        <ele>1188.4323325233</ele>
        <time>2019-04-27T09:57:30Z</time>
      </trkpt>
      <trkpt lat="45.79085" lon="2.96468">
        <ele>1188.3178123118</ele>
        <time>2019-04-27T09:57:40Z</time>
      </trkpt>
      <trkpt lat="45.79089" lon="2.9648">
        <ele>1188.2214442157</ele>
        <time>2019-04-27T09:57:49Z</time>
      </trkpt>
      <trkpt lat="45.79094" lon="2.96488">
        <ele>1188.1364476654</ele>
        <time>2019-04-27T09:57:58Z</time>
      </trkpt>
      <trkpt lat="45.791" lon="2.96498">
        <ele>1188.0616504685</ele>
        <time>2019-04-27T09:58:07Z</time>
      </trkpt>
      <trkpt lat="45.79106" lon="2.96512">
        <ele>1187.9932650908</ele>
        <time>2019-04-27T09:58:16Z</time>
      </trkpt>
      <trkpt lat="45.79108" lon="2.96521">
        <ele>1187.9371629539</ele>
        <time>2019-04-27T09:58:25Z</time>
      </trkpt>
      <trkpt lat="45.7911" lon="2.96529">
        <ele>1187.8999057476</ele>
        <time>2019-04-27T09:58:33Z</time>
      </trkpt>
      <trkpt lat="45.7911" lon="2.96531">
        <ele>1187.8734109126</ele>
        <time>2019-04-27T09:58:42Z</time>
      </trkpt>
      <trkpt lat="45.79111" lon="2.96536">
        <ele>1187.8178264106</ele>
        <time>2019-04-27T09:58:51Z</time>
      </trkpt>
      <trkpt lat="45.79118" lon="2.96546">
        <ele>1187.7540707585</ele>
        <time>2019-04-27T09:59:01Z</time>
      </trkpt>
      <trkpt lat="45.79122" lon="2.96557">
        <ele>1187.7034834881</ele>
        <time>2019-04-27T09:59:10Z</time>
      </trkpt>
      <trkpt lat="45.79128" lon="2.9657">
        <ele>1187.656726054</ele>
        <time>2019-04-27T09:59:19Z</time>
      </trkpt>
      <trkpt lat="45.79133" lon="2.96581">
        <ele>1187.6183259486</ele>
        <time>2019-04-27T09:59:29Z</time>
      </trkpt>
      <trkpt lat="45.79137" lon="2.96592">
        <ele>1187.5923946679</ele>
        <time>2019-04-27T09:59:38Z</time>
      </trkpt>
      <trkpt lat="45.79141" lon="2.96601">
        <ele>1187.5727023335</ele>
        <time>2019-04-27T09:59:47Z</time>
      </trkpt>
      <trkpt lat="45.79147" lon="2.96611">
        <ele>1187.5576301849</ele>
        <time>2019-04-27T09:59:56Z</time>
      </trkpt>
      <trkpt lat="45.79151" lon="2.96618">
        <ele>1187.5464689691</ele>
        <time>2019-04-27T10:00:05Z</time>
      </trkpt>
      <trkpt lat="45.7915" lon="2.96621">
        <ele>1187.4887936427</ele>
        <time>2019-04-27T10:00:15Z</time>
      </trkpt>
      <trkpt lat="45.79157" lon="2.96631">
        <ele>1187.3810755289</ele>
        <time>2019-04-27T10:00:23Z</time>
      </trkpt>
      <trkpt lat="45.79163" lon="2.96642">
        <ele>1187.2316594727</ele>
        <time>2019-04-27T10:00:32Z</time>
      </trkpt>
      <trkpt lat="45.79163" lon="2.96649">
        <ele>1187.053368042</ele>
        <time>2019-04-27T10:00:40Z</time>
      </trkpt>
      <trkpt lat="45.79166" lon="2.96653">
        <ele>1186.9094786491</ele>
        <time>2019-04-27T10:00:49Z</time>
      </trkpt>
      <trkpt lat="45.79166" lon="2.96651">
        <ele>1186.6479958245</ele>
        <time>2019-04-27T10:00:57Z</time>
      </trkpt>
      <trkpt lat="45.7917" lon="2.9666">
        <ele>1186.1334209651</ele>
        <time>2019-04-27T10:01:06Z</time>
      </trkpt>
      <trkpt lat="45.79177" lon="2.96677">
        <ele>1185.587643714</ele>
        <time>2019-04-27T10:01:15Z</time>
      </trkpt>
      <trkpt lat="45.79187" lon="2.96691">
        <ele>1185.0174042896</ele>
        <time>2019-04-27T10:01:24Z</time>
      </trkpt>
      <trkpt lat="45.79194" lon="2.96704">
        <ele>1184.465511538</ele>
        <time>2019-04-27T10:01:33Z</time>
      </trkpt>
      <trkpt lat="45.792" lon="2.9672">
        <ele>1183.7771412239</ele>
        <time>2019-04-27T10:01:43Z</time>
      </trkpt>
      <trkpt lat="45.7921" lon="2.96731">
        <ele>1183.2160667958</ele>
        <time>2019-04-27T10:01:53Z</time>
      </trkpt>
      <trkpt lat="45.79218" lon="2.96741">
        <ele>1182.7671124936</ele>
        <time>2019-04-27T10:02:03Z</time>
      </trkpt>
      <trkpt lat="45.79223" lon="2.96748">
        <ele>1182.4739819743</ele>
        <time>2019-04-27T10:02:11Z</time>
      </trkpt>
      <trkpt lat="45.79232" lon="2.96758">
        <ele>1182.1709883274</ele>
        <time>2019-04-27T10:02:21Z</time>
      </trkpt>
      <trkpt lat="45.7924" lon="2.96766">
        <ele>1181.9456600041</ele>
        <time>2019-04-27T10:02:30Z</time>
      </trkpt>
      <trkpt lat="45.79246" lon="2.96775">
        <ele>1181.7682309994</ele>
        <time>2019-04-27T10:02:38Z</time>
      </trkpt>
      <trkpt lat="45.79253" lon="2.96785">
        <ele>1181.5944783272</ele>
        <time>2019-04-27T10:02:47Z</time>
      </trkpt>
      <trkpt lat="45.79262" lon="2.96796">
        <ele>1181.4239351302</ele>
        <time>2019-04-27T10:02:57Z</time>
      </trkpt>
      <trkpt lat="45.79268" lon="2.96804">
        <ele>1181.291555272</ele>
        <time>2019-04-27T10:03:06Z</time>
      </trkpt>
      <trkpt lat="45.79272" lon="2.96812">
        <ele>1181.1729265805</ele>
        <time>2019-04-27T10:03:15Z</time>
      </trkpt>
      <trkpt lat="45.79278" lon="2.96822">
        <ele>1181.0401383877</ele>
        <time>2019-04-27T10:03:24Z</time>
      </trkpt>
      <trkpt lat="45.79284" lon="2.9683">
        <ele>1180.8192019349</ele>
        <time>2019-04-27T10:03:32Z</time>
      </trkpt>
      <trkpt lat="45.79296" lon="2.96843">
        <ele>1180.2309161387</ele>
        <time>2019-04-27T10:03:42Z</time>
      </trkpt>
      <trkpt lat="45.79308" lon="2.96848">
        <ele>1179.3124912706</ele>
        <time>2019-04-27T10:03:51Z</time>
      </trkpt>
      <trkpt lat="45.79319" lon="2.96852">
        <ele>1178.1166292046</ele>
        <time>2019-04-27T10:03:59Z</time>
      </trkpt>
      <trkpt lat="45.79329" lon="2.96859">
        <ele>1175.716426577</ele>
        <time>2019-04-27T10:04:09Z</time>
      </trkpt>
      <trkpt lat="45.79332" lon="2.96858">
        <ele>1173.501690673</ele>
        <time>2019-04-27T10:04:18Z</time>
      </trkpt>
      <trkpt lat="45.79335" lon="2.96856">
        <ele>1171.075538785</ele>
        <time>2019-04-27T10:04:27Z</time>
      </trkpt>
      <trkpt lat="45.7935" lon="2.96858">
        <ele>1167.3384917908</ele>
        <time>2019-04-27T10:04:37Z</time>
      </trkpt>
      <trkpt lat="45.79352" lon="2.96858">
        <ele>1165.2001831485</ele>
        <time>2019-04-27T10:04:46Z</time>
      </trkpt>
      <trkpt lat="45.79351" lon="2.96857">
        <ele>1162.6200330143</ele>
        <time>2019-04-27T10:04:55Z</time>
      </trkpt>
      <trkpt lat="45.7935" lon="2.96859">
        <ele>1158.5469843049</ele>
        <time>2019-04-27T10:05:04Z</time>
      </trkpt>
      <trkpt lat="45.7935" lon="2.96861">
        <ele>1155.718128131</ele>
        <time>2019-04-27T10:05:13Z</time>
      </trkpt>
      <trkpt lat="45.79349" lon="2.96862">
        <ele>1154.2115133554</ele>
        <time>2019-04-27T10:05:23Z</time>
      </trkpt>
      <trkpt lat="45.7935" lon="2.96864">
        <ele>1151.9230440454</ele>
        <time>2019-04-27T10:05:34Z</time>
      </trkpt>
      <trkpt lat="45.79349" lon="2.96864">
        <ele>1148.5245472369</ele>
        <time>2019-04-27T10:06:15Z</time>
      </trkpt>
      <trkpt lat="45.79349" lon="2.96863">
        <ele>1137.5643772094</ele>
        <time>2019-04-27T10:06:45Z</time>
      </trkpt>
      <trkpt lat="45.79347" lon="2.96862">
        <ele>1135.2423437241</ele>
        <time>2019-04-27T10:06:54Z</time>
      </trkpt>
      <trkpt lat="45.79348" lon="2.96863">
        <ele>1130.7751585512</ele>
        <time>2019-04-27T10:07:22Z</time>
      </trkpt>
      <trkpt lat="45.79348" lon="2.96864">
        <ele>1128.6285595552</ele>
        <time>2019-04-27T10:07:32Z</time>
      </trkpt>
      <trkpt lat="45.79348" lon="2.96864">
        <ele>1125.2009156382</ele>
        <time>2019-04-27T10:07:51Z</time>
      </trkpt>
      <trkpt lat="45.79349" lon="2.96865">
        <ele>1123.8402883233</ele>
        <time>2019-04-27T10:08:00Z</time>
      </trkpt>
      <trkpt lat="45.7935" lon="2.96865">
        <ele>1121.5261838376</ele>
        <time>2019-04-27T10:08:21Z</time>
      </trkpt>
      <trkpt lat="45.7935" lon="2.96864">
        <ele>1119.4403652818</ele>
        <time>2019-04-27T10:08:30Z</time>
      </trkpt>
      <trkpt lat="45.79353" lon="2.96862">
        <ele>1117.4824555786</ele>
        <time>2019-04-27T10:08:40Z</time>
      </trkpt>
      <trkpt lat="45.79353" lon="2.96863">
        <ele>1115.4211264524</ele>
        <time>2019-04-27T10:09:14Z</time>
      </trkpt>
      <trkpt lat="45.79355" lon="2.96863">
        <ele>1114.0075559426</ele>
        <time>2019-04-27T10:09:24Z</time>
      </trkpt>
      <trkpt lat="45.79354" lon="2.96864">
        <ele>1112.5270840276</ele>
        <time>2019-04-27T10:09:56Z</time>
      </trkpt>
      <trkpt lat="45.79354" lon="2.96865">
        <ele>1110.4680212426</ele>
        <time>2019-04-27T10:10:31Z</time>
      </trkpt>
      <trkpt lat="45.79355" lon="2.96865">
        <ele>1108.0286387019</ele>
        <time>2019-04-27T10:11:06Z</time>
      </trkpt>
      <trkpt lat="45.79356" lon="2.96863">
        <ele>1107.0065306961</ele>
        <time>2019-04-27T10:11:15Z</time>
      </trkpt>
      <trkpt lat="45.79355" lon="2.96863">
        <ele>1106.1684770313</ele>
        <time>2019-04-27T10:11:36Z</time>
      </trkpt>
      <trkpt lat="45.79354" lon="2.9686">
        <ele>1103.8633944812</ele>
        <time>2019-04-27T10:11:45Z</time>
      </trkpt>
      <trkpt lat="45.79353" lon="2.96858">
        <ele>1103.043487795</ele>
        <time>2019-04-27T10:11:54Z</time>
      </trkpt>
      <trkpt lat="45.79352" lon="2.96857">
        <ele>1102.2465745619</ele>
        <time>2019-04-27T10:12:03Z</time>
      </trkpt>
      <trkpt lat="45.79352" lon="2.96855">
        <ele>1101.6813985677</ele>
        <time>2019-04-27T10:12:12Z</time>
      </trkpt>
      <trkpt lat="45.79349" lon="2.96852">
        <ele>1099.9832187899</ele>
        <time>2019-04-27T10:12:22Z</time>
      </trkpt>
      <trkpt lat="45.79347" lon="2.96846">
        <ele>1098.8285547422</ele>
        <time>2019-04-27T10:12:31Z</time>
      </trkpt>
      <trkpt lat="45.79346" lon="2.96841">
        <ele>1097.6131440379</ele>
        <time>2019-04-27T10:12:41Z</time>
      </trkpt>
      <trkpt lat="45.79342" lon="2.96835">
        <ele>1096.6130316004</ele>
        <time>2019-04-27T10:12:50Z</time>
      </trkpt>
      <trkpt lat="45.79341" lon="2.9683">
        <ele>1095.6590254746</ele>
        <time>2019-04-27T10:12:59Z</time>
      </trkpt>
      <trkpt lat="45.79343" lon="2.96825">
        <ele>1094.7053209192</ele>
        <time>2019-04-27T10:13:08Z</time>
      </trkpt>
      <trkpt lat="45.79347" lon="2.96814">
        <ele>1093.6685415978</ele>
        <time>2019-04-27T10:13:18Z</time>
      </trkpt>
      <trkpt lat="45.79347" lon="2.96804">
        <ele>1092.8592332443</ele>
        <time>2019-04-27T10:13:26Z</time>
      </trkpt>
      <trkpt lat="45.79351" lon="2.96794">
        <ele>1092.0712925766</ele>
        <time>2019-04-27T10:13:34Z</time>
      </trkpt>
      <trkpt lat="45.79357" lon="2.96781">
        <ele>1091.2166890659</ele>
        <time>2019-04-27T10:13:43Z</time>
      </trkpt>
      <trkpt lat="45.79363" lon="2.96767">
        <ele>1090.2494201372</ele>
        <time>2019-04-27T10:13:53Z</time>
      </trkpt>
      <trkpt lat="45.7937" lon="2.96755">
        <ele>1089.1749500168</ele>
        <time>2019-04-27T10:14:03Z</time>
      </trkpt>
      <trkpt lat="45.79374" lon="2.96742">
        <ele>1088.0009211897</ele>
        <time>2019-04-27T10:14:13Z</time>
      </trkpt>
      <trkpt lat="45.7938" lon="2.96729">
        <ele>1087.0642104176</ele>
        <time>2019-04-27T10:14:21Z</time>
      </trkpt>
      <trkpt lat="45.79384" lon="2.96717">
        <ele>1086.1752968176</ele>
        <time>2019-04-27T10:14:29Z</time>
      </trkpt>
      <trkpt lat="45.79387" lon="2.96705">
        <ele>1085.298749879</ele>
        <time>2019-04-27T10:14:38Z</time>
      </trkpt>
      <trkpt lat="45.79392" lon="2.96698">
        <ele>1084.5673774514</ele>
        <time>2019-04-27T10:14:47Z</time>
      </trkpt>
      <trkpt lat="45.79395" lon="2.96683">
        <ele>1083.8906263309</ele>
        <time>2019-04-27T10:14:57Z</time>
      </trkpt>
      <trkpt lat="45.79394" lon="2.96669">
        <ele>1083.3293902498</ele>
        <time>2019-04-27T10:15:07Z</time>
      </trkpt>
      <trkpt lat="45.7939" lon="2.96657">
        <ele>1082.90409943</ele>
        <time>2019-04-27T10:15:16Z</time>
      </trkpt>
      <trkpt lat="45.79385" lon="2.96647">
        <ele>1082.579493667</ele>
        <time>2019-04-27T10:15:24Z</time>
      </trkpt>
      <trkpt lat="45.79381" lon="2.96635">
        <ele>1082.2666209027</ele>
        <time>2019-04-27T10:15:33Z</time>
      </trkpt>
      <trkpt lat="45.79376" lon="2.96623">
        <ele>1081.9911344872</ele>
        <time>2019-04-27T10:15:42Z</time>
      </trkpt>
      <trkpt lat="45.79373" lon="2.96609">
        <ele>1081.7456036723</ele>
        <time>2019-04-27T10:15:51Z</time>
      </trkpt>
      <trkpt lat="45.79371" lon="2.96596">
        <ele>1081.4960925181</ele>
        <time>2019-04-27T10:16:01Z</time>
      </trkpt>
      <trkpt lat="45.79368" lon="2.96585">
        <ele>1081.2871654088</ele>
        <time>2019-04-27T10:16:10Z</time>
      </trkpt>
      <trkpt lat="45.79363" lon="2.96571">
        <ele>1081.0781445397</ele>
        <time>2019-04-27T10:16:20Z</time>
      </trkpt>
      <trkpt lat="45.7936" lon="2.96559">
        <ele>1080.906037474</ele>
        <time>2019-04-27T10:16:28Z</time>
      </trkpt>
      <trkpt lat="45.79352" lon="2.96549">
        <ele>1080.7239455091</ele>
        <time>2019-04-27T10:16:38Z</time>
      </trkpt>
      <trkpt lat="45.7935" lon="2.96537">
        <ele>1080.5841682127</ele>
        <time>2019-04-27T10:16:47Z</time>
      </trkpt>
      <trkpt lat="45.79353" lon="2.96527">
        <ele>1080.4410694141</ele>
        <time>2019-04-27T10:16:56Z</time>
      </trkpt>
      <trkpt lat="45.79352" lon="2.96517">
        <ele>1080.3113156989</ele>
        <time>2019-04-27T10:17:05Z</time>
      </trkpt>
      <trkpt lat="45.79349" lon="2.96509">
        <ele>1080.1921470275</ele>
        <time>2019-04-27T10:17:14Z</time>
      </trkpt>
      <trkpt lat="45.79348" lon="2.96497">
        <ele>1080.0892632859</ele>
        <time>2019-04-27T10:17:23Z</time>
      </trkpt>
      <trkpt lat="45.79346" lon="2.96487">
        <ele>1079.9969831723</ele>
        <time>2019-04-27T10:17:33Z</time>
      </trkpt>
      <trkpt lat="45.7934" lon="2.96476">
        <ele>1079.9150629477</ele>
        <time>2019-04-27T10:17:43Z</time>
      </trkpt>
      <trkpt lat="45.79335" lon="2.96466">
        <ele>1079.8599940986</ele>
        <time>2019-04-27T10:17:51Z</time>
      </trkpt>
      <trkpt lat="45.79334" lon="2.96455">
        <ele>1079.8076880498</ele>
        <time>2019-04-27T10:18:01Z</time>
      </trkpt>
      <trkpt lat="45.79328" lon="2.96448">
        <ele>1079.767906327</ele>
        <time>2019-04-27T10:18:09Z</time>
      </trkpt>
      <trkpt lat="45.79319" lon="2.96446">
        <ele>1079.7250834896</ele>
        <time>2019-04-27T10:18:18Z</time>
      </trkpt>
      <trkpt lat="45.79316" lon="2.96439">
        <ele>1079.6819598306</ele>
        <time>2019-04-27T10:18:27Z</time>
      </trkpt>
      <trkpt lat="45.79317" lon="2.96432">
        <ele>1079.6414703382</ele>
        <time>2019-04-27T10:18:35Z</time>
      </trkpt>
      <trkpt lat="45.79319" lon="2.96425">
        <ele>1079.5856323362</ele>
        <time>2019-04-27T10:18:45Z</time>
      </trkpt>
      <trkpt lat="45.79317" lon="2.96419">
        <ele>1079.524105775</ele>
        <time>2019-04-27T10:18:54Z</time>
      </trkpt>
      <trkpt lat="45.7931" lon="2.96403">
        <ele>1079.4639975036</ele>
        <time>2019-04-27T10:19:03Z</time>
      </trkpt>
      <trkpt lat="45.79307" lon="2.96391">
        <ele>1079.4272647476</ele>
        <time>2019-04-27T10:19:12Z</time>
      </trkpt>
      <trkpt lat="45.79304" lon="2.96384">
        <ele>1079.391101697</ele>
        <time>2019-04-27T10:19:21Z</time>
      </trkpt>
      <trkpt lat="45.793" lon="2.96378">
        <ele>1079.3566279428</ele>
        <time>2019-04-27T10:19:30Z</time>
      </trkpt>
      <trkpt lat="45.79297" lon="2.96366">
        <ele>1079.3234484949</ele>
        <time>2019-04-27T10:19:39Z</time>
      </trkpt>
      <trkpt lat="45.79293" lon="2.96356">
        <ele>1079.2917229523</ele>
        <time>2019-04-27T10:19:48Z</time>
      </trkpt>
      <trkpt lat="45.79292" lon="2.96347">
        <ele>1079.2597439578</ele>
        <time>2019-04-27T10:19:57Z</time>
      </trkpt>
      <trkpt lat="45.79291" lon="2.96335">
        <ele>1079.2351033872</ele>
        <time>2019-04-27T10:20:05Z</time>
      </trkpt>
      <trkpt lat="45.79284" lon="2.96324">
        <ele>1079.2324349911</ele>
        <time>2019-04-27T10:20:15Z</time>
      </trkpt>
      <trkpt lat="45.79279" lon="2.96315">
        <ele>1079.2342229488</ele>
        <time>2019-04-27T10:20:24Z</time>
      </trkpt>
      <trkpt lat="45.79275" lon="2.96301">
        <ele>1079.2298811138</ele>
        <time>2019-04-27T10:20:33Z</time>
      </trkpt>
      <trkpt lat="45.79274" lon="2.96292">
        <ele>1079.2281553296</ele>
        <time>2019-04-27T10:20:42Z</time>
      </trkpt>
      <trkpt lat="45.79274" lon="2.96282">
        <ele>1079.226518267</ele>
        <time>2019-04-27T10:20:52Z</time>
      </trkpt>
      <trkpt lat="45.79273" lon="2.96274">
        <ele>1079.2202130111</ele>
        <time>2019-04-27T10:21:01Z</time>
      </trkpt>
      <trkpt lat="45.79272" lon="2.96263">
        <ele>1079.2102814671</ele>
        <time>2019-04-27T10:21:10Z</time>
      </trkpt>
      <trkpt lat="45.79271" lon="2.96252">
        <ele>1079.2095108105</ele>
        <time>2019-04-27T10:21:19Z</time>
      </trkpt>
      <trkpt lat="45.79266" lon="2.96234">
        <ele>1079.2567627382</ele>
        <time>2019-04-27T10:21:28Z</time>
      </trkpt>
      <trkpt lat="45.79262" lon="2.96228">
        <ele>1079.3830160135</ele>
        <time>2019-04-27T10:21:36Z</time>
      </trkpt>
      <trkpt lat="45.79258" lon="2.96218">
        <ele>1079.5504721358</ele>
        <time>2019-04-27T10:21:46Z</time>
      </trkpt>
      <trkpt lat="45.79257" lon="2.96209">
        <ele>1079.6943904923</ele>
        <time>2019-04-27T10:21:55Z</time>
      </trkpt>
      <trkpt lat="45.79253" lon="2.96197">
        <ele>1079.8325037028</ele>
        <time>2019-04-27T10:22:04Z</time>
      </trkpt>
      <trkpt lat="45.79251" lon="2.96183">
        <ele>1079.9535870781</ele>
        <time>2019-04-27T10:22:14Z</time>
      </trkpt>
      <trkpt lat="45.79251" lon="2.96172">
        <ele>1080.0392475096</ele>
        <time>2019-04-27T10:22:23Z</time>
      </trkpt>
      <trkpt lat="45.79251" lon="2.96159">
        <ele>1080.1093919973</ele>
        <time>2019-04-27T10:22:32Z</time>
      </trkpt>
      <trkpt lat="45.79251" lon="2.9615">
        <ele>1080.1719375355</ele>
        <time>2019-04-27T10:22:40Z</time>
      </trkpt>
      <trkpt lat="45.79252" lon="2.9614">
        <ele>1080.2147805162</ele>
        <time>2019-04-27T10:22:48Z</time>
      </trkpt>
      <trkpt lat="45.7925" lon="2.96128">
        <ele>1080.2360710579</ele>
        <time>2019-04-27T10:22:57Z</time>
      </trkpt>
      <trkpt lat="45.79248" lon="2.96116">
        <ele>1080.2508143179</ele>
        <time>2019-04-27T10:23:07Z</time>
      </trkpt>
      <trkpt lat="45.7924" lon="2.96108">
        <ele>1080.3709124536</ele>
        <time>2019-04-27T10:23:17Z</time>
      </trkpt>
      <trkpt lat="45.79235" lon="2.96097">
        <ele>1080.5476912829</ele>
        <time>2019-04-27T10:23:26Z</time>
      </trkpt>
      <trkpt lat="45.79233" lon="2.96085">
        <ele>1080.7710567721</ele>
        <time>2019-04-27T10:23:35Z</time>
      </trkpt>
      <trkpt lat="45.79231" lon="2.96074">
        <ele>1081.2043446158</ele>
        <time>2019-04-27T10:23:43Z</time>
      </trkpt>
      <trkpt lat="45.79227" lon="2.96063">
        <ele>1081.7440752684</ele>
        <time>2019-04-27T10:23:51Z</time>
      </trkpt>
      <trkpt lat="45.79231" lon="2.9606">
        <ele>1082.3809533514</ele>
        <time>2019-04-27T10:24:00Z</time>
      </trkpt>
      <trkpt lat="45.79232" lon="2.96055">
        <ele>1082.9592830914</ele>
        <time>2019-04-27T10:24:10Z</time>
      </trkpt>
      <trkpt lat="45.79232" lon="2.96048">
        <ele>1083.5805107531</ele>
        <time>2019-04-27T10:24:18Z</time>
      </trkpt>
      <trkpt lat="45.79231" lon="2.96039">
        <ele>1084.3670297857</ele>
        <time>2019-04-27T10:24:28Z</time>
      </trkpt>
      <trkpt lat="45.7923" lon="2.96029">
        <ele>1084.9800394798</ele>
        <time>2019-04-27T10:24:36Z</time>
      </trkpt>
      <trkpt lat="45.79231" lon="2.96017">
        <ele>1085.6689205715</ele>
        <time>2019-04-27T10:24:45Z</time>
      </trkpt>
      <trkpt lat="45.79233" lon="2.96003">
        <ele>1086.3807845615</ele>
        <time>2019-04-27T10:24:55Z</time>
      </trkpt>
      <trkpt lat="45.79235" lon="2.95999">
        <ele>1086.7515184246</ele>
        <time>2019-04-27T10:25:04Z</time>
      </trkpt>
      <trkpt lat="45.79235" lon="2.95998">
        <ele>1087.3403993926</ele>
        <time>2019-04-27T10:25:24Z</time>
      </trkpt>
      <trkpt lat="45.79234" lon="2.95999">
        <ele>1087.6086409592</ele>
        <time>2019-04-27T10:25:34Z</time>
      </trkpt>
      <trkpt lat="45.79233" lon="2.95998">
        <ele>1087.9340724533</ele>
        <time>2019-04-27T10:25:51Z</time>
      </trkpt>
      <trkpt lat="45.79232" lon="2.95998">
        <ele>1088.010414145</ele>
        <time>2019-04-27T10:26:00Z</time>
      </trkpt>
      <trkpt lat="45.79231" lon="2.95997">
        <ele>1088.0991278638</ele>
        <time>2019-04-27T10:26:09Z</time>
      </trkpt>
      <trkpt lat="45.79231" lon="2.95996">
        <ele>1088.2278853013</ele>
        <time>2019-04-27T10:26:21Z</time>
      </trkpt>
      <trkpt lat="45.79235" lon="2.95993">
        <ele>1089.1482929116</ele>
        <time>2019-04-27T10:26:31Z</time>
      </trkpt>
      <trkpt lat="45.79237" lon="2.95991">
        <ele>1089.5479627837</ele>
        <time>2019-04-27T10:26:39Z</time>
      </trkpt>
      <trkpt lat="45.79243" lon="2.9599">
        <ele>1090.2690384538</ele>
        <time>2019-04-27T10:26:49Z</time>
      </trkpt>
      <trkpt lat="45.79257" lon="2.95978">
        <ele>1090.8910732012</ele>
        <time>2019-04-27T10:26:58Z</time>
      </trkpt>
      <trkpt lat="45.79266" lon="2.95974">
        <ele>1091.3919300779</ele>
        <time>2019-04-27T10:27:08Z</time>
      </trkpt>
      <trkpt lat="45.7927" lon="2.95967">
        <ele>1091.8500163381</ele>
        <time>2019-04-27T10:27:16Z</time>
      </trkpt>
      <trkpt lat="45.79277" lon="2.95966">
        <ele>1092.3916002941</ele>
        <time>2019-04-27T10:27:25Z</time>
      </trkpt>
      <trkpt lat="45.79289" lon="2.95962">
        <ele>1092.9401967421</ele>
        <time>2019-04-27T10:27:34Z</time>
      </trkpt>
      <trkpt lat="45.79294" lon="2.95959">
        <ele>1093.3806785561</ele>
        <time>2019-04-27T10:27:44Z</time>
      </trkpt>
      <trkpt lat="45.79293" lon="2.95959">
        <ele>1093.7468622906</ele>
        <time>2019-04-27T10:27:53Z</time>
      </trkpt>
      <trkpt lat="45.79293" lon="2.95958">
        <ele>1094.0684485437</ele>
        <time>2019-04-27T10:28:01Z</time>
      </trkpt>
      <trkpt lat="45.79294" lon="2.95956">
        <ele>1094.249650992</ele>
        <time>2019-04-27T10:28:10Z</time>
      </trkpt>
      <trkpt lat="45.79294" lon="2.95954">
        <ele>1094.9002695579</ele>
        <time>2019-04-27T10:28:20Z</time>
      </trkpt>
      <trkpt lat="45.79298" lon="2.95951">
        <ele>1095.7855696682</ele>
        <time>2019-04-27T10:28:29Z</time>
      </trkpt>
      <trkpt lat="45.79304" lon="2.95948">
        <ele>1096.7054185804</ele>
        <time>2019-04-27T10:28:38Z</time>
      </trkpt>
      <trkpt lat="45.79309" lon="2.95943">
        <ele>1097.6020335839</ele>
        <time>2019-04-27T10:28:47Z</time>
      </trkpt>
      <trkpt lat="45.79314" lon="2.95935">
        <ele>1098.3817938181</ele>
        <time>2019-04-27T10:28:57Z</time>
      </trkpt>
      <trkpt lat="45.79315" lon="2.95933">
        <ele>1099.4098584494</ele>
        <time>2019-04-27T10:29:06Z</time>
      </trkpt>
      <trkpt lat="45.79322" lon="2.95925">
        <ele>1100.7175639907</ele>
        <time>2019-04-27T10:29:15Z</time>
      </trkpt>
      <trkpt lat="45.79326" lon="2.9592">
        <ele>1102.1320989557</ele>
        <time>2019-04-27T10:29:23Z</time>
      </trkpt>
      <trkpt lat="45.79331" lon="2.95917">
        <ele>1103.8910070963</ele>
        <time>2019-04-27T10:29:33Z</time>
      </trkpt>
      <trkpt lat="45.79336" lon="2.95912">
        <ele>1105.7331834914</ele>
        <time>2019-04-27T10:29:42Z</time>
      </trkpt>
      <trkpt lat="45.79341" lon="2.95901">
        <ele>1107.8345688731</ele>
        <time>2019-04-27T10:29:52Z</time>
      </trkpt>
      <trkpt lat="45.79344" lon="2.95892">
        <ele>1109.7094849065</ele>
        <time>2019-04-27T10:30:01Z</time>
      </trkpt>
      <trkpt lat="45.79348" lon="2.95882">
        <ele>1111.763060987</ele>
        <time>2019-04-27T10:30:11Z</time>
      </trkpt>
      <trkpt lat="45.79355" lon="2.95875">
        <ele>1113.632975143</ele>
        <time>2019-04-27T10:30:20Z</time>
      </trkpt>
      <trkpt lat="45.79357" lon="2.95872">
        <ele>1115.0115940345</ele>
        <time>2019-04-27T10:30:28Z</time>
      </trkpt>
      <trkpt lat="45.79364" lon="2.95868">
        <ele>1116.6960606355</ele>
        <time>2019-04-27T10:30:37Z</time>
      </trkpt>
      <trkpt lat="45.79369" lon="2.9586">
        <ele>1118.3104163621</ele>
        <time>2019-04-27T10:30:46Z</time>
      </trkpt>
      <trkpt lat="45.79375" lon="2.95853">
        <ele>1119.8894273993</ele>
        <time>2019-04-27T10:30:55Z</time>
      </trkpt>
      <trkpt lat="45.7938" lon="2.95851">
        <ele>1121.2828923569</ele>
        <time>2019-04-27T10:31:04Z</time>
      </trkpt>
      <trkpt lat="45.7938" lon="2.95849">
        <ele>1121.4273160612</ele>
        <time>2019-04-27T10:31:12Z</time>
      </trkpt>
      <trkpt lat="45.7938" lon="2.95848">
        <ele>1122.5870530656</ele>
        <time>2019-04-27T10:31:31Z</time>
      </trkpt>
      <trkpt lat="45.79383" lon="2.95847">
        <ele>1123.9384228767</ele>
        <time>2019-04-27T10:31:40Z</time>
      </trkpt>
      <trkpt lat="45.79385" lon="2.95848">
        <ele>1124.3725177354</ele>
        <time>2019-04-27T10:31:49Z</time>
      </trkpt>
      <trkpt lat="45.79386" lon="2.95847">
        <ele>1124.7529289534</ele>
        <time>2019-04-27T10:32:02Z</time>
      </trkpt>
      <trkpt lat="45.79387" lon="2.95848">
        <ele>1125.9925437679</ele>
        <time>2019-04-27T10:32:25Z</time>
      </trkpt>
      <trkpt lat="45.79388" lon="2.95848">
        <ele>1126.3523360474</ele>
        <time>2019-04-27T10:32:47Z</time>
      </trkpt>
      <trkpt lat="45.79388" lon="2.95847">
        <ele>1127.7487147623</ele>
        <time>2019-04-27T10:33:47Z</time>
      </trkpt>
      <trkpt lat="45.79389" lon="2.95847">
        <ele>1127.9159521357</ele>
        <time>2019-04-27T10:33:57Z</time>
      </trkpt>
      <trkpt lat="45.79392" lon="2.95845">
        <ele>1128.4002272396</ele>
        <time>2019-04-27T10:34:07Z</time>
      </trkpt>
      <trkpt lat="45.79393" lon="2.95846">
        <ele>1129.1456257738</ele>
        <time>2019-04-27T10:34:32Z</time>
      </trkpt>
      <trkpt lat="45.79393" lon="2.95847">
        <ele>1131.342928146</ele>
        <time>2019-04-27T10:35:01Z</time>
      </trkpt>
      <trkpt lat="45.79393" lon="2.95847">
        <ele>1134.0873757594</ele>
        <time>2019-04-27T10:36:10Z</time>
      </trkpt>
      <trkpt lat="45.79393" lon="2.95846">
        <ele>1134.6214448642</ele>
        <time>2019-04-27T10:36:18Z</time>
      </trkpt>
      <trkpt lat="45.79394" lon="2.95846">
        <ele>1135.5756369205</ele>
        <time>2019-04-27T10:36:35Z</time>
      </trkpt>
      <trkpt lat="45.79396" lon="2.95845">
        <ele>1136.5279876706</ele>
        <time>2019-04-27T10:36:44Z</time>
      </trkpt>
      <trkpt lat="45.79396" lon="2.9585">
        <ele>1137.4321083132</ele>
        <time>2019-04-27T10:36:53Z</time>
      </trkpt>
      <trkpt lat="45.79391" lon="2.95858">
        <ele>1138.3504894838</ele>
        <time>2019-04-27T10:37:03Z</time>
      </trkpt>
      <trkpt lat="45.79385" lon="2.95863">
        <ele>1139.1192850463</ele>
        <time>2019-04-27T10:37:13Z</time>
      </trkpt>
      <trkpt lat="45.7938" lon="2.95868">
        <ele>1139.6955449172</ele>
        <time>2019-04-27T10:37:22Z</time>
      </trkpt>
      <trkpt lat="45.79381" lon="2.95867">
        <ele>1140.1768586338</ele>
        <time>2019-04-27T10:37:34Z</time>
      </trkpt>
      <trkpt lat="45.7938" lon="2.95873">
        <ele>1140.65913557</ele>
        <time>2019-04-27T10:37:43Z</time>
      </trkpt>
      <trkpt lat="45.79381" lon="2.95877">
        <ele>1141.0887056748</ele>
        <time>2019-04-27T10:37:52Z</time>
      </trkpt>
      <trkpt lat="45.7938" lon="2.95879">
        <ele>1141.5259455994</ele>
        <time>2019-04-27T10:38:01Z</time>
      </trkpt>
      <trkpt lat="45.79381" lon="2.95884">
        <ele>1141.9936239184</ele>
        <time>2019-04-27T10:38:11Z</time>
      </trkpt>
      <trkpt lat="45.79383" lon="2.95887">
        <ele>1142.5215852549</ele>
        <time>2019-04-27T10:38:21Z</time>
      </trkpt>
      <trkpt lat="45.79389" lon="2.95893">
        <ele>1142.8041883389</ele>
        <time>2019-04-27T10:38:30Z</time>
      </trkpt>
      <trkpt lat="45.79389" lon="2.9589">
        <ele>1143.3448723966</ele>
        <time>2019-04-27T10:38:39Z</time>
      </trkpt>
      <trkpt lat="45.79391" lon="2.95892">
        <ele>1143.9253308003</ele>
        <time>2019-04-27T10:38:48Z</time>
      </trkpt>
      <trkpt lat="45.79393" lon="2.95897">
        <ele>1144.4957858311</ele>
        <time>2019-04-27T10:38:58Z</time>
      </trkpt>
      <trkpt lat="45.79393" lon="2.95897">
        <ele>1145.6902164388</ele>
        <time>2019-04-27T10:39:11Z</time>
      </trkpt>
      <trkpt lat="45.79395" lon="2.95898">
        <ele>1146.738909929</ele>
        <time>2019-04-27T10:39:20Z</time>
      </trkpt>
      <trkpt lat="45.79395" lon="2.95899">
        <ele>1147.8567874413</ele>
        <time>2019-04-27T10:39:33Z</time>
      </trkpt>
      <trkpt lat="45.79399" lon="2.95898">
        <ele>1148.6190706945</ele>
        <time>2019-04-27T10:39:41Z</time>
      </trkpt>
      <trkpt lat="45.79398" lon="2.95898">
        <ele>1149.1946885266</ele>
        <time>2019-04-27T10:40:01Z</time>
      </trkpt>
      <trkpt lat="45.79396" lon="2.95895">
        <ele>1149.7624131077</ele>
        <time>2019-04-27T10:40:10Z</time>
      </trkpt>
      <trkpt lat="45.79394" lon="2.95898">
        <ele>1150.4823527937</ele>
        <time>2019-04-27T10:40:19Z</time>
      </trkpt>
      <trkpt lat="45.79395" lon="2.95896">
        <ele>1150.6484054301</ele>
        <time>2019-04-27T10:40:28Z</time>
      </trkpt>
      <trkpt lat="45.79396" lon="2.95895">
        <ele>1151.5450831354</ele>
        <time>2019-04-27T10:40:38Z</time>
      </trkpt>
      <trkpt lat="45.79401" lon="2.95895">
        <ele>1152.6517217125</ele>
        <time>2019-04-27T10:40:48Z</time>
      </trkpt>
      <trkpt lat="45.79404" lon="2.95899">
        <ele>1153.4185885224</ele>
        <time>2019-04-27T10:40:56Z</time>
      </trkpt>
      <trkpt lat="45.79404" lon="2.95905">
        <ele>1154.0416452647</ele>
        <time>2019-04-27T10:41:06Z</time>
      </trkpt>
      <trkpt lat="45.79408" lon="2.95904">
        <ele>1155.4278392069</ele>
        <time>2019-04-27T10:41:16Z</time>
      </trkpt>
      <trkpt lat="45.79411" lon="2.95905">
        <ele>1156.9073937382</ele>
        <time>2019-04-27T10:41:25Z</time>
      </trkpt>
      <trkpt lat="45.79423" lon="2.95894">
        <ele>1157.2666411074</ele>
        <time>2019-04-27T10:41:35Z</time>
      </trkpt>
      <trkpt lat="45.7942" lon="2.95886">
        <ele>1157.3265754313</ele>
        <time>2019-04-27T10:41:45Z</time>
      </trkpt>
      <trkpt lat="45.79418" lon="2.95895">
        <ele>1157.6094371006</ele>
        <time>2019-04-27T10:41:54Z</time>
      </trkpt>
      <trkpt lat="45.79417" lon="2.95895">
        <ele>1157.6798063117</ele>
        <time>2019-04-27T10:42:02Z</time>
      </trkpt>
      <trkpt lat="45.79416" lon="2.95898">
        <ele>1157.7656266995</ele>
        <time>2019-04-27T10:42:11Z</time>
      </trkpt>
      <trkpt lat="45.79415" lon="2.9589">
        <ele>1157.8886440559</ele>
        <time>2019-04-27T10:42:21Z</time>
      </trkpt>
      <trkpt lat="45.79431" lon="2.95911">
        <ele>1157.5591582543</ele>
        <time>2019-04-27T10:42:31Z</time>
      </trkpt>
      <trkpt lat="45.79419" lon="2.95898">
        <ele>1156.3665387122</ele>
        <time>2019-04-27T10:42:40Z</time>
      </trkpt>
      <trkpt lat="45.79417" lon="2.95892">
        <ele>1155.5746963067</ele>
        <time>2019-04-27T10:42:50Z</time>
      </trkpt>
      <trkpt lat="45.79418" lon="2.95886">
        <ele>1155.0269571125</ele>
        <time>2019-04-27T10:42:59Z</time>
      </trkpt>
      <trkpt lat="45.79404" lon="2.95893">
        <ele>1155.2855065776</ele>
        <time>2019-04-27T10:43:09Z</time>
      </trkpt>
      <trkpt lat="45.79402" lon="2.95886">
        <ele>1155.3954235846</ele>
        <time>2019-04-27T10:43:16Z</time>
      </trkpt>
      <trkpt lat="45.79403" lon="2.9589">
        <ele>1155.9670147218</ele>
        <time>2019-04-27T10:43:24Z</time>
      </trkpt>
      <trkpt lat="45.79412" lon="2.95887">
        <ele>1154.7079555815</ele>
        <time>2019-04-27T10:43:33Z</time>
      </trkpt>
      <trkpt lat="45.79419" lon="2.95874">
        <ele>1149.1381483176</ele>
        <time>2019-04-27T10:43:40Z</time>
      </trkpt>
      <trkpt lat="45.79398" lon="2.95904">
        <ele>1149.5049666428</ele>
        <time>2019-04-27T11:09:48Z</time>
      </trkpt>
      <trkpt lat="45.79398" lon="2.95901">
        <ele>1149.6775754371</ele>
        <time>2019-04-27T11:09:51Z</time>
      </trkpt>
      <trkpt lat="45.79399" lon="2.959">
        <ele>1149.6775914371</ele>
        <time>2019-04-27T11:10:28Z</time>
      </trkpt>
      <trkpt lat="45.79405" lon="2.95909">
        <ele>1155.4985965835</ele>
        <time>2019-04-27T11:10:33Z</time>
      </trkpt>
      <trkpt lat="45.79406" lon="2.95913">
        <ele>1155.4986385835</ele>
        <time>2019-04-27T11:10:38Z</time>
      </trkpt>
      <trkpt lat="45.79406" lon="2.95914">
        <ele>1155.4986493835</ele>
        <time>2019-04-27T11:10:49Z</time>
      </trkpt>
      <trkpt lat="45.79406" lon="2.95914">
        <ele>1155.4986549835</ele>
        <time>2019-04-27T11:10:58Z</time>
      </trkpt>
      <trkpt lat="45.79422" lon="2.95905">
        <ele>1153.9873907739</ele>
        <time>2019-04-27T11:16:31Z</time>
      </trkpt>
      <trkpt lat="45.79415" lon="2.95911">
        <ele>1154.3455422078</ele>
        <time>2019-04-27T11:16:35Z</time>
      </trkpt>
      <trkpt lat="45.79413" lon="2.95911">
        <ele>1154.3454738078</ele>
        <time>2019-04-27T11:16:56Z</time>
      </trkpt>
      <trkpt lat="45.79393" lon="2.95897">
        <ele>1160.8542147723</ele>
        <time>2019-04-27T11:17:03Z</time>
      </trkpt>
      <trkpt lat="45.79394" lon="2.95898">
        <ele>1160.6437666605</ele>
        <time>2019-04-27T11:17:09Z</time>
      </trkpt>
      <trkpt lat="45.79394" lon="2.95899">
        <ele>1160.8343695036</ele>
        <time>2019-04-27T11:17:19Z</time>
      </trkpt>
      <trkpt lat="45.79404" lon="2.95894">
        <ele>1164.0849445288</ele>
        <time>2019-04-27T11:17:29Z</time>
      </trkpt>
      <trkpt lat="45.79404" lon="2.95893">
        <ele>1164.0849701288</ele>
        <time>2019-04-27T11:17:59Z</time>
      </trkpt>
      <trkpt lat="45.79405" lon="2.95893">
        <ele>1164.0849757288</ele>
        <time>2019-04-27T11:18:47Z</time>
      </trkpt>
      <trkpt lat="45.79375" lon="2.95892">
        <ele>1166.5469276192</ele>
        <time>2019-04-27T11:20:13Z</time>
      </trkpt>
      <trkpt lat="45.79382" lon="2.95894">
        <ele>1166.5844112716</ele>
        <time>2019-04-27T11:20:18Z</time>
      </trkpt>
      <trkpt lat="45.79384" lon="2.95894">
        <ele>1166.5844620716</ele>
        <time>2019-04-27T11:20:28Z</time>
      </trkpt>
      <trkpt lat="45.79396" lon="2.95894">
        <ele>1168.3343945881</ele>
        <time>2019-04-27T11:20:38Z</time>
      </trkpt>
      <trkpt lat="45.79399" lon="2.95894">
        <ele>1167.8938439095</ele>
        <time>2019-04-27T11:20:43Z</time>
      </trkpt>
      <trkpt lat="45.794" lon="2.95894">
        <ele>1167.8938787095</ele>
        <time>2019-04-27T11:21:06Z</time>
      </trkpt>
      <trkpt lat="45.79401" lon="2.95894">
        <ele>1167.8939107095</ele>
        <time>2019-04-27T11:21:26Z</time>
      </trkpt>
      <trkpt lat="45.79401" lon="2.95894">
        <ele>1167.8939151095</ele>
        <time>2019-04-27T11:21:49Z</time>
      </trkpt>
      <trkpt lat="45.79404" lon="2.95894">
        <ele>1166.9558023991</ele>
        <time>2019-04-27T11:29:51Z</time>
      </trkpt>
      <trkpt lat="45.79403" lon="2.95894">
        <ele>1167.3868185814</ele>
        <time>2019-04-27T11:29:56Z</time>
      </trkpt>
      <trkpt lat="45.79401" lon="2.95894">
        <ele>1167.5671210432</ele>
        <time>2019-04-27T11:30:05Z</time>
      </trkpt>
      <trkpt lat="45.79398" lon="2.959">
        <ele>1176.2380868991</ele>
        <time>2019-04-27T11:30:15Z</time>
      </trkpt>
      <trkpt lat="45.79404" lon="2.95901">
        <ele>1178.0158057925</ele>
        <time>2019-04-27T11:30:24Z</time>
      </trkpt>
      <trkpt lat="45.79405" lon="2.959">
        <ele>1179.1917165978</ele>
        <time>2019-04-27T11:30:43Z</time>
      </trkpt>
      <trkpt lat="45.79406" lon="2.959">
        <ele>1179.1917437978</ele>
        <time>2019-04-27T11:31:26Z</time>
      </trkpt>
      <trkpt lat="45.79399" lon="2.95881">
        <ele>1180.5515736693</ele>
        <time>2019-04-27T11:35:49Z</time>
      </trkpt>
      <trkpt lat="45.79401" lon="2.95886">
        <ele>1180.3096750754</ele>
        <time>2019-04-27T11:35:59Z</time>
      </trkpt>
      <trkpt lat="45.79398" lon="2.95881">
        <ele>1179.7259373715</ele>
        <time>2019-04-27T11:36:08Z</time>
      </trkpt>
      <trkpt lat="45.79394" lon="2.95884">
        <ele>1179.0621783302</ele>
        <time>2019-04-27T11:36:17Z</time>
      </trkpt>
      <trkpt lat="45.7939" lon="2.95884">
        <ele>1178.7053562891</ele>
        <time>2019-04-27T11:36:26Z</time>
      </trkpt>
      <trkpt lat="45.79389" lon="2.9588">
        <ele>1178.5742020482</ele>
        <time>2019-04-27T11:36:36Z</time>
      </trkpt>
      <trkpt lat="45.79387" lon="2.95878">
        <ele>1178.3259891156</ele>
        <time>2019-04-27T11:36:46Z</time>
      </trkpt>
      <trkpt lat="45.7938" lon="2.95865">
        <ele>1178.1265727367</ele>
        <time>2019-04-27T11:36:55Z</time>
      </trkpt>
      <trkpt lat="45.7938" lon="2.9586">
        <ele>1178.1063823747</ele>
        <time>2019-04-27T11:37:04Z</time>
      </trkpt>
      <trkpt lat="45.7938" lon="2.95859">
        <ele>1178.0943558379</ele>
        <time>2019-04-27T11:37:13Z</time>
      </trkpt>
      <trkpt lat="45.79381" lon="2.95859">
        <ele>1178.0981253784</ele>
        <time>2019-04-27T11:37:25Z</time>
      </trkpt>
      <trkpt lat="45.79381" lon="2.95857">
        <ele>1178.1712852837</ele>
        <time>2019-04-27T11:37:33Z</time>
      </trkpt>
      <trkpt lat="45.79384" lon="2.95851">
        <ele>1178.1963376741</ele>
        <time>2019-04-27T11:37:42Z</time>
      </trkpt>
      <trkpt lat="45.7939" lon="2.95841">
        <ele>1178.1134172723</ele>
        <time>2019-04-27T11:37:52Z</time>
      </trkpt>
      <trkpt lat="45.79393" lon="2.95837">
        <ele>1177.9798772994</ele>
        <time>2019-04-27T11:38:01Z</time>
      </trkpt>
      <trkpt lat="45.79398" lon="2.95826">
        <ele>1177.7867431061</ele>
        <time>2019-04-27T11:38:10Z</time>
      </trkpt>
      <trkpt lat="45.79398" lon="2.95829">
        <ele>1177.5530199931</ele>
        <time>2019-04-27T11:38:19Z</time>
      </trkpt>
      <trkpt lat="45.79397" lon="2.95831">
        <ele>1177.461368005</ele>
        <time>2019-04-27T11:38:28Z</time>
      </trkpt>
      <trkpt lat="45.79398" lon="2.95832">
        <ele>1176.7958025986</ele>
        <time>2019-04-27T11:39:04Z</time>
      </trkpt>
      <trkpt lat="45.79398" lon="2.95833">
        <ele>1176.4780933741</ele>
        <time>2019-04-27T11:39:30Z</time>
      </trkpt>
      <trkpt lat="45.79399" lon="2.95834">
        <ele>1176.1447361979</ele>
        <time>2019-04-27T11:39:40Z</time>
      </trkpt>
      <trkpt lat="45.79399" lon="2.95835">
        <ele>1176.0492327134</ele>
        <time>2019-04-27T11:39:49Z</time>
      </trkpt>
      <trkpt lat="45.79401" lon="2.95837">
        <ele>1175.6317768127</ele>
        <time>2019-04-27T11:39:58Z</time>
      </trkpt>
      <trkpt lat="45.79402" lon="2.95839">
        <ele>1175.51463937</ele>
        <time>2019-04-27T11:40:07Z</time>
      </trkpt>
      <trkpt lat="45.79402" lon="2.9584">
        <ele>1175.3813746521</ele>
        <time>2019-04-27T11:40:16Z</time>
      </trkpt>
      <trkpt lat="45.79397" lon="2.95841">
        <ele>1174.1720124876</ele>
        <time>2019-04-27T11:40:26Z</time>
      </trkpt>
      <trkpt lat="45.79395" lon="2.95841">
        <ele>1173.2467177705</ele>
        <time>2019-04-27T11:40:36Z</time>
      </trkpt>
      <trkpt lat="45.79394" lon="2.9584">
        <ele>1172.6396796169</ele>
        <time>2019-04-27T11:40:45Z</time>
      </trkpt>
      <trkpt lat="45.79393" lon="2.95837">
        <ele>1172.5318809356</ele>
        <time>2019-04-27T11:40:55Z</time>
      </trkpt>
      <trkpt lat="45.79393" lon="2.95837">
        <ele>1172.1627803598</ele>
        <time>2019-04-27T11:41:12Z</time>
      </trkpt>
      <trkpt lat="45.79394" lon="2.95836">
        <ele>1171.9481834647</ele>
        <time>2019-04-27T11:41:22Z</time>
      </trkpt>
      <trkpt lat="45.79394" lon="2.95834">
        <ele>1171.4183143672</ele>
        <time>2019-04-27T11:41:31Z</time>
      </trkpt>
      <trkpt lat="45.79395" lon="2.95834">
        <ele>1170.3833560834</ele>
        <time>2019-04-27T11:42:10Z</time>
      </trkpt>
      <trkpt lat="45.79396" lon="2.95833">
        <ele>1169.8680145563</ele>
        <time>2019-04-27T11:42:18Z</time>
      </trkpt>
      <trkpt lat="45.79396" lon="2.95834">
        <ele>1169.4302071753</ele>
        <time>2019-04-27T11:42:32Z</time>
      </trkpt>
      <trkpt lat="45.79395" lon="2.95835">
        <ele>1168.9752818996</ele>
        <time>2019-04-27T11:42:41Z</time>
      </trkpt>
      <trkpt lat="45.79396" lon="2.95838">
        <ele>1168.4325321762</ele>
        <time>2019-04-27T11:42:50Z</time>
      </trkpt>
      <trkpt lat="45.79398" lon="2.9584">
        <ele>1167.5467282317</ele>
        <time>2019-04-27T11:43:00Z</time>
      </trkpt>
      <trkpt lat="45.79398" lon="2.95839">
        <ele>1166.9982451477</ele>
        <time>2019-04-27T11:43:12Z</time>
      </trkpt>
      <trkpt lat="45.79398" lon="2.95837">
        <ele>1166.7449582332</ele>
        <time>2019-04-27T11:43:21Z</time>
      </trkpt>
      <trkpt lat="45.79398" lon="2.95836">
        <ele>1166.3393768947</ele>
        <time>2019-04-27T11:43:29Z</time>
      </trkpt>
      <trkpt lat="45.79397" lon="2.95835">
        <ele>1165.522121694</ele>
        <time>2019-04-27T11:43:58Z</time>
      </trkpt>
      <trkpt lat="45.79391" lon="2.95837">
        <ele>1165.221601827</ele>
        <time>2019-04-27T11:44:07Z</time>
      </trkpt>
      <trkpt lat="45.79391" lon="2.95842">
        <ele>1164.9366434998</ele>
        <time>2019-04-27T11:44:17Z</time>
      </trkpt>
      <trkpt lat="45.79392" lon="2.95841">
        <ele>1164.8814691027</ele>
        <time>2019-04-27T11:44:25Z</time>
      </trkpt>
      <trkpt lat="45.79393" lon="2.95841">
        <ele>1164.7754716723</ele>
        <time>2019-04-27T11:44:40Z</time>
      </trkpt>
      <trkpt lat="45.79393" lon="2.95841">
        <ele>1164.6793672517</ele>
        <time>2019-04-27T11:44:53Z</time>
      </trkpt>
      <trkpt lat="45.79394" lon="2.95842">
        <ele>1164.5124072317</ele>
        <time>2019-04-27T11:45:07Z</time>
      </trkpt>
      <trkpt lat="45.79395" lon="2.95841">
        <ele>1164.2315835482</ele>
        <time>2019-04-27T11:45:30Z</time>
      </trkpt>
      <trkpt lat="45.79394" lon="2.95839">
        <ele>1164.0499720319</ele>
        <time>2019-04-27T11:45:40Z</time>
      </trkpt>
      <trkpt lat="45.79397" lon="2.95838">
        <ele>1163.8828999159</ele>
        <time>2019-04-27T11:45:49Z</time>
      </trkpt>
      <trkpt lat="45.79396" lon="2.95837">
        <ele>1163.6113457121</ele>
        <time>2019-04-27T11:45:59Z</time>
      </trkpt>
      <trkpt lat="45.79397" lon="2.95837">
        <ele>1163.2507383688</ele>
        <time>2019-04-27T11:46:11Z</time>
      </trkpt>
      <trkpt lat="45.79395" lon="2.95842">
        <ele>1162.85635495</ele>
        <time>2019-04-27T11:46:20Z</time>
      </trkpt>
      <trkpt lat="45.79385" lon="2.95843">
        <ele>1162.4947866453</ele>
        <time>2019-04-27T11:46:28Z</time>
      </trkpt>
      <trkpt lat="45.79375" lon="2.95845">
        <ele>1162.0775486222</ele>
        <time>2019-04-27T11:46:37Z</time>
      </trkpt>
      <trkpt lat="45.79369" lon="2.95853">
        <ele>1161.7012020287</ele>
        <time>2019-04-27T11:46:46Z</time>
      </trkpt>
      <trkpt lat="45.79366" lon="2.95865">
        <ele>1161.3101938426</ele>
        <time>2019-04-27T11:46:56Z</time>
      </trkpt>
      <trkpt lat="45.79361" lon="2.95869">
        <ele>1160.9638244866</ele>
        <time>2019-04-27T11:47:05Z</time>
      </trkpt>
      <trkpt lat="45.79355" lon="2.95882">
        <ele>1160.6351139393</ele>
        <time>2019-04-27T11:47:14Z</time>
      </trkpt>
      <trkpt lat="45.79352" lon="2.95892">
        <ele>1160.3314892517</ele>
        <time>2019-04-27T11:47:23Z</time>
      </trkpt>
      <trkpt lat="45.79347" lon="2.95901">
        <ele>1160.0141108804</ele>
        <time>2019-04-27T11:47:33Z</time>
      </trkpt>
      <trkpt lat="45.79342" lon="2.95906">
        <ele>1159.7795264624</ele>
        <time>2019-04-27T11:47:42Z</time>
      </trkpt>
      <trkpt lat="45.79335" lon="2.95913">
        <ele>1159.5654033103</ele>
        <time>2019-04-27T11:47:51Z</time>
      </trkpt>
      <trkpt lat="45.7933" lon="2.95919">
        <ele>1159.3741609912</ele>
        <time>2019-04-27T11:47:59Z</time>
      </trkpt>
      <trkpt lat="45.79324" lon="2.95928">
        <ele>1159.1603411365</ele>
        <time>2019-04-27T11:48:08Z</time>
      </trkpt>
      <trkpt lat="45.7932" lon="2.95932">
        <ele>1158.9385626248</ele>
        <time>2019-04-27T11:48:17Z</time>
      </trkpt>
      <trkpt lat="45.79316" lon="2.95937">
        <ele>1158.714256527</ele>
        <time>2019-04-27T11:48:27Z</time>
      </trkpt>
      <trkpt lat="45.79312" lon="2.9594">
        <ele>1158.4894001744</ele>
        <time>2019-04-27T11:48:37Z</time>
      </trkpt>
      <trkpt lat="45.79307" lon="2.95942">
        <ele>1158.2717799198</ele>
        <time>2019-04-27T11:48:46Z</time>
      </trkpt>
      <trkpt lat="45.79304" lon="2.95947">
        <ele>1158.0897708846</ele>
        <time>2019-04-27T11:48:54Z</time>
      </trkpt>
      <trkpt lat="45.79299" lon="2.95951">
        <ele>1157.9504296928</ele>
        <time>2019-04-27T11:49:03Z</time>
      </trkpt>
      <trkpt lat="45.79294" lon="2.9596">
        <ele>1157.6901391168</ele>
        <time>2019-04-27T11:49:13Z</time>
      </trkpt>
      <trkpt lat="45.79287" lon="2.95967">
        <ele>1157.4362579857</ele>
        <time>2019-04-27T11:49:21Z</time>
      </trkpt>
      <trkpt lat="45.79278" lon="2.9597">
        <ele>1157.1756914913</ele>
        <time>2019-04-27T11:49:31Z</time>
      </trkpt>
      <trkpt lat="45.79272" lon="2.9597">
        <ele>1156.8998966526</ele>
        <time>2019-04-27T11:49:40Z</time>
      </trkpt>
      <trkpt lat="45.79264" lon="2.9598">
        <ele>1156.5850510742</ele>
        <time>2019-04-27T11:49:50Z</time>
      </trkpt>
      <trkpt lat="45.79263" lon="2.95988">
        <ele>1156.3088610594</ele>
        <time>2019-04-27T11:49:59Z</time>
      </trkpt>
      <trkpt lat="45.7926" lon="2.9599">
        <ele>1156.1201055832</ele>
        <time>2019-04-27T11:50:08Z</time>
      </trkpt>
      <trkpt lat="45.79251" lon="2.95994">
        <ele>1155.8537976195</ele>
        <time>2019-04-27T11:50:17Z</time>
      </trkpt>
      <trkpt lat="45.79245" lon="2.96">
        <ele>1155.6239442831</ele>
        <time>2019-04-27T11:50:27Z</time>
      </trkpt>
      <trkpt lat="45.79239" lon="2.95999">
        <ele>1155.4199622784</ele>
        <time>2019-04-27T11:50:37Z</time>
      </trkpt>
      <trkpt lat="45.79241" lon="2.95995">
        <ele>1155.255364101</ele>
        <time>2019-04-27T11:50:47Z</time>
      </trkpt>
      <trkpt lat="45.79242" lon="2.95996">
        <ele>1155.210308579</ele>
        <time>2019-04-27T11:50:56Z</time>
      </trkpt>
      <trkpt lat="45.79243" lon="2.95998">
        <ele>1154.8492962119</ele>
        <time>2019-04-27T11:51:06Z</time>
      </trkpt>
      <trkpt lat="45.7924" lon="2.9598">
        <ele>1154.2689930839</ele>
        <time>2019-04-27T11:51:15Z</time>
      </trkpt>
      <trkpt lat="45.79237" lon="2.95972">
        <ele>1153.9901258948</ele>
        <time>2019-04-27T11:51:23Z</time>
      </trkpt>
      <trkpt lat="45.79239" lon="2.95969">
        <ele>1153.616603491</ele>
        <time>2019-04-27T11:51:32Z</time>
      </trkpt>
      <trkpt lat="45.7924" lon="2.9597">
        <ele>1153.2508719324</ele>
        <time>2019-04-27T11:51:40Z</time>
      </trkpt>
      <trkpt lat="45.79244" lon="2.95976">
        <ele>1152.9103196959</ele>
        <time>2019-04-27T11:51:50Z</time>
      </trkpt>
      <trkpt lat="45.79246" lon="2.9599">
        <ele>1152.2567528766</ele>
        <time>2019-04-27T11:51:59Z</time>
      </trkpt>
      <trkpt lat="45.79246" lon="2.95997">
        <ele>1151.9429237195</ele>
        <time>2019-04-27T11:52:09Z</time>
      </trkpt>
      <trkpt lat="45.79246" lon="2.95997">
        <ele>1151.1605563562</ele>
        <time>2019-04-27T11:53:22Z</time>
      </trkpt>
      <trkpt lat="45.79246" lon="2.95998">
        <ele>1150.9452349492</ele>
        <time>2019-04-27T11:53:43Z</time>
      </trkpt>
      <trkpt lat="45.79245" lon="2.95997">
        <ele>1150.3766871965</ele>
        <time>2019-04-27T11:53:53Z</time>
      </trkpt>
      <trkpt lat="45.79244" lon="2.95998">
        <ele>1150.0257001167</ele>
        <time>2019-04-27T11:54:18Z</time>
      </trkpt>
      <trkpt lat="45.79243" lon="2.95998">
        <ele>1149.769793589</ele>
        <time>2019-04-27T11:54:41Z</time>
      </trkpt>
      <trkpt lat="45.79242" lon="2.95997">
        <ele>1149.3639014516</ele>
        <time>2019-04-27T11:55:13Z</time>
      </trkpt>
      <trkpt lat="45.79242" lon="2.95996">
        <ele>1149.0019212936</ele>
        <time>2019-04-27T11:55:30Z</time>
      </trkpt>
      <trkpt lat="45.79242" lon="2.95993">
        <ele>1148.4941438612</ele>
        <time>2019-04-27T11:55:40Z</time>
      </trkpt>
      <trkpt lat="45.79241" lon="2.95989">
        <ele>1148.0000212038</ele>
        <time>2019-04-27T11:55:50Z</time>
      </trkpt>
      <trkpt lat="45.79244" lon="2.95971">
        <ele>1146.7904448052</ele>
        <time>2019-04-27T11:56:00Z</time>
      </trkpt>
      <trkpt lat="45.79247" lon="2.95961">
        <ele>1145.9594130425</ele>
        <time>2019-04-27T11:56:08Z</time>
      </trkpt>
      <trkpt lat="45.79252" lon="2.95947">
        <ele>1145.1387532225</ele>
        <time>2019-04-27T11:56:18Z</time>
      </trkpt>
      <trkpt lat="45.79254" lon="2.95931">
        <ele>1144.4444638114</ele>
        <time>2019-04-27T11:56:27Z</time>
      </trkpt>
      <trkpt lat="45.79258" lon="2.95923">
        <ele>1143.9035623076</ele>
        <time>2019-04-27T11:56:35Z</time>
      </trkpt>
      <trkpt lat="45.79262" lon="2.95907">
        <ele>1143.4212828649</ele>
        <time>2019-04-27T11:56:44Z</time>
      </trkpt>
      <trkpt lat="45.79262" lon="2.95898">
        <ele>1143.0439527129</ele>
        <time>2019-04-27T11:56:52Z</time>
      </trkpt>
      <trkpt lat="45.79265" lon="2.95887">
        <ele>1142.7394893065</ele>
        <time>2019-04-27T11:57:00Z</time>
      </trkpt>
      <trkpt lat="45.7927" lon="2.9587">
        <ele>1142.3329866294</ele>
        <time>2019-04-27T11:57:09Z</time>
      </trkpt>
      <trkpt lat="45.7928" lon="2.95853">
        <ele>1141.9619713346</ele>
        <time>2019-04-27T11:57:18Z</time>
      </trkpt>
      <trkpt lat="45.79285" lon="2.95843">
        <ele>1141.6176310016</ele>
        <time>2019-04-27T11:57:27Z</time>
      </trkpt>
      <trkpt lat="45.7929" lon="2.9583">
        <ele>1141.331566411</ele>
        <time>2019-04-27T11:57:36Z</time>
      </trkpt>
      <trkpt lat="45.79297" lon="2.95814">
        <ele>1141.0438473905</ele>
        <time>2019-04-27T11:57:45Z</time>
      </trkpt>
      <trkpt lat="45.793" lon="2.95798">
        <ele>1140.765089675</ele>
        <time>2019-04-27T11:57:55Z</time>
      </trkpt>
      <trkpt lat="45.79302" lon="2.95787">
        <ele>1140.5836995199</ele>
        <time>2019-04-27T11:58:04Z</time>
      </trkpt>
      <trkpt lat="45.79305" lon="2.95779">
        <ele>1140.4287024277</ele>
        <time>2019-04-27T11:58:13Z</time>
      </trkpt>
      <trkpt lat="45.79309" lon="2.95769">
        <ele>1140.2050317288</ele>
        <time>2019-04-27T11:58:22Z</time>
      </trkpt>
      <trkpt lat="45.79314" lon="2.95761">
        <ele>1139.9913890752</ele>
        <time>2019-04-27T11:58:31Z</time>
      </trkpt>
      <trkpt lat="45.79319" lon="2.95749">
        <ele>1139.8330402107</ele>
        <time>2019-04-27T11:58:39Z</time>
      </trkpt>
      <trkpt lat="45.79326" lon="2.9574">
        <ele>1139.6469695399</ele>
        <time>2019-04-27T11:58:48Z</time>
      </trkpt>
      <trkpt lat="45.79334" lon="2.95736">
        <ele>1139.4300880173</ele>
        <time>2019-04-27T11:58:57Z</time>
      </trkpt>
      <trkpt lat="45.79337" lon="2.95729">
        <ele>1139.2748781825</ele>
        <time>2019-04-27T11:59:06Z</time>
      </trkpt>
      <trkpt lat="45.79341" lon="2.95726">
        <ele>1139.0468745474</ele>
        <time>2019-04-27T11:59:15Z</time>
      </trkpt>
      <trkpt lat="45.79357" lon="2.95711">
        <ele>1138.8286692193</ele>
        <time>2019-04-27T11:59:23Z</time>
      </trkpt>
      <trkpt lat="45.79363" lon="2.95697">
        <ele>1138.6332614147</ele>
        <time>2019-04-27T11:59:33Z</time>
      </trkpt>
      <trkpt lat="45.79367" lon="2.95692">
        <ele>1138.3885414352</ele>
        <time>2019-04-27T11:59:43Z</time>
      </trkpt>
      <trkpt lat="45.79382" lon="2.95679">
        <ele>1138.1468015233</ele>
        <time>2019-04-27T11:59:52Z</time>
      </trkpt>
      <trkpt lat="45.79387" lon="2.95675">
        <ele>1138.002704027</ele>
        <time>2019-04-27T12:00:01Z</time>
      </trkpt>
      <trkpt lat="45.79389" lon="2.95674">
        <ele>1137.8615024389</ele>
        <time>2019-04-27T12:00:10Z</time>
      </trkpt>
      <trkpt lat="45.79396" lon="2.95668">
        <ele>1137.5709523881</ele>
        <time>2019-04-27T12:00:19Z</time>
      </trkpt>
      <trkpt lat="45.79399" lon="2.95666">
        <ele>1137.3244567035</ele>
        <time>2019-04-27T12:00:27Z</time>
      </trkpt>
      <trkpt lat="45.79402" lon="2.95662">
        <ele>1137.0253724752</ele>
        <time>2019-04-27T12:00:37Z</time>
      </trkpt>
      <trkpt lat="45.79412" lon="2.95655">
        <ele>1136.7662821397</ele>
        <time>2019-04-27T12:00:46Z</time>
      </trkpt>
      <trkpt lat="45.79418" lon="2.9565">
        <ele>1136.5609075472</ele>
        <time>2019-04-27T12:00:55Z</time>
      </trkpt>
      <trkpt lat="45.79425" lon="2.9565">
        <ele>1136.2141813929</ele>
        <time>2019-04-27T12:01:05Z</time>
      </trkpt>
      <trkpt lat="45.79429" lon="2.95651">
        <ele>1135.9694025377</ele>
        <time>2019-04-27T12:01:13Z</time>
      </trkpt>
      <trkpt lat="45.79432" lon="2.95651">
        <ele>1135.7653599431</ele>
        <time>2019-04-27T12:01:23Z</time>
      </trkpt>
      <trkpt lat="45.79436" lon="2.95648">
        <ele>1135.4815909519</ele>
        <time>2019-04-27T12:01:32Z</time>
      </trkpt>
      <trkpt lat="45.79439" lon="2.95641">
        <ele>1135.1765994207</ele>
        <time>2019-04-27T12:01:42Z</time>
      </trkpt>
      <trkpt lat="45.7945" lon="2.95633">
        <ele>1134.8345413256</ele>
        <time>2019-04-27T12:01:51Z</time>
      </trkpt>
      <trkpt lat="45.79459" lon="2.95622">
        <ele>1134.5676479101</ele>
        <time>2019-04-27T12:02:00Z</time>
      </trkpt>
      <trkpt lat="45.79462" lon="2.95611">
        <ele>1134.2786174636</ele>
        <time>2019-04-27T12:02:08Z</time>
      </trkpt>
      <trkpt lat="45.79467" lon="2.95604">
        <ele>1133.9053638744</ele>
        <time>2019-04-27T12:02:18Z</time>
      </trkpt>
      <trkpt lat="45.79475" lon="2.95598">
        <ele>1133.5412771629</ele>
        <time>2019-04-27T12:02:28Z</time>
      </trkpt>
      <trkpt lat="45.79479" lon="2.95595">
        <ele>1133.2352623993</ele>
        <time>2019-04-27T12:02:38Z</time>
      </trkpt>
      <trkpt lat="45.79494" lon="2.9559">
        <ele>1132.9099757842</ele>
        <time>2019-04-27T12:02:48Z</time>
      </trkpt>
      <trkpt lat="45.79502" lon="2.95583">
        <ele>1132.720685054</ele>
        <time>2019-04-27T12:02:56Z</time>
      </trkpt>
      <trkpt lat="45.79506" lon="2.95578">
        <ele>1132.4993558628</ele>
        <time>2019-04-27T12:03:05Z</time>
      </trkpt>
      <trkpt lat="45.79509" lon="2.95572">
        <ele>1132.2358924906</ele>
        <time>2019-04-27T12:03:14Z</time>
      </trkpt>
      <trkpt lat="45.79513" lon="2.95566">
        <ele>1131.9675996626</ele>
        <time>2019-04-27T12:03:23Z</time>
      </trkpt>
      <trkpt lat="45.79521" lon="2.9556">
        <ele>1131.7471000265</ele>
        <time>2019-04-27T12:03:31Z</time>
      </trkpt>
      <trkpt lat="45.79525" lon="2.95557">
        <ele>1131.6368716741</ele>
        <time>2019-04-27T12:03:39Z</time>
      </trkpt>
      <trkpt lat="45.79532" lon="2.95551">
        <ele>1131.3454834867</ele>
        <time>2019-04-27T12:03:49Z</time>
      </trkpt>
      <trkpt lat="45.79542" lon="2.95539">
        <ele>1130.9741530341</ele>
        <time>2019-04-27T12:03:58Z</time>
      </trkpt>
      <trkpt lat="45.79547" lon="2.9553">
        <ele>1130.5729015399</ele>
        <time>2019-04-27T12:04:07Z</time>
      </trkpt>
      <trkpt lat="45.79549" lon="2.95529">
        <ele>1130.2016442576</ele>
        <time>2019-04-27T12:04:16Z</time>
      </trkpt>
      <trkpt lat="45.79554" lon="2.95525">
        <ele>1129.8149282358</ele>
        <time>2019-04-27T12:04:25Z</time>
      </trkpt>
      <trkpt lat="45.79558" lon="2.95519">
        <ele>1129.4056592915</ele>
        <time>2019-04-27T12:04:33Z</time>
      </trkpt>
      <trkpt lat="45.79565" lon="2.95513">
        <ele>1128.9122030297</ele>
        <time>2019-04-27T12:04:42Z</time>
      </trkpt>
      <trkpt lat="45.79569" lon="2.95505">
        <ele>1128.5294829175</ele>
        <time>2019-04-27T12:04:51Z</time>
      </trkpt>
      <trkpt lat="45.79578" lon="2.95498">
        <ele>1127.982449399</ele>
        <time>2019-04-27T12:05:01Z</time>
      </trkpt>
      <trkpt lat="45.79588" lon="2.95492">
        <ele>1127.4073428857</ele>
        <time>2019-04-27T12:05:10Z</time>
      </trkpt>
      <trkpt lat="45.79594" lon="2.95487">
        <ele>1126.8442959055</ele>
        <time>2019-04-27T12:05:20Z</time>
      </trkpt>
      <trkpt lat="45.79604" lon="2.95482">
        <ele>1126.2259471635</ele>
        <time>2019-04-27T12:05:29Z</time>
      </trkpt>
      <trkpt lat="45.7961" lon="2.95479">
        <ele>1125.6276969242</ele>
        <time>2019-04-27T12:05:38Z</time>
      </trkpt>
      <trkpt lat="45.79617" lon="2.95475">
        <ele>1125.1144392126</ele>
        <time>2019-04-27T12:05:47Z</time>
      </trkpt>
      <trkpt lat="45.79617" lon="2.95474">
        <ele>1124.9984070769</ele>
        <time>2019-04-27T12:05:56Z</time>
      </trkpt>
      <trkpt lat="45.79619" lon="2.95473">
        <ele>1124.7519590249</ele>
        <time>2019-04-27T12:06:05Z</time>
      </trkpt>
      <trkpt lat="45.79621" lon="2.95472">
        <ele>1124.5612313473</ele>
        <time>2019-04-27T12:06:14Z</time>
      </trkpt>
      <trkpt lat="45.79621" lon="2.95472">
        <ele>1124.4023917766</ele>
        <time>2019-04-27T12:06:33Z</time>
      </trkpt>
      <trkpt lat="45.79621" lon="2.95471">
        <ele>1123.9597537503</ele>
        <time>2019-04-27T12:07:05Z</time>
      </trkpt>
      <trkpt lat="45.7962" lon="2.9547">
        <ele>1123.1279375623</ele>
        <time>2019-04-27T12:07:25Z</time>
      </trkpt>
      <trkpt lat="45.7962" lon="2.95472">
        <ele>1122.6208834698</ele>
        <time>2019-04-27T12:07:51Z</time>
      </trkpt>
      <trkpt lat="45.7962" lon="2.95472">
        <ele>1122.3945684906</ele>
        <time>2019-04-27T12:08:00Z</time>
      </trkpt>
      <trkpt lat="45.79623" lon="2.95475">
        <ele>1121.9456511266</ele>
        <time>2019-04-27T12:08:09Z</time>
      </trkpt>
      <trkpt lat="45.79623" lon="2.95476">
        <ele>1121.1407023152</ele>
        <time>2019-04-27T12:08:36Z</time>
      </trkpt>
      <trkpt lat="45.79622" lon="2.95477">
        <ele>1120.8075529049</ele>
        <time>2019-04-27T12:08:48Z</time>
      </trkpt>
      <trkpt lat="45.79619" lon="2.95474">
        <ele>1120.2146090935</ele>
        <time>2019-04-27T12:08:58Z</time>
      </trkpt>
      <trkpt lat="45.79619" lon="2.95473">
        <ele>1119.2390966663</ele>
        <time>2019-04-27T12:09:18Z</time>
      </trkpt>
      <trkpt lat="45.79624" lon="2.9547">
        <ele>1117.8711363431</ele>
        <time>2019-04-27T12:09:28Z</time>
      </trkpt>
      <trkpt lat="45.79626" lon="2.95469">
        <ele>1116.5252788249</ele>
        <time>2019-04-27T12:09:37Z</time>
      </trkpt>
      <trkpt lat="45.79627" lon="2.95466">
        <ele>1115.6455844549</ele>
        <time>2019-04-27T12:09:46Z</time>
      </trkpt>
      <trkpt lat="45.79629" lon="2.95458">
        <ele>1114.4239896081</ele>
        <time>2019-04-27T12:09:55Z</time>
      </trkpt>
      <trkpt lat="45.79633" lon="2.95452">
        <ele>1113.5032796186</ele>
        <time>2019-04-27T12:10:05Z</time>
      </trkpt>
      <trkpt lat="45.79636" lon="2.9545">
        <ele>1112.3872126973</ele>
        <time>2019-04-27T12:10:14Z</time>
      </trkpt>
      <trkpt lat="45.79641" lon="2.95441">
        <ele>1111.0406876899</ele>
        <time>2019-04-27T12:10:23Z</time>
      </trkpt>
      <trkpt lat="45.79644" lon="2.95433">
        <ele>1109.3855300989</ele>
        <time>2019-04-27T12:10:33Z</time>
      </trkpt>
      <trkpt lat="45.79648" lon="2.95426">
        <ele>1107.8930168941</ele>
        <time>2019-04-27T12:10:42Z</time>
      </trkpt>
      <trkpt lat="45.79653" lon="2.95418">
        <ele>1106.0126359372</ele>
        <time>2019-04-27T12:10:51Z</time>
      </trkpt>
      <trkpt lat="45.79661" lon="2.95408">
        <ele>1104.2646654264</ele>
        <time>2019-04-27T12:11:00Z</time>
      </trkpt>
      <trkpt lat="45.79666" lon="2.95402">
        <ele>1103.138633867</ele>
        <time>2019-04-27T12:11:08Z</time>
      </trkpt>
      <trkpt lat="45.79673" lon="2.95393">
        <ele>1101.3358234426</ele>
        <time>2019-04-27T12:11:17Z</time>
      </trkpt>
      <trkpt lat="45.79676" lon="2.9539">
        <ele>1099.5138135471</ele>
        <time>2019-04-27T12:11:27Z</time>
      </trkpt>
      <trkpt lat="45.7968" lon="2.95381">
        <ele>1097.7012612588</ele>
        <time>2019-04-27T12:11:35Z</time>
      </trkpt>
      <trkpt lat="45.79683" lon="2.95372">
        <ele>1096.0601160722</ele>
        <time>2019-04-27T12:11:44Z</time>
      </trkpt>
      <trkpt lat="45.79687" lon="2.95369">
        <ele>1094.4118747716</ele>
        <time>2019-04-27T12:11:53Z</time>
      </trkpt>
      <trkpt lat="45.7969" lon="2.95366">
        <ele>1092.8204551281</ele>
        <time>2019-04-27T12:12:02Z</time>
      </trkpt>
      <trkpt lat="45.79685" lon="2.95358">
        <ele>1091.6398937213</ele>
        <time>2019-04-27T12:12:12Z</time>
      </trkpt>
      <trkpt lat="45.79684" lon="2.95349">
        <ele>1088.9207882368</ele>
        <time>2019-04-27T12:12:21Z</time>
      </trkpt>
      <trkpt lat="45.79687" lon="2.95336">
        <ele>1085.3601518853</ele>
        <time>2019-04-27T12:12:30Z</time>
      </trkpt>
      <trkpt lat="45.79687" lon="2.95322">
        <ele>1081.3166222492</ele>
        <time>2019-04-27T12:12:39Z</time>
      </trkpt>
      <trkpt lat="45.79686" lon="2.95311">
        <ele>1077.3256644593</ele>
        <time>2019-04-27T12:12:48Z</time>
      </trkpt>
      <trkpt lat="45.79684" lon="2.95298">
        <ele>1074.1089916915</ele>
        <time>2019-04-27T12:12:58Z</time>
      </trkpt>
      <trkpt lat="45.7968" lon="2.95294">
        <ele>1070.2129635012</ele>
        <time>2019-04-27T12:13:07Z</time>
      </trkpt>
      <trkpt lat="45.79677" lon="2.95293">
        <ele>1067.5282711336</ele>
        <time>2019-04-27T12:13:16Z</time>
      </trkpt>
      <trkpt lat="45.79676" lon="2.95291">
        <ele>1065.7399155777</ele>
        <time>2019-04-27T12:13:26Z</time>
      </trkpt>
      <trkpt lat="45.79677" lon="2.95288">
        <ele>1065.0594711844</ele>
        <time>2019-04-27T12:13:35Z</time>
      </trkpt>
      <trkpt lat="45.79669" lon="2.95279">
        <ele>1061.1294655903</ele>
        <time>2019-04-27T12:13:45Z</time>
      </trkpt>
      <trkpt lat="45.7967" lon="2.95267">
        <ele>1058.1271381741</ele>
        <time>2019-04-27T12:13:53Z</time>
      </trkpt>
      <trkpt lat="45.79672" lon="2.95247">
        <ele>1055.0182019004</ele>
        <time>2019-04-27T12:14:02Z</time>
      </trkpt>
      <trkpt lat="45.79674" lon="2.95231">
        <ele>1052.2078640651</ele>
        <time>2019-04-27T12:14:11Z</time>
      </trkpt>
      <trkpt lat="45.79678" lon="2.95221">
        <ele>1049.6609694619</ele>
        <time>2019-04-27T12:14:20Z</time>
      </trkpt>
      <trkpt lat="45.7968" lon="2.95208">
        <ele>1047.3376629188</ele>
        <time>2019-04-27T12:14:29Z</time>
      </trkpt>
      <trkpt lat="45.79679" lon="2.95207">
        <ele>1045.8580544794</ele>
        <time>2019-04-27T12:14:38Z</time>
      </trkpt>
      <trkpt lat="45.79678" lon="2.95206">
        <ele>1045.0696502767</ele>
        <time>2019-04-27T12:14:47Z</time>
      </trkpt>
      <trkpt lat="45.79678" lon="2.95205">
        <ele>1044.593697243</ele>
        <time>2019-04-27T12:15:00Z</time>
      </trkpt>
      <trkpt lat="45.79677" lon="2.95204">
        <ele>1044.1041818174</ele>
        <time>2019-04-27T12:15:10Z</time>
      </trkpt>
      <trkpt lat="45.79678" lon="2.95204">
        <ele>1042.2874200677</ele>
        <time>2019-04-27T12:15:48Z</time>
      </trkpt>
      <trkpt lat="45.79679" lon="2.95203">
        <ele>1042.0129800126</ele>
        <time>2019-04-27T12:15:57Z</time>
      </trkpt>
      <trkpt lat="45.79678" lon="2.95202">
        <ele>1037.515749974</ele>
        <time>2019-04-27T12:17:07Z</time>
      </trkpt>
      <trkpt lat="45.79679" lon="2.95202">
        <ele>1035.2079048016</ele>
        <time>2019-04-27T12:17:31Z</time>
      </trkpt>
      <trkpt lat="45.79669" lon="2.95194">
        <ele>1032.862837696</ele>
        <time>2019-04-27T12:17:40Z</time>
      </trkpt>
      <trkpt lat="45.79667" lon="2.95191">
        <ele>1031.4323158285</ele>
        <time>2019-04-27T12:17:49Z</time>
      </trkpt>
      <trkpt lat="45.79661" lon="2.95174">
        <ele>1029.657995522</ele>
        <time>2019-04-27T12:17:58Z</time>
      </trkpt>
      <trkpt lat="45.79653" lon="2.9516">
        <ele>1028.1688172153</ele>
        <time>2019-04-27T12:18:08Z</time>
      </trkpt>
      <trkpt lat="45.79641" lon="2.95149">
        <ele>1026.9240723129</ele>
        <time>2019-04-27T12:18:17Z</time>
      </trkpt>
      <trkpt lat="45.79633" lon="2.95136">
        <ele>1025.8394914453</ele>
        <time>2019-04-27T12:18:26Z</time>
      </trkpt>
      <trkpt lat="45.79625" lon="2.95123">
        <ele>1024.8902035847</ele>
        <time>2019-04-27T12:18:36Z</time>
      </trkpt>
      <trkpt lat="45.79617" lon="2.95111">
        <ele>1024.0051608234</ele>
        <time>2019-04-27T12:18:45Z</time>
      </trkpt>
      <trkpt lat="45.7961" lon="2.95097">
        <ele>1023.3137006821</ele>
        <time>2019-04-27T12:18:55Z</time>
      </trkpt>
      <trkpt lat="45.79604" lon="2.95086">
        <ele>1022.6581784388</ele>
        <time>2019-04-27T12:19:04Z</time>
      </trkpt>
      <trkpt lat="45.79601" lon="2.95073">
        <ele>1021.8887042745</ele>
        <time>2019-04-27T12:19:14Z</time>
      </trkpt>
      <trkpt lat="45.79593" lon="2.95065">
        <ele>1021.330380202</ele>
        <time>2019-04-27T12:19:24Z</time>
      </trkpt>
      <trkpt lat="45.79585" lon="2.95053">
        <ele>1020.9446615275</ele>
        <time>2019-04-27T12:19:32Z</time>
      </trkpt>
      <trkpt lat="45.79577" lon="2.95047">
        <ele>1020.5866715192</ele>
        <time>2019-04-27T12:19:41Z</time>
      </trkpt>
      <trkpt lat="45.79567" lon="2.95037">
        <ele>1020.3337098456</ele>
        <time>2019-04-27T12:19:50Z</time>
      </trkpt>
      <trkpt lat="45.79561" lon="2.95032">
        <ele>1020.1144525175</ele>
        <time>2019-04-27T12:19:59Z</time>
      </trkpt>
      <trkpt lat="45.79557" lon="2.95017">
        <ele>1019.8717348979</ele>
        <time>2019-04-27T12:20:09Z</time>
      </trkpt>
      <trkpt lat="45.79552" lon="2.95008">
        <ele>1019.773401646</ele>
        <time>2019-04-27T12:20:18Z</time>
      </trkpt>
      <trkpt lat="45.79545" lon="2.94993">
        <ele>1019.7271755348</ele>
        <time>2019-04-27T12:20:27Z</time>
      </trkpt>
      <trkpt lat="45.79542" lon="2.94981">
        <ele>1019.7545235798</ele>
        <time>2019-04-27T12:20:35Z</time>
      </trkpt>
      <trkpt lat="45.79535" lon="2.94968">
        <ele>1019.8449399595</ele>
        <time>2019-04-27T12:20:45Z</time>
      </trkpt>
      <trkpt lat="45.79532" lon="2.94957">
        <ele>1019.9520513006</ele>
        <time>2019-04-27T12:20:53Z</time>
      </trkpt>
      <trkpt lat="45.79528" lon="2.94948">
        <ele>1020.0562883589</ele>
        <time>2019-04-27T12:21:02Z</time>
      </trkpt>
      <trkpt lat="45.79525" lon="2.94938">
        <ele>1020.1815865955</ele>
        <time>2019-04-27T12:21:12Z</time>
      </trkpt>
      <trkpt lat="45.79519" lon="2.94927">
        <ele>1020.2304535162</ele>
        <time>2019-04-27T12:21:20Z</time>
      </trkpt>
      <trkpt lat="45.79514" lon="2.94922">
        <ele>1020.29188518</ele>
        <time>2019-04-27T12:21:29Z</time>
      </trkpt>
      <trkpt lat="45.79502" lon="2.94899">
        <ele>1020.3520332322</ele>
        <time>2019-04-27T12:21:38Z</time>
      </trkpt>
      <trkpt lat="45.79494" lon="2.94892">
        <ele>1020.3898127993</ele>
        <time>2019-04-27T12:21:47Z</time>
      </trkpt>
      <trkpt lat="45.79484" lon="2.94881">
        <ele>1020.438745253</ele>
        <time>2019-04-27T12:21:57Z</time>
      </trkpt>
      <trkpt lat="45.79471" lon="2.94875">
        <ele>1020.4670642776</ele>
        <time>2019-04-27T12:22:06Z</time>
      </trkpt>
      <trkpt lat="45.79462" lon="2.94868">
        <ele>1020.4818423761</ele>
        <time>2019-04-27T12:22:16Z</time>
      </trkpt>
      <trkpt lat="45.79456" lon="2.94859">
        <ele>1020.4902370699</ele>
        <time>2019-04-27T12:22:25Z</time>
      </trkpt>
      <trkpt lat="45.7945" lon="2.94853">
        <ele>1020.5037344864</ele>
        <time>2019-04-27T12:22:34Z</time>
      </trkpt>
      <trkpt lat="45.79443" lon="2.94844">
        <ele>1020.5227156415</ele>
        <time>2019-04-27T12:22:44Z</time>
      </trkpt>
      <trkpt lat="45.79436" lon="2.94836">
        <ele>1020.5583045957</ele>
        <time>2019-04-27T12:22:54Z</time>
      </trkpt>
      <trkpt lat="45.7943" lon="2.9483">
        <ele>1020.6017918848</ele>
        <time>2019-04-27T12:23:03Z</time>
      </trkpt>
      <trkpt lat="45.79426" lon="2.94819">
        <ele>1020.6344942142</ele>
        <time>2019-04-27T12:23:13Z</time>
      </trkpt>
      <trkpt lat="45.79419" lon="2.94803">
        <ele>1020.6829103825</ele>
        <time>2019-04-27T12:23:22Z</time>
      </trkpt>
      <trkpt lat="45.79414" lon="2.94791">
        <ele>1020.7441101431</ele>
        <time>2019-04-27T12:23:32Z</time>
      </trkpt>
      <trkpt lat="45.79409" lon="2.94782">
        <ele>1020.7864567906</ele>
        <time>2019-04-27T12:23:40Z</time>
      </trkpt>
      <trkpt lat="45.79404" lon="2.94772">
        <ele>1020.8337448512</ele>
        <time>2019-04-27T12:23:50Z</time>
      </trkpt>
      <trkpt lat="45.79395" lon="2.9476">
        <ele>1020.8661603637</ele>
        <time>2019-04-27T12:23:59Z</time>
      </trkpt>
      <trkpt lat="45.79383" lon="2.9475">
        <ele>1020.9192920398</ele>
        <time>2019-04-27T12:24:08Z</time>
      </trkpt>
      <trkpt lat="45.79374" lon="2.94743">
        <ele>1020.9754933097</ele>
        <time>2019-04-27T12:24:17Z</time>
      </trkpt>
      <trkpt lat="45.79365" lon="2.94733">
        <ele>1021.0444277016</ele>
        <time>2019-04-27T12:24:27Z</time>
      </trkpt>
      <trkpt lat="45.79356" lon="2.9472">
        <ele>1021.0989339898</ele>
        <time>2019-04-27T12:24:35Z</time>
      </trkpt>
      <trkpt lat="45.79352" lon="2.94716">
        <ele>1021.1579613359</ele>
        <time>2019-04-27T12:24:44Z</time>
      </trkpt>
      <trkpt lat="45.79342" lon="2.94698">
        <ele>1021.2328067604</ele>
        <time>2019-04-27T12:24:54Z</time>
      </trkpt>
      <trkpt lat="45.79336" lon="2.9469">
        <ele>1021.3040793555</ele>
        <time>2019-04-27T12:25:03Z</time>
      </trkpt>
      <trkpt lat="45.79331" lon="2.94683">
        <ele>1021.3660980595</ele>
        <time>2019-04-27T12:25:13Z</time>
      </trkpt>
      <trkpt lat="45.79326" lon="2.94674">
        <ele>1021.4008625155</ele>
        <time>2019-04-27T12:25:21Z</time>
      </trkpt>
      <trkpt lat="45.79321" lon="2.94667">
        <ele>1021.4312207356</ele>
        <time>2019-04-27T12:25:30Z</time>
      </trkpt>
      <trkpt lat="45.79317" lon="2.94659">
        <ele>1021.4519413409</ele>
        <time>2019-04-27T12:25:40Z</time>
      </trkpt>
      <trkpt lat="45.79308" lon="2.94651">
        <ele>1021.4698761201</ele>
        <time>2019-04-27T12:25:50Z</time>
      </trkpt>
      <trkpt lat="45.79302" lon="2.94645">
        <ele>1021.5032681042</ele>
        <time>2019-04-27T12:26:00Z</time>
      </trkpt>
      <trkpt lat="45.79296" lon="2.94635">
        <ele>1021.5451006682</ele>
        <time>2019-04-27T12:26:09Z</time>
      </trkpt>
      <trkpt lat="45.79289" lon="2.94623">
        <ele>1021.5809163436</ele>
        <time>2019-04-27T12:26:17Z</time>
      </trkpt>
      <trkpt lat="45.79284" lon="2.94614">
        <ele>1021.6149079343</ele>
        <time>2019-04-27T12:26:26Z</time>
      </trkpt>
      <trkpt lat="45.79277" lon="2.946">
        <ele>1021.6329753188</ele>
        <time>2019-04-27T12:26:36Z</time>
      </trkpt>
      <trkpt lat="45.79272" lon="2.94589">
        <ele>1021.6743285597</ele>
        <time>2019-04-27T12:26:45Z</time>
      </trkpt>
      <trkpt lat="45.79271" lon="2.94588">
        <ele>1021.6990582296</ele>
        <time>2019-04-27T12:26:54Z</time>
      </trkpt>
      <trkpt lat="45.79272" lon="2.94588">
        <ele>1021.7302111836</ele>
        <time>2019-04-27T12:27:05Z</time>
      </trkpt>
      <trkpt lat="45.79273" lon="2.9459">
        <ele>1021.7681795865</ele>
        <time>2019-04-27T12:27:14Z</time>
      </trkpt>
      <trkpt lat="45.79275" lon="2.94591">
        <ele>1021.7964518241</ele>
        <time>2019-04-27T12:27:24Z</time>
      </trkpt>
      <trkpt lat="45.79275" lon="2.9459">
        <ele>1021.8054499341</ele>
        <time>2019-04-27T12:27:33Z</time>
      </trkpt>
      <trkpt lat="45.79276" lon="2.94592">
        <ele>1021.8196190571</ele>
        <time>2019-04-27T12:27:43Z</time>
      </trkpt>
      <trkpt lat="45.79277" lon="2.9459">
        <ele>1021.8964995473</ele>
        <time>2019-04-27T12:27:52Z</time>
      </trkpt>
      <trkpt lat="45.79278" lon="2.94589">
        <ele>1021.9149882881</ele>
        <time>2019-04-27T12:28:02Z</time>
      </trkpt>
      <trkpt lat="45.79281" lon="2.94587">
        <ele>1022.0723151303</ele>
        <time>2019-04-27T12:28:11Z</time>
      </trkpt>
      <trkpt lat="45.7928" lon="2.94589">
        <ele>1022.1965743957</ele>
        <time>2019-04-27T12:28:20Z</time>
      </trkpt>
      <trkpt lat="45.79282" lon="2.94589">
        <ele>1022.2511390155</ele>
        <time>2019-04-27T12:28:29Z</time>
      </trkpt>
      <trkpt lat="45.79278" lon="2.94588">
        <ele>1022.4174945774</ele>
        <time>2019-04-27T12:28:38Z</time>
      </trkpt>
      <trkpt lat="45.79265" lon="2.94578">
        <ele>1022.655859957</ele>
        <time>2019-04-27T12:28:48Z</time>
      </trkpt>
      <trkpt lat="45.79262" lon="2.94569">
        <ele>1022.8407324435</ele>
        <time>2019-04-27T12:28:56Z</time>
      </trkpt>
      <trkpt lat="45.79257" lon="2.94558">
        <ele>1023.0807127095</ele>
        <time>2019-04-27T12:29:06Z</time>
      </trkpt>
      <trkpt lat="45.79254" lon="2.94542">
        <ele>1023.2886044293</ele>
        <time>2019-04-27T12:29:16Z</time>
      </trkpt>
      <trkpt lat="45.7925" lon="2.94528">
        <ele>1023.4309275827</ele>
        <time>2019-04-27T12:29:24Z</time>
      </trkpt>
      <trkpt lat="45.79246" lon="2.94513">
        <ele>1023.5815721076</ele>
        <time>2019-04-27T12:29:34Z</time>
      </trkpt>
      <trkpt lat="45.79242" lon="2.94501">
        <ele>1023.6851889271</ele>
        <time>2019-04-27T12:29:42Z</time>
      </trkpt>
      <trkpt lat="45.79238" lon="2.94489">
        <ele>1023.7772616925</ele>
        <time>2019-04-27T12:29:50Z</time>
      </trkpt>
      <trkpt lat="45.79235" lon="2.94472">
        <ele>1023.8768410364</ele>
        <time>2019-04-27T12:30:00Z</time>
      </trkpt>
      <trkpt lat="45.7923" lon="2.94457">
        <ele>1023.9528290501</ele>
        <time>2019-04-27T12:30:09Z</time>
      </trkpt>
      <trkpt lat="45.79226" lon="2.94449">
        <ele>1023.9958369279</ele>
        <time>2019-04-27T12:30:19Z</time>
      </trkpt>
      <trkpt lat="45.79226" lon="2.94447">
        <ele>1024.0208689197</ele>
        <time>2019-04-27T12:30:32Z</time>
      </trkpt>
      <trkpt lat="45.79225" lon="2.94447">
        <ele>1024.0769008328</ele>
        <time>2019-04-27T12:31:03Z</time>
      </trkpt>
      <trkpt lat="45.79225" lon="2.94449">
        <ele>1024.1255006595</ele>
        <time>2019-04-27T12:31:12Z</time>
      </trkpt>
      <trkpt lat="45.79221" lon="2.94435">
        <ele>1024.1896656391</ele>
        <time>2019-04-27T12:31:22Z</time>
      </trkpt>
      <trkpt lat="45.79219" lon="2.94425">
        <ele>1024.2350291231</ele>
        <time>2019-04-27T12:31:30Z</time>
      </trkpt>
      <trkpt lat="45.79215" lon="2.94411">
        <ele>1024.2873896292</ele>
        <time>2019-04-27T12:31:39Z</time>
      </trkpt>
      <trkpt lat="45.79212" lon="2.94403">
        <ele>1024.3212032601</ele>
        <time>2019-04-27T12:31:48Z</time>
      </trkpt>
      <trkpt lat="45.79209" lon="2.94389">
        <ele>1024.3758751815</ele>
        <time>2019-04-27T12:31:58Z</time>
      </trkpt>
      <trkpt lat="45.79202" lon="2.94376">
        <ele>1024.4278944682</ele>
        <time>2019-04-27T12:32:07Z</time>
      </trkpt>
      <trkpt lat="45.79198" lon="2.94365">
        <ele>1024.4927040964</ele>
        <time>2019-04-27T12:32:16Z</time>
      </trkpt>
      <trkpt lat="45.79195" lon="2.94348">
        <ele>1024.3798954374</ele>
        <time>2019-04-27T12:32:25Z</time>
      </trkpt>
      <trkpt lat="45.79193" lon="2.94329">
        <ele>1024.0354634467</ele>
        <time>2019-04-27T12:32:34Z</time>
      </trkpt>
      <trkpt lat="45.79192" lon="2.94316">
        <ele>1023.7596987361</ele>
        <time>2019-04-27T12:32:43Z</time>
      </trkpt>
      <trkpt lat="45.79189" lon="2.943">
        <ele>1023.5538492962</ele>
        <time>2019-04-27T12:32:53Z</time>
      </trkpt>
      <trkpt lat="45.79187" lon="2.94287">
        <ele>1023.4589563315</ele>
        <time>2019-04-27T12:33:02Z</time>
      </trkpt>
      <trkpt lat="45.79187" lon="2.94286">
        <ele>1023.464949952</ele>
        <time>2019-04-27T12:33:11Z</time>
      </trkpt>
      <trkpt lat="45.79185" lon="2.94277">
        <ele>1023.7339567925</ele>
        <time>2019-04-27T12:33:21Z</time>
      </trkpt>
      <trkpt lat="45.79183" lon="2.94265">
        <ele>1024.0525480382</ele>
        <time>2019-04-27T12:33:30Z</time>
      </trkpt>
      <trkpt lat="45.7918" lon="2.94252">
        <ele>1024.4085678622</ele>
        <time>2019-04-27T12:33:39Z</time>
      </trkpt>
      <trkpt lat="45.79177" lon="2.94238">
        <ele>1024.8401187666</ele>
        <time>2019-04-27T12:33:48Z</time>
      </trkpt>
      <trkpt lat="45.79173" lon="2.94223">
        <ele>1025.2939761292</ele>
        <time>2019-04-27T12:33:58Z</time>
      </trkpt>
      <trkpt lat="45.79173" lon="2.94207">
        <ele>1025.6409959718</ele>
        <time>2019-04-27T12:34:06Z</time>
      </trkpt>
      <trkpt lat="45.79172" lon="2.94195">
        <ele>1025.9770872798</ele>
        <time>2019-04-27T12:34:15Z</time>
      </trkpt>
      <trkpt lat="45.79172" lon="2.9417">
        <ele>1026.3430241548</ele>
        <time>2019-04-27T12:34:24Z</time>
      </trkpt>
      <trkpt lat="45.79173" lon="2.94155">
        <ele>1026.8124306812</ele>
        <time>2019-04-27T12:34:34Z</time>
      </trkpt>
      <trkpt lat="45.79172" lon="2.94135">
        <ele>1027.2445848524</ele>
        <time>2019-04-27T12:34:44Z</time>
      </trkpt>
      <trkpt lat="45.7917" lon="2.94121">
        <ele>1027.6246062348</ele>
        <time>2019-04-27T12:34:53Z</time>
      </trkpt>
      <trkpt lat="45.7917" lon="2.94103">
        <ele>1028.0045840881</ele>
        <time>2019-04-27T12:35:03Z</time>
      </trkpt>
      <trkpt lat="45.79169" lon="2.94089">
        <ele>1028.2937296273</ele>
        <time>2019-04-27T12:35:12Z</time>
      </trkpt>
      <trkpt lat="45.79165" lon="2.94079">
        <ele>1028.5048934258</ele>
        <time>2019-04-27T12:35:21Z</time>
      </trkpt>
      <trkpt lat="45.7916" lon="2.94068">
        <ele>1028.7677486304</ele>
        <time>2019-04-27T12:35:30Z</time>
      </trkpt>
      <trkpt lat="45.79161" lon="2.94049">
        <ele>1028.9677001354</ele>
        <time>2019-04-27T12:35:39Z</time>
      </trkpt>
      <trkpt lat="45.79164" lon="2.94033">
        <ele>1029.1303074703</ele>
        <time>2019-04-27T12:35:47Z</time>
      </trkpt>
      <trkpt lat="45.79168" lon="2.94016">
        <ele>1029.3094705703</ele>
        <time>2019-04-27T12:35:56Z</time>
      </trkpt>
      <trkpt lat="45.79174" lon="2.94002">
        <ele>1029.4438343103</ele>
        <time>2019-04-27T12:36:05Z</time>
      </trkpt>
      <trkpt lat="45.79174" lon="2.94">
        <ele>1029.489050275</ele>
        <time>2019-04-27T12:36:15Z</time>
      </trkpt>
      <trkpt lat="45.79174" lon="2.93994">
        <ele>1029.602085779</ele>
        <time>2019-04-27T12:36:23Z</time>
      </trkpt>
      <trkpt lat="45.79175" lon="2.93988">
        <ele>1029.65757947</ele>
        <time>2019-04-27T12:36:32Z</time>
      </trkpt>
      <trkpt lat="45.79176" lon="2.93984">
        <ele>1029.7289085129</ele>
        <time>2019-04-27T12:36:42Z</time>
      </trkpt>
      <trkpt lat="45.79177" lon="2.93981">
        <ele>1029.7769291215</ele>
        <time>2019-04-27T12:36:51Z</time>
      </trkpt>
      <trkpt lat="45.79178" lon="2.93976">
        <ele>1029.8148606965</ele>
        <time>2019-04-27T12:37:00Z</time>
      </trkpt>
      <trkpt lat="45.79178" lon="2.93971">
        <ele>1029.8383623728</ele>
        <time>2019-04-27T12:37:09Z</time>
      </trkpt>
      <trkpt lat="45.79183" lon="2.93961">
        <ele>1029.8721581069</ele>
        <time>2019-04-27T12:37:17Z</time>
      </trkpt>
      <trkpt lat="45.79191" lon="2.93951">
        <ele>1029.9231292811</ele>
        <time>2019-04-27T12:37:26Z</time>
      </trkpt>
      <trkpt lat="45.79199" lon="2.93947">
        <ele>1029.9759720171</ele>
        <time>2019-04-27T12:37:36Z</time>
      </trkpt>
      <trkpt lat="45.79207" lon="2.93941">
        <ele>1030.0014747327</ele>
        <time>2019-04-27T12:37:45Z</time>
      </trkpt>
      <trkpt lat="45.79212" lon="2.93933">
        <ele>1030.0347933282</ele>
        <time>2019-04-27T12:37:55Z</time>
      </trkpt>
      <trkpt lat="45.79212" lon="2.93927">
        <ele>1030.0708785102</ele>
        <time>2019-04-27T12:38:03Z</time>
      </trkpt>
      <trkpt lat="45.79217" lon="2.93916">
        <ele>1030.1172100657</ele>
        <time>2019-04-27T12:38:12Z</time>
      </trkpt>
      <trkpt lat="45.79223" lon="2.93902">
        <ele>1030.1712348254</ele>
        <time>2019-04-27T12:38:20Z</time>
      </trkpt>
      <trkpt lat="45.79226" lon="2.93895">
        <ele>1030.2086052005</ele>
        <time>2019-04-27T12:38:30Z</time>
      </trkpt>
      <trkpt lat="45.79232" lon="2.93887">
        <ele>1030.276012643</ele>
        <time>2019-04-27T12:38:40Z</time>
      </trkpt>
      <trkpt lat="45.79234" lon="2.93884">
        <ele>1030.2999248412</ele>
        <time>2019-04-27T12:38:48Z</time>
      </trkpt>
      <trkpt lat="45.79235" lon="2.93876">
        <ele>1030.3544150502</ele>
        <time>2019-04-27T12:38:58Z</time>
      </trkpt>
      <trkpt lat="45.79241" lon="2.93872">
        <ele>1030.4259101937</ele>
        <time>2019-04-27T12:39:07Z</time>
      </trkpt>
      <trkpt lat="45.79246" lon="2.93864">
        <ele>1030.5199878138</ele>
        <time>2019-04-27T12:39:16Z</time>
      </trkpt>
      <trkpt lat="45.79251" lon="2.93855">
        <ele>1030.6189460276</ele>
        <time>2019-04-27T12:39:24Z</time>
      </trkpt>
      <trkpt lat="45.79258" lon="2.9384">
        <ele>1030.7329619104</ele>
        <time>2019-04-27T12:39:33Z</time>
      </trkpt>
      <trkpt lat="45.79261" lon="2.93833">
        <ele>1030.8160946294</ele>
        <time>2019-04-27T12:39:41Z</time>
      </trkpt>
      <trkpt lat="45.79261" lon="2.93832">
        <ele>1030.8279966166</ele>
        <time>2019-04-27T12:39:49Z</time>
      </trkpt>
      <trkpt lat="45.79264" lon="2.93832">
        <ele>1030.9430169057</ele>
        <time>2019-04-27T12:39:59Z</time>
      </trkpt>
      <trkpt lat="45.79264" lon="2.93833">
        <ele>1031.0118678788</ele>
        <time>2019-04-27T12:40:09Z</time>
      </trkpt>
      <trkpt lat="45.79263" lon="2.93835">
        <ele>1031.0422260192</ele>
        <time>2019-04-27T12:40:18Z</time>
      </trkpt>
      <trkpt lat="45.79263" lon="2.93834">
        <ele>1031.1091809089</ele>
        <time>2019-04-27T12:40:27Z</time>
      </trkpt>
      <trkpt lat="45.79262" lon="2.93832">
        <ele>1031.125988554</ele>
        <time>2019-04-27T12:40:36Z</time>
      </trkpt>
      <trkpt lat="45.79261" lon="2.93832">
        <ele>1031.3132664796</ele>
        <time>2019-04-27T12:41:23Z</time>
      </trkpt>
      <trkpt lat="45.79261" lon="2.93831">
        <ele>1031.4525965256</ele>
        <time>2019-04-27T12:41:31Z</time>
      </trkpt>
      <trkpt lat="45.79262" lon="2.9383">
        <ele>1031.5912410539</ele>
        <time>2019-04-27T12:41:40Z</time>
      </trkpt>
      <trkpt lat="45.79265" lon="2.93828">
        <ele>1031.7740697164</ele>
        <time>2019-04-27T12:41:50Z</time>
      </trkpt>
      <trkpt lat="45.79266" lon="2.93829">
        <ele>1031.8700148696</ele>
        <time>2019-04-27T12:41:58Z</time>
      </trkpt>
      <trkpt lat="45.79268" lon="2.93828">
        <ele>1031.9945658698</ele>
        <time>2019-04-27T12:42:08Z</time>
      </trkpt>
      <trkpt lat="45.7927" lon="2.93827">
        <ele>1032.1430484688</ele>
        <time>2019-04-27T12:42:17Z</time>
      </trkpt>
      <trkpt lat="45.79277" lon="2.93815">
        <ele>1032.3597067902</ele>
        <time>2019-04-27T12:42:26Z</time>
      </trkpt>
      <trkpt lat="45.79284" lon="2.93807">
        <ele>1032.5473350401</ele>
        <time>2019-04-27T12:42:36Z</time>
      </trkpt>
      <trkpt lat="45.79289" lon="2.93802">
        <ele>1032.7591916883</ele>
        <time>2019-04-27T12:42:46Z</time>
      </trkpt>
      <trkpt lat="45.79295" lon="2.93796">
        <ele>1032.9194498615</ele>
        <time>2019-04-27T12:42:54Z</time>
      </trkpt>
      <trkpt lat="45.79299" lon="2.93791">
        <ele>1033.118752294</ele>
        <time>2019-04-27T12:43:04Z</time>
      </trkpt>
      <trkpt lat="45.79307" lon="2.93785">
        <ele>1033.329252845</ele>
        <time>2019-04-27T12:43:14Z</time>
      </trkpt>
      <trkpt lat="45.79308" lon="2.93783">
        <ele>1033.5361701441</ele>
        <time>2019-04-27T12:43:24Z</time>
      </trkpt>
      <trkpt lat="45.7931" lon="2.93782">
        <ele>1033.7257368996</ele>
        <time>2019-04-27T12:43:33Z</time>
      </trkpt>
      <trkpt lat="45.79314" lon="2.93779">
        <ele>1033.8670387005</ele>
        <time>2019-04-27T12:43:41Z</time>
      </trkpt>
      <trkpt lat="45.79319" lon="2.93773">
        <ele>1033.9897368386</ele>
        <time>2019-04-27T12:43:51Z</time>
      </trkpt>
      <trkpt lat="45.79323" lon="2.9377">
        <ele>1034.0717729201</ele>
        <time>2019-04-27T12:44:00Z</time>
      </trkpt>
      <trkpt lat="45.79328" lon="2.93761">
        <ele>1034.0995870385</ele>
        <time>2019-04-27T12:44:09Z</time>
      </trkpt>
      <trkpt lat="45.79331" lon="2.93758">
        <ele>1034.1757649509</ele>
        <time>2019-04-27T12:44:18Z</time>
      </trkpt>
      <trkpt lat="45.79335" lon="2.93756">
        <ele>1034.277501883</ele>
        <time>2019-04-27T12:44:27Z</time>
      </trkpt>
      <trkpt lat="45.7934" lon="2.93753">
        <ele>1034.4506711287</ele>
        <time>2019-04-27T12:44:37Z</time>
      </trkpt>
      <trkpt lat="45.79341" lon="2.93753">
        <ele>1034.6767725942</ele>
        <time>2019-04-27T12:44:45Z</time>
      </trkpt>
      <trkpt lat="45.79345" lon="2.93749">
        <ele>1034.9338616353</ele>
        <time>2019-04-27T12:44:54Z</time>
      </trkpt>
      <trkpt lat="45.7935" lon="2.93748">
        <ele>1035.1838464025</ele>
        <time>2019-04-27T12:45:03Z</time>
      </trkpt>
      <trkpt lat="45.7935" lon="2.93748">
        <ele>1035.3862775514</ele>
        <time>2019-04-27T12:45:11Z</time>
      </trkpt>
      <trkpt lat="45.79352" lon="2.93746">
        <ele>1035.7118530519</ele>
        <time>2019-04-27T12:45:19Z</time>
      </trkpt>
      <trkpt lat="45.79356" lon="2.93743">
        <ele>1036.0963230068</ele>
        <time>2019-04-27T12:45:28Z</time>
      </trkpt>
      <trkpt lat="45.79361" lon="2.93741">
        <ele>1036.5288292246</ele>
        <time>2019-04-27T12:45:36Z</time>
      </trkpt>
      <trkpt lat="45.79368" lon="2.9374">
        <ele>1037.0079377349</ele>
        <time>2019-04-27T12:45:46Z</time>
      </trkpt>
      <trkpt lat="45.79375" lon="2.93739">
        <ele>1037.5264984238</ele>
        <time>2019-04-27T12:45:55Z</time>
      </trkpt>
      <trkpt lat="45.79382" lon="2.93734">
        <ele>1037.9466345798</ele>
        <time>2019-04-27T12:46:04Z</time>
      </trkpt>
      <trkpt lat="45.79392" lon="2.93728">
        <ele>1038.357640487</ele>
        <time>2019-04-27T12:46:14Z</time>
      </trkpt>
      <trkpt lat="45.79399" lon="2.93723">
        <ele>1038.7851344971</ele>
        <time>2019-04-27T12:46:22Z</time>
      </trkpt>
      <trkpt lat="45.79409" lon="2.93718">
        <ele>1039.3377429221</ele>
        <time>2019-04-27T12:46:31Z</time>
      </trkpt>
      <trkpt lat="45.79414" lon="2.93714">
        <ele>1039.9141021323</ele>
        <time>2019-04-27T12:46:41Z</time>
      </trkpt>
      <trkpt lat="45.79415" lon="2.93712">
        <ele>1040.3300298338</ele>
        <time>2019-04-27T12:46:49Z</time>
      </trkpt>
      <trkpt lat="45.79416" lon="2.93712">
        <ele>1041.0114644398</ele>
        <time>2019-04-27T12:47:03Z</time>
      </trkpt>
      <trkpt lat="45.79415" lon="2.93711">
        <ele>1041.6421693131</ele>
        <time>2019-04-27T12:47:18Z</time>
      </trkpt>
      <trkpt lat="45.79415" lon="2.9371">
        <ele>1041.999924125</ele>
        <time>2019-04-27T12:47:28Z</time>
      </trkpt>
      <trkpt lat="45.79415" lon="2.93708">
        <ele>1042.3903806352</ele>
        <time>2019-04-27T12:47:37Z</time>
      </trkpt>
      <trkpt lat="45.79416" lon="2.93707">
        <ele>1044.0593825087</ele>
        <time>2019-04-27T12:47:46Z</time>
      </trkpt>
      <trkpt lat="45.79415" lon="2.93703">
        <ele>1044.8468321195</ele>
        <time>2019-04-27T12:47:55Z</time>
      </trkpt>
      <trkpt lat="45.79415" lon="2.937">
        <ele>1046.7045484645</ele>
        <time>2019-04-27T12:48:04Z</time>
      </trkpt>
      <trkpt lat="45.79415" lon="2.93699">
        <ele>1048.8166353079</ele>
        <time>2019-04-27T12:48:14Z</time>
      </trkpt>
      <trkpt lat="45.79415" lon="2.93698">
        <ele>1049.8162508098</ele>
        <time>2019-04-27T12:48:23Z</time>
      </trkpt>
      <trkpt lat="45.79415" lon="2.93697">
        <ele>1054.152109328</ele>
        <time>2019-04-27T12:48:44Z</time>
      </trkpt>
      <trkpt lat="45.79416" lon="2.93698">
        <ele>1056.2721328628</ele>
        <time>2019-04-27T12:48:54Z</time>
      </trkpt>
      <trkpt lat="45.79416" lon="2.93698">
        <ele>1057.2594258384</ele>
        <time>2019-04-27T12:49:04Z</time>
      </trkpt>
      <trkpt lat="45.79414" lon="2.93697">
        <ele>1057.9506254237</ele>
        <time>2019-04-27T12:49:13Z</time>
      </trkpt>
      <trkpt lat="45.79413" lon="2.93697">
        <ele>1059.8629780089</ele>
        <time>2019-04-27T12:49:23Z</time>
      </trkpt>
      <trkpt lat="45.79412" lon="2.93697">
        <ele>1062.3463628692</ele>
        <time>2019-04-27T12:49:41Z</time>
      </trkpt>
      <trkpt lat="45.79413" lon="2.93697">
        <ele>1064.4471496497</ele>
        <time>2019-04-27T12:50:07Z</time>
      </trkpt>
      <trkpt lat="45.79412" lon="2.93695">
        <ele>1065.1505432871</ele>
        <time>2019-04-27T12:50:16Z</time>
      </trkpt>
      <trkpt lat="45.79413" lon="2.93694">
        <ele>1065.5272730411</ele>
        <time>2019-04-27T12:50:27Z</time>
      </trkpt>
      <trkpt lat="45.79421" lon="2.93692">
        <ele>1066.6152407642</ele>
        <time>2019-04-27T12:50:37Z</time>
      </trkpt>
      <trkpt lat="45.79427" lon="2.93691">
        <ele>1067.7251852559</ele>
        <time>2019-04-27T12:50:46Z</time>
      </trkpt>
      <trkpt lat="45.79436" lon="2.93689">
        <ele>1068.7101232927</ele>
        <time>2019-04-27T12:50:55Z</time>
      </trkpt>
      <trkpt lat="45.79441" lon="2.93688">
        <ele>1069.3830755238</ele>
        <time>2019-04-27T12:51:04Z</time>
      </trkpt>
      <trkpt lat="45.79447" lon="2.93687">
        <ele>1069.9934600681</ele>
        <time>2019-04-27T12:51:13Z</time>
      </trkpt>
      <trkpt lat="45.79455" lon="2.93682">
        <ele>1070.7610950312</ele>
        <time>2019-04-27T12:51:23Z</time>
      </trkpt>
      <trkpt lat="45.7946" lon="2.93684">
        <ele>1071.3825950423</ele>
        <time>2019-04-27T12:51:32Z</time>
      </trkpt>
      <trkpt lat="45.79465" lon="2.93684">
        <ele>1071.8795602268</ele>
        <time>2019-04-27T12:51:40Z</time>
      </trkpt>
      <trkpt lat="45.79468" lon="2.93684">
        <ele>1072.3895230862</ele>
        <time>2019-04-27T12:51:49Z</time>
      </trkpt>
      <trkpt lat="45.79469" lon="2.93681">
        <ele>1072.9338221629</ele>
        <time>2019-04-27T12:51:58Z</time>
      </trkpt>
      <trkpt lat="45.79475" lon="2.93685">
        <ele>1073.6063099186</ele>
        <time>2019-04-27T12:52:07Z</time>
      </trkpt>
      <trkpt lat="45.7948" lon="2.93688">
        <ele>1074.2653789636</ele>
        <time>2019-04-27T12:52:16Z</time>
      </trkpt>
      <trkpt lat="45.79484" lon="2.93689">
        <ele>1074.6371886544</ele>
        <time>2019-04-27T12:52:25Z</time>
      </trkpt>
      <trkpt lat="45.79486" lon="2.93688">
        <ele>1075.0035013115</ele>
        <time>2019-04-27T12:52:34Z</time>
      </trkpt>
      <trkpt lat="45.79494" lon="2.93687">
        <ele>1075.5774876167</ele>
        <time>2019-04-27T12:52:44Z</time>
      </trkpt>
      <trkpt lat="45.79502" lon="2.93683">
        <ele>1076.1303056213</ele>
        <time>2019-04-27T12:52:53Z</time>
      </trkpt>
      <trkpt lat="45.79506" lon="2.93679">
        <ele>1076.6086790198</ele>
        <time>2019-04-27T12:53:02Z</time>
      </trkpt>
      <trkpt lat="45.79506" lon="2.93678">
        <ele>1076.9789310695</ele>
        <time>2019-04-27T12:53:22Z</time>
      </trkpt>
      <trkpt lat="45.79508" lon="2.93673">
        <ele>1077.2394610549</ele>
        <time>2019-04-27T12:53:32Z</time>
      </trkpt>
      <trkpt lat="45.79508" lon="2.93672">
        <ele>1077.4158146495</ele>
        <time>2019-04-27T12:53:41Z</time>
      </trkpt>
      <trkpt lat="45.79509" lon="2.93671">
        <ele>1077.7666900186</ele>
        <time>2019-04-27T12:53:51Z</time>
      </trkpt>
      <trkpt lat="45.79508" lon="2.93671">
        <ele>1078.5430227169</ele>
        <time>2019-04-27T12:54:12Z</time>
      </trkpt>
      <trkpt lat="45.79509" lon="2.93672">
        <ele>1080.077138693</ele>
        <time>2019-04-27T12:54:37Z</time>
      </trkpt>
      <trkpt lat="45.79513" lon="2.93676">
        <ele>1080.7408398084</ele>
        <time>2019-04-27T12:54:46Z</time>
      </trkpt>
      <trkpt lat="45.79512" lon="2.93678">
        <ele>1080.8621220122</ele>
        <time>2019-04-27T12:54:55Z</time>
      </trkpt>
      <trkpt lat="45.7951" lon="2.93679">
        <ele>1081.3119610094</ele>
        <time>2019-04-27T12:55:05Z</time>
      </trkpt>
      <trkpt lat="45.79508" lon="2.9368">
        <ele>1081.4834358296</ele>
        <time>2019-04-27T12:55:14Z</time>
      </trkpt>
      <trkpt lat="45.79508" lon="2.93679">
        <ele>1081.6197756517</ele>
        <time>2019-04-27T12:55:31Z</time>
      </trkpt>
      <trkpt lat="45.79508" lon="2.93679">
        <ele>1082.5949613947</ele>
        <time>2019-04-27T12:56:17Z</time>
      </trkpt>
      <trkpt lat="45.79506" lon="2.93679">
        <ele>1083.0717271292</ele>
        <time>2019-04-27T12:56:25Z</time>
      </trkpt>
      <trkpt lat="45.79505" lon="2.93679">
        <ele>1083.2835172699</ele>
        <time>2019-04-27T12:56:34Z</time>
      </trkpt>
      <trkpt lat="45.79505" lon="2.93678">
        <ele>1083.7844533346</ele>
        <time>2019-04-27T12:56:52Z</time>
      </trkpt>
      <trkpt lat="45.79505" lon="2.93676">
        <ele>1084.1581640689</ele>
        <time>2019-04-27T12:57:01Z</time>
      </trkpt>
      <trkpt lat="45.79505" lon="2.93676">
        <ele>1084.5047075659</ele>
        <time>2019-04-27T12:57:15Z</time>
      </trkpt>
      <trkpt lat="45.7951" lon="2.93678">
        <ele>1085.0313374906</ele>
        <time>2019-04-27T12:57:24Z</time>
      </trkpt>
      <trkpt lat="45.79513" lon="2.93677">
        <ele>1085.520030561</ele>
        <time>2019-04-27T12:57:34Z</time>
      </trkpt>
      <trkpt lat="45.79517" lon="2.93682">
        <ele>1085.9913844611</ele>
        <time>2019-04-27T12:57:43Z</time>
      </trkpt>
      <trkpt lat="45.79524" lon="2.93684">
        <ele>1086.6206125269</ele>
        <time>2019-04-27T12:57:52Z</time>
      </trkpt>
      <trkpt lat="45.79532" lon="2.93687">
        <ele>1087.3322659296</ele>
        <time>2019-04-27T12:58:01Z</time>
      </trkpt>
      <trkpt lat="45.79536" lon="2.93692">
        <ele>1088.0015905466</ele>
        <time>2019-04-27T12:58:10Z</time>
      </trkpt>
      <trkpt lat="45.79544" lon="2.93695">
        <ele>1088.5255968363</ele>
        <time>2019-04-27T12:58:19Z</time>
      </trkpt>
      <trkpt lat="45.79548" lon="2.93696">
        <ele>1089.0473472641</ele>
        <time>2019-04-27T12:58:27Z</time>
      </trkpt>
      <trkpt lat="45.79552" lon="2.93698">
        <ele>1089.6590246608</ele>
        <time>2019-04-27T12:58:35Z</time>
      </trkpt>
      <trkpt lat="45.79556" lon="2.93704">
        <ele>1090.3837943789</ele>
        <time>2019-04-27T12:58:44Z</time>
      </trkpt>
      <trkpt lat="45.79557" lon="2.93704">
        <ele>1090.9924155435</ele>
        <time>2019-04-27T12:58:54Z</time>
      </trkpt>
      <trkpt lat="45.79558" lon="2.937">
        <ele>1091.6288097129</ele>
        <time>2019-04-27T12:59:03Z</time>
      </trkpt>
      <trkpt lat="45.79557" lon="2.93704">
        <ele>1093.6089445667</ele>
        <time>2019-04-27T12:59:11Z</time>
      </trkpt>
      <trkpt lat="45.79562" lon="2.93699">
        <ele>1094.1893455128</ele>
        <time>2019-04-27T12:59:20Z</time>
      </trkpt>
      <trkpt lat="45.79569" lon="2.93703">
        <ele>1094.4455107803</ele>
        <time>2019-04-27T12:59:28Z</time>
      </trkpt>
      <trkpt lat="45.79584" lon="2.93696">
        <ele>1095.3853583445</ele>
        <time>2019-04-27T12:59:38Z</time>
      </trkpt>
      <trkpt lat="45.7959" lon="2.93699">
        <ele>1096.5590283807</ele>
        <time>2019-04-27T12:59:47Z</time>
      </trkpt>
      <trkpt lat="45.79599" lon="2.93701">
        <ele>1097.6768923158</ele>
        <time>2019-04-27T12:59:55Z</time>
      </trkpt>
      <trkpt lat="45.79602" lon="2.93697">
        <ele>1099.4516551582</ele>
        <time>2019-04-27T13:00:05Z</time>
      </trkpt>
      <trkpt lat="45.79601" lon="2.93708">
        <ele>1100.9943783543</ele>
        <time>2019-04-27T13:00:13Z</time>
      </trkpt>
      <trkpt lat="45.79606" lon="2.93711">
        <ele>1103.0023327686</ele>
        <time>2019-04-27T13:00:22Z</time>
      </trkpt>
      <trkpt lat="45.79612" lon="2.93716">
        <ele>1104.5677691691</ele>
        <time>2019-04-27T13:00:31Z</time>
      </trkpt>
      <trkpt lat="45.79623" lon="2.93717">
        <ele>1106.286101159</ele>
        <time>2019-04-27T13:00:40Z</time>
      </trkpt>
      <trkpt lat="45.79629" lon="2.93719">
        <ele>1107.5926899173</ele>
        <time>2019-04-27T13:00:48Z</time>
      </trkpt>
      <trkpt lat="45.79634" lon="2.93728">
        <ele>1109.7101884795</ele>
        <time>2019-04-27T13:00:58Z</time>
      </trkpt>
      <trkpt lat="45.79637" lon="2.93734">
        <ele>1111.5259803362</ele>
        <time>2019-04-27T13:01:08Z</time>
      </trkpt>
      <trkpt lat="45.79643" lon="2.93739">
        <ele>1113.1518182079</ele>
        <time>2019-04-27T13:01:18Z</time>
      </trkpt>
      <trkpt lat="45.79647" lon="2.93739">
        <ele>1114.719708556</ele>
        <time>2019-04-27T13:01:28Z</time>
      </trkpt>
      <trkpt lat="45.79651" lon="2.93731">
        <ele>1116.0678296067</ele>
        <time>2019-04-27T13:01:37Z</time>
      </trkpt>
      <trkpt lat="45.79658" lon="2.9373">
        <ele>1117.3912350175</ele>
        <time>2019-04-27T13:01:46Z</time>
      </trkpt>
      <trkpt lat="45.79665" lon="2.93738">
        <ele>1119.1237065946</ele>
        <time>2019-04-27T13:01:56Z</time>
      </trkpt>
      <trkpt lat="45.79666" lon="2.93739">
        <ele>1120.5660342173</ele>
        <time>2019-04-27T13:02:05Z</time>
      </trkpt>
      <trkpt lat="45.79669" lon="2.9374">
        <ele>1121.7001365142</ele>
        <time>2019-04-27T13:02:14Z</time>
      </trkpt>
      <trkpt lat="45.79671" lon="2.93742">
        <ele>1122.7302463113</ele>
        <time>2019-04-27T13:02:24Z</time>
      </trkpt>
      <trkpt lat="45.79676" lon="2.93746">
        <ele>1124.3063232275</ele>
        <time>2019-04-27T13:02:34Z</time>
      </trkpt>
      <trkpt lat="45.7968" lon="2.93753">
        <ele>1125.9213565129</ele>
        <time>2019-04-27T13:02:44Z</time>
      </trkpt>
      <trkpt lat="45.79684" lon="2.93759">
        <ele>1127.0386979761</ele>
        <time>2019-04-27T13:02:52Z</time>
      </trkpt>
      <trkpt lat="45.79685" lon="2.93762">
        <ele>1127.8686519132</ele>
        <time>2019-04-27T13:03:00Z</time>
      </trkpt>
      <trkpt lat="45.79689" lon="2.93768">
        <ele>1129.1403248709</ele>
        <time>2019-04-27T13:03:10Z</time>
      </trkpt>
      <trkpt lat="45.79694" lon="2.93775">
        <ele>1130.3192590612</ele>
        <time>2019-04-27T13:03:19Z</time>
      </trkpt>
      <trkpt lat="45.79698" lon="2.93782">
        <ele>1131.3733682796</ele>
        <time>2019-04-27T13:03:28Z</time>
      </trkpt>
      <trkpt lat="45.79697" lon="2.93787">
        <ele>1132.6416744604</ele>
        <time>2019-04-27T13:03:37Z</time>
      </trkpt>
      <trkpt lat="45.79697" lon="2.93793">
        <ele>1133.9192250894</ele>
        <time>2019-04-27T13:03:47Z</time>
      </trkpt>
      <trkpt lat="45.79698" lon="2.93803">
        <ele>1135.0073887228</ele>
        <time>2019-04-27T13:03:56Z</time>
      </trkpt>
      <trkpt lat="45.79695" lon="2.9381">
        <ele>1135.9215598649</ele>
        <time>2019-04-27T13:04:04Z</time>
      </trkpt>
      <trkpt lat="45.79694" lon="2.93813">
        <ele>1136.2199718329</ele>
        <time>2019-04-27T13:04:13Z</time>
      </trkpt>
      <trkpt lat="45.79694" lon="2.93814">
        <ele>1136.5243390176</ele>
        <time>2019-04-27T13:04:22Z</time>
      </trkpt>
      <trkpt lat="45.79695" lon="2.93816">
        <ele>1137.2514085928</ele>
        <time>2019-04-27T13:04:32Z</time>
      </trkpt>
      <trkpt lat="45.79694" lon="2.93818">
        <ele>1137.9572889227</ele>
        <time>2019-04-27T13:04:42Z</time>
      </trkpt>
      <trkpt lat="45.79696" lon="2.93818">
        <ele>1138.3164757292</ele>
        <time>2019-04-27T13:04:51Z</time>
      </trkpt>
      <trkpt lat="45.79695" lon="2.93817">
        <ele>1138.4826502405</ele>
        <time>2019-04-27T13:05:00Z</time>
      </trkpt>
      <trkpt lat="45.79694" lon="2.93818">
        <ele>1138.8785431039</ele>
        <time>2019-04-27T13:05:09Z</time>
      </trkpt>
      <trkpt lat="45.79692" lon="2.93822">
        <ele>1139.6924171108</ele>
        <time>2019-04-27T13:05:18Z</time>
      </trkpt>
      <trkpt lat="45.79692" lon="2.93825">
        <ele>1140.0332404352</ele>
        <time>2019-04-27T13:05:27Z</time>
      </trkpt>
      <trkpt lat="45.79691" lon="2.93826">
        <ele>1140.6023356109</ele>
        <time>2019-04-27T13:05:37Z</time>
      </trkpt>
      <trkpt lat="45.7969" lon="2.93827">
        <ele>1142.2691925306</ele>
        <time>2019-04-27T13:05:53Z</time>
      </trkpt>
      <trkpt lat="45.7969" lon="2.93825">
        <ele>1144.2660008157</ele>
        <time>2019-04-27T13:06:09Z</time>
      </trkpt>
      <trkpt lat="45.79691" lon="2.93823">
        <ele>1144.9678646834</ele>
        <time>2019-04-27T13:06:18Z</time>
      </trkpt>
      <trkpt lat="45.7969" lon="2.93823">
        <ele>1146.0095254632</ele>
        <time>2019-04-27T13:06:31Z</time>
      </trkpt>
      <trkpt lat="45.79687" lon="2.93823">
        <ele>1146.6546863165</ele>
        <time>2019-04-27T13:06:41Z</time>
      </trkpt>
      <trkpt lat="45.79685" lon="2.93826">
        <ele>1147.5179114267</ele>
        <time>2019-04-27T13:06:50Z</time>
      </trkpt>
      <trkpt lat="45.79686" lon="2.93832">
        <ele>1148.2706547351</ele>
        <time>2019-04-27T13:07:00Z</time>
      </trkpt>
      <trkpt lat="45.79685" lon="2.93835">
        <ele>1148.9603180428</ele>
        <time>2019-04-27T13:07:08Z</time>
      </trkpt>
      <trkpt lat="45.79683" lon="2.93837">
        <ele>1149.4204375083</ele>
        <time>2019-04-27T13:07:17Z</time>
      </trkpt>
      <trkpt lat="45.79681" lon="2.93838">
        <ele>1149.6753018764</ele>
        <time>2019-04-27T13:07:27Z</time>
      </trkpt>
      <trkpt lat="45.79681" lon="2.93837">
        <ele>1150.0975108372</ele>
        <time>2019-04-27T13:07:55Z</time>
      </trkpt>
      <trkpt lat="45.7968" lon="2.93837">
        <ele>1150.5397478767</ele>
        <time>2019-04-27T13:08:04Z</time>
      </trkpt>
      <trkpt lat="45.79679" lon="2.93836">
        <ele>1151.4076865166</ele>
        <time>2019-04-27T13:08:16Z</time>
      </trkpt>
      <trkpt lat="45.79678" lon="2.93837">
        <ele>1152.2875731275</ele>
        <time>2019-04-27T13:08:25Z</time>
      </trkpt>
      <trkpt lat="45.79678" lon="2.93839">
        <ele>1152.9771371864</ele>
        <time>2019-04-27T13:08:33Z</time>
      </trkpt>
      <trkpt lat="45.79678" lon="2.93839">
        <ele>1153.3251904727</ele>
        <time>2019-04-27T13:08:42Z</time>
      </trkpt>
      <trkpt lat="45.79678" lon="2.93841">
        <ele>1154.1026102976</ele>
        <time>2019-04-27T13:08:51Z</time>
      </trkpt>
      <trkpt lat="45.79677" lon="2.93843">
        <ele>1154.7891830711</ele>
        <time>2019-04-27T13:09:18Z</time>
      </trkpt>
      <trkpt lat="45.79677" lon="2.93845">
        <ele>1155.6625591027</ele>
        <time>2019-04-27T13:09:28Z</time>
      </trkpt>
      <trkpt lat="45.79675" lon="2.93841">
        <ele>1156.0880038685</ele>
        <time>2019-04-27T13:09:37Z</time>
      </trkpt>
      <trkpt lat="45.79674" lon="2.9384">
        <ele>1156.339124199</ele>
        <time>2019-04-27T13:09:56Z</time>
      </trkpt>
      <trkpt lat="45.79671" lon="2.93842">
        <ele>1156.7400619925</ele>
        <time>2019-04-27T13:10:06Z</time>
      </trkpt>
      <trkpt lat="45.7967" lon="2.93843">
        <ele>1156.8752422165</ele>
        <time>2019-04-27T13:10:15Z</time>
      </trkpt>
      <trkpt lat="45.7967" lon="2.93848">
        <ele>1157.1485430213</ele>
        <time>2019-04-27T13:10:24Z</time>
      </trkpt>
      <trkpt lat="45.79672" lon="2.93849">
        <ele>1157.4106503899</ele>
        <time>2019-04-27T13:10:33Z</time>
      </trkpt>
      <trkpt lat="45.79678" lon="2.93848">
        <ele>1158.0407447944</ele>
        <time>2019-04-27T13:10:43Z</time>
      </trkpt>
      <trkpt lat="45.79677" lon="2.93847">
        <ele>1158.7125280878</ele>
        <time>2019-04-27T13:10:52Z</time>
      </trkpt>
      <trkpt lat="45.79672" lon="2.93846">
        <ele>1159.0279527169</ele>
        <time>2019-04-27T13:11:01Z</time>
      </trkpt>
      <trkpt lat="45.7967" lon="2.93845">
        <ele>1159.344581299</ele>
        <time>2019-04-27T13:11:11Z</time>
      </trkpt>
      <trkpt lat="45.7967" lon="2.93845">
        <ele>1159.6899426035</ele>
        <time>2019-04-27T13:11:25Z</time>
      </trkpt>
      <trkpt lat="45.79669" lon="2.93846">
        <ele>1159.9110230359</ele>
        <time>2019-04-27T13:11:37Z</time>
      </trkpt>
      <trkpt lat="45.79666" lon="2.93848">
        <ele>1160.0222715208</ele>
        <time>2019-04-27T13:11:47Z</time>
      </trkpt>
      <trkpt lat="45.79665" lon="2.93848">
        <ele>1160.1273163872</ele>
        <time>2019-04-27T13:11:56Z</time>
      </trkpt>
      <trkpt lat="45.79664" lon="2.93847">
        <ele>1160.2489593057</ele>
        <time>2019-04-27T13:12:06Z</time>
      </trkpt>
      <trkpt lat="45.79662" lon="2.93849">
        <ele>1160.6854772279</ele>
        <time>2019-04-27T13:12:15Z</time>
      </trkpt>
      <trkpt lat="45.79662" lon="2.9385">
        <ele>1160.7902266377</ele>
        <time>2019-04-27T13:12:24Z</time>
      </trkpt>
      <trkpt lat="45.79663" lon="2.9385">
        <ele>1160.9286780994</ele>
        <time>2019-04-27T13:12:36Z</time>
      </trkpt>
      <trkpt lat="45.79683" lon="2.93847">
        <ele>1161.8836576684</ele>
        <time>2019-04-27T13:12:45Z</time>
      </trkpt>
      <trkpt lat="45.79686" lon="2.93854">
        <ele>1162.6835562044</ele>
        <time>2019-04-27T13:12:54Z</time>
      </trkpt>
      <trkpt lat="45.7969" lon="2.93866">
        <ele>1163.2401920324</ele>
        <time>2019-04-27T13:13:04Z</time>
      </trkpt>
      <trkpt lat="45.79691" lon="2.93867">
        <ele>1163.6249237399</ele>
        <time>2019-04-27T13:13:13Z</time>
      </trkpt>
      <trkpt lat="45.79691" lon="2.9387">
        <ele>1163.8882582476</ele>
        <time>2019-04-27T13:13:23Z</time>
      </trkpt>
      <trkpt lat="45.7969" lon="2.93869">
        <ele>1164.2272027574</ele>
        <time>2019-04-27T13:13:37Z</time>
      </trkpt>
      <trkpt lat="45.7969" lon="2.93868">
        <ele>1164.6057142934</ele>
        <time>2019-04-27T13:13:47Z</time>
      </trkpt>
      <trkpt lat="45.7969" lon="2.93866">
        <ele>1164.7031265832</ele>
        <time>2019-04-27T13:13:56Z</time>
      </trkpt>
      <trkpt lat="45.7969" lon="2.93865">
        <ele>1165.3856604025</ele>
        <time>2019-04-27T13:14:06Z</time>
      </trkpt>
      <trkpt lat="45.79688" lon="2.93863">
        <ele>1165.6602489893</ele>
        <time>2019-04-27T13:14:16Z</time>
      </trkpt>
      <trkpt lat="45.79688" lon="2.93864">
        <ele>1165.8774269947</ele>
        <time>2019-04-27T13:14:31Z</time>
      </trkpt>
      <trkpt lat="45.79688" lon="2.93873">
        <ele>1166.0596391558</ele>
        <time>2019-04-27T13:14:39Z</time>
      </trkpt>
      <trkpt lat="45.7969" lon="2.93886">
        <ele>1166.2475500422</ele>
        <time>2019-04-27T13:14:49Z</time>
      </trkpt>
      <trkpt lat="45.7969" lon="2.93891">
        <ele>1166.4055916808</ele>
        <time>2019-04-27T13:14:59Z</time>
      </trkpt>
      <trkpt lat="45.7969" lon="2.93889">
        <ele>1166.4758203668</ele>
        <time>2019-04-27T13:15:08Z</time>
      </trkpt>
      <trkpt lat="45.7969" lon="2.93888">
        <ele>1166.6479825433</ele>
        <time>2019-04-27T13:15:22Z</time>
      </trkpt>
      <trkpt lat="45.7969" lon="2.93886">
        <ele>1166.7153268582</ele>
        <time>2019-04-27T13:15:32Z</time>
      </trkpt>
      <trkpt lat="45.79694" lon="2.93893">
        <ele>1166.7612887266</ele>
        <time>2019-04-27T13:15:42Z</time>
      </trkpt>
      <trkpt lat="45.79694" lon="2.93899">
        <ele>1166.7823228408</ele>
        <time>2019-04-27T13:15:51Z</time>
      </trkpt>
      <trkpt lat="45.79695" lon="2.93902">
        <ele>1166.7887387156</ele>
        <time>2019-04-27T13:16:00Z</time>
      </trkpt>
      <trkpt lat="45.797" lon="2.93907">
        <ele>1166.7923176071</ele>
        <time>2019-04-27T13:16:10Z</time>
      </trkpt>
      <trkpt lat="45.79699" lon="2.93912">
        <ele>1166.7858963825</ele>
        <time>2019-04-27T13:16:19Z</time>
      </trkpt>
      <trkpt lat="45.79699" lon="2.93916">
        <ele>1166.7933809265</ele>
        <time>2019-04-27T13:16:29Z</time>
      </trkpt>
      <trkpt lat="45.79699" lon="2.93923">
        <ele>1166.8125449396</ele>
        <time>2019-04-27T13:16:38Z</time>
      </trkpt>
      <trkpt lat="45.79698" lon="2.9393">
        <ele>1166.843850337</ele>
        <time>2019-04-27T13:16:47Z</time>
      </trkpt>
      <trkpt lat="45.79695" lon="2.93941">
        <ele>1166.8709550294</ele>
        <time>2019-04-27T13:16:57Z</time>
      </trkpt>
      <trkpt lat="45.79694" lon="2.93948">
        <ele>1167.113846567</ele>
        <time>2019-04-27T13:17:06Z</time>
      </trkpt>
      <trkpt lat="45.79694" lon="2.9395">
        <ele>1167.3993894336</ele>
        <time>2019-04-27T13:17:15Z</time>
      </trkpt>
      <trkpt lat="45.79694" lon="2.93953">
        <ele>1167.5896410059</ele>
        <time>2019-04-27T13:17:23Z</time>
      </trkpt>
      <trkpt lat="45.79693" lon="2.93952">
        <ele>1167.895556568</ele>
        <time>2019-04-27T13:17:57Z</time>
      </trkpt>
      <trkpt lat="45.79694" lon="2.93951">
        <ele>1167.9536862067</ele>
        <time>2019-04-27T13:18:06Z</time>
      </trkpt>
      <trkpt lat="45.79694" lon="2.93952">
        <ele>1168.1086696523</ele>
        <time>2019-04-27T13:18:24Z</time>
      </trkpt>
      <trkpt lat="45.79695" lon="2.93955">
        <ele>1168.2087047434</ele>
        <time>2019-04-27T13:18:34Z</time>
      </trkpt>
      <trkpt lat="45.79696" lon="2.93959">
        <ele>1168.2630355206</ele>
        <time>2019-04-27T13:18:43Z</time>
      </trkpt>
      <trkpt lat="45.79696" lon="2.93961">
        <ele>1168.5797166692</ele>
        <time>2019-04-27T13:18:53Z</time>
      </trkpt>
      <trkpt lat="45.79698" lon="2.93964">
        <ele>1169.0168884945</ele>
        <time>2019-04-27T13:19:02Z</time>
      </trkpt>
      <trkpt lat="45.79708" lon="2.93967">
        <ele>1169.6740859814</ele>
        <time>2019-04-27T13:19:12Z</time>
      </trkpt>
      <trkpt lat="45.79713" lon="2.93968">
        <ele>1170.0642075406</ele>
        <time>2019-04-27T13:19:21Z</time>
      </trkpt>
      <trkpt lat="45.79717" lon="2.9397">
        <ele>1170.4740303885</ele>
        <time>2019-04-27T13:19:30Z</time>
      </trkpt>
      <trkpt lat="45.79725" lon="2.93975">
        <ele>1170.8708060497</ele>
        <time>2019-04-27T13:19:39Z</time>
      </trkpt>
      <trkpt lat="45.79727" lon="2.93975">
        <ele>1171.033998394</ele>
        <time>2019-04-27T13:19:48Z</time>
      </trkpt>
      <trkpt lat="45.79731" lon="2.93979">
        <ele>1171.4334635291</ele>
        <time>2019-04-27T13:19:58Z</time>
      </trkpt>
      <trkpt lat="45.79739" lon="2.93985">
        <ele>1171.7792760537</ele>
        <time>2019-04-27T13:20:08Z</time>
      </trkpt>
      <trkpt lat="45.79744" lon="2.93993">
        <ele>1172.044913507</ele>
        <time>2019-04-27T13:20:17Z</time>
      </trkpt>
      <trkpt lat="45.79752" lon="2.94001">
        <ele>1172.2864139365</ele>
        <time>2019-04-27T13:20:26Z</time>
      </trkpt>
      <trkpt lat="45.79757" lon="2.94009">
        <ele>1172.5136143391</ele>
        <time>2019-04-27T13:20:35Z</time>
      </trkpt>
      <trkpt lat="45.79761" lon="2.94019">
        <ele>1172.738279011</ele>
        <time>2019-04-27T13:20:44Z</time>
      </trkpt>
      <trkpt lat="45.79764" lon="2.94033">
        <ele>1172.9664522864</ele>
        <time>2019-04-27T13:20:53Z</time>
      </trkpt>
      <trkpt lat="45.79768" lon="2.94041">
        <ele>1173.2022424651</ele>
        <time>2019-04-27T13:21:02Z</time>
      </trkpt>
      <trkpt lat="45.79766" lon="2.94052">
        <ele>1173.453898915</ele>
        <time>2019-04-27T13:21:11Z</time>
      </trkpt>
      <trkpt lat="45.79766" lon="2.94061">
        <ele>1173.6816048688</ele>
        <time>2019-04-27T13:21:19Z</time>
      </trkpt>
      <trkpt lat="45.79766" lon="2.94068">
        <ele>1173.889314899</ele>
        <time>2019-04-27T13:21:26Z</time>
      </trkpt>
      <trkpt lat="45.79766" lon="2.94075">
        <ele>1174.142833298</ele>
        <time>2019-04-27T13:21:34Z</time>
      </trkpt>
      <trkpt lat="45.79767" lon="2.94083">
        <ele>1174.4696586917</ele>
        <time>2019-04-27T13:21:44Z</time>
      </trkpt>
      <trkpt lat="45.79768" lon="2.94094">
        <ele>1174.8633222886</ele>
        <time>2019-04-27T13:21:54Z</time>
      </trkpt>
      <trkpt lat="45.79768" lon="2.94104">
        <ele>1175.3772242049</ele>
        <time>2019-04-27T13:22:04Z</time>
      </trkpt>
      <trkpt lat="45.79766" lon="2.94115">
        <ele>1176.0665831798</ele>
        <time>2019-04-27T13:22:14Z</time>
      </trkpt>
      <trkpt lat="45.79765" lon="2.94126">
        <ele>1176.9449866694</ele>
        <time>2019-04-27T13:22:24Z</time>
      </trkpt>
      <trkpt lat="45.79765" lon="2.94138">
        <ele>1177.9491453279</ele>
        <time>2019-04-27T13:22:33Z</time>
      </trkpt>
      <trkpt lat="45.79763" lon="2.94149">
        <ele>1179.0839107314</ele>
        <time>2019-04-27T13:22:42Z</time>
      </trkpt>
      <trkpt lat="45.79762" lon="2.94163">
        <ele>1180.3189885668</ele>
        <time>2019-04-27T13:22:51Z</time>
      </trkpt>
      <trkpt lat="45.79759" lon="2.94172">
        <ele>1181.2472610881</ele>
        <time>2019-04-27T13:23:00Z</time>
      </trkpt>
      <trkpt lat="45.79759" lon="2.94173">
        <ele>1182.3049774213</ele>
        <time>2019-04-27T13:23:09Z</time>
      </trkpt>
      <trkpt lat="45.79757" lon="2.94182">
        <ele>1184.0071764608</ele>
        <time>2019-04-27T13:23:19Z</time>
      </trkpt>
      <trkpt lat="45.79754" lon="2.94189">
        <ele>1185.5613634647</ele>
        <time>2019-04-27T13:23:28Z</time>
      </trkpt>
      <trkpt lat="45.79748" lon="2.94197">
        <ele>1187.2600290771</ele>
        <time>2019-04-27T13:23:38Z</time>
      </trkpt>
      <trkpt lat="45.79743" lon="2.94203">
        <ele>1188.7319129357</ele>
        <time>2019-04-27T13:23:47Z</time>
      </trkpt>
      <trkpt lat="45.79735" lon="2.94211">
        <ele>1190.4689819622</ele>
        <time>2019-04-27T13:23:57Z</time>
      </trkpt>
      <trkpt lat="45.79728" lon="2.94217">
        <ele>1192.3810111758</ele>
        <time>2019-04-27T13:24:06Z</time>
      </trkpt>
      <trkpt lat="45.79722" lon="2.94221">
        <ele>1194.669336346</ele>
        <time>2019-04-27T13:24:16Z</time>
      </trkpt>
      <trkpt lat="45.79716" lon="2.94222">
        <ele>1196.6873723078</ele>
        <time>2019-04-27T13:24:25Z</time>
      </trkpt>
      <trkpt lat="45.79711" lon="2.94223">
        <ele>1198.587144088</ele>
        <time>2019-04-27T13:24:34Z</time>
      </trkpt>
      <trkpt lat="45.79703" lon="2.94227">
        <ele>1200.5764279858</ele>
        <time>2019-04-27T13:24:44Z</time>
      </trkpt>
      <trkpt lat="45.79695" lon="2.94232">
        <ele>1202.2426090109</ele>
        <time>2019-04-27T13:24:53Z</time>
      </trkpt>
      <trkpt lat="45.79686" lon="2.94235">
        <ele>1204.0095595775</ele>
        <time>2019-04-27T13:25:03Z</time>
      </trkpt>
      <trkpt lat="45.79678" lon="2.94238">
        <ele>1205.5450369435</ele>
        <time>2019-04-27T13:25:12Z</time>
      </trkpt>
      <trkpt lat="45.79671" lon="2.94238">
        <ele>1207.0948655901</ele>
        <time>2019-04-27T13:25:21Z</time>
      </trkpt>
      <trkpt lat="45.79662" lon="2.94236">
        <ele>1208.7728634219</ele>
        <time>2019-04-27T13:25:31Z</time>
      </trkpt>
      <trkpt lat="45.79655" lon="2.94234">
        <ele>1210.0607386642</ele>
        <time>2019-04-27T13:25:39Z</time>
      </trkpt>
      <trkpt lat="45.79646" lon="2.94232">
        <ele>1211.4422141133</ele>
        <time>2019-04-27T13:25:48Z</time>
      </trkpt>
      <trkpt lat="45.79636" lon="2.94227">
        <ele>1212.8639692349</ele>
        <time>2019-04-27T13:25:58Z</time>
      </trkpt>
      <trkpt lat="45.79629" lon="2.94219">
        <ele>1214.0071106535</ele>
        <time>2019-04-27T13:26:07Z</time>
      </trkpt>
      <trkpt lat="45.79623" lon="2.94211">
        <ele>1215.0121157305</ele>
        <time>2019-04-27T13:26:16Z</time>
      </trkpt>
      <trkpt lat="45.79618" lon="2.94206">
        <ele>1215.8256567417</ele>
        <time>2019-04-27T13:26:25Z</time>
      </trkpt>
      <trkpt lat="45.79619" lon="2.94201">
        <ele>1216.6264162893</ele>
        <time>2019-04-27T13:26:34Z</time>
      </trkpt>
      <trkpt lat="45.79617" lon="2.94193">
        <ele>1217.3684355171</ele>
        <time>2019-04-27T13:26:42Z</time>
      </trkpt>
      <trkpt lat="45.7961" lon="2.94188">
        <ele>1218.2098920771</ele>
        <time>2019-04-27T13:26:52Z</time>
      </trkpt>
      <trkpt lat="45.79606" lon="2.94179">
        <ele>1218.8737578804</ele>
        <time>2019-04-27T13:27:01Z</time>
      </trkpt>
      <trkpt lat="45.79603" lon="2.94171">
        <ele>1219.4662093798</ele>
        <time>2019-04-27T13:27:10Z</time>
      </trkpt>
      <trkpt lat="45.79602" lon="2.94168">
        <ele>1219.7271063396</ele>
        <time>2019-04-27T13:27:18Z</time>
      </trkpt>
      <trkpt lat="45.79602" lon="2.94167">
        <ele>1220.1361915398</ele>
        <time>2019-04-27T13:27:36Z</time>
      </trkpt>
      <trkpt lat="45.796" lon="2.94166">
        <ele>1220.5569072536</ele>
        <time>2019-04-27T13:27:45Z</time>
      </trkpt>
      <trkpt lat="45.79596" lon="2.94154">
        <ele>1221.1165302624</ele>
        <time>2019-04-27T13:27:54Z</time>
      </trkpt>
      <trkpt lat="45.79598" lon="2.94133">
        <ele>1221.6289640299</ele>
        <time>2019-04-27T13:28:03Z</time>
      </trkpt>
      <trkpt lat="45.79597" lon="2.94123">
        <ele>1222.0803211149</ele>
        <time>2019-04-27T13:28:12Z</time>
      </trkpt>
      <trkpt lat="45.79599" lon="2.94107">
        <ele>1222.4432630846</ele>
        <time>2019-04-27T13:28:20Z</time>
      </trkpt>
      <trkpt lat="45.79597" lon="2.94098">
        <ele>1222.7939036989</ele>
        <time>2019-04-27T13:28:29Z</time>
      </trkpt>
      <trkpt lat="45.79594" lon="2.94085">
        <ele>1223.1123470676</ele>
        <time>2019-04-27T13:28:38Z</time>
      </trkpt>
      <trkpt lat="45.79595" lon="2.94067">
        <ele>1223.3296972409</ele>
        <time>2019-04-27T13:28:46Z</time>
      </trkpt>
      <trkpt lat="45.7959" lon="2.94067">
        <ele>1223.514336716</ele>
        <time>2019-04-27T13:28:55Z</time>
      </trkpt>
      <trkpt lat="45.79581" lon="2.94076">
        <ele>1223.5611196978</ele>
        <time>2019-04-27T13:29:04Z</time>
      </trkpt>
      <trkpt lat="45.7958" lon="2.94077">
        <ele>1223.5640697421</ele>
        <time>2019-04-27T13:29:14Z</time>
      </trkpt>
      <trkpt lat="45.79579" lon="2.94078">
        <ele>1223.5509763044</ele>
        <time>2019-04-27T13:29:32Z</time>
      </trkpt>
      <trkpt lat="45.79578" lon="2.94082">
        <ele>1223.511792853</ele>
        <time>2019-04-27T13:29:41Z</time>
      </trkpt>
      <trkpt lat="45.79578" lon="2.94083">
        <ele>1223.4003271001</ele>
        <time>2019-04-27T13:29:52Z</time>
      </trkpt>
      <trkpt lat="45.79578" lon="2.94081">
        <ele>1223.2852394798</ele>
        <time>2019-04-27T13:30:02Z</time>
      </trkpt>
      <trkpt lat="45.79575" lon="2.94084">
        <ele>1223.0223839889</ele>
        <time>2019-04-27T13:30:11Z</time>
      </trkpt>
      <trkpt lat="45.79574" lon="2.94087">
        <ele>1222.8753479984</ele>
        <time>2019-04-27T13:30:20Z</time>
      </trkpt>
      <trkpt lat="45.79572" lon="2.9409">
        <ele>1222.4769439396</ele>
        <time>2019-04-27T13:30:30Z</time>
      </trkpt>
      <trkpt lat="45.79571" lon="2.94092">
        <ele>1222.3134583387</ele>
        <time>2019-04-27T13:30:38Z</time>
      </trkpt>
      <trkpt lat="45.7957" lon="2.94093">
        <ele>1222.2536136229</ele>
        <time>2019-04-27T13:30:47Z</time>
      </trkpt>
      <trkpt lat="45.7957" lon="2.94094">
        <ele>1221.8284199297</ele>
        <time>2019-04-27T13:31:05Z</time>
      </trkpt>
      <trkpt lat="45.79569" lon="2.94095">
        <ele>1221.6033201536</ele>
        <time>2019-04-27T13:31:14Z</time>
      </trkpt>
      <trkpt lat="45.79569" lon="2.94096">
        <ele>1221.5269041986</ele>
        <time>2019-04-27T13:31:27Z</time>
      </trkpt>
      <trkpt lat="45.79568" lon="2.94097">
        <ele>1221.3606587493</ele>
        <time>2019-04-27T13:31:45Z</time>
      </trkpt>
      <trkpt lat="45.79568" lon="2.94098">
        <ele>1221.2402981117</ele>
        <time>2019-04-27T13:32:06Z</time>
      </trkpt>
      <trkpt lat="45.79567" lon="2.94098">
        <ele>1221.1447752603</ele>
        <time>2019-04-27T13:32:22Z</time>
      </trkpt>
      <trkpt lat="45.79565" lon="2.941">
        <ele>1220.813476387</ele>
        <time>2019-04-27T13:32:31Z</time>
      </trkpt>
      <trkpt lat="45.79563" lon="2.941">
        <ele>1220.5198150725</ele>
        <time>2019-04-27T13:32:41Z</time>
      </trkpt>
      <trkpt lat="45.79561" lon="2.94093">
        <ele>1220.2114584425</ele>
        <time>2019-04-27T13:32:49Z</time>
      </trkpt>
      <trkpt lat="45.79562" lon="2.94094">
        <ele>1220.0027571259</ele>
        <time>2019-04-27T13:32:59Z</time>
      </trkpt>
      <trkpt lat="45.79563" lon="2.94096">
        <ele>1219.7745045384</ele>
        <time>2019-04-27T13:33:30Z</time>
      </trkpt>
      <trkpt lat="45.79562" lon="2.94096">
        <ele>1219.5449985287</ele>
        <time>2019-04-27T13:33:42Z</time>
      </trkpt>
      <trkpt lat="45.79561" lon="2.94097">
        <ele>1219.4756076586</ele>
        <time>2019-04-27T13:33:51Z</time>
      </trkpt>
      <trkpt lat="45.79562" lon="2.94098">
        <ele>1219.1169479946</ele>
        <time>2019-04-27T13:34:33Z</time>
      </trkpt>
      <trkpt lat="45.79562" lon="2.94099">
        <ele>1219.0267157687</ele>
        <time>2019-04-27T13:34:43Z</time>
      </trkpt>
      <trkpt lat="45.79563" lon="2.941">
        <ele>1218.6919479341</ele>
        <time>2019-04-27T13:34:53Z</time>
      </trkpt>
      <trkpt lat="45.79562" lon="2.941">
        <ele>1217.8478890688</ele>
        <time>2019-04-27T13:36:06Z</time>
      </trkpt>
      <trkpt lat="45.79561" lon="2.941">
        <ele>1217.433221987</ele>
        <time>2019-04-27T13:36:22Z</time>
      </trkpt>
      <trkpt lat="45.7956" lon="2.941">
        <ele>1217.1644432006</ele>
        <time>2019-04-27T13:36:32Z</time>
      </trkpt>
      <trkpt lat="45.7956" lon="2.94099">
        <ele>1216.4114644426</ele>
        <time>2019-04-27T13:37:11Z</time>
      </trkpt>
      <trkpt lat="45.79562" lon="2.941">
        <ele>1216.225787031</ele>
        <time>2019-04-27T13:37:20Z</time>
      </trkpt>
      <trkpt lat="45.79563" lon="2.941">
        <ele>1215.9658988445</ele>
        <time>2019-04-27T13:37:54Z</time>
      </trkpt>
      <trkpt lat="45.79564" lon="2.94103">
        <ele>1215.6775160694</ele>
        <time>2019-04-27T13:38:04Z</time>
      </trkpt>
      <trkpt lat="45.79564" lon="2.94104">
        <ele>1215.5091330514</ele>
        <time>2019-04-27T13:38:19Z</time>
      </trkpt>
      <trkpt lat="45.79564" lon="2.94104">
        <ele>1215.2602855342</ele>
        <time>2019-04-27T13:38:28Z</time>
      </trkpt>
      <trkpt lat="45.79564" lon="2.94096">
        <ele>1215.1208426285</ele>
        <time>2019-04-27T13:38:37Z</time>
      </trkpt>
      <trkpt lat="45.7956" lon="2.94092">
        <ele>1215.0505173744</ele>
        <time>2019-04-27T13:38:46Z</time>
      </trkpt>
      <trkpt lat="45.79557" lon="2.94092">
        <ele>1214.9961363289</ele>
        <time>2019-04-27T13:38:55Z</time>
      </trkpt>
      <trkpt lat="45.79553" lon="2.94094">
        <ele>1214.9643457232</ele>
        <time>2019-04-27T13:39:04Z</time>
      </trkpt>
      <trkpt lat="45.79549" lon="2.94097">
        <ele>1214.931505413</ele>
        <time>2019-04-27T13:39:13Z</time>
      </trkpt>
      <trkpt lat="45.79545" lon="2.94102">
        <ele>1214.8864767075</ele>
        <time>2019-04-27T13:39:22Z</time>
      </trkpt>
      <trkpt lat="45.79537" lon="2.94108">
        <ele>1214.8426574687</ele>
        <time>2019-04-27T13:39:30Z</time>
      </trkpt>
      <trkpt lat="45.79531" lon="2.94115">
        <ele>1214.7943874257</ele>
        <time>2019-04-27T13:39:39Z</time>
      </trkpt>
      <trkpt lat="45.79529" lon="2.94121">
        <ele>1214.7715655503</ele>
        <time>2019-04-27T13:39:48Z</time>
      </trkpt>
      <trkpt lat="45.79521" lon="2.94122">
        <ele>1214.7073041813</ele>
        <time>2019-04-27T13:39:57Z</time>
      </trkpt>
      <trkpt lat="45.79512" lon="2.94131">
        <ele>1214.6546660953</ele>
        <time>2019-04-27T13:40:06Z</time>
      </trkpt>
      <trkpt lat="45.79507" lon="2.94145">
        <ele>1214.5895243111</ele>
        <time>2019-04-27T13:40:16Z</time>
      </trkpt>
      <trkpt lat="45.79506" lon="2.94158">
        <ele>1214.5139699671</ele>
        <time>2019-04-27T13:40:26Z</time>
      </trkpt>
      <trkpt lat="45.79506" lon="2.94174">
        <ele>1214.4710241804</ele>
        <time>2019-04-27T13:40:34Z</time>
      </trkpt>
      <trkpt lat="45.79503" lon="2.94184">
        <ele>1214.4099966629</ele>
        <time>2019-04-27T13:40:43Z</time>
      </trkpt>
      <trkpt lat="45.79499" lon="2.94191">
        <ele>1214.3365820325</ele>
        <time>2019-04-27T13:40:52Z</time>
      </trkpt>
      <trkpt lat="45.79493" lon="2.94197">
        <ele>1214.2770824436</ele>
        <time>2019-04-27T13:41:01Z</time>
      </trkpt>
      <trkpt lat="45.79489" lon="2.94204">
        <ele>1214.2182199128</ele>
        <time>2019-04-27T13:41:10Z</time>
      </trkpt>
      <trkpt lat="45.79489" lon="2.94215">
        <ele>1214.1763210505</ele>
        <time>2019-04-27T13:41:18Z</time>
      </trkpt>
      <trkpt lat="45.7949" lon="2.94221">
        <ele>1214.1364528501</ele>
        <time>2019-04-27T13:41:27Z</time>
      </trkpt>
      <trkpt lat="45.79496" lon="2.94234">
        <ele>1214.0972414134</ele>
        <time>2019-04-27T13:41:36Z</time>
      </trkpt>
      <trkpt lat="45.79501" lon="2.94243">
        <ele>1214.0564464865</ele>
        <time>2019-04-27T13:41:46Z</time>
      </trkpt>
      <trkpt lat="45.79503" lon="2.94251">
        <ele>1214.0244598108</ele>
        <time>2019-04-27T13:41:54Z</time>
      </trkpt>
      <trkpt lat="45.79508" lon="2.94261">
        <ele>1213.9937557078</ele>
        <time>2019-04-27T13:42:03Z</time>
      </trkpt>
      <trkpt lat="45.79513" lon="2.94273">
        <ele>1213.9607363771</ele>
        <time>2019-04-27T13:42:12Z</time>
      </trkpt>
      <trkpt lat="45.79519" lon="2.94281">
        <ele>1213.9247674774</ele>
        <time>2019-04-27T13:42:21Z</time>
      </trkpt>
      <trkpt lat="45.79524" lon="2.94292">
        <ele>1213.8861887542</ele>
        <time>2019-04-27T13:42:30Z</time>
      </trkpt>
      <trkpt lat="45.79526" lon="2.94295">
        <ele>1213.8745419599</ele>
        <time>2019-04-27T13:42:39Z</time>
      </trkpt>
      <trkpt lat="45.79527" lon="2.94295">
        <ele>1213.8532629637</ele>
        <time>2019-04-27T13:42:48Z</time>
      </trkpt>
      <trkpt lat="45.79531" lon="2.943">
        <ele>1213.7920486402</ele>
        <time>2019-04-27T13:42:57Z</time>
      </trkpt>
      <trkpt lat="45.79533" lon="2.94301">
        <ele>1213.7408721301</ele>
        <time>2019-04-27T13:43:07Z</time>
      </trkpt>
      <trkpt lat="45.79532" lon="2.94301">
        <ele>1213.6588668292</ele>
        <time>2019-04-27T13:43:24Z</time>
      </trkpt>
      <trkpt lat="45.79532" lon="2.94303">
        <ele>1213.5726983095</ele>
        <time>2019-04-27T13:43:33Z</time>
      </trkpt>
      <trkpt lat="45.7953" lon="2.94303">
        <ele>1213.4333805382</ele>
        <time>2019-04-27T13:43:43Z</time>
      </trkpt>
      <trkpt lat="45.79527" lon="2.94311">
        <ele>1213.1087373025</ele>
        <time>2019-04-27T13:43:53Z</time>
      </trkpt>
      <trkpt lat="45.79526" lon="2.94316">
        <ele>1212.7307245743</ele>
        <time>2019-04-27T13:44:02Z</time>
      </trkpt>
      <trkpt lat="45.79522" lon="2.9432">
        <ele>1212.3678652337</ele>
        <time>2019-04-27T13:44:10Z</time>
      </trkpt>
      <trkpt lat="45.79516" lon="2.94317">
        <ele>1212.0036811986</ele>
        <time>2019-04-27T13:44:18Z</time>
      </trkpt>
      <trkpt lat="45.79515" lon="2.94315">
        <ele>1211.8380899559</ele>
        <time>2019-04-27T13:44:27Z</time>
      </trkpt>
      <trkpt lat="45.79516" lon="2.94317">
        <ele>1211.7125304277</ele>
        <time>2019-04-27T13:44:37Z</time>
      </trkpt>
      <trkpt lat="45.79518" lon="2.94319">
        <ele>1211.6732104752</ele>
        <time>2019-04-27T13:44:46Z</time>
      </trkpt>
      <trkpt lat="45.79519" lon="2.94319">
        <ele>1211.6181246356</ele>
        <time>2019-04-27T13:44:57Z</time>
      </trkpt>
      <trkpt lat="45.7952" lon="2.94319">
        <ele>1211.4817577679</ele>
        <time>2019-04-27T13:45:15Z</time>
      </trkpt>
      <trkpt lat="45.79519" lon="2.94318">
        <ele>1211.3673366087</ele>
        <time>2019-04-27T13:45:38Z</time>
      </trkpt>
      <trkpt lat="45.79518" lon="2.94318">
        <ele>1211.2320928417</ele>
        <time>2019-04-27T13:45:47Z</time>
      </trkpt>
      <trkpt lat="45.79519" lon="2.94319">
        <ele>1211.1863072953</ele>
        <time>2019-04-27T13:45:56Z</time>
      </trkpt>
      <trkpt lat="45.7952" lon="2.9432">
        <ele>1210.8774900174</ele>
        <time>2019-04-27T13:46:05Z</time>
      </trkpt>
      <trkpt lat="45.7952" lon="2.94319">
        <ele>1210.5664097422</ele>
        <time>2019-04-27T13:46:20Z</time>
      </trkpt>
      <trkpt lat="45.79518" lon="2.94318">
        <ele>1210.3844749787</ele>
        <time>2019-04-27T13:46:28Z</time>
      </trkpt>
      <trkpt lat="45.79519" lon="2.94318">
        <ele>1210.2119808006</ele>
        <time>2019-04-27T13:46:37Z</time>
      </trkpt>
      <trkpt lat="45.7952" lon="2.94319">
        <ele>1209.912217423</ele>
        <time>2019-04-27T13:47:04Z</time>
      </trkpt>
      <trkpt lat="45.79521" lon="2.94324">
        <ele>1209.6797865774</ele>
        <time>2019-04-27T13:47:14Z</time>
      </trkpt>
      <trkpt lat="45.79521" lon="2.94324">
        <ele>1209.5705867593</ele>
        <time>2019-04-27T13:47:36Z</time>
      </trkpt>
      <trkpt lat="45.79525" lon="2.94325">
        <ele>1209.4525373425</ele>
        <time>2019-04-27T13:47:45Z</time>
      </trkpt>
      <trkpt lat="45.79523" lon="2.94323">
        <ele>1209.3397596662</ele>
        <time>2019-04-27T13:47:54Z</time>
      </trkpt>
      <trkpt lat="45.79518" lon="2.94319">
        <ele>1209.1204449681</ele>
        <time>2019-04-27T13:48:04Z</time>
      </trkpt>
      <trkpt lat="45.79516" lon="2.94318">
        <ele>1209.0099004419</ele>
        <time>2019-04-27T13:48:13Z</time>
      </trkpt>
      <trkpt lat="45.79512" lon="2.94317">
        <ele>1208.8603602828</ele>
        <time>2019-04-27T13:48:23Z</time>
      </trkpt>
      <trkpt lat="45.79508" lon="2.94317">
        <ele>1208.7524231803</ele>
        <time>2019-04-27T13:48:32Z</time>
      </trkpt>
      <trkpt lat="45.79505" lon="2.94318">
        <ele>1208.6853072513</ele>
        <time>2019-04-27T13:48:41Z</time>
      </trkpt>
      <trkpt lat="45.79506" lon="2.94321">
        <ele>1208.598066313</ele>
        <time>2019-04-27T13:48:51Z</time>
      </trkpt>
      <trkpt lat="45.79506" lon="2.94323">
        <ele>1208.5704394939</ele>
        <time>2019-04-27T13:48:59Z</time>
      </trkpt>
      <trkpt lat="45.79508" lon="2.94325">
        <ele>1208.5024913529</ele>
        <time>2019-04-27T13:49:08Z</time>
      </trkpt>
      <trkpt lat="45.79504" lon="2.94324">
        <ele>1208.2569707481</ele>
        <time>2019-04-27T13:49:18Z</time>
      </trkpt>
      <trkpt lat="45.79498" lon="2.9433">
        <ele>1207.9303327913</ele>
        <time>2019-04-27T13:49:27Z</time>
      </trkpt>
      <trkpt lat="45.79492" lon="2.94331">
        <ele>1207.7011258585</ele>
        <time>2019-04-27T13:49:35Z</time>
      </trkpt>
      <trkpt lat="45.79489" lon="2.94331">
        <ele>1207.4141847041</ele>
        <time>2019-04-27T13:49:45Z</time>
      </trkpt>
      <trkpt lat="45.79489" lon="2.94337">
        <ele>1207.2072231084</ele>
        <time>2019-04-27T13:49:54Z</time>
      </trkpt>
      <trkpt lat="45.79489" lon="2.94341">
        <ele>1207.0594647301</ele>
        <time>2019-04-27T13:50:02Z</time>
      </trkpt>
      <trkpt lat="45.79487" lon="2.94343">
        <ele>1206.9342354278</ele>
        <time>2019-04-27T13:50:11Z</time>
      </trkpt>
      <trkpt lat="45.79486" lon="2.94344">
        <ele>1206.8325370537</ele>
        <time>2019-04-27T13:50:21Z</time>
      </trkpt>
      <trkpt lat="45.79484" lon="2.94342">
        <ele>1206.7107082159</ele>
        <time>2019-04-27T13:50:30Z</time>
      </trkpt>
      <trkpt lat="45.79482" lon="2.94341">
        <ele>1206.644426579</ele>
        <time>2019-04-27T13:50:38Z</time>
      </trkpt>
      <trkpt lat="45.79481" lon="2.94342">
        <ele>1206.4540141313</ele>
        <time>2019-04-27T13:50:48Z</time>
      </trkpt>
      <trkpt lat="45.79481" lon="2.94348">
        <ele>1206.2735845845</ele>
        <time>2019-04-27T13:50:57Z</time>
      </trkpt>
      <trkpt lat="45.79477" lon="2.94354">
        <ele>1206.0431851384</ele>
        <time>2019-04-27T13:51:07Z</time>
      </trkpt>
      <trkpt lat="45.79474" lon="2.94355">
        <ele>1205.8941651081</ele>
        <time>2019-04-27T13:51:16Z</time>
      </trkpt>
      <trkpt lat="45.79475" lon="2.94355">
        <ele>1205.7460841429</ele>
        <time>2019-04-27T13:51:25Z</time>
      </trkpt>
      <trkpt lat="45.79474" lon="2.94356">
        <ele>1205.4268447964</ele>
        <time>2019-04-27T13:51:43Z</time>
      </trkpt>
      <trkpt lat="45.79472" lon="2.94354">
        <ele>1205.2538535325</ele>
        <time>2019-04-27T13:51:52Z</time>
      </trkpt>
      <trkpt lat="45.79468" lon="2.94358">
        <ele>1205.1137881948</ele>
        <time>2019-04-27T13:52:01Z</time>
      </trkpt>
      <trkpt lat="45.79466" lon="2.9436">
        <ele>1205.0887220989</ele>
        <time>2019-04-27T13:52:10Z</time>
      </trkpt>
      <trkpt lat="45.79461" lon="2.94365">
        <ele>1204.8344251792</ele>
        <time>2019-04-27T13:52:19Z</time>
      </trkpt>
      <trkpt lat="45.79456" lon="2.94371">
        <ele>1204.5900205717</ele>
        <time>2019-04-27T13:52:29Z</time>
      </trkpt>
      <trkpt lat="45.79456" lon="2.94373">
        <ele>1204.3586769765</ele>
        <time>2019-04-27T13:52:39Z</time>
      </trkpt>
      <trkpt lat="45.79454" lon="2.94376">
        <ele>1204.2374257972</ele>
        <time>2019-04-27T13:52:48Z</time>
      </trkpt>
      <trkpt lat="45.79458" lon="2.94378">
        <ele>1204.0836364787</ele>
        <time>2019-04-27T13:52:57Z</time>
      </trkpt>
      <trkpt lat="45.79459" lon="2.94379">
        <ele>1203.9806770549</ele>
        <time>2019-04-27T13:53:06Z</time>
      </trkpt>
      <trkpt lat="45.7946" lon="2.9438">
        <ele>1203.9314796386</ele>
        <time>2019-04-27T13:53:16Z</time>
      </trkpt>
      <trkpt lat="45.7946" lon="2.94379">
        <ele>1203.6972001197</ele>
        <time>2019-04-27T13:53:28Z</time>
      </trkpt>
      <trkpt lat="45.79458" lon="2.94379">
        <ele>1203.2773910962</ele>
        <time>2019-04-27T13:53:37Z</time>
      </trkpt>
      <trkpt lat="45.79458" lon="2.94383">
        <ele>1202.815901397</ele>
        <time>2019-04-27T13:53:46Z</time>
      </trkpt>
      <trkpt lat="45.7946" lon="2.94384">
        <ele>1202.4779537577</ele>
        <time>2019-04-27T13:53:55Z</time>
      </trkpt>
      <trkpt lat="45.79455" lon="2.94384">
        <ele>1202.1437767817</ele>
        <time>2019-04-27T13:54:04Z</time>
      </trkpt>
      <trkpt lat="45.79451" lon="2.94383">
        <ele>1201.7860987277</ele>
        <time>2019-04-27T13:54:13Z</time>
      </trkpt>
      <trkpt lat="45.7945" lon="2.94383">
        <ele>1201.6546743999</ele>
        <time>2019-04-27T13:54:23Z</time>
      </trkpt>
      <trkpt lat="45.79449" lon="2.94383">
        <ele>1201.4401081002</ele>
        <time>2019-04-27T13:54:33Z</time>
      </trkpt>
      <trkpt lat="45.79446" lon="2.94381">
        <ele>1201.1329075029</ele>
        <time>2019-04-27T13:54:42Z</time>
      </trkpt>
      <trkpt lat="45.79444" lon="2.94377">
        <ele>1200.8655584293</ele>
        <time>2019-04-27T13:54:51Z</time>
      </trkpt>
      <trkpt lat="45.79444" lon="2.94375">
        <ele>1200.5959423838</ele>
        <time>2019-04-27T13:55:00Z</time>
      </trkpt>
      <trkpt lat="45.79443" lon="2.94376">
        <ele>1200.2570377791</ele>
        <time>2019-04-27T13:55:15Z</time>
      </trkpt>
      <trkpt lat="45.79444" lon="2.94378">
        <ele>1200.0572059957</ele>
        <time>2019-04-27T13:55:25Z</time>
      </trkpt>
      <trkpt lat="45.79446" lon="2.94382">
        <ele>1199.8226897806</ele>
        <time>2019-04-27T13:55:34Z</time>
      </trkpt>
      <trkpt lat="45.79445" lon="2.94381">
        <ele>1199.682479177</ele>
        <time>2019-04-27T13:55:44Z</time>
      </trkpt>
      <trkpt lat="45.79445" lon="2.94381">
        <ele>1199.4894478074</ele>
        <time>2019-04-27T13:55:56Z</time>
      </trkpt>
      <trkpt lat="45.79443" lon="2.94381">
        <ele>1199.2938812504</ele>
        <time>2019-04-27T13:56:04Z</time>
      </trkpt>
      <trkpt lat="45.79441" lon="2.94381">
        <ele>1199.0986954019</ele>
        <time>2019-04-27T13:56:14Z</time>
      </trkpt>
      <trkpt lat="45.7944" lon="2.94385">
        <ele>1198.8437703144</ele>
        <time>2019-04-27T13:56:24Z</time>
      </trkpt>
      <trkpt lat="45.79435" lon="2.94385">
        <ele>1198.6030676196</ele>
        <time>2019-04-27T13:56:34Z</time>
      </trkpt>
      <trkpt lat="45.79435" lon="2.94386">
        <ele>1198.3408632443</ele>
        <time>2019-04-27T13:56:43Z</time>
      </trkpt>
      <trkpt lat="45.79433" lon="2.94389">
        <ele>1198.0886446995</ele>
        <time>2019-04-27T13:56:52Z</time>
      </trkpt>
      <trkpt lat="45.79433" lon="2.94392">
        <ele>1197.8126346853</ele>
        <time>2019-04-27T13:57:01Z</time>
      </trkpt>
      <trkpt lat="45.79436" lon="2.94396">
        <ele>1197.7183649942</ele>
        <time>2019-04-27T13:57:09Z</time>
      </trkpt>
      <trkpt lat="45.79432" lon="2.94394">
        <ele>1197.5345924221</ele>
        <time>2019-04-27T13:57:19Z</time>
      </trkpt>
      <trkpt lat="45.7943" lon="2.94394">
        <ele>1197.303927648</ele>
        <time>2019-04-27T13:57:28Z</time>
      </trkpt>
      <trkpt lat="45.79428" lon="2.94396">
        <ele>1197.1856887374</ele>
        <time>2019-04-27T13:57:36Z</time>
      </trkpt>
      <trkpt lat="45.79427" lon="2.94396">
        <ele>1197.1246740654</ele>
        <time>2019-04-27T13:57:47Z</time>
      </trkpt>
      <trkpt lat="45.79425" lon="2.94398">
        <ele>1196.9024435419</ele>
        <time>2019-04-27T13:57:55Z</time>
      </trkpt>
      <trkpt lat="45.79424" lon="2.944">
        <ele>1196.4044416314</ele>
        <time>2019-04-27T13:58:04Z</time>
      </trkpt>
      <trkpt lat="45.79423" lon="2.94405">
        <ele>1195.9874557244</ele>
        <time>2019-04-27T13:58:13Z</time>
      </trkpt>
      <trkpt lat="45.79421" lon="2.94406">
        <ele>1195.4779609724</ele>
        <time>2019-04-27T13:58:23Z</time>
      </trkpt>
      <trkpt lat="45.79417" lon="2.94407">
        <ele>1195.0365091812</ele>
        <time>2019-04-27T13:58:32Z</time>
      </trkpt>
      <trkpt lat="45.79416" lon="2.94409">
        <ele>1194.5881817638</ele>
        <time>2019-04-27T13:58:40Z</time>
      </trkpt>
      <trkpt lat="45.79413" lon="2.94414">
        <ele>1193.9119212883</ele>
        <time>2019-04-27T13:58:49Z</time>
      </trkpt>
      <trkpt lat="45.79411" lon="2.94411">
        <ele>1193.4221646789</ele>
        <time>2019-04-27T13:58:58Z</time>
      </trkpt>
      <trkpt lat="45.79409" lon="2.94411">
        <ele>1192.8184954507</ele>
        <time>2019-04-27T13:59:07Z</time>
      </trkpt>
      <trkpt lat="45.79406" lon="2.94413">
        <ele>1192.2233930627</ele>
        <time>2019-04-27T13:59:16Z</time>
      </trkpt>
      <trkpt lat="45.79402" lon="2.94415">
        <ele>1191.5326502558</ele>
        <time>2019-04-27T13:59:26Z</time>
      </trkpt>
      <trkpt lat="45.794" lon="2.94415">
        <ele>1190.914325013</ele>
        <time>2019-04-27T13:59:34Z</time>
      </trkpt>
      <trkpt lat="45.79402" lon="2.94417">
        <ele>1190.4208528306</ele>
        <time>2019-04-27T13:59:42Z</time>
      </trkpt>
      <trkpt lat="45.79402" lon="2.94418">
        <ele>1189.9192827451</ele>
        <time>2019-04-27T13:59:51Z</time>
      </trkpt>
      <trkpt lat="45.79402" lon="2.94427">
        <ele>1189.525547457</ele>
        <time>2019-04-27T14:00:01Z</time>
      </trkpt>
      <trkpt lat="45.79402" lon="2.94429">
        <ele>1189.408902126</ele>
        <time>2019-04-27T14:00:10Z</time>
      </trkpt>
      <trkpt lat="45.79401" lon="2.94429">
        <ele>1188.7169759996</ele>
        <time>2019-04-27T14:00:26Z</time>
      </trkpt>
      <trkpt lat="45.79401" lon="2.94431">
        <ele>1187.4333629251</ele>
        <time>2019-04-27T14:00:36Z</time>
      </trkpt>
      <trkpt lat="45.79399" lon="2.94432">
        <ele>1186.4092355684</ele>
        <time>2019-04-27T14:00:45Z</time>
      </trkpt>
      <trkpt lat="45.79398" lon="2.94436">
        <ele>1185.3428638405</ele>
        <time>2019-04-27T14:00:54Z</time>
      </trkpt>
      <trkpt lat="45.79396" lon="2.9444">
        <ele>1184.5834429373</ele>
        <time>2019-04-27T14:01:03Z</time>
      </trkpt>
      <trkpt lat="45.79395" lon="2.94442">
        <ele>1184.2565680098</ele>
        <time>2019-04-27T14:01:12Z</time>
      </trkpt>
      <trkpt lat="45.79393" lon="2.94446">
        <ele>1183.5080016212</ele>
        <time>2019-04-27T14:01:22Z</time>
      </trkpt>
      <trkpt lat="45.79393" lon="2.94449">
        <ele>1182.8250895577</ele>
        <time>2019-04-27T14:01:31Z</time>
      </trkpt>
      <trkpt lat="45.79391" lon="2.94447">
        <ele>1182.1653883796</ele>
        <time>2019-04-27T14:01:40Z</time>
      </trkpt>
      <trkpt lat="45.7939" lon="2.94448">
        <ele>1181.5081468941</ele>
        <time>2019-04-27T14:01:48Z</time>
      </trkpt>
      <trkpt lat="45.79389" lon="2.94449">
        <ele>1181.0421213251</ele>
        <time>2019-04-27T14:01:57Z</time>
      </trkpt>
      <trkpt lat="45.79388" lon="2.94451">
        <ele>1180.233735549</ele>
        <time>2019-04-27T14:02:06Z</time>
      </trkpt>
      <trkpt lat="45.7939" lon="2.94453">
        <ele>1179.8686585497</ele>
        <time>2019-04-27T14:02:15Z</time>
      </trkpt>
      <trkpt lat="45.7939" lon="2.94453">
        <ele>1179.7192811101</ele>
        <time>2019-04-27T14:02:28Z</time>
      </trkpt>
      <trkpt lat="45.79392" lon="2.94458">
        <ele>1178.7104189564</ele>
        <time>2019-04-27T14:02:37Z</time>
      </trkpt>
      <trkpt lat="45.79392" lon="2.94463">
        <ele>1177.8955732735</ele>
        <time>2019-04-27T14:02:46Z</time>
      </trkpt>
      <trkpt lat="45.79389" lon="2.94469">
        <ele>1177.0706442583</ele>
        <time>2019-04-27T14:02:55Z</time>
      </trkpt>
      <trkpt lat="45.79389" lon="2.9447">
        <ele>1176.4855766911</ele>
        <time>2019-04-27T14:03:03Z</time>
      </trkpt>
      <trkpt lat="45.79387" lon="2.94474">
        <ele>1175.7705133206</ele>
        <time>2019-04-27T14:03:12Z</time>
      </trkpt>
      <trkpt lat="45.79385" lon="2.94476">
        <ele>1175.5185309903</ele>
        <time>2019-04-27T14:03:21Z</time>
      </trkpt>
      <trkpt lat="45.79384" lon="2.94477">
        <ele>1174.7218906155</ele>
        <time>2019-04-27T14:03:30Z</time>
      </trkpt>
      <trkpt lat="45.79383" lon="2.94475">
        <ele>1174.1909500474</ele>
        <time>2019-04-27T14:03:39Z</time>
      </trkpt>
      <trkpt lat="45.79384" lon="2.94475">
        <ele>1173.0821441169</ele>
        <time>2019-04-27T14:03:48Z</time>
      </trkpt>
      <trkpt lat="45.79384" lon="2.94463">
        <ele>1172.6645839337</ele>
        <time>2019-04-27T14:03:57Z</time>
      </trkpt>
      <trkpt lat="45.79385" lon="2.94464">
        <ele>1172.5608328561</ele>
        <time>2019-04-27T14:04:06Z</time>
      </trkpt>
      <trkpt lat="45.79385" lon="2.94462">
        <ele>1172.2558648877</ele>
        <time>2019-04-27T14:04:15Z</time>
      </trkpt>
      <trkpt lat="45.79386" lon="2.94463">
        <ele>1172.1306169673</ele>
        <time>2019-04-27T14:04:26Z</time>
      </trkpt>
      <trkpt lat="45.79387" lon="2.94466">
        <ele>1171.8166468408</ele>
        <time>2019-04-27T14:04:36Z</time>
      </trkpt>
      <trkpt lat="45.79386" lon="2.94466">
        <ele>1170.7275588042</ele>
        <time>2019-04-27T14:04:45Z</time>
      </trkpt>
      <trkpt lat="45.79383" lon="2.94468">
        <ele>1169.4216023962</ele>
        <time>2019-04-27T14:04:54Z</time>
      </trkpt>
      <trkpt lat="45.79388" lon="2.94473">
        <ele>1168.4219273072</ele>
        <time>2019-04-27T14:05:02Z</time>
      </trkpt>
      <trkpt lat="45.79387" lon="2.94475">
        <ele>1167.5449817943</ele>
        <time>2019-04-27T14:05:11Z</time>
      </trkpt>
      <trkpt lat="45.79385" lon="2.94479">
        <ele>1166.4454409688</ele>
        <time>2019-04-27T14:05:21Z</time>
      </trkpt>
      <trkpt lat="45.79384" lon="2.9448">
        <ele>1166.3000119492</ele>
        <time>2019-04-27T14:05:31Z</time>
      </trkpt>
      <trkpt lat="45.79384" lon="2.94481">
        <ele>1165.8475370405</ele>
        <time>2019-04-27T14:05:42Z</time>
      </trkpt>
      <trkpt lat="45.79381" lon="2.94482">
        <ele>1164.7922606353</ele>
        <time>2019-04-27T14:05:51Z</time>
      </trkpt>
      <trkpt lat="45.79381" lon="2.94484">
        <ele>1164.2804787678</ele>
        <time>2019-04-27T14:06:01Z</time>
      </trkpt>
      <trkpt lat="45.79382" lon="2.94485">
        <ele>1164.0632299379</ele>
        <time>2019-04-27T14:06:13Z</time>
      </trkpt>
      <trkpt lat="45.79384" lon="2.94482">
        <ele>1163.7181412925</ele>
        <time>2019-04-27T14:06:22Z</time>
      </trkpt>
      <trkpt lat="45.79383" lon="2.94483">
        <ele>1162.6075275167</ele>
        <time>2019-04-27T14:06:40Z</time>
      </trkpt>
      <trkpt lat="45.79383" lon="2.94483">
        <ele>1160.9160656158</ele>
        <time>2019-04-27T14:06:55Z</time>
      </trkpt>
      <trkpt lat="45.79382" lon="2.94485">
        <ele>1160.4075035487</ele>
        <time>2019-04-27T14:07:04Z</time>
      </trkpt>
      <trkpt lat="45.79382" lon="2.94485">
        <ele>1159.831206303</ele>
        <time>2019-04-27T14:07:15Z</time>
      </trkpt>
      <trkpt lat="45.79381" lon="2.94486">
        <ele>1159.1542414893</ele>
        <time>2019-04-27T14:07:24Z</time>
      </trkpt>
      <trkpt lat="45.79381" lon="2.94487">
        <ele>1157.5951259931</ele>
        <time>2019-04-27T14:07:34Z</time>
      </trkpt>
      <trkpt lat="45.79383" lon="2.94489">
        <ele>1156.9710634591</ele>
        <time>2019-04-27T14:07:44Z</time>
      </trkpt>
      <trkpt lat="45.79385" lon="2.94491">
        <ele>1156.2484572985</ele>
        <time>2019-04-27T14:07:53Z</time>
      </trkpt>
      <trkpt lat="45.79383" lon="2.94486">
        <ele>1154.8466347136</ele>
        <time>2019-04-27T14:08:03Z</time>
      </trkpt>
      <trkpt lat="45.79381" lon="2.94484">
        <ele>1153.7413205854</ele>
        <time>2019-04-27T14:08:11Z</time>
      </trkpt>
      <trkpt lat="45.79378" lon="2.94489">
        <ele>1152.2314083387</ele>
        <time>2019-04-27T14:08:21Z</time>
      </trkpt>
      <trkpt lat="45.79376" lon="2.94489">
        <ele>1151.1202450487</ele>
        <time>2019-04-27T14:08:30Z</time>
      </trkpt>
      <trkpt lat="45.79375" lon="2.94491">
        <ele>1150.3247272874</ele>
        <time>2019-04-27T14:08:38Z</time>
      </trkpt>
      <trkpt lat="45.79373" lon="2.94495">
        <ele>1149.1909562226</ele>
        <time>2019-04-27T14:08:48Z</time>
      </trkpt>
      <trkpt lat="45.79372" lon="2.94496">
        <ele>1148.3905457931</ele>
        <time>2019-04-27T14:08:56Z</time>
      </trkpt>
      <trkpt lat="45.79369" lon="2.94496">
        <ele>1147.6002429029</ele>
        <time>2019-04-27T14:09:05Z</time>
      </trkpt>
      <trkpt lat="45.79368" lon="2.94498">
        <ele>1147.1288369127</ele>
        <time>2019-04-27T14:09:15Z</time>
      </trkpt>
      <trkpt lat="45.79368" lon="2.94499">
        <ele>1146.8806484697</ele>
        <time>2019-04-27T14:09:30Z</time>
      </trkpt>
      <trkpt lat="45.79366" lon="2.94502">
        <ele>1145.9670536492</ele>
        <time>2019-04-27T14:09:38Z</time>
      </trkpt>
      <trkpt lat="45.79362" lon="2.94506">
        <ele>1144.5378878264</ele>
        <time>2019-04-27T14:09:47Z</time>
      </trkpt>
      <trkpt lat="45.79361" lon="2.94503">
        <ele>1143.500449592</ele>
        <time>2019-04-27T14:09:56Z</time>
      </trkpt>
      <trkpt lat="45.79359" lon="2.94504">
        <ele>1142.4672246203</ele>
        <time>2019-04-27T14:10:06Z</time>
      </trkpt>
      <trkpt lat="45.79355" lon="2.94508">
        <ele>1141.609754491</ele>
        <time>2019-04-27T14:10:15Z</time>
      </trkpt>
      <trkpt lat="45.79356" lon="2.9451">
        <ele>1140.8744323907</ele>
        <time>2019-04-27T14:10:25Z</time>
      </trkpt>
      <trkpt lat="45.79356" lon="2.94514">
        <ele>1140.5359961852</ele>
        <time>2019-04-27T14:10:33Z</time>
      </trkpt>
      <trkpt lat="45.79357" lon="2.94515">
        <ele>1140.4058878127</ele>
        <time>2019-04-27T14:10:42Z</time>
      </trkpt>
      <trkpt lat="45.79356" lon="2.94516">
        <ele>1139.9046280292</ele>
        <time>2019-04-27T14:10:56Z</time>
      </trkpt>
      <trkpt lat="45.79355" lon="2.94515">
        <ele>1138.8587351516</ele>
        <time>2019-04-27T14:11:07Z</time>
      </trkpt>
      <trkpt lat="45.79354" lon="2.94513">
        <ele>1138.566405452</ele>
        <time>2019-04-27T14:11:17Z</time>
      </trkpt>
      <trkpt lat="45.79355" lon="2.94512">
        <ele>1138.3864926116</ele>
        <time>2019-04-27T14:11:28Z</time>
      </trkpt>
      <trkpt lat="45.79355" lon="2.94511">
        <ele>1137.4868329767</ele>
        <time>2019-04-27T14:11:43Z</time>
      </trkpt>
      <trkpt lat="45.79354" lon="2.94511">
        <ele>1136.2886123904</ele>
        <time>2019-04-27T14:11:52Z</time>
      </trkpt>
      <trkpt lat="45.79353" lon="2.94511">
        <ele>1135.4445524154</ele>
        <time>2019-04-27T14:12:01Z</time>
      </trkpt>
      <trkpt lat="45.79351" lon="2.94511">
        <ele>1134.920107898</ele>
        <time>2019-04-27T14:12:09Z</time>
      </trkpt>
      <trkpt lat="45.79351" lon="2.9451">
        <ele>1134.3601388603</ele>
        <time>2019-04-27T14:12:34Z</time>
      </trkpt>
      <trkpt lat="45.79354" lon="2.94512">
        <ele>1134.0454782456</ele>
        <time>2019-04-27T14:12:44Z</time>
      </trkpt>
      <trkpt lat="45.79353" lon="2.94511">
        <ele>1133.3242448241</ele>
        <time>2019-04-27T14:13:00Z</time>
      </trkpt>
      <trkpt lat="45.79352" lon="2.94513">
        <ele>1132.6254445111</ele>
        <time>2019-04-27T14:13:08Z</time>
      </trkpt>
      <trkpt lat="45.79351" lon="2.94516">
        <ele>1131.4271546102</ele>
        <time>2019-04-27T14:13:18Z</time>
      </trkpt>
      <trkpt lat="45.79351" lon="2.94518">
        <ele>1130.5503557771</ele>
        <time>2019-04-27T14:13:27Z</time>
      </trkpt>
      <trkpt lat="45.79348" lon="2.94521">
        <ele>1129.6066026112</ele>
        <time>2019-04-27T14:13:36Z</time>
      </trkpt>
      <trkpt lat="45.79346" lon="2.94526">
        <ele>1128.9257918624</ele>
        <time>2019-04-27T14:13:46Z</time>
      </trkpt>
      <trkpt lat="45.79344" lon="2.94528">
        <ele>1128.3053141569</ele>
        <time>2019-04-27T14:13:54Z</time>
      </trkpt>
      <trkpt lat="45.79345" lon="2.94531">
        <ele>1127.7023622831</ele>
        <time>2019-04-27T14:14:02Z</time>
      </trkpt>
      <trkpt lat="45.79341" lon="2.94533">
        <ele>1126.806212356</ele>
        <time>2019-04-27T14:14:12Z</time>
      </trkpt>
      <trkpt lat="45.79337" lon="2.94535">
        <ele>1126.0977556809</ele>
        <time>2019-04-27T14:14:20Z</time>
      </trkpt>
      <trkpt lat="45.79334" lon="2.94535">
        <ele>1125.5101079564</ele>
        <time>2019-04-27T14:14:29Z</time>
      </trkpt>
      <trkpt lat="45.79333" lon="2.94537">
        <ele>1125.2580772925</ele>
        <time>2019-04-27T14:14:37Z</time>
      </trkpt>
      <trkpt lat="45.79332" lon="2.9454">
        <ele>1124.6776222061</ele>
        <time>2019-04-27T14:14:46Z</time>
      </trkpt>
      <trkpt lat="45.79332" lon="2.94541">
        <ele>1124.2585933981</ele>
        <time>2019-04-27T14:15:05Z</time>
      </trkpt>
      <trkpt lat="45.79324" lon="2.94548">
        <ele>1123.6054410264</ele>
        <time>2019-04-27T14:15:15Z</time>
      </trkpt>
      <trkpt lat="45.79316" lon="2.94545">
        <ele>1122.8893416895</ele>
        <time>2019-04-27T14:15:24Z</time>
      </trkpt>
      <trkpt lat="45.79313" lon="2.94545">
        <ele>1121.899188698</ele>
        <time>2019-04-27T14:15:34Z</time>
      </trkpt>
      <trkpt lat="45.79312" lon="2.94549">
        <ele>1121.1821629583</ele>
        <time>2019-04-27T14:15:42Z</time>
      </trkpt>
      <trkpt lat="45.7931" lon="2.94551">
        <ele>1120.3360113839</ele>
        <time>2019-04-27T14:15:51Z</time>
      </trkpt>
      <trkpt lat="45.79309" lon="2.9455">
        <ele>1119.8371387024</ele>
        <time>2019-04-27T14:15:59Z</time>
      </trkpt>
      <trkpt lat="45.79307" lon="2.94549">
        <ele>1119.3430722407</ele>
        <time>2019-04-27T14:16:08Z</time>
      </trkpt>
      <trkpt lat="45.79306" lon="2.94547">
        <ele>1118.6945041526</ele>
        <time>2019-04-27T14:16:17Z</time>
      </trkpt>
      <trkpt lat="45.79303" lon="2.94547">
        <ele>1118.0786230299</ele>
        <time>2019-04-27T14:16:26Z</time>
      </trkpt>
      <trkpt lat="45.793" lon="2.94548">
        <ele>1117.576284836</ele>
        <time>2019-04-27T14:16:34Z</time>
      </trkpt>
      <trkpt lat="45.79295" lon="2.94551">
        <ele>1117.0611716665</ele>
        <time>2019-04-27T14:16:42Z</time>
      </trkpt>
      <trkpt lat="45.79292" lon="2.94555">
        <ele>1116.0475707112</ele>
        <time>2019-04-27T14:16:52Z</time>
      </trkpt>
      <trkpt lat="45.79285" lon="2.94571">
        <ele>1114.9774878555</ele>
        <time>2019-04-27T14:17:00Z</time>
      </trkpt>
      <trkpt lat="45.79279" lon="2.94579">
        <ele>1113.3952487548</ele>
        <time>2019-04-27T14:17:09Z</time>
      </trkpt>
      <trkpt lat="45.79279" lon="2.94583">
        <ele>1112.1108725655</ele>
        <time>2019-04-27T14:17:18Z</time>
      </trkpt>
      <trkpt lat="45.79279" lon="2.94584">
        <ele>1111.2865120817</ele>
        <time>2019-04-27T14:17:28Z</time>
      </trkpt>
      <trkpt lat="45.79278" lon="2.94585">
        <ele>1110.0835912405</ele>
        <time>2019-04-27T14:17:37Z</time>
      </trkpt>
      <trkpt lat="45.79277" lon="2.94585">
        <ele>1108.2935706845</ele>
        <time>2019-04-27T14:18:07Z</time>
      </trkpt>
      <trkpt lat="45.79276" lon="2.94583">
        <ele>1107.844723572</ele>
        <time>2019-04-27T14:18:17Z</time>
      </trkpt>
      <trkpt lat="45.79276" lon="2.94582">
        <ele>1107.1042163097</ele>
        <time>2019-04-27T14:18:27Z</time>
      </trkpt>
      <trkpt lat="45.79276" lon="2.94583">
        <ele>1104.2709824562</ele>
        <time>2019-04-27T14:18:44Z</time>
      </trkpt>
      <trkpt lat="45.79277" lon="2.94585">
        <ele>1102.31502897</ele>
        <time>2019-04-27T14:18:53Z</time>
      </trkpt>
      <trkpt lat="45.79277" lon="2.94583">
        <ele>1101.8215524518</ele>
        <time>2019-04-27T14:19:02Z</time>
      </trkpt>
      <trkpt lat="45.79276" lon="2.94581">
        <ele>1100.1157092021</ele>
        <time>2019-04-27T14:19:11Z</time>
      </trkpt>
      <trkpt lat="45.79274" lon="2.94583">
        <ele>1099.3844632111</ele>
        <time>2019-04-27T14:19:21Z</time>
      </trkpt>
      <trkpt lat="45.79273" lon="2.94582">
        <ele>1098.5842461381</ele>
        <time>2019-04-27T14:19:34Z</time>
      </trkpt>
      <trkpt lat="45.79273" lon="2.9458">
        <ele>1098.1244667741</ele>
        <time>2019-04-27T14:19:43Z</time>
      </trkpt>
      <trkpt lat="45.79272" lon="2.94579">
        <ele>1096.5911688631</ele>
        <time>2019-04-27T14:19:52Z</time>
      </trkpt>
      <trkpt lat="45.79271" lon="2.94578">
        <ele>1095.7148424483</ele>
        <time>2019-04-27T14:20:02Z</time>
      </trkpt>
      <trkpt lat="45.79271" lon="2.94579">
        <ele>1094.8781617028</ele>
        <time>2019-04-27T14:20:12Z</time>
      </trkpt>
      <trkpt lat="45.7927" lon="2.94578">
        <ele>1091.7583114625</ele>
        <time>2019-04-27T14:21:13Z</time>
      </trkpt>
      <trkpt lat="45.7927" lon="2.94577">
        <ele>1090.277006508</ele>
        <time>2019-04-27T14:21:35Z</time>
      </trkpt>
      <trkpt lat="45.7927" lon="2.94575">
        <ele>1089.5693658493</ele>
        <time>2019-04-27T14:21:44Z</time>
      </trkpt>
      <trkpt lat="45.79271" lon="2.94574">
        <ele>1089.3810156257</ele>
        <time>2019-04-27T14:21:54Z</time>
      </trkpt>
      <trkpt lat="45.7927" lon="2.94573">
        <ele>1089.0883301753</ele>
        <time>2019-04-27T14:22:09Z</time>
      </trkpt>
      <trkpt lat="45.79269" lon="2.94571">
        <ele>1088.7261980762</ele>
        <time>2019-04-27T14:22:18Z</time>
      </trkpt>
      <trkpt lat="45.7927" lon="2.9457">
        <ele>1088.0294712393</ele>
        <time>2019-04-27T14:22:43Z</time>
      </trkpt>
      <trkpt lat="45.79272" lon="2.9457">
        <ele>1087.4629183581</ele>
        <time>2019-04-27T14:22:53Z</time>
      </trkpt>
      <trkpt lat="45.79273" lon="2.94569">
        <ele>1086.2833778105</ele>
        <time>2019-04-27T14:23:03Z</time>
      </trkpt>
      <trkpt lat="45.79273" lon="2.9457">
        <ele>1085.2834866608</ele>
        <time>2019-04-27T14:23:33Z</time>
      </trkpt>
      <trkpt lat="45.79274" lon="2.94568">
        <ele>1084.2291650764</ele>
        <time>2019-04-27T14:23:41Z</time>
      </trkpt>
      <trkpt lat="45.79275" lon="2.94567">
        <ele>1083.7898885639</ele>
        <time>2019-04-27T14:23:51Z</time>
      </trkpt>
      <trkpt lat="45.79276" lon="2.94567">
        <ele>1083.2757106743</ele>
        <time>2019-04-27T14:24:04Z</time>
      </trkpt>
      <trkpt lat="45.79275" lon="2.9458">
        <ele>1081.8527236614</ele>
        <time>2019-04-27T14:24:13Z</time>
      </trkpt>
      <trkpt lat="45.79271" lon="2.94583">
        <ele>1080.6230935132</ele>
        <time>2019-04-27T14:24:21Z</time>
      </trkpt>
      <trkpt lat="45.79268" lon="2.94577">
        <ele>1079.8248688285</ele>
        <time>2019-04-27T14:24:31Z</time>
      </trkpt>
      <trkpt lat="45.79269" lon="2.94572">
        <ele>1078.5957965962</ele>
        <time>2019-04-27T14:24:41Z</time>
      </trkpt>
      <trkpt lat="45.7927" lon="2.94571">
        <ele>1078.0258172953</ele>
        <time>2019-04-27T14:24:50Z</time>
      </trkpt>
      <trkpt lat="45.79269" lon="2.94571">
        <ele>1076.7099217721</ele>
        <time>2019-04-27T14:25:01Z</time>
      </trkpt>
      <trkpt lat="45.7927" lon="2.9457">
        <ele>1075.9922655634</ele>
        <time>2019-04-27T14:25:11Z</time>
      </trkpt>
      <trkpt lat="45.79272" lon="2.94568">
        <ele>1075.7677251375</ele>
        <time>2019-04-27T14:25:20Z</time>
      </trkpt>
      <trkpt lat="45.79273" lon="2.94568">
        <ele>1075.3502053352</ele>
        <time>2019-04-27T14:25:34Z</time>
      </trkpt>
      <trkpt lat="45.79273" lon="2.94568">
        <ele>1074.8859952691</ele>
        <time>2019-04-27T14:25:42Z</time>
      </trkpt>
      <trkpt lat="45.79272" lon="2.94572">
        <ele>1074.235619562</ele>
        <time>2019-04-27T14:25:52Z</time>
      </trkpt>
      <trkpt lat="45.79273" lon="2.9457">
        <ele>1073.1501790731</ele>
        <time>2019-04-27T14:26:12Z</time>
      </trkpt>
      <trkpt lat="45.79268" lon="2.94571">
        <ele>1071.9035071851</ele>
        <time>2019-04-27T14:26:21Z</time>
      </trkpt>
      <trkpt lat="45.79262" lon="2.94566">
        <ele>1070.7988557479</ele>
        <time>2019-04-27T14:26:30Z</time>
      </trkpt>
      <trkpt lat="45.79254" lon="2.94558">
        <ele>1069.8456263091</ele>
        <time>2019-04-27T14:26:39Z</time>
      </trkpt>
      <trkpt lat="45.79248" lon="2.94552">
        <ele>1069.090537299</ele>
        <time>2019-04-27T14:26:49Z</time>
      </trkpt>
      <trkpt lat="45.7924" lon="2.94543">
        <ele>1068.3352167525</ele>
        <time>2019-04-27T14:26:58Z</time>
      </trkpt>
      <trkpt lat="45.79231" lon="2.94537">
        <ele>1067.8151195689</ele>
        <time>2019-04-27T14:27:06Z</time>
      </trkpt>
      <trkpt lat="45.79225" lon="2.94526">
        <ele>1067.3619209452</ele>
        <time>2019-04-27T14:27:16Z</time>
      </trkpt>
      <trkpt lat="45.79216" lon="2.94515">
        <ele>1066.9762475059</ele>
        <time>2019-04-27T14:27:25Z</time>
      </trkpt>
      <trkpt lat="45.79207" lon="2.94505">
        <ele>1066.6428422</ele>
        <time>2019-04-27T14:27:34Z</time>
      </trkpt>
      <trkpt lat="45.79202" lon="2.945">
        <ele>1066.3258900422</ele>
        <time>2019-04-27T14:27:43Z</time>
      </trkpt>
      <trkpt lat="45.79193" lon="2.94488">
        <ele>1066.0237907167</ele>
        <time>2019-04-27T14:27:53Z</time>
      </trkpt>
      <trkpt lat="45.7919" lon="2.9448">
        <ele>1065.7807846476</ele>
        <time>2019-04-27T14:28:01Z</time>
      </trkpt>
      <trkpt lat="45.79183" lon="2.94473">
        <ele>1065.5390865329</ele>
        <time>2019-04-27T14:28:10Z</time>
      </trkpt>
      <trkpt lat="45.7918" lon="2.94469">
        <ele>1065.3822023566</ele>
        <time>2019-04-27T14:28:19Z</time>
      </trkpt>
      <trkpt lat="45.79175" lon="2.94467">
        <ele>1065.2515516747</ele>
        <time>2019-04-27T14:28:28Z</time>
      </trkpt>
      <trkpt lat="45.79164" lon="2.94461">
        <ele>1065.1452709344</ele>
        <time>2019-04-27T14:28:38Z</time>
      </trkpt>
      <trkpt lat="45.79147" lon="2.9445">
        <ele>1065.0749780514</ele>
        <time>2019-04-27T14:28:47Z</time>
      </trkpt>
      <trkpt lat="45.79138" lon="2.94442">
        <ele>1065.0432284686</ele>
        <time>2019-04-27T14:28:57Z</time>
      </trkpt>
      <trkpt lat="45.79128" lon="2.94437">
        <ele>1065.0538025115</ele>
        <time>2019-04-27T14:29:06Z</time>
      </trkpt>
      <trkpt lat="45.79117" lon="2.94433">
        <ele>1065.0793014888</ele>
        <time>2019-04-27T14:29:16Z</time>
      </trkpt>
      <trkpt lat="45.79105" lon="2.9443">
        <ele>1065.1249717075</ele>
        <time>2019-04-27T14:29:25Z</time>
      </trkpt>
      <trkpt lat="45.79097" lon="2.94429">
        <ele>1065.1851784497</ele>
        <time>2019-04-27T14:29:34Z</time>
      </trkpt>
      <trkpt lat="45.79087" lon="2.94432">
        <ele>1065.2437089199</ele>
        <time>2019-04-27T14:29:44Z</time>
      </trkpt>
      <trkpt lat="45.79075" lon="2.94428">
        <ele>1065.3085547082</ele>
        <time>2019-04-27T14:29:53Z</time>
      </trkpt>
      <trkpt lat="45.79068" lon="2.94426">
        <ele>1065.3755102651</ele>
        <time>2019-04-27T14:30:02Z</time>
      </trkpt>
      <trkpt lat="45.79057" lon="2.94423">
        <ele>1065.4590475303</ele>
        <time>2019-04-27T14:30:11Z</time>
      </trkpt>
      <trkpt lat="45.79049" lon="2.94418">
        <ele>1065.5634704091</ele>
        <time>2019-04-27T14:30:20Z</time>
      </trkpt>
      <trkpt lat="45.79042" lon="2.94414">
        <ele>1065.678453516</ele>
        <time>2019-04-27T14:30:29Z</time>
      </trkpt>
      <trkpt lat="45.79031" lon="2.94408">
        <ele>1065.8042797037</ele>
        <time>2019-04-27T14:30:38Z</time>
      </trkpt>
      <trkpt lat="45.79019" lon="2.94406">
        <ele>1065.9754749883</ele>
        <time>2019-04-27T14:30:48Z</time>
      </trkpt>
      <trkpt lat="45.79012" lon="2.94406">
        <ele>1066.147447312</ele>
        <time>2019-04-27T14:30:58Z</time>
      </trkpt>
      <trkpt lat="45.79002" lon="2.94411">
        <ele>1066.2911752651</ele>
        <time>2019-04-27T14:31:08Z</time>
      </trkpt>
      <trkpt lat="45.78994" lon="2.94409">
        <ele>1066.4101697213</ele>
        <time>2019-04-27T14:31:17Z</time>
      </trkpt>
      <trkpt lat="45.78977" lon="2.94407">
        <ele>1066.5938424705</ele>
        <time>2019-04-27T14:31:27Z</time>
      </trkpt>
      <trkpt lat="45.78968" lon="2.94407">
        <ele>1066.6768945971</ele>
        <time>2019-04-27T14:31:36Z</time>
      </trkpt>
      <trkpt lat="45.78959" lon="2.94407">
        <ele>1066.8420343788</ele>
        <time>2019-04-27T14:31:46Z</time>
      </trkpt>
      <trkpt lat="45.78955" lon="2.94401">
        <ele>1067.0227456028</ele>
        <time>2019-04-27T14:31:55Z</time>
      </trkpt>
      <trkpt lat="45.78942" lon="2.94404">
        <ele>1067.1754542838</ele>
        <time>2019-04-27T14:32:05Z</time>
      </trkpt>
      <trkpt lat="45.78933" lon="2.94403">
        <ele>1067.2733460536</ele>
        <time>2019-04-27T14:32:14Z</time>
      </trkpt>
      <trkpt lat="45.78922" lon="2.944">
        <ele>1067.3604773114</ele>
        <time>2019-04-27T14:32:23Z</time>
      </trkpt>
      <trkpt lat="45.78912" lon="2.94397">
        <ele>1067.4472532486</ele>
        <time>2019-04-27T14:32:31Z</time>
      </trkpt>
      <trkpt lat="45.78902" lon="2.94395">
        <ele>1067.5698624325</ele>
        <time>2019-04-27T14:32:39Z</time>
      </trkpt>
      <trkpt lat="45.78901" lon="2.94399">
        <ele>1067.7356085591</ele>
        <time>2019-04-27T14:32:49Z</time>
      </trkpt>
      <trkpt lat="45.789" lon="2.94403">
        <ele>1067.76788594</ele>
        <time>2019-04-27T14:32:57Z</time>
      </trkpt>
      <trkpt lat="45.789" lon="2.94403">
        <ele>1068.0296908845</ele>
        <time>2019-04-27T14:33:18Z</time>
      </trkpt>
      <trkpt lat="45.78898" lon="2.94404">
        <ele>1068.158607551</ele>
        <time>2019-04-27T14:33:27Z</time>
      </trkpt>
      <trkpt lat="45.78897" lon="2.94403">
        <ele>1068.1897265565</ele>
        <time>2019-04-27T14:33:37Z</time>
      </trkpt>
      <trkpt lat="45.78897" lon="2.94404">
        <ele>1068.3980253658</ele>
        <time>2019-04-27T14:33:48Z</time>
      </trkpt>
      <trkpt lat="45.78892" lon="2.94405">
        <ele>1068.6187497695</ele>
        <time>2019-04-27T14:33:57Z</time>
      </trkpt>
      <trkpt lat="45.78882" lon="2.94401">
        <ele>1068.8228151197</ele>
        <time>2019-04-27T14:34:07Z</time>
      </trkpt>
      <trkpt lat="45.78874" lon="2.94398">
        <ele>1068.9514223913</ele>
        <time>2019-04-27T14:34:16Z</time>
      </trkpt>
      <trkpt lat="45.78867" lon="2.94399">
        <ele>1069.0293704814</ele>
        <time>2019-04-27T14:34:25Z</time>
      </trkpt>
      <trkpt lat="45.78852" lon="2.94412">
        <ele>1069.0776460773</ele>
        <time>2019-04-27T14:34:34Z</time>
      </trkpt>
      <trkpt lat="45.78842" lon="2.94424">
        <ele>1069.1308160612</ele>
        <time>2019-04-27T14:34:43Z</time>
      </trkpt>
      <trkpt lat="45.78827" lon="2.94438">
        <ele>1069.2115676728</ele>
        <time>2019-04-27T14:34:52Z</time>
      </trkpt>
      <trkpt lat="45.78822" lon="2.94442">
        <ele>1069.2718261992</ele>
        <time>2019-04-27T14:35:02Z</time>
      </trkpt>
      <trkpt lat="45.78814" lon="2.94444">
        <ele>1069.3218052951</ele>
        <time>2019-04-27T14:35:10Z</time>
      </trkpt>
      <trkpt lat="45.78805" lon="2.94444">
        <ele>1069.3770175441</ele>
        <time>2019-04-27T14:35:19Z</time>
      </trkpt>
      <trkpt lat="45.78794" lon="2.94453">
        <ele>1069.405262482</ele>
        <time>2019-04-27T14:35:28Z</time>
      </trkpt>
      <trkpt lat="45.78781" lon="2.94453">
        <ele>1069.4331534254</ele>
        <time>2019-04-27T14:35:36Z</time>
      </trkpt>
      <trkpt lat="45.78771" lon="2.94451">
        <ele>1069.4812515425</ele>
        <time>2019-04-27T14:35:46Z</time>
      </trkpt>
      <trkpt lat="45.78763" lon="2.94452">
        <ele>1069.5216772907</ele>
        <time>2019-04-27T14:35:54Z</time>
      </trkpt>
      <trkpt lat="45.78753" lon="2.94448">
        <ele>1069.5627596101</ele>
        <time>2019-04-27T14:36:03Z</time>
      </trkpt>
      <trkpt lat="45.78744" lon="2.94445">
        <ele>1069.5868638063</ele>
        <time>2019-04-27T14:36:12Z</time>
      </trkpt>
      <trkpt lat="45.78731" lon="2.94443">
        <ele>1069.6095438082</ele>
        <time>2019-04-27T14:36:21Z</time>
      </trkpt>
      <trkpt lat="45.78718" lon="2.94444">
        <ele>1069.5939261109</ele>
        <time>2019-04-27T14:36:31Z</time>
      </trkpt>
      <trkpt lat="45.78718" lon="2.94443">
        <ele>1069.5561502795</ele>
        <time>2019-04-27T14:36:40Z</time>
      </trkpt>
      <trkpt lat="45.78715" lon="2.94439">
        <ele>1069.4166911663</ele>
        <time>2019-04-27T14:36:49Z</time>
      </trkpt>
      <trkpt lat="45.78708" lon="2.94429">
        <ele>1069.1747451505</ele>
        <time>2019-04-27T14:36:59Z</time>
      </trkpt>
      <trkpt lat="45.78698" lon="2.94425">
        <ele>1068.8358540633</ele>
        <time>2019-04-27T14:37:09Z</time>
      </trkpt>
      <trkpt lat="45.78693" lon="2.94424">
        <ele>1068.5086001659</ele>
        <time>2019-04-27T14:37:17Z</time>
      </trkpt>
      <trkpt lat="45.78686" lon="2.94422">
        <ele>1068.1371222586</ele>
        <time>2019-04-27T14:37:26Z</time>
      </trkpt>
      <trkpt lat="45.78683" lon="2.94418">
        <ele>1067.7867769148</ele>
        <time>2019-04-27T14:37:35Z</time>
      </trkpt>
      <trkpt lat="45.78683" lon="2.94418">
        <ele>1067.4368891121</ele>
        <time>2019-04-27T14:38:11Z</time>
      </trkpt>
      <trkpt lat="45.78677" lon="2.94418">
        <ele>1066.6850292546</ele>
        <time>2019-04-27T14:38:20Z</time>
      </trkpt>
      <trkpt lat="45.78667" lon="2.94414">
        <ele>1065.9152598111</ele>
        <time>2019-04-27T14:38:30Z</time>
      </trkpt>
      <trkpt lat="45.78659" lon="2.94415">
        <ele>1065.3694242236</ele>
        <time>2019-04-27T14:38:39Z</time>
      </trkpt>
      <trkpt lat="45.78652" lon="2.94423">
        <ele>1064.9326491601</ele>
        <time>2019-04-27T14:38:49Z</time>
      </trkpt>
      <trkpt lat="45.78649" lon="2.94426">
        <ele>1064.5876940516</ele>
        <time>2019-04-27T14:38:57Z</time>
      </trkpt>
      <trkpt lat="45.78644" lon="2.94438">
        <ele>1064.1394545992</ele>
        <time>2019-04-27T14:39:06Z</time>
      </trkpt>
      <trkpt lat="45.78641" lon="2.9445">
        <ele>1063.7146685962</ele>
        <time>2019-04-27T14:39:16Z</time>
      </trkpt>
      <trkpt lat="45.78641" lon="2.94463">
        <ele>1063.4507413533</ele>
        <time>2019-04-27T14:39:24Z</time>
      </trkpt>
      <trkpt lat="45.78641" lon="2.94478">
        <ele>1063.1467435355</ele>
        <time>2019-04-27T14:39:33Z</time>
      </trkpt>
      <trkpt lat="45.78643" lon="2.94489">
        <ele>1062.8289215374</ele>
        <time>2019-04-27T14:39:43Z</time>
      </trkpt>
      <trkpt lat="45.78644" lon="2.94508">
        <ele>1062.5414882134</ele>
        <time>2019-04-27T14:39:52Z</time>
      </trkpt>
      <trkpt lat="45.78645" lon="2.94519">
        <ele>1062.299432722</ele>
        <time>2019-04-27T14:40:00Z</time>
      </trkpt>
      <trkpt lat="45.78641" lon="2.94533">
        <ele>1062.0415354022</ele>
        <time>2019-04-27T14:40:09Z</time>
      </trkpt>
      <trkpt lat="45.78637" lon="2.94544">
        <ele>1061.8480202468</ele>
        <time>2019-04-27T14:40:17Z</time>
      </trkpt>
      <trkpt lat="45.78633" lon="2.94555">
        <ele>1061.6331747612</ele>
        <time>2019-04-27T14:40:27Z</time>
      </trkpt>
      <trkpt lat="45.78627" lon="2.94565">
        <ele>1061.452830844</ele>
        <time>2019-04-27T14:40:36Z</time>
      </trkpt>
      <trkpt lat="45.78621" lon="2.94574">
        <ele>1061.2885099929</ele>
        <time>2019-04-27T14:40:46Z</time>
      </trkpt>
      <trkpt lat="45.78616" lon="2.94591">
        <ele>1061.1304130125</ele>
        <time>2019-04-27T14:40:56Z</time>
      </trkpt>
      <trkpt lat="45.78612" lon="2.94608">
        <ele>1061.0400475578</ele>
        <time>2019-04-27T14:41:04Z</time>
      </trkpt>
      <trkpt lat="45.78607" lon="2.94623">
        <ele>1060.9769578569</ele>
        <time>2019-04-27T14:41:13Z</time>
      </trkpt>
      <trkpt lat="45.78606" lon="2.94631">
        <ele>1060.9521121167</ele>
        <time>2019-04-27T14:41:21Z</time>
      </trkpt>
      <trkpt lat="45.78605" lon="2.94644">
        <ele>1060.9460551493</ele>
        <time>2019-04-27T14:41:31Z</time>
      </trkpt>
      <trkpt lat="45.78608" lon="2.9466">
        <ele>1060.9498286006</ele>
        <time>2019-04-27T14:41:40Z</time>
      </trkpt>
      <trkpt lat="45.7861" lon="2.94672">
        <ele>1060.9596724279</ele>
        <time>2019-04-27T14:41:49Z</time>
      </trkpt>
      <trkpt lat="45.78615" lon="2.94686">
        <ele>1060.9874093393</ele>
        <time>2019-04-27T14:41:59Z</time>
      </trkpt>
      <trkpt lat="45.78615" lon="2.94693">
        <ele>1061.0131971157</ele>
        <time>2019-04-27T14:42:07Z</time>
      </trkpt>
      <trkpt lat="45.78613" lon="2.94712">
        <ele>1061.0457354059</ele>
        <time>2019-04-27T14:42:16Z</time>
      </trkpt>
      <trkpt lat="45.78613" lon="2.94724">
        <ele>1061.0659001018</ele>
        <time>2019-04-27T14:42:25Z</time>
      </trkpt>
      <trkpt lat="45.78615" lon="2.94736">
        <ele>1061.1016054843</ele>
        <time>2019-04-27T14:42:34Z</time>
      </trkpt>
      <trkpt lat="45.78617" lon="2.94752">
        <ele>1061.1685194416</ele>
        <time>2019-04-27T14:42:44Z</time>
      </trkpt>
      <trkpt lat="45.78618" lon="2.94762">
        <ele>1061.2378824819</ele>
        <time>2019-04-27T14:42:53Z</time>
      </trkpt>
      <trkpt lat="45.78618" lon="2.94769">
        <ele>1061.3105388678</ele>
        <time>2019-04-27T14:43:01Z</time>
      </trkpt>
      <trkpt lat="45.78613" lon="2.94781">
        <ele>1061.383743459</ele>
        <time>2019-04-27T14:43:10Z</time>
      </trkpt>
      <trkpt lat="45.78611" lon="2.94787">
        <ele>1061.4409771678</ele>
        <time>2019-04-27T14:43:19Z</time>
      </trkpt>
      <trkpt lat="45.78614" lon="2.94791">
        <ele>1061.5304667383</ele>
        <time>2019-04-27T14:43:27Z</time>
      </trkpt>
      <trkpt lat="45.78621" lon="2.94799">
        <ele>1061.6335564436</ele>
        <time>2019-04-27T14:43:37Z</time>
      </trkpt>
      <trkpt lat="45.78621" lon="2.94807">
        <ele>1061.7280666374</ele>
        <time>2019-04-27T14:43:45Z</time>
      </trkpt>
      <trkpt lat="45.78626" lon="2.94812">
        <ele>1061.828054184</ele>
        <time>2019-04-27T14:43:55Z</time>
      </trkpt>
      <trkpt lat="45.78628" lon="2.94822">
        <ele>1061.9094417763</ele>
        <time>2019-04-27T14:44:04Z</time>
      </trkpt>
      <trkpt lat="45.78628" lon="2.94832">
        <ele>1061.9715198433</ele>
        <time>2019-04-27T14:44:13Z</time>
      </trkpt>
      <trkpt lat="45.78627" lon="2.94845">
        <ele>1062.0714897932</ele>
        <time>2019-04-27T14:44:22Z</time>
      </trkpt>
      <trkpt lat="45.78629" lon="2.94851">
        <ele>1062.2038832058</ele>
        <time>2019-04-27T14:44:32Z</time>
      </trkpt>
      <trkpt lat="45.78632" lon="2.94858">
        <ele>1062.3370479625</ele>
        <time>2019-04-27T14:44:41Z</time>
      </trkpt>
      <trkpt lat="45.78637" lon="2.94868">
        <ele>1062.4212201312</ele>
        <time>2019-04-27T14:44:49Z</time>
      </trkpt>
      <trkpt lat="45.78633" lon="2.94883">
        <ele>1062.5560895092</ele>
        <time>2019-04-27T14:44:58Z</time>
      </trkpt>
      <trkpt lat="45.78637" lon="2.94887">
        <ele>1062.6977819909</ele>
        <time>2019-04-27T14:45:08Z</time>
      </trkpt>
      <trkpt lat="45.78644" lon="2.94904">
        <ele>1062.8221880202</ele>
        <time>2019-04-27T14:45:17Z</time>
      </trkpt>
      <trkpt lat="45.78645" lon="2.94921">
        <ele>1062.9845509538</ele>
        <time>2019-04-27T14:45:26Z</time>
      </trkpt>
      <trkpt lat="45.78646" lon="2.9493">
        <ele>1063.1927160947</ele>
        <time>2019-04-27T14:45:35Z</time>
      </trkpt>
      <trkpt lat="45.78645" lon="2.94944">
        <ele>1063.4132378832</ele>
        <time>2019-04-27T14:45:44Z</time>
      </trkpt>
      <trkpt lat="45.78647" lon="2.9496">
        <ele>1063.6248704181</ele>
        <time>2019-04-27T14:45:54Z</time>
      </trkpt>
      <trkpt lat="45.78645" lon="2.94971">
        <ele>1063.8060521234</ele>
        <time>2019-04-27T14:46:03Z</time>
      </trkpt>
      <trkpt lat="45.78643" lon="2.94979">
        <ele>1063.9544426161</ele>
        <time>2019-04-27T14:46:12Z</time>
      </trkpt>
      <trkpt lat="45.78637" lon="2.94991">
        <ele>1064.0962743026</ele>
        <time>2019-04-27T14:46:21Z</time>
      </trkpt>
      <trkpt lat="45.78631" lon="2.94998">
        <ele>1064.1951966439</ele>
        <time>2019-04-27T14:46:30Z</time>
      </trkpt>
      <trkpt lat="45.78628" lon="2.95013">
        <ele>1064.3097837362</ele>
        <time>2019-04-27T14:46:40Z</time>
      </trkpt>
      <trkpt lat="45.78625" lon="2.95022">
        <ele>1064.3759396312</ele>
        <time>2019-04-27T14:46:49Z</time>
      </trkpt>
      <trkpt lat="45.78631" lon="2.95045">
        <ele>1064.4588714832</ele>
        <time>2019-04-27T14:46:59Z</time>
      </trkpt>
      <trkpt lat="45.78633" lon="2.95052">
        <ele>1064.527698853</ele>
        <time>2019-04-27T14:47:08Z</time>
      </trkpt>
      <trkpt lat="45.78632" lon="2.95069">
        <ele>1064.5927028805</ele>
        <time>2019-04-27T14:47:18Z</time>
      </trkpt>
      <trkpt lat="45.78632" lon="2.95083">
        <ele>1064.6696057028</ele>
        <time>2019-04-27T14:47:28Z</time>
      </trkpt>
      <trkpt lat="45.78633" lon="2.95093">
        <ele>1064.7432930998</ele>
        <time>2019-04-27T14:47:37Z</time>
      </trkpt>
      <trkpt lat="45.78634" lon="2.95099">
        <ele>1064.8094473048</ele>
        <time>2019-04-27T14:47:46Z</time>
      </trkpt>
      <trkpt lat="45.78635" lon="2.95121">
        <ele>1064.8597805082</ele>
        <time>2019-04-27T14:47:54Z</time>
      </trkpt>
      <trkpt lat="45.78634" lon="2.95123">
        <ele>1064.902952913</ele>
        <time>2019-04-27T14:48:03Z</time>
      </trkpt>
      <trkpt lat="45.78634" lon="2.95143">
        <ele>1064.9351030271</ele>
        <time>2019-04-27T14:48:12Z</time>
      </trkpt>
      <trkpt lat="45.7863" lon="2.95155">
        <ele>1064.9732930705</ele>
        <time>2019-04-27T14:48:20Z</time>
      </trkpt>
      <trkpt lat="45.78634" lon="2.95174">
        <ele>1065.0232600656</ele>
        <time>2019-04-27T14:48:29Z</time>
      </trkpt>
      <trkpt lat="45.78631" lon="2.95185">
        <ele>1065.0910121296</ele>
        <time>2019-04-27T14:48:39Z</time>
      </trkpt>
      <trkpt lat="45.78627" lon="2.952">
        <ele>1065.1819405559</ele>
        <time>2019-04-27T14:48:49Z</time>
      </trkpt>
      <trkpt lat="45.78626" lon="2.95209">
        <ele>1065.2604072772</ele>
        <time>2019-04-27T14:48:58Z</time>
      </trkpt>
      <trkpt lat="45.78621" lon="2.9521">
        <ele>1065.3142812012</ele>
        <time>2019-04-27T14:49:06Z</time>
      </trkpt>
      <trkpt lat="45.7862" lon="2.95212">
        <ele>1065.334321458</ele>
        <time>2019-04-27T14:49:16Z</time>
      </trkpt>
      <trkpt lat="45.7862" lon="2.95213">
        <ele>1066.3922211278</ele>
        <time>2019-04-27T14:49:31Z</time>
      </trkpt>
      <trkpt lat="45.78617" lon="2.95211">
        <ele>1066.4707806882</ele>
        <time>2019-04-27T14:49:38Z</time>
      </trkpt>
      <trkpt lat="45.7862" lon="2.95213">
        <ele>1066.6123459963</ele>
        <time>2019-04-27T14:49:46Z</time>
      </trkpt>
      <trkpt lat="45.78625" lon="2.95221">
        <ele>1066.6658416131</ele>
        <time>2019-04-27T14:49:56Z</time>
      </trkpt>
      <trkpt lat="45.78625" lon="2.95226">
        <ele>1066.7450279202</ele>
        <time>2019-04-27T14:50:05Z</time>
      </trkpt>
      <trkpt lat="45.7862" lon="2.95234">
        <ele>1066.810352679</ele>
        <time>2019-04-27T14:50:13Z</time>
      </trkpt>
      <trkpt lat="45.78623" lon="2.95245">
        <ele>1066.8572607973</ele>
        <time>2019-04-27T14:50:21Z</time>
      </trkpt>
      <trkpt lat="45.78624" lon="2.95266">
        <ele>1066.9238647465</ele>
        <time>2019-04-27T14:50:31Z</time>
      </trkpt>
      <trkpt lat="45.78619" lon="2.95276">
        <ele>1066.9858913787</ele>
        <time>2019-04-27T14:50:40Z</time>
      </trkpt>
      <trkpt lat="45.78619" lon="2.95292">
        <ele>1067.0180024142</ele>
        <time>2019-04-27T14:50:49Z</time>
      </trkpt>
      <trkpt lat="45.78614" lon="2.95305">
        <ele>1067.0436775981</ele>
        <time>2019-04-27T14:50:57Z</time>
      </trkpt>
      <trkpt lat="45.7861" lon="2.95318">
        <ele>1067.0877250554</ele>
        <time>2019-04-27T14:51:06Z</time>
      </trkpt>
      <trkpt lat="45.78611" lon="2.95321">
        <ele>1067.1512295045</ele>
        <time>2019-04-27T14:51:14Z</time>
      </trkpt>
      <trkpt lat="45.78612" lon="2.95323">
        <ele>1067.1766455867</ele>
        <time>2019-04-27T14:51:24Z</time>
      </trkpt>
      <trkpt lat="45.78612" lon="2.95329">
        <ele>1067.4047823582</ele>
        <time>2019-04-27T14:51:34Z</time>
      </trkpt>
      <trkpt lat="45.78612" lon="2.95334">
        <ele>1067.5269652912</ele>
        <time>2019-04-27T14:51:43Z</time>
      </trkpt>
      <trkpt lat="45.7861" lon="2.95336">
        <ele>1067.8422483488</ele>
        <time>2019-04-27T14:51:51Z</time>
      </trkpt>
      <trkpt lat="45.7861" lon="2.95338">
        <ele>1068.0393078936</ele>
        <time>2019-04-27T14:52:00Z</time>
      </trkpt>
      <trkpt lat="45.78609" lon="2.95337">
        <ele>1068.4433615244</ele>
        <time>2019-04-27T14:52:44Z</time>
      </trkpt>
      <trkpt lat="45.7861" lon="2.95337">
        <ele>1069.1755388991</ele>
        <time>2019-04-27T14:53:11Z</time>
      </trkpt>
      <trkpt lat="45.7861" lon="2.95336">
        <ele>1069.5480482546</ele>
        <time>2019-04-27T14:53:21Z</time>
      </trkpt>
      <trkpt lat="45.78609" lon="2.95334">
        <ele>1069.7984058077</ele>
        <time>2019-04-27T14:53:29Z</time>
      </trkpt>
      <trkpt lat="45.7861" lon="2.95334">
        <ele>1070.3603897696</ele>
        <time>2019-04-27T14:53:47Z</time>
      </trkpt>
      <trkpt lat="45.78611" lon="2.95336">
        <ele>1070.5883905825</ele>
        <time>2019-04-27T14:53:56Z</time>
      </trkpt>
      <trkpt lat="45.78611" lon="2.95336">
        <ele>1070.9404775264</ele>
        <time>2019-04-27T14:54:05Z</time>
      </trkpt>
      <trkpt lat="45.7861" lon="2.95343">
        <ele>1071.4930264659</ele>
        <time>2019-04-27T14:54:15Z</time>
      </trkpt>
      <trkpt lat="45.78611" lon="2.95345">
        <ele>1071.7920231361</ele>
        <time>2019-04-27T14:54:23Z</time>
      </trkpt>
      <trkpt lat="45.78613" lon="2.95354">
        <ele>1072.1141976239</ele>
        <time>2019-04-27T14:54:33Z</time>
      </trkpt>
      <trkpt lat="45.78613" lon="2.9537">
        <ele>1072.4026186539</ele>
        <time>2019-04-27T14:54:43Z</time>
      </trkpt>
      <trkpt lat="45.78611" lon="2.954">
        <ele>1072.6075928788</ele>
        <time>2019-04-27T14:54:52Z</time>
      </trkpt>
      <trkpt lat="45.78608" lon="2.95426">
        <ele>1072.8134550785</ele>
        <time>2019-04-27T14:55:02Z</time>
      </trkpt>
      <trkpt lat="45.78608" lon="2.95444">
        <ele>1073.0012850263</ele>
        <time>2019-04-27T14:55:11Z</time>
      </trkpt>
      <trkpt lat="45.78606" lon="2.95452">
        <ele>1073.1597686339</ele>
        <time>2019-04-27T14:55:20Z</time>
      </trkpt>
      <trkpt lat="45.78605" lon="2.95465">
        <ele>1073.2823439928</ele>
        <time>2019-04-27T14:55:30Z</time>
      </trkpt>
      <trkpt lat="45.78601" lon="2.95479">
        <ele>1073.4423754162</ele>
        <time>2019-04-27T14:55:39Z</time>
      </trkpt>
      <trkpt lat="45.78595" lon="2.95489">
        <ele>1073.6203837236</ele>
        <time>2019-04-27T14:55:48Z</time>
      </trkpt>
      <trkpt lat="45.78595" lon="2.95503">
        <ele>1073.7491621229</ele>
        <time>2019-04-27T14:55:57Z</time>
      </trkpt>
      <trkpt lat="45.78595" lon="2.95523">
        <ele>1073.8792718541</ele>
        <time>2019-04-27T14:56:07Z</time>
      </trkpt>
      <trkpt lat="45.78599" lon="2.95531">
        <ele>1073.9483547455</ele>
        <time>2019-04-27T14:56:17Z</time>
      </trkpt>
      <trkpt lat="45.78599" lon="2.95539">
        <ele>1073.9789590933</ele>
        <time>2019-04-27T14:56:25Z</time>
      </trkpt>
      <trkpt lat="45.78596" lon="2.95552">
        <ele>1073.9988619546</ele>
        <time>2019-04-27T14:56:33Z</time>
      </trkpt>
      <trkpt lat="45.78592" lon="2.95562">
        <ele>1073.9954111513</ele>
        <time>2019-04-27T14:56:42Z</time>
      </trkpt>
      <trkpt lat="45.78594" lon="2.9557">
        <ele>1073.9713241962</ele>
        <time>2019-04-27T14:56:51Z</time>
      </trkpt>
      <trkpt lat="45.78595" lon="2.95578">
        <ele>1073.9098640676</ele>
        <time>2019-04-27T14:57:01Z</time>
      </trkpt>
      <trkpt lat="45.78597" lon="2.95585">
        <ele>1073.8425901642</ele>
        <time>2019-04-27T14:57:10Z</time>
      </trkpt>
      <trkpt lat="45.78597" lon="2.95591">
        <ele>1073.7722594247</ele>
        <time>2019-04-27T14:57:19Z</time>
      </trkpt>
      <trkpt lat="45.78594" lon="2.95608">
        <ele>1073.6809443615</ele>
        <time>2019-04-27T14:57:28Z</time>
      </trkpt>
      <trkpt lat="45.78593" lon="2.95633">
        <ele>1073.6396471511</ele>
        <time>2019-04-27T14:57:37Z</time>
      </trkpt>
      <trkpt lat="45.78589" lon="2.9566">
        <ele>1073.640551934</ele>
        <time>2019-04-27T14:57:46Z</time>
      </trkpt>
      <trkpt lat="45.78588" lon="2.95682">
        <ele>1073.6984369945</ele>
        <time>2019-04-27T14:57:56Z</time>
      </trkpt>
      <trkpt lat="45.78588" lon="2.95693">
        <ele>1073.764754386</ele>
        <time>2019-04-27T14:58:05Z</time>
      </trkpt>
      <trkpt lat="45.78587" lon="2.95706">
        <ele>1073.8465475317</ele>
        <time>2019-04-27T14:58:15Z</time>
      </trkpt>
      <trkpt lat="45.78587" lon="2.95722">
        <ele>1073.915946075</ele>
        <time>2019-04-27T14:58:24Z</time>
      </trkpt>
      <trkpt lat="45.78587" lon="2.9574">
        <ele>1074.0053194481</ele>
        <time>2019-04-27T14:58:33Z</time>
      </trkpt>
      <trkpt lat="45.78588" lon="2.95752">
        <ele>1074.0791214234</ele>
        <time>2019-04-27T14:58:42Z</time>
      </trkpt>
      <trkpt lat="45.78588" lon="2.95769">
        <ele>1074.1745044189</ele>
        <time>2019-04-27T14:58:51Z</time>
      </trkpt>
      <trkpt lat="45.78585" lon="2.95785">
        <ele>1074.2881078488</ele>
        <time>2019-04-27T14:59:01Z</time>
      </trkpt>
      <trkpt lat="45.78585" lon="2.95799">
        <ele>1074.3995331079</ele>
        <time>2019-04-27T14:59:11Z</time>
      </trkpt>
      <trkpt lat="45.78585" lon="2.95808">
        <ele>1074.5008981228</ele>
        <time>2019-04-27T14:59:20Z</time>
      </trkpt>
      <trkpt lat="45.78589" lon="2.95818">
        <ele>1074.587347501</ele>
        <time>2019-04-27T14:59:29Z</time>
      </trkpt>
      <trkpt lat="45.78591" lon="2.95829">
        <ele>1074.6570049174</ele>
        <time>2019-04-27T14:59:39Z</time>
      </trkpt>
      <trkpt lat="45.78587" lon="2.95843">
        <ele>1074.7422355665</ele>
        <time>2019-04-27T14:59:48Z</time>
      </trkpt>
      <trkpt lat="45.78586" lon="2.95845">
        <ele>1074.7930708801</ele>
        <time>2019-04-27T14:59:58Z</time>
      </trkpt>
      <trkpt lat="45.78587" lon="2.95847">
        <ele>1074.8726613734</ele>
        <time>2019-04-27T15:00:07Z</time>
      </trkpt>
      <trkpt lat="45.78587" lon="2.95848">
        <ele>1074.9072118373</ele>
        <time>2019-04-27T15:00:19Z</time>
      </trkpt>
      <trkpt lat="45.78587" lon="2.95849">
        <ele>1075.0843802325</ele>
        <time>2019-04-27T15:00:36Z</time>
      </trkpt>
      <trkpt lat="45.78587" lon="2.9585">
        <ele>1075.1305748639</ele>
        <time>2019-04-27T15:00:46Z</time>
      </trkpt>
      <trkpt lat="45.78588" lon="2.95851">
        <ele>1075.3538042525</ele>
        <time>2019-04-27T15:00:55Z</time>
      </trkpt>
      <trkpt lat="45.78588" lon="2.95851">
        <ele>1075.5523326988</ele>
        <time>2019-04-27T15:01:09Z</time>
      </trkpt>
      <trkpt lat="45.78589" lon="2.95851">
        <ele>1075.7446976183</ele>
        <time>2019-04-27T15:01:20Z</time>
      </trkpt>
      <trkpt lat="45.78589" lon="2.9585">
        <ele>1075.9097482877</ele>
        <time>2019-04-27T15:01:44Z</time>
      </trkpt>
      <trkpt lat="45.78588" lon="2.95852">
        <ele>1076.0572517997</ele>
        <time>2019-04-27T15:01:53Z</time>
      </trkpt>
      <trkpt lat="45.78587" lon="2.95853">
        <ele>1076.6124181337</ele>
        <time>2019-04-27T15:02:32Z</time>
      </trkpt>
      <trkpt lat="45.78584" lon="2.95852">
        <ele>1076.907557684</ele>
        <time>2019-04-27T15:02:41Z</time>
      </trkpt>
      <trkpt lat="45.78579" lon="2.95852">
        <ele>1077.4525301909</ele>
        <time>2019-04-27T15:02:50Z</time>
      </trkpt>
      <trkpt lat="45.78575" lon="2.95849">
        <ele>1077.7093777274</ele>
        <time>2019-04-27T15:03:00Z</time>
      </trkpt>
      <trkpt lat="45.78575" lon="2.95849">
        <ele>1077.9029998594</ele>
        <time>2019-04-27T15:03:20Z</time>
      </trkpt>
      <trkpt lat="45.78572" lon="2.95849">
        <ele>1078.2544152804</ele>
        <time>2019-04-27T15:03:29Z</time>
      </trkpt>
      <trkpt lat="45.78571" lon="2.9585">
        <ele>1078.3384973246</ele>
        <time>2019-04-27T15:03:38Z</time>
      </trkpt>
      <trkpt lat="45.7857" lon="2.9585">
        <ele>1078.3802887209</ele>
        <time>2019-04-27T15:03:47Z</time>
      </trkpt>
      <trkpt lat="45.7857" lon="2.95848">
        <ele>1078.6103782712</ele>
        <time>2019-04-27T15:04:19Z</time>
      </trkpt>
      <trkpt lat="45.7857" lon="2.95848">
        <ele>1078.9390822814</ele>
        <time>2019-04-27T15:04:35Z</time>
      </trkpt>
      <trkpt lat="45.78563" lon="2.95848">
        <ele>1079.2619914274</ele>
        <time>2019-04-27T15:04:43Z</time>
      </trkpt>
      <trkpt lat="45.78553" lon="2.95849">
        <ele>1079.574420142</ele>
        <time>2019-04-27T15:04:52Z</time>
      </trkpt>
      <trkpt lat="45.78543" lon="2.95851">
        <ele>1079.8472981921</ele>
        <time>2019-04-27T15:05:01Z</time>
      </trkpt>
      <trkpt lat="45.78533" lon="2.95853">
        <ele>1080.0646704468</ele>
        <time>2019-04-27T15:05:09Z</time>
      </trkpt>
      <trkpt lat="45.78519" lon="2.95854">
        <ele>1080.3141709306</ele>
        <time>2019-04-27T15:05:19Z</time>
      </trkpt>
      <trkpt lat="45.7851" lon="2.95853">
        <ele>1080.4966403456</ele>
        <time>2019-04-27T15:05:27Z</time>
      </trkpt>
      <trkpt lat="45.785" lon="2.95852">
        <ele>1080.6924516112</ele>
        <time>2019-04-27T15:05:37Z</time>
      </trkpt>
      <trkpt lat="45.78499" lon="2.95852">
        <ele>1080.8282958475</ele>
        <time>2019-04-27T15:05:46Z</time>
      </trkpt>
      <trkpt lat="45.78491" lon="2.95851">
        <ele>1081.0523572315</ele>
        <time>2019-04-27T15:05:55Z</time>
      </trkpt>
      <trkpt lat="45.78478" lon="2.95852">
        <ele>1081.2840663907</ele>
        <time>2019-04-27T15:06:05Z</time>
      </trkpt>
      <trkpt lat="45.78464" lon="2.95852">
        <ele>1081.4834766909</ele>
        <time>2019-04-27T15:06:14Z</time>
      </trkpt>
      <trkpt lat="45.78451" lon="2.95854">
        <ele>1081.6830503988</ele>
        <time>2019-04-27T15:06:23Z</time>
      </trkpt>
      <trkpt lat="45.78438" lon="2.95852">
        <ele>1081.894546753</ele>
        <time>2019-04-27T15:06:33Z</time>
      </trkpt>
      <trkpt lat="45.78426" lon="2.95852">
        <ele>1082.0905940826</ele>
        <time>2019-04-27T15:06:42Z</time>
      </trkpt>
      <trkpt lat="45.78414" lon="2.95853">
        <ele>1082.3029971089</ele>
        <time>2019-04-27T15:06:51Z</time>
      </trkpt>
      <trkpt lat="45.78403" lon="2.95856">
        <ele>1082.5354283439</ele>
        <time>2019-04-27T15:07:00Z</time>
      </trkpt>
      <trkpt lat="45.78393" lon="2.95859">
        <ele>1082.7880137299</ele>
        <time>2019-04-27T15:07:09Z</time>
      </trkpt>
      <trkpt lat="45.78381" lon="2.95861">
        <ele>1083.0561395917</ele>
        <time>2019-04-27T15:07:18Z</time>
      </trkpt>
      <trkpt lat="45.78371" lon="2.95861">
        <ele>1083.3417239256</ele>
        <time>2019-04-27T15:07:27Z</time>
      </trkpt>
      <trkpt lat="45.78359" lon="2.95861">
        <ele>1083.6566290264</ele>
        <time>2019-04-27T15:07:37Z</time>
      </trkpt>
      <trkpt lat="45.7835" lon="2.95862">
        <ele>1083.9055826105</ele>
        <time>2019-04-27T15:07:45Z</time>
      </trkpt>
      <trkpt lat="45.78339" lon="2.95859">
        <ele>1084.1784654689</ele>
        <time>2019-04-27T15:07:54Z</time>
      </trkpt>
      <trkpt lat="45.78329" lon="2.95857">
        <ele>1084.4429939704</ele>
        <time>2019-04-27T15:08:03Z</time>
      </trkpt>
      <trkpt lat="45.78319" lon="2.95855">
        <ele>1084.6982217162</ele>
        <time>2019-04-27T15:08:12Z</time>
      </trkpt>
      <trkpt lat="45.78306" lon="2.95852">
        <ele>1084.9296813985</ele>
        <time>2019-04-27T15:08:21Z</time>
      </trkpt>
      <trkpt lat="45.78294" lon="2.95848">
        <ele>1085.1362720972</ele>
        <time>2019-04-27T15:08:30Z</time>
      </trkpt>
      <trkpt lat="45.78286" lon="2.95841">
        <ele>1085.3245575831</ele>
        <time>2019-04-27T15:08:39Z</time>
      </trkpt>
      <trkpt lat="45.78273" lon="2.95836">
        <ele>1085.4924475565</ele>
        <time>2019-04-27T15:08:48Z</time>
      </trkpt>
      <trkpt lat="45.78257" lon="2.95832">
        <ele>1085.6700629572</ele>
        <time>2019-04-27T15:08:58Z</time>
      </trkpt>
      <trkpt lat="45.78248" lon="2.95828">
        <ele>1085.8040167124</ele>
        <time>2019-04-27T15:09:06Z</time>
      </trkpt>
      <trkpt lat="45.78241" lon="2.95823">
        <ele>1085.9624523024</ele>
        <time>2019-04-27T15:09:16Z</time>
      </trkpt>
      <trkpt lat="45.78233" lon="2.95818">
        <ele>1086.0860185537</ele>
        <time>2019-04-27T15:09:25Z</time>
      </trkpt>
      <trkpt lat="45.78234" lon="2.9582">
        <ele>1086.1664308185</ele>
        <time>2019-04-27T15:09:33Z</time>
      </trkpt>
      <trkpt lat="45.7823" lon="2.95816">
        <ele>1086.2507331141</ele>
        <time>2019-04-27T15:09:43Z</time>
      </trkpt>
      <trkpt lat="45.78219" lon="2.95812">
        <ele>1086.3200424215</ele>
        <time>2019-04-27T15:09:52Z</time>
      </trkpt>
      <trkpt lat="45.78209" lon="2.95806">
        <ele>1086.4008697371</ele>
        <time>2019-04-27T15:10:02Z</time>
      </trkpt>
      <trkpt lat="45.78209" lon="2.95805">
        <ele>1086.4599986819</ele>
        <time>2019-04-27T15:10:11Z</time>
      </trkpt>
      <trkpt lat="45.7821" lon="2.95806">
        <ele>1086.5396973074</ele>
        <time>2019-04-27T15:11:01Z</time>
      </trkpt>
      <trkpt lat="45.78209" lon="2.95807">
        <ele>1086.6102821232</ele>
        <time>2019-04-27T15:11:55Z</time>
      </trkpt>
      <trkpt lat="45.78206" lon="2.95806">
        <ele>1086.6842526839</ele>
        <time>2019-04-27T15:12:05Z</time>
      </trkpt>
      <trkpt lat="45.78192" lon="2.95788">
        <ele>1086.8008308512</ele>
        <time>2019-04-27T15:12:15Z</time>
      </trkpt>
      <trkpt lat="45.78187" lon="2.95776">
        <ele>1086.9407549147</ele>
        <time>2019-04-27T15:12:25Z</time>
      </trkpt>
      <trkpt lat="45.78184" lon="2.95768">
        <ele>1087.0612541864</ele>
        <time>2019-04-27T15:12:34Z</time>
      </trkpt>
      <trkpt lat="45.78174" lon="2.95757">
        <ele>1087.1636158844</ele>
        <time>2019-04-27T15:12:43Z</time>
      </trkpt>
      <trkpt lat="45.78164" lon="2.95743">
        <ele>1087.2655526455</ele>
        <time>2019-04-27T15:12:52Z</time>
      </trkpt>
      <trkpt lat="45.78157" lon="2.95731">
        <ele>1087.3579694874</ele>
        <time>2019-04-27T15:13:01Z</time>
      </trkpt>
      <trkpt lat="45.7815" lon="2.95716">
        <ele>1087.4452654375</ele>
        <time>2019-04-27T15:13:10Z</time>
      </trkpt>
      <trkpt lat="45.7815" lon="2.95708">
        <ele>1087.5167442486</ele>
        <time>2019-04-27T15:13:18Z</time>
      </trkpt>
      <trkpt lat="45.78148" lon="2.95699">
        <ele>1087.5797763112</ele>
        <time>2019-04-27T15:13:28Z</time>
      </trkpt>
      <trkpt lat="45.78144" lon="2.95688">
        <ele>1087.6306028408</ele>
        <time>2019-04-27T15:13:37Z</time>
      </trkpt>
      <trkpt lat="45.7814" lon="2.95678">
        <ele>1087.6607589188</ele>
        <time>2019-04-27T15:13:47Z</time>
      </trkpt>
      <trkpt lat="45.7814" lon="2.95659">
        <ele>1087.6630965659</ele>
        <time>2019-04-27T15:13:57Z</time>
      </trkpt>
      <trkpt lat="45.78135" lon="2.95644">
        <ele>1087.6698974274</ele>
        <time>2019-04-27T15:14:05Z</time>
      </trkpt>
      <trkpt lat="45.78131" lon="2.95633">
        <ele>1087.6763999053</ele>
        <time>2019-04-27T15:14:14Z</time>
      </trkpt>
      <trkpt lat="45.78123" lon="2.95618">
        <ele>1087.6781649496</ele>
        <time>2019-04-27T15:14:24Z</time>
      </trkpt>
      <trkpt lat="45.7812" lon="2.95611">
        <ele>1087.6847660233</ele>
        <time>2019-04-27T15:14:32Z</time>
      </trkpt>
      <trkpt lat="45.78112" lon="2.95599">
        <ele>1087.6997650057</ele>
        <time>2019-04-27T15:14:41Z</time>
      </trkpt>
      <trkpt lat="45.78103" lon="2.95588">
        <ele>1087.7210129618</ele>
        <time>2019-04-27T15:14:51Z</time>
      </trkpt>
      <trkpt lat="45.78097" lon="2.95577">
        <ele>1087.7296999879</ele>
        <time>2019-04-27T15:14:59Z</time>
      </trkpt>
      <trkpt lat="45.78093" lon="2.95561">
        <ele>1087.7398259143</ele>
        <time>2019-04-27T15:15:09Z</time>
      </trkpt>
      <trkpt lat="45.78091" lon="2.9555">
        <ele>1087.7491259624</ele>
        <time>2019-04-27T15:15:17Z</time>
      </trkpt>
      <trkpt lat="45.78091" lon="2.95537">
        <ele>1087.7661503275</ele>
        <time>2019-04-27T15:15:26Z</time>
      </trkpt>
      <trkpt lat="45.78089" lon="2.95531">
        <ele>1087.7859921087</ele>
        <time>2019-04-27T15:15:36Z</time>
      </trkpt>
      <trkpt lat="45.78085" lon="2.95523">
        <ele>1087.805652332</ele>
        <time>2019-04-27T15:15:46Z</time>
      </trkpt>
      <trkpt lat="45.78078" lon="2.95511">
        <ele>1087.8187873543</ele>
        <time>2019-04-27T15:15:55Z</time>
      </trkpt>
      <trkpt lat="45.7807" lon="2.95496">
        <ele>1087.8379362535</ele>
        <time>2019-04-27T15:16:04Z</time>
      </trkpt>
      <trkpt lat="45.78063" lon="2.95486">
        <ele>1087.8528730806</ele>
        <time>2019-04-27T15:16:13Z</time>
      </trkpt>
      <trkpt lat="45.78058" lon="2.95472">
        <ele>1087.8586121494</ele>
        <time>2019-04-27T15:16:21Z</time>
      </trkpt>
      <trkpt lat="45.78051" lon="2.95454">
        <ele>1087.8698853636</ele>
        <time>2019-04-27T15:16:30Z</time>
      </trkpt>
      <trkpt lat="45.78049" lon="2.95443">
        <ele>1087.8775040572</ele>
        <time>2019-04-27T15:16:38Z</time>
      </trkpt>
      <trkpt lat="45.78049" lon="2.95442">
        <ele>1087.8797094485</ele>
        <time>2019-04-27T15:16:49Z</time>
      </trkpt>
      <trkpt lat="45.7805" lon="2.95442">
        <ele>1087.8894514393</ele>
        <time>2019-04-27T15:17:14Z</time>
      </trkpt>
      <trkpt lat="45.78048" lon="2.95436">
        <ele>1087.9175397103</ele>
        <time>2019-04-27T15:17:23Z</time>
      </trkpt>
      <trkpt lat="45.78043" lon="2.95421">
        <ele>1087.951102127</ele>
        <time>2019-04-27T15:17:33Z</time>
      </trkpt>
      <trkpt lat="45.78038" lon="2.95409">
        <ele>1087.9742921885</ele>
        <time>2019-04-27T15:17:42Z</time>
      </trkpt>
      <trkpt lat="45.78035" lon="2.95399">
        <ele>1088.006899836</ele>
        <time>2019-04-27T15:17:51Z</time>
      </trkpt>
      <trkpt lat="45.78028" lon="2.95386">
        <ele>1088.0385998757</ele>
        <time>2019-04-27T15:18:01Z</time>
      </trkpt>
      <trkpt lat="45.78027" lon="2.95379">
        <ele>1088.0566653831</ele>
        <time>2019-04-27T15:18:10Z</time>
      </trkpt>
      <trkpt lat="45.78021" lon="2.95372">
        <ele>1088.0766074376</ele>
        <time>2019-04-27T15:18:19Z</time>
      </trkpt>
      <trkpt lat="45.78016" lon="2.95365">
        <ele>1088.0981980934</ele>
        <time>2019-04-27T15:18:28Z</time>
      </trkpt>
      <trkpt lat="45.78012" lon="2.95362">
        <ele>1088.1292032355</ele>
        <time>2019-04-27T15:18:38Z</time>
      </trkpt>
      <trkpt lat="45.78009" lon="2.95359">
        <ele>1088.157065684</ele>
        <time>2019-04-27T15:18:47Z</time>
      </trkpt>
      <trkpt lat="45.78006" lon="2.95359">
        <ele>1088.1848036547</ele>
        <time>2019-04-27T15:18:56Z</time>
      </trkpt>
      <trkpt lat="45.78004" lon="2.95355">
        <ele>1088.2068632756</ele>
        <time>2019-04-27T15:19:05Z</time>
      </trkpt>
      <trkpt lat="45.77997" lon="2.9535">
        <ele>1088.2230597967</ele>
        <time>2019-04-27T15:19:14Z</time>
      </trkpt>
      <trkpt lat="45.77989" lon="2.95342">
        <ele>1088.2423111825</ele>
        <time>2019-04-27T15:19:22Z</time>
      </trkpt>
      <trkpt lat="45.77987" lon="2.95338">
        <ele>1088.2542936741</ele>
        <time>2019-04-27T15:19:32Z</time>
      </trkpt>
      <trkpt lat="45.7798" lon="2.95336">
        <ele>1088.2640490421</ele>
        <time>2019-04-27T15:19:40Z</time>
      </trkpt>
      <trkpt lat="45.77973" lon="2.95336">
        <ele>1088.2784979389</ele>
        <time>2019-04-27T15:19:49Z</time>
      </trkpt>
      <trkpt lat="45.77967" lon="2.95336">
        <ele>1088.2868080885</ele>
        <time>2019-04-27T15:19:58Z</time>
      </trkpt>
      <trkpt lat="45.77957" lon="2.95331">
        <ele>1088.3024020386</ele>
        <time>2019-04-27T15:20:07Z</time>
      </trkpt>
      <trkpt lat="45.77948" lon="2.95323">
        <ele>1088.3061093081</ele>
        <time>2019-04-27T15:20:17Z</time>
      </trkpt>
      <trkpt lat="45.77941" lon="2.95321">
        <ele>1088.2869438372</ele>
        <time>2019-04-27T15:20:27Z</time>
      </trkpt>
      <trkpt lat="45.77933" lon="2.95315">
        <ele>1088.2577795579</ele>
        <time>2019-04-27T15:20:36Z</time>
      </trkpt>
      <trkpt lat="45.77927" lon="2.95306">
        <ele>1088.2200493067</ele>
        <time>2019-04-27T15:20:46Z</time>
      </trkpt>
      <trkpt lat="45.77911" lon="2.95295">
        <ele>1088.2077256556</ele>
        <time>2019-04-27T15:20:56Z</time>
      </trkpt>
      <trkpt lat="45.779" lon="2.95292">
        <ele>1088.1964863814</ele>
        <time>2019-04-27T15:21:05Z</time>
      </trkpt>
      <trkpt lat="45.77892" lon="2.95287">
        <ele>1088.1766065398</ele>
        <time>2019-04-27T15:21:14Z</time>
      </trkpt>
      <trkpt lat="45.77876" lon="2.95277">
        <ele>1088.163827514</ele>
        <time>2019-04-27T15:21:24Z</time>
      </trkpt>
      <trkpt lat="45.77867" lon="2.95273">
        <ele>1088.1558964191</ele>
        <time>2019-04-27T15:21:32Z</time>
      </trkpt>
      <trkpt lat="45.7786" lon="2.95273">
        <ele>1088.154047269</ele>
        <time>2019-04-27T15:21:42Z</time>
      </trkpt>
      <trkpt lat="45.77853" lon="2.95274">
        <ele>1088.1584564673</ele>
        <time>2019-04-27T15:21:51Z</time>
      </trkpt>
      <trkpt lat="45.77843" lon="2.95272">
        <ele>1088.1698054208</ele>
        <time>2019-04-27T15:22:00Z</time>
      </trkpt>
      <trkpt lat="45.77835" lon="2.95273">
        <ele>1088.1935861324</ele>
        <time>2019-04-27T15:22:09Z</time>
      </trkpt>
      <trkpt lat="45.7783" lon="2.95268">
        <ele>1088.2244926431</ele>
        <time>2019-04-27T15:22:17Z</time>
      </trkpt>
      <trkpt lat="45.77825" lon="2.9526">
        <ele>1088.2834338337</ele>
        <time>2019-04-27T15:22:26Z</time>
      </trkpt>
      <trkpt lat="45.7782" lon="2.95259">
        <ele>1088.3476537636</ele>
        <time>2019-04-27T15:22:35Z</time>
      </trkpt>
      <trkpt lat="45.77813" lon="2.95254">
        <ele>1088.4073153833</ele>
        <time>2019-04-27T15:22:45Z</time>
      </trkpt>
      <trkpt lat="45.77795" lon="2.95259">
        <ele>1088.4894027185</ele>
        <time>2019-04-27T15:22:55Z</time>
      </trkpt>
      <trkpt lat="45.77771" lon="2.9525">
        <ele>1088.5913414247</ele>
        <time>2019-04-27T15:23:04Z</time>
      </trkpt>
      <trkpt lat="45.77764" lon="2.95245">
        <ele>1088.6571496177</ele>
        <time>2019-04-27T15:23:12Z</time>
      </trkpt>
      <trkpt lat="45.77755" lon="2.95242">
        <ele>1088.7280405649</ele>
        <time>2019-04-27T15:23:21Z</time>
      </trkpt>
      <trkpt lat="45.77746" lon="2.9524">
        <ele>1088.8072574865</ele>
        <time>2019-04-27T15:23:30Z</time>
      </trkpt>
      <trkpt lat="45.77737" lon="2.95233">
        <ele>1088.8876099885</ele>
        <time>2019-04-27T15:23:39Z</time>
      </trkpt>
      <trkpt lat="45.77717" lon="2.95235">
        <ele>1088.9710463346</ele>
        <time>2019-04-27T15:23:49Z</time>
      </trkpt>
      <trkpt lat="45.77709" lon="2.95234">
        <ele>1089.0254085214</ele>
        <time>2019-04-27T15:23:58Z</time>
      </trkpt>
      <trkpt lat="45.77705" lon="2.95233">
        <ele>1089.0562226686</ele>
        <time>2019-04-27T15:24:06Z</time>
      </trkpt>
      <trkpt lat="45.77701" lon="2.95237">
        <ele>1089.0873923035</ele>
        <time>2019-04-27T15:24:14Z</time>
      </trkpt>
      <trkpt lat="45.77697" lon="2.95241">
        <ele>1089.1299619249</ele>
        <time>2019-04-27T15:24:23Z</time>
      </trkpt>
      <trkpt lat="45.77691" lon="2.95242">
        <ele>1089.196923335</ele>
        <time>2019-04-27T15:24:33Z</time>
      </trkpt>
      <trkpt lat="45.77687" lon="2.95241">
        <ele>1089.257508081</ele>
        <time>2019-04-27T15:24:41Z</time>
      </trkpt>
      <trkpt lat="45.77682" lon="2.9524">
        <ele>1089.3284467507</ele>
        <time>2019-04-27T15:24:51Z</time>
      </trkpt>
      <trkpt lat="45.77676" lon="2.95244">
        <ele>1089.4007385063</ele>
        <time>2019-04-27T15:25:01Z</time>
      </trkpt>
      <trkpt lat="45.77671" lon="2.95249">
        <ele>1089.4584025997</ele>
        <time>2019-04-27T15:25:09Z</time>
      </trkpt>
      <trkpt lat="45.7765" lon="2.95255">
        <ele>1089.5053050923</ele>
        <time>2019-04-27T15:25:19Z</time>
      </trkpt>
      <trkpt lat="45.77625" lon="2.95268">
        <ele>1089.5398161851</ele>
        <time>2019-04-27T15:25:28Z</time>
      </trkpt>
      <trkpt lat="45.77597" lon="2.95273">
        <ele>1089.5747721309</ele>
        <time>2019-04-27T15:25:38Z</time>
      </trkpt>
      <trkpt lat="45.77595" lon="2.95276">
        <ele>1089.5941083231</ele>
        <time>2019-04-27T15:25:47Z</time>
      </trkpt>
      <trkpt lat="45.77592" lon="2.95275">
        <ele>1089.6009835753</ele>
        <time>2019-04-27T15:25:55Z</time>
      </trkpt>
      <trkpt lat="45.77589" lon="2.95273">
        <ele>1089.6042957955</ele>
        <time>2019-04-27T15:26:03Z</time>
      </trkpt>
      <trkpt lat="45.77585" lon="2.95275">
        <ele>1089.6063715141</ele>
        <time>2019-04-27T15:26:12Z</time>
      </trkpt>
      <trkpt lat="45.77579" lon="2.95266">
        <ele>1089.5922086085</ele>
        <time>2019-04-27T15:26:21Z</time>
      </trkpt>
      <trkpt lat="45.77577" lon="2.95264">
        <ele>1089.5717947944</ele>
        <time>2019-04-27T15:26:30Z</time>
      </trkpt>
      <trkpt lat="45.77575" lon="2.95262">
        <ele>1089.5583038557</ele>
        <time>2019-04-27T15:26:38Z</time>
      </trkpt>
      <trkpt lat="45.77576" lon="2.95262">
        <ele>1089.5554677806</ele>
        <time>2019-04-27T15:26:47Z</time>
      </trkpt>
      <trkpt lat="45.77575" lon="2.9526">
        <ele>1089.5544590395</ele>
        <time>2019-04-27T15:26:56Z</time>
      </trkpt>
      <trkpt lat="45.77566" lon="2.95251">
        <ele>1089.5459905534</ele>
        <time>2019-04-27T15:27:05Z</time>
      </trkpt>
      <trkpt lat="45.77558" lon="2.95246">
        <ele>1089.529948704</ele>
        <time>2019-04-27T15:27:15Z</time>
      </trkpt>
      <trkpt lat="45.77554" lon="2.95236">
        <ele>1089.4993517222</ele>
        <time>2019-04-27T15:27:24Z</time>
      </trkpt>
      <trkpt lat="45.77547" lon="2.9523">
        <ele>1089.4665081404</ele>
        <time>2019-04-27T15:27:32Z</time>
      </trkpt>
      <trkpt lat="45.77536" lon="2.95225">
        <ele>1089.4425964987</ele>
        <time>2019-04-27T15:27:41Z</time>
      </trkpt>
      <trkpt lat="45.77523" lon="2.95218">
        <ele>1089.4240842821</ele>
        <time>2019-04-27T15:27:51Z</time>
      </trkpt>
      <trkpt lat="45.77513" lon="2.95214">
        <ele>1089.3988154987</ele>
        <time>2019-04-27T15:28:01Z</time>
      </trkpt>
      <trkpt lat="45.77503" lon="2.95204">
        <ele>1089.3720530819</ele>
        <time>2019-04-27T15:28:10Z</time>
      </trkpt>
      <trkpt lat="45.77496" lon="2.95203">
        <ele>1089.3447741477</ele>
        <time>2019-04-27T15:28:19Z</time>
      </trkpt>
      <trkpt lat="45.77485" lon="2.952">
        <ele>1089.3248313661</ele>
        <time>2019-04-27T15:28:29Z</time>
      </trkpt>
      <trkpt lat="45.77477" lon="2.95198">
        <ele>1089.3091796739</ele>
        <time>2019-04-27T15:28:38Z</time>
      </trkpt>
      <trkpt lat="45.77468" lon="2.95199">
        <ele>1089.2986740152</ele>
        <time>2019-04-27T15:28:47Z</time>
      </trkpt>
      <trkpt lat="45.77455" lon="2.95199">
        <ele>1089.2927175119</ele>
        <time>2019-04-27T15:28:55Z</time>
      </trkpt>
      <trkpt lat="45.77442" lon="2.95199">
        <ele>1089.2893784168</ele>
        <time>2019-04-27T15:29:04Z</time>
      </trkpt>
      <trkpt lat="45.77432" lon="2.95189">
        <ele>1089.2807581786</ele>
        <time>2019-04-27T15:29:13Z</time>
      </trkpt>
      <trkpt lat="45.77424" lon="2.95191">
        <ele>1089.2777729738</ele>
        <time>2019-04-27T15:29:23Z</time>
      </trkpt>
      <trkpt lat="45.77421" lon="2.95189">
        <ele>1089.2875868749</ele>
        <time>2019-04-27T15:29:31Z</time>
      </trkpt>
      <trkpt lat="45.77417" lon="2.95189">
        <ele>1089.3036292112</ele>
        <time>2019-04-27T15:29:41Z</time>
      </trkpt>
      <trkpt lat="45.77408" lon="2.95184">
        <ele>1089.3275568074</ele>
        <time>2019-04-27T15:29:50Z</time>
      </trkpt>
      <trkpt lat="45.77401" lon="2.95189">
        <ele>1089.3491892967</ele>
        <time>2019-04-27T15:29:58Z</time>
      </trkpt>
      <trkpt lat="45.77395" lon="2.95189">
        <ele>1089.3806918768</ele>
        <time>2019-04-27T15:30:08Z</time>
      </trkpt>
      <trkpt lat="45.77392" lon="2.9519">
        <ele>1089.403227303</ele>
        <time>2019-04-27T15:30:18Z</time>
      </trkpt>
      <trkpt lat="45.77391" lon="2.9519">
        <ele>1089.422804417</ele>
        <time>2019-04-27T15:30:28Z</time>
      </trkpt>
      <trkpt lat="45.7739" lon="2.9519">
        <ele>1089.4663909376</ele>
        <time>2019-04-27T15:30:38Z</time>
      </trkpt>
      <trkpt lat="45.77389" lon="2.95189">
        <ele>1089.4991486092</ele>
        <time>2019-04-27T15:30:47Z</time>
      </trkpt>
      <trkpt lat="45.77386" lon="2.95191">
        <ele>1089.5298636021</ele>
        <time>2019-04-27T15:30:57Z</time>
      </trkpt>
      <trkpt lat="45.77385" lon="2.95187">
        <ele>1089.5674740402</ele>
        <time>2019-04-27T15:31:07Z</time>
      </trkpt>
      <trkpt lat="45.77385" lon="2.95183">
        <ele>1089.5775739904</ele>
        <time>2019-04-27T15:31:16Z</time>
      </trkpt>
      <trkpt lat="45.77386" lon="2.95181">
        <ele>1089.5839868958</ele>
        <time>2019-04-27T15:31:24Z</time>
      </trkpt>
      <trkpt lat="45.77385" lon="2.95181">
        <ele>1089.5882638918</ele>
        <time>2019-04-27T15:31:34Z</time>
      </trkpt>
      <trkpt lat="45.77385" lon="2.95182">
        <ele>1089.5879540182</ele>
        <time>2019-04-27T15:31:43Z</time>
      </trkpt>
      <trkpt lat="45.77384" lon="2.95184">
        <ele>1089.58519621</ele>
        <time>2019-04-27T15:31:53Z</time>
      </trkpt>
      <trkpt lat="45.77379" lon="2.9519">
        <ele>1089.5939005081</ele>
        <time>2019-04-27T15:32:02Z</time>
      </trkpt>
      <trkpt lat="45.7737" lon="2.95196">
        <ele>1089.6131395764</ele>
        <time>2019-04-27T15:32:11Z</time>
      </trkpt>
      <trkpt lat="45.77366" lon="2.95197">
        <ele>1089.6246651384</ele>
        <time>2019-04-27T15:32:20Z</time>
      </trkpt>
      <trkpt lat="45.77361" lon="2.95196">
        <ele>1089.6418407814</ele>
        <time>2019-04-27T15:32:30Z</time>
      </trkpt>
      <trkpt lat="45.77351" lon="2.95195">
        <ele>1089.6849436255</ele>
        <time>2019-04-27T15:32:39Z</time>
      </trkpt>
      <trkpt lat="45.77338" lon="2.95199">
        <ele>1089.7400996891</ele>
        <time>2019-04-27T15:32:47Z</time>
      </trkpt>
      <trkpt lat="45.77326" lon="2.95205">
        <ele>1089.8240829289</ele>
        <time>2019-04-27T15:32:57Z</time>
      </trkpt>
      <trkpt lat="45.7732" lon="2.95203">
        <ele>1089.9368002379</ele>
        <time>2019-04-27T15:33:07Z</time>
      </trkpt>
      <trkpt lat="45.77315" lon="2.95202">
        <ele>1090.0463726737</ele>
        <time>2019-04-27T15:33:16Z</time>
      </trkpt>
      <trkpt lat="45.77309" lon="2.95207">
        <ele>1090.1449611026</ele>
        <time>2019-04-27T15:33:24Z</time>
      </trkpt>
      <trkpt lat="45.773" lon="2.95216">
        <ele>1090.2580162441</ele>
        <time>2019-04-27T15:33:33Z</time>
      </trkpt>
      <trkpt lat="45.77291" lon="2.95217">
        <ele>1090.3414759683</ele>
        <time>2019-04-27T15:33:43Z</time>
      </trkpt>
      <trkpt lat="45.77284" lon="2.95211">
        <ele>1090.44643746</ele>
        <time>2019-04-27T15:33:53Z</time>
      </trkpt>
      <trkpt lat="45.77279" lon="2.95203">
        <ele>1090.552276788</ele>
        <time>2019-04-27T15:34:02Z</time>
      </trkpt>
      <trkpt lat="45.7726" lon="2.95207">
        <ele>1090.644693721</ele>
        <time>2019-04-27T15:34:11Z</time>
      </trkpt>
      <trkpt lat="45.77243" lon="2.95208">
        <ele>1090.7467770148</ele>
        <time>2019-04-27T15:34:21Z</time>
      </trkpt>
      <trkpt lat="45.77234" lon="2.9521">
        <ele>1090.8207615793</ele>
        <time>2019-04-27T15:34:30Z</time>
      </trkpt>
      <trkpt lat="45.77228" lon="2.9522">
        <ele>1090.9162603593</ele>
        <time>2019-04-27T15:34:39Z</time>
      </trkpt>
      <trkpt lat="45.77217" lon="2.95222">
        <ele>1091.0069248116</ele>
        <time>2019-04-27T15:34:48Z</time>
      </trkpt>
      <trkpt lat="45.77209" lon="2.95229">
        <ele>1091.084922113</ele>
        <time>2019-04-27T15:34:57Z</time>
      </trkpt>
      <trkpt lat="45.77206" lon="2.95226">
        <ele>1091.1317988133</ele>
        <time>2019-04-27T15:35:05Z</time>
      </trkpt>
      <trkpt lat="45.77202" lon="2.9523">
        <ele>1091.1987723792</ele>
        <time>2019-04-27T15:35:13Z</time>
      </trkpt>
      <trkpt lat="45.77198" lon="2.95228">
        <ele>1091.2705233195</ele>
        <time>2019-04-27T15:35:22Z</time>
      </trkpt>
      <trkpt lat="45.77191" lon="2.95226">
        <ele>1091.3413960172</ele>
        <time>2019-04-27T15:35:32Z</time>
      </trkpt>
      <trkpt lat="45.77182" lon="2.95227">
        <ele>1091.3913644549</ele>
        <time>2019-04-27T15:35:40Z</time>
      </trkpt>
      <trkpt lat="45.77171" lon="2.95232">
        <ele>1091.4491126807</ele>
        <time>2019-04-27T15:35:50Z</time>
      </trkpt>
      <trkpt lat="45.77162" lon="2.95233">
        <ele>1091.4951534894</ele>
        <time>2019-04-27T15:35:59Z</time>
      </trkpt>
      <trkpt lat="45.77151" lon="2.95237">
        <ele>1091.5481006537</ele>
        <time>2019-04-27T15:36:09Z</time>
      </trkpt>
      <trkpt lat="45.77138" lon="2.95241">
        <ele>1091.5916339389</ele>
        <time>2019-04-27T15:36:18Z</time>
      </trkpt>
      <trkpt lat="45.7713" lon="2.95244">
        <ele>1091.6378233244</ele>
        <time>2019-04-27T15:36:28Z</time>
      </trkpt>
      <trkpt lat="45.77129" lon="2.95244">
        <ele>1091.6781037392</ele>
        <time>2019-04-27T15:36:37Z</time>
      </trkpt>
      <trkpt lat="45.77128" lon="2.95246">
        <ele>1091.7157176442</ele>
        <time>2019-04-27T15:36:47Z</time>
      </trkpt>
      <trkpt lat="45.77124" lon="2.95243">
        <ele>1091.756648183</ele>
        <time>2019-04-27T15:36:57Z</time>
      </trkpt>
      <trkpt lat="45.77114" lon="2.95246">
        <ele>1091.7971748973</ele>
        <time>2019-04-27T15:37:06Z</time>
      </trkpt>
      <trkpt lat="45.77102" lon="2.95255">
        <ele>1091.8399399711</ele>
        <time>2019-04-27T15:37:16Z</time>
      </trkpt>
      <trkpt lat="45.77093" lon="2.95267">
        <ele>1091.8679617026</ele>
        <time>2019-04-27T15:37:25Z</time>
      </trkpt>
      <trkpt lat="45.77095" lon="2.95267">
        <ele>1091.8996479239</ele>
        <time>2019-04-27T15:37:34Z</time>
      </trkpt>
      <trkpt lat="45.77095" lon="2.95267">
        <ele>1091.9346976035</ele>
        <time>2019-04-27T15:37:44Z</time>
      </trkpt>
      <trkpt lat="45.77102" lon="2.95263">
        <ele>1091.9521756902</ele>
        <time>2019-04-27T15:37:53Z</time>
      </trkpt>
      <trkpt lat="45.77105" lon="2.9526">
        <ele>1091.9459247237</ele>
        <time>2019-04-27T15:38:03Z</time>
      </trkpt>
      <trkpt lat="45.77108" lon="2.95254">
        <ele>1091.9384860416</ele>
        <time>2019-04-27T15:38:13Z</time>
      </trkpt>
      <trkpt lat="45.7711" lon="2.95255">
        <ele>1091.9421109644</ele>
        <time>2019-04-27T15:38:22Z</time>
      </trkpt>
      <trkpt lat="45.77103" lon="2.95267">
        <ele>1091.9635613192</ele>
        <time>2019-04-27T15:38:31Z</time>
      </trkpt>
      <trkpt lat="45.77099" lon="2.95276">
        <ele>1091.9976513196</ele>
        <time>2019-04-27T15:38:39Z</time>
      </trkpt>
      <trkpt lat="45.77099" lon="2.95271">
        <ele>1092.0232255831</ele>
        <time>2019-04-27T15:38:48Z</time>
      </trkpt>
      <trkpt lat="45.77099" lon="2.95269">
        <ele>1092.0271043122</ele>
        <time>2019-04-27T15:38:56Z</time>
      </trkpt>
      <trkpt lat="45.77099" lon="2.95268">
        <ele>1092.0486684569</ele>
        <time>2019-04-27T15:39:15Z</time>
      </trkpt>
      <trkpt lat="45.77097" lon="2.95267">
        <ele>1092.073958881</ele>
        <time>2019-04-27T15:39:24Z</time>
      </trkpt>
      <trkpt lat="45.77096" lon="2.95266">
        <ele>1092.063986623</ele>
        <time>2019-04-27T15:39:34Z</time>
      </trkpt>
      <trkpt lat="45.77096" lon="2.95265">
        <ele>1091.9779626516</ele>
        <time>2019-04-27T15:39:45Z</time>
      </trkpt>
      <trkpt lat="45.77096" lon="2.95268">
        <ele>1091.9732028267</ele>
        <time>2019-04-27T15:39:54Z</time>
      </trkpt>
      <trkpt lat="45.77095" lon="2.95269">
        <ele>1091.968960725</ele>
        <time>2019-04-27T15:40:03Z</time>
      </trkpt>
      <trkpt lat="45.77095" lon="2.95267">
        <ele>1091.9611638035</ele>
        <time>2019-04-27T15:40:11Z</time>
      </trkpt>
      <trkpt lat="45.77094" lon="2.95267">
        <ele>1091.8400793553</ele>
        <time>2019-04-27T15:40:21Z</time>
      </trkpt>
      <trkpt lat="45.77094" lon="2.95266">
        <ele>1091.8363780764</ele>
        <time>2019-04-27T15:40:29Z</time>
      </trkpt>
      <trkpt lat="45.77093" lon="2.95267">
        <ele>1091.8321713261</ele>
        <time>2019-04-27T15:40:39Z</time>
      </trkpt>
      <trkpt lat="45.77091" lon="2.9527">
        <ele>1091.8369303799</ele>
        <time>2019-04-27T15:40:48Z</time>
      </trkpt>
      <trkpt lat="45.77084" lon="2.95276">
        <ele>1091.8815377842</ele>
        <time>2019-04-27T15:40:58Z</time>
      </trkpt>
      <trkpt lat="45.7708" lon="2.9528">
        <ele>1091.964709798</ele>
        <time>2019-04-27T15:41:07Z</time>
      </trkpt>
      <trkpt lat="45.77077" lon="2.9528">
        <ele>1092.0273760592</ele>
        <time>2019-04-27T15:41:16Z</time>
      </trkpt>
      <trkpt lat="45.77076" lon="2.95278">
        <ele>1092.1739497751</ele>
        <time>2019-04-27T15:41:25Z</time>
      </trkpt>
      <trkpt lat="45.77074" lon="2.95275">
        <ele>1092.2652991266</ele>
        <time>2019-04-27T15:41:34Z</time>
      </trkpt>
      <trkpt lat="45.77073" lon="2.95276">
        <ele>1092.3177137501</ele>
        <time>2019-04-27T15:41:47Z</time>
      </trkpt>
      <trkpt lat="45.77077" lon="2.95283">
        <ele>1092.4187821587</ele>
        <time>2019-04-27T15:41:57Z</time>
      </trkpt>
      <trkpt lat="45.77076" lon="2.95282">
        <ele>1092.4358441366</ele>
        <time>2019-04-27T15:42:12Z</time>
      </trkpt>
      <trkpt lat="45.77076" lon="2.95274">
        <ele>1092.4356523318</ele>
        <time>2019-04-27T15:42:20Z</time>
      </trkpt>
      <trkpt lat="45.77077" lon="2.95273">
        <ele>1092.4389714991</ele>
        <time>2019-04-27T15:42:28Z</time>
      </trkpt>
      <trkpt lat="45.77079" lon="2.95272">
        <ele>1092.484440203</ele>
        <time>2019-04-27T15:42:37Z</time>
      </trkpt>
      <trkpt lat="45.7708" lon="2.95267">
        <ele>1092.5203485174</ele>
        <time>2019-04-27T15:42:46Z</time>
      </trkpt>
      <trkpt lat="45.77081" lon="2.95267">
        <ele>1092.5213007302</ele>
        <time>2019-04-27T15:42:56Z</time>
      </trkpt>
      <trkpt lat="45.77073" lon="2.95283">
        <ele>1092.5400625957</ele>
        <time>2019-04-27T15:43:05Z</time>
      </trkpt>
      <trkpt lat="45.77064" lon="2.95294">
        <ele>1092.5835072407</ele>
        <time>2019-04-27T15:43:15Z</time>
      </trkpt>
      <trkpt lat="45.77055" lon="2.95299">
        <ele>1092.6097257984</ele>
        <time>2019-04-27T15:43:24Z</time>
      </trkpt>
      <trkpt lat="45.77049" lon="2.95302">
        <ele>1092.6399643831</ele>
        <time>2019-04-27T15:43:33Z</time>
      </trkpt>
      <trkpt lat="45.77041" lon="2.95307">
        <ele>1092.6770364366</ele>
        <time>2019-04-27T15:43:42Z</time>
      </trkpt>
      <trkpt lat="45.77037" lon="2.95311">
        <ele>1092.7266436459</ele>
        <time>2019-04-27T15:43:50Z</time>
      </trkpt>
      <trkpt lat="45.77027" lon="2.95311">
        <ele>1092.7901494613</ele>
        <time>2019-04-27T15:43:59Z</time>
      </trkpt>
      <trkpt lat="45.77016" lon="2.95318">
        <ele>1092.856992619</ele>
        <time>2019-04-27T15:44:08Z</time>
      </trkpt>
      <trkpt lat="45.7701" lon="2.95319">
        <ele>1092.9177295895</ele>
        <time>2019-04-27T15:44:17Z</time>
      </trkpt>
      <trkpt lat="45.77008" lon="2.95321">
        <ele>1092.9956304141</ele>
        <time>2019-04-27T15:44:26Z</time>
      </trkpt>
      <trkpt lat="45.77003" lon="2.95322">
        <ele>1093.0815529034</ele>
        <time>2019-04-27T15:44:35Z</time>
      </trkpt>
      <trkpt lat="45.77" lon="2.95327">
        <ele>1093.1835191457</ele>
        <time>2019-04-27T15:44:44Z</time>
      </trkpt>
      <trkpt lat="45.76997" lon="2.95322">
        <ele>1093.2727169711</ele>
        <time>2019-04-27T15:44:54Z</time>
      </trkpt>
      <trkpt lat="45.76996" lon="2.95321">
        <ele>1093.3733566077</ele>
        <time>2019-04-27T15:45:03Z</time>
      </trkpt>
      <trkpt lat="45.76993" lon="2.95321">
        <ele>1093.4653877456</ele>
        <time>2019-04-27T15:45:12Z</time>
      </trkpt>
      <trkpt lat="45.76987" lon="2.95321">
        <ele>1093.5614230729</ele>
        <time>2019-04-27T15:45:21Z</time>
      </trkpt>
      <trkpt lat="45.76984" lon="2.95322">
        <ele>1093.6592372818</ele>
        <time>2019-04-27T15:45:30Z</time>
      </trkpt>
      <trkpt lat="45.76977" lon="2.9533">
        <ele>1093.755473597</ele>
        <time>2019-04-27T15:45:39Z</time>
      </trkpt>
      <trkpt lat="45.76975" lon="2.95332">
        <ele>1093.8443759788</ele>
        <time>2019-04-27T15:45:49Z</time>
      </trkpt>
      <trkpt lat="45.76972" lon="2.95333">
        <ele>1093.9204124998</ele>
        <time>2019-04-27T15:45:59Z</time>
      </trkpt>
      <trkpt lat="45.76966" lon="2.95331">
        <ele>1093.9690106168</ele>
        <time>2019-04-27T15:46:08Z</time>
      </trkpt>
      <trkpt lat="45.76963" lon="2.95334">
        <ele>1094.0055407127</ele>
        <time>2019-04-27T15:46:16Z</time>
      </trkpt>
      <trkpt lat="45.76951" lon="2.95339">
        <ele>1093.9823452734</ele>
        <time>2019-04-27T15:46:26Z</time>
      </trkpt>
      <trkpt lat="45.76942" lon="2.95341">
        <ele>1093.9722837359</ele>
        <time>2019-04-27T15:46:35Z</time>
      </trkpt>
      <trkpt lat="45.76939" lon="2.95346">
        <ele>1093.9780050113</ele>
        <time>2019-04-27T15:46:44Z</time>
      </trkpt>
      <trkpt lat="45.76932" lon="2.95352">
        <ele>1093.9886780979</ele>
        <time>2019-04-27T15:46:52Z</time>
      </trkpt>
      <trkpt lat="45.76924" lon="2.95356">
        <ele>1094.013865756</ele>
        <time>2019-04-27T15:47:02Z</time>
      </trkpt>
      <trkpt lat="45.7691" lon="2.95369">
        <ele>1094.0904801998</ele>
        <time>2019-04-27T15:47:11Z</time>
      </trkpt>
      <trkpt lat="45.76907" lon="2.95376">
        <ele>1094.1673688021</ele>
        <time>2019-04-27T15:47:19Z</time>
      </trkpt>
      <trkpt lat="45.76903" lon="2.95377">
        <ele>1094.260241025</ele>
        <time>2019-04-27T15:47:28Z</time>
      </trkpt>
      <trkpt lat="45.76897" lon="2.9538">
        <ele>1094.3592921827</ele>
        <time>2019-04-27T15:47:37Z</time>
      </trkpt>
      <trkpt lat="45.76884" lon="2.95387">
        <ele>1094.3974820609</ele>
        <time>2019-04-27T15:47:46Z</time>
      </trkpt>
      <trkpt lat="45.76875" lon="2.95393">
        <ele>1094.4258934289</ele>
        <time>2019-04-27T15:47:54Z</time>
      </trkpt>
      <trkpt lat="45.76864" lon="2.954">
        <ele>1094.4955395274</ele>
        <time>2019-04-27T15:48:04Z</time>
      </trkpt>
      <trkpt lat="45.76857" lon="2.95407">
        <ele>1094.577287466</ele>
        <time>2019-04-27T15:48:13Z</time>
      </trkpt>
      <trkpt lat="45.76851" lon="2.95411">
        <ele>1094.6989855373</ele>
        <time>2019-04-27T15:48:22Z</time>
      </trkpt>
      <trkpt lat="45.76846" lon="2.95415">
        <ele>1094.8119285771</ele>
        <time>2019-04-27T15:48:32Z</time>
      </trkpt>
      <trkpt lat="45.76835" lon="2.9541">
        <ele>1094.9514378347</ele>
        <time>2019-04-27T15:48:42Z</time>
      </trkpt>
      <trkpt lat="45.76811" lon="2.95404">
        <ele>1095.0762865786</ele>
        <time>2019-04-27T15:48:50Z</time>
      </trkpt>
      <trkpt lat="45.76788" lon="2.95405">
        <ele>1095.1784248331</ele>
        <time>2019-04-27T15:48:59Z</time>
      </trkpt>
      <trkpt lat="45.76782" lon="2.95407">
        <ele>1095.2753689813</ele>
        <time>2019-04-27T15:49:08Z</time>
      </trkpt>
      <trkpt lat="45.76779" lon="2.95406">
        <ele>1095.3409829808</ele>
        <time>2019-04-27T15:49:17Z</time>
      </trkpt>
      <trkpt lat="45.76773" lon="2.95409">
        <ele>1095.39676914</ele>
        <time>2019-04-27T15:49:26Z</time>
      </trkpt>
      <trkpt lat="45.76763" lon="2.95408">
        <ele>1095.4266522618</ele>
        <time>2019-04-27T15:49:35Z</time>
      </trkpt>
      <trkpt lat="45.76755" lon="2.95413">
        <ele>1095.4467389329</ele>
        <time>2019-04-27T15:49:45Z</time>
      </trkpt>
      <trkpt lat="45.76749" lon="2.95415">
        <ele>1095.479690618</ele>
        <time>2019-04-27T15:49:54Z</time>
      </trkpt>
      <trkpt lat="45.76742" lon="2.95416">
        <ele>1095.512302845</ele>
        <time>2019-04-27T15:50:03Z</time>
      </trkpt>
      <trkpt lat="45.76735" lon="2.95415">
        <ele>1095.5030737981</ele>
        <time>2019-04-27T15:50:11Z</time>
      </trkpt>
      <trkpt lat="45.76724" lon="2.95413">
        <ele>1095.5266162443</ele>
        <time>2019-04-27T15:50:19Z</time>
      </trkpt>
      <trkpt lat="45.76701" lon="2.95412">
        <ele>1095.5961965828</ele>
        <time>2019-04-27T15:50:28Z</time>
      </trkpt>
      <trkpt lat="45.76688" lon="2.9542">
        <ele>1095.676444871</ele>
        <time>2019-04-27T15:50:37Z</time>
      </trkpt>
      <trkpt lat="45.76681" lon="2.95425">
        <ele>1095.6977938545</ele>
        <time>2019-04-27T15:50:47Z</time>
      </trkpt>
      <trkpt lat="45.76659" lon="2.95433">
        <ele>1095.6581047456</ele>
        <time>2019-04-27T15:50:56Z</time>
      </trkpt>
      <trkpt lat="45.76646" lon="2.95442">
        <ele>1095.660241202</ele>
        <time>2019-04-27T15:51:05Z</time>
      </trkpt>
      <trkpt lat="45.76636" lon="2.95447">
        <ele>1095.6839312511</ele>
        <time>2019-04-27T15:51:14Z</time>
      </trkpt>
      <trkpt lat="45.76623" lon="2.95451">
        <ele>1095.7139801822</ele>
        <time>2019-04-27T15:51:24Z</time>
      </trkpt>
      <trkpt lat="45.76613" lon="2.9546">
        <ele>1095.7529501875</ele>
        <time>2019-04-27T15:51:33Z</time>
      </trkpt>
      <trkpt lat="45.76609" lon="2.95468">
        <ele>1095.8062931366</ele>
        <time>2019-04-27T15:51:41Z</time>
      </trkpt>
      <trkpt lat="45.76603" lon="2.95474">
        <ele>1095.8444899018</ele>
        <time>2019-04-27T15:51:49Z</time>
      </trkpt>
      <trkpt lat="45.76593" lon="2.95478">
        <ele>1095.8000953134</ele>
        <time>2019-04-27T15:51:59Z</time>
      </trkpt>
      <trkpt lat="45.76589" lon="2.95482">
        <ele>1095.7464021474</ele>
        <time>2019-04-27T15:52:08Z</time>
      </trkpt>
      <trkpt lat="45.76586" lon="2.95487">
        <ele>1095.7346669219</ele>
        <time>2019-04-27T15:52:17Z</time>
      </trkpt>
      <trkpt lat="45.76584" lon="2.95493">
        <ele>1095.7544886829</ele>
        <time>2019-04-27T15:52:26Z</time>
      </trkpt>
      <trkpt lat="45.76572" lon="2.95503">
        <ele>1095.8078584316</ele>
        <time>2019-04-27T15:52:35Z</time>
      </trkpt>
      <trkpt lat="45.76561" lon="2.95508">
        <ele>1095.864532133</ele>
        <time>2019-04-27T15:52:43Z</time>
      </trkpt>
      <trkpt lat="45.76554" lon="2.95511">
        <ele>1095.9190676266</ele>
        <time>2019-04-27T15:52:53Z</time>
      </trkpt>
      <trkpt lat="45.76547" lon="2.95512">
        <ele>1095.9702830998</ele>
        <time>2019-04-27T15:53:02Z</time>
      </trkpt>
      <trkpt lat="45.7654" lon="2.95512">
        <ele>1096.0047072832</ele>
        <time>2019-04-27T15:53:12Z</time>
      </trkpt>
      <trkpt lat="45.76539" lon="2.95512">
        <ele>1096.0261272387</ele>
        <time>2019-04-27T15:53:24Z</time>
      </trkpt>
      <trkpt lat="45.76539" lon="2.95515">
        <ele>1096.0322330454</ele>
        <time>2019-04-27T15:53:33Z</time>
      </trkpt>
      <trkpt lat="45.76538" lon="2.95511">
        <ele>1096.0267308061</ele>
        <time>2019-04-27T15:53:42Z</time>
      </trkpt>
      <trkpt lat="45.76537" lon="2.95509">
        <ele>1096.0188427875</ele>
        <time>2019-04-27T15:53:51Z</time>
      </trkpt>
      <trkpt lat="45.76536" lon="2.9551">
        <ele>1096.005079759</ele>
        <time>2019-04-27T15:54:01Z</time>
      </trkpt>
      <trkpt lat="45.76532" lon="2.95513">
        <ele>1095.992360012</ele>
        <time>2019-04-27T15:54:10Z</time>
      </trkpt>
      <trkpt lat="45.7653" lon="2.95512">
        <ele>1095.9922608715</ele>
        <time>2019-04-27T15:54:20Z</time>
      </trkpt>
      <trkpt lat="45.76532" lon="2.95508">
        <ele>1095.9823695608</ele>
        <time>2019-04-27T15:54:30Z</time>
      </trkpt>
      <trkpt lat="45.76536" lon="2.95509">
        <ele>1095.9774179737</ele>
        <time>2019-04-27T15:54:40Z</time>
      </trkpt>
      <trkpt lat="45.76534" lon="2.95507">
        <ele>1095.9786845345</ele>
        <time>2019-04-27T15:54:48Z</time>
      </trkpt>
      <trkpt lat="45.76532" lon="2.95503">
        <ele>1095.9812421446</ele>
        <time>2019-04-27T15:54:57Z</time>
      </trkpt>
      <trkpt lat="45.76533" lon="2.95504">
        <ele>1095.9842821414</ele>
        <time>2019-04-27T15:55:07Z</time>
      </trkpt>
      <trkpt lat="45.76529" lon="2.95503">
        <ele>1095.9946366595</ele>
        <time>2019-04-27T15:55:17Z</time>
      </trkpt>
      <trkpt lat="45.76528" lon="2.95504">
        <ele>1096.0004332079</ele>
        <time>2019-04-27T15:55:27Z</time>
      </trkpt>
      <trkpt lat="45.76522" lon="2.9551">
        <ele>1096.0272639116</ele>
        <time>2019-04-27T15:55:36Z</time>
      </trkpt>
      <trkpt lat="45.76516" lon="2.95516">
        <ele>1096.0553989648</ele>
        <time>2019-04-27T15:55:45Z</time>
      </trkpt>
      <trkpt lat="45.76511" lon="2.95521">
        <ele>1096.0673241987</ele>
        <time>2019-04-27T15:55:54Z</time>
      </trkpt>
      <trkpt lat="45.76486" lon="2.95526">
        <ele>1096.0046556787</ele>
        <time>2019-04-27T15:56:03Z</time>
      </trkpt>
      <trkpt lat="45.76473" lon="2.95525">
        <ele>1095.946938163</ele>
        <time>2019-04-27T15:56:12Z</time>
      </trkpt>
      <trkpt lat="45.76458" lon="2.95526">
        <ele>1095.9058645079</ele>
        <time>2019-04-27T15:56:21Z</time>
      </trkpt>
      <trkpt lat="45.76443" lon="2.9553">
        <ele>1095.858183382</ele>
        <time>2019-04-27T15:56:29Z</time>
      </trkpt>
      <trkpt lat="45.76435" lon="2.95536">
        <ele>1095.8179634232</ele>
        <time>2019-04-27T15:56:39Z</time>
      </trkpt>
      <trkpt lat="45.76433" lon="2.95543">
        <ele>1095.7982075401</ele>
        <time>2019-04-27T15:56:48Z</time>
      </trkpt>
      <trkpt lat="45.76433" lon="2.95546">
        <ele>1095.7947730937</ele>
        <time>2019-04-27T15:56:50Z</time>
      </trkpt>
      <trkpt lat="45.76433" lon="2.95546">
        <ele>1095.7947730937</ele>
        <time>2019-04-27T15:56:52Z</time>
      </trkpt>
    </trkseg>
  </trk>
</gpx>